<?xml version="1.0" encoding="UTF-8" standalone="no" ?>
<gpx xmlns="http://www.topografix.com/GPX/1/1" xmlns:xsi="http://www.w3.org/2001/XMLSchema-instance" xsi:schemaLocation="http://www.topografix.com/GPX/1/1 http://www.topografix.com/GPX/1/1/gpx.xsd" version="1.1" creator="VisuGPX - https://www.visugpx.com">
  <metadata>
    <name>Vtt route ZunGroupe</name>
  </metadata>
  <trk>
    <name><![CDATA[Vtt route ZunGroupe_1]]></name>
    <trkseg>
      <trkpt lat="43.89274" lon="1.87741">
        <ele>134.6</ele>
        <time>2021-09-23T16:30:30Z</time>
      </trkpt>
      <trkpt lat="43.89274" lon="1.87741">
        <ele>135.6</ele>
        <time>2021-09-23T16:30:31Z</time>
      </trkpt>
      <trkpt lat="43.89296" lon="1.87731">
        <ele>137.4</ele>
        <time>2021-09-23T16:37:45Z</time>
      </trkpt>
      <trkpt lat="43.893" lon="1.87729">
        <ele>137.4</ele>
        <time>2021-09-23T16:37:47Z</time>
      </trkpt>
      <trkpt lat="43.89306" lon="1.87724">
        <ele>137.4</ele>
        <time>2021-09-23T16:37:50Z</time>
      </trkpt>
      <trkpt lat="43.89307" lon="1.87722">
        <ele>137.4</ele>
        <time>2021-09-23T16:37:51Z</time>
      </trkpt>
      <trkpt lat="43.89312" lon="1.87718">
        <ele>137.4</ele>
        <time>2021-09-23T16:37:53Z</time>
      </trkpt>
      <trkpt lat="43.89314" lon="1.87719">
        <ele>137.4</ele>
        <time>2021-09-23T16:37:54Z</time>
      </trkpt>
      <trkpt lat="43.89316" lon="1.87721">
        <ele>137.4</ele>
        <time>2021-09-23T16:37:55Z</time>
      </trkpt>
      <trkpt lat="43.89317" lon="1.87724">
        <ele>137.4</ele>
        <time>2021-09-23T16:37:56Z</time>
      </trkpt>
      <trkpt lat="43.89318" lon="1.87736">
        <ele>137.4</ele>
        <time>2021-09-23T16:37:59Z</time>
      </trkpt>
      <trkpt lat="43.89319" lon="1.87741">
        <ele>137.4</ele>
        <time>2021-09-23T16:38:00Z</time>
      </trkpt>
      <trkpt lat="43.89322" lon="1.87757">
        <ele>137.6</ele>
        <time>2021-09-23T16:38:04Z</time>
      </trkpt>
      <trkpt lat="43.8933" lon="1.87799">
        <ele>137.8</ele>
        <time>2021-09-23T16:38:13Z</time>
      </trkpt>
      <trkpt lat="43.89341" lon="1.87856">
        <ele>137.8</ele>
        <time>2021-09-23T16:38:24Z</time>
      </trkpt>
      <trkpt lat="43.89353" lon="1.87909">
        <ele>138.4</ele>
        <time>2021-09-23T16:38:34Z</time>
      </trkpt>
      <trkpt lat="43.89366" lon="1.87957">
        <ele>138.4</ele>
        <time>2021-09-23T16:38:43Z</time>
      </trkpt>
      <trkpt lat="43.89368" lon="1.87962">
        <ele>138.4</ele>
        <time>2021-09-23T16:38:44Z</time>
      </trkpt>
      <trkpt lat="43.89371" lon="1.87972">
        <ele>138.4</ele>
        <time>2021-09-23T16:38:46Z</time>
      </trkpt>
      <trkpt lat="43.89373" lon="1.87977">
        <ele>138.4</ele>
        <time>2021-09-23T16:38:47Z</time>
      </trkpt>
      <trkpt lat="43.89376" lon="1.87987">
        <ele>138.4</ele>
        <time>2021-09-23T16:38:49Z</time>
      </trkpt>
      <trkpt lat="43.89377" lon="1.87991">
        <ele>138.4</ele>
        <time>2021-09-23T16:38:50Z</time>
      </trkpt>
      <trkpt lat="43.89378" lon="1.87996">
        <ele>138.4</ele>
        <time>2021-09-23T16:38:51Z</time>
      </trkpt>
      <trkpt lat="43.8938" lon="1.88001">
        <ele>138.6</ele>
        <time>2021-09-23T16:38:52Z</time>
      </trkpt>
      <trkpt lat="43.89381" lon="1.88006">
        <ele>138.6</ele>
        <time>2021-09-23T16:38:53Z</time>
      </trkpt>
      <trkpt lat="43.89383" lon="1.88011">
        <ele>138.6</ele>
        <time>2021-09-23T16:38:54Z</time>
      </trkpt>
      <trkpt lat="43.89383" lon="1.88015">
        <ele>138.6</ele>
        <time>2021-09-23T16:38:55Z</time>
      </trkpt>
      <trkpt lat="43.89383" lon="1.88024">
        <ele>138.6</ele>
        <time>2021-09-23T16:38:57Z</time>
      </trkpt>
      <trkpt lat="43.89381" lon="1.88029">
        <ele>138.6</ele>
        <time>2021-09-23T16:38:58Z</time>
      </trkpt>
      <trkpt lat="43.8938" lon="1.88033">
        <ele>138.8</ele>
        <time>2021-09-23T16:38:59Z</time>
      </trkpt>
      <trkpt lat="43.89379" lon="1.88037">
        <ele>138.6</ele>
        <time>2021-09-23T16:39:00Z</time>
      </trkpt>
      <trkpt lat="43.89377" lon="1.88041">
        <ele>138.8</ele>
        <time>2021-09-23T16:39:01Z</time>
      </trkpt>
      <trkpt lat="43.89374" lon="1.88044">
        <ele>138.6</ele>
        <time>2021-09-23T16:39:02Z</time>
      </trkpt>
      <trkpt lat="43.89371" lon="1.88047">
        <ele>139</ele>
        <time>2021-09-23T16:39:03Z</time>
      </trkpt>
      <trkpt lat="43.89368" lon="1.88049">
        <ele>139</ele>
        <time>2021-09-23T16:39:04Z</time>
      </trkpt>
      <trkpt lat="43.89365" lon="1.88053">
        <ele>139</ele>
        <time>2021-09-23T16:39:05Z</time>
      </trkpt>
      <trkpt lat="43.89363" lon="1.88056">
        <ele>139</ele>
        <time>2021-09-23T16:39:06Z</time>
      </trkpt>
      <trkpt lat="43.89361" lon="1.88061">
        <ele>139.2</ele>
        <time>2021-09-23T16:39:07Z</time>
      </trkpt>
      <trkpt lat="43.8936" lon="1.88066">
        <ele>139</ele>
        <time>2021-09-23T16:39:08Z</time>
      </trkpt>
      <trkpt lat="43.8936" lon="1.88072">
        <ele>139.2</ele>
        <time>2021-09-23T16:39:09Z</time>
      </trkpt>
      <trkpt lat="43.89362" lon="1.88078">
        <ele>139.2</ele>
        <time>2021-09-23T16:39:10Z</time>
      </trkpt>
      <trkpt lat="43.89365" lon="1.88083">
        <ele>139.2</ele>
        <time>2021-09-23T16:39:11Z</time>
      </trkpt>
      <trkpt lat="43.8938" lon="1.88103">
        <ele>139.2</ele>
        <time>2021-09-23T16:39:15Z</time>
      </trkpt>
      <trkpt lat="43.89389" lon="1.88112">
        <ele>139.2</ele>
        <time>2021-09-23T16:39:17Z</time>
      </trkpt>
      <trkpt lat="43.89393" lon="1.88116">
        <ele>139.2</ele>
        <time>2021-09-23T16:39:18Z</time>
      </trkpt>
      <trkpt lat="43.89398" lon="1.88119">
        <ele>139.2</ele>
        <time>2021-09-23T16:39:19Z</time>
      </trkpt>
      <trkpt lat="43.89409" lon="1.88122">
        <ele>139.4</ele>
        <time>2021-09-23T16:39:21Z</time>
      </trkpt>
      <trkpt lat="43.89413" lon="1.88125">
        <ele>139.4</ele>
        <time>2021-09-23T16:39:22Z</time>
      </trkpt>
      <trkpt lat="43.89418" lon="1.8813">
        <ele>139.4</ele>
        <time>2021-09-23T16:39:23Z</time>
      </trkpt>
      <trkpt lat="43.89422" lon="1.88135">
        <ele>139.4</ele>
        <time>2021-09-23T16:39:24Z</time>
      </trkpt>
      <trkpt lat="43.89426" lon="1.8814">
        <ele>139.4</ele>
        <time>2021-09-23T16:39:25Z</time>
      </trkpt>
      <trkpt lat="43.89431" lon="1.88145">
        <ele>139.4</ele>
        <time>2021-09-23T16:39:26Z</time>
      </trkpt>
      <trkpt lat="43.89434" lon="1.8815">
        <ele>139.4</ele>
        <time>2021-09-23T16:39:27Z</time>
      </trkpt>
      <trkpt lat="43.89456" lon="1.88176">
        <ele>139.6</ele>
        <time>2021-09-23T16:39:32Z</time>
      </trkpt>
      <trkpt lat="43.8946" lon="1.88181">
        <ele>139.6</ele>
        <time>2021-09-23T16:39:33Z</time>
      </trkpt>
      <trkpt lat="43.89466" lon="1.88193">
        <ele>139.8</ele>
        <time>2021-09-23T16:39:35Z</time>
      </trkpt>
      <trkpt lat="43.89468" lon="1.882">
        <ele>139.8</ele>
        <time>2021-09-23T16:39:36Z</time>
      </trkpt>
      <trkpt lat="43.89468" lon="1.88207">
        <ele>139.8</ele>
        <time>2021-09-23T16:39:37Z</time>
      </trkpt>
      <trkpt lat="43.89467" lon="1.88214">
        <ele>139.8</ele>
        <time>2021-09-23T16:39:38Z</time>
      </trkpt>
      <trkpt lat="43.89465" lon="1.88221">
        <ele>139.6</ele>
        <time>2021-09-23T16:39:39Z</time>
      </trkpt>
      <trkpt lat="43.89463" lon="1.88226">
        <ele>139.8</ele>
        <time>2021-09-23T16:39:40Z</time>
      </trkpt>
      <trkpt lat="43.8946" lon="1.88234">
        <ele>139.8</ele>
        <time>2021-09-23T16:39:41Z</time>
      </trkpt>
      <trkpt lat="43.89458" lon="1.88241">
        <ele>140</ele>
        <time>2021-09-23T16:39:42Z</time>
      </trkpt>
      <trkpt lat="43.89441" lon="1.88281">
        <ele>140</ele>
        <time>2021-09-23T16:39:48Z</time>
      </trkpt>
      <trkpt lat="43.89424" lon="1.88322">
        <ele>139.8</ele>
        <time>2021-09-23T16:39:54Z</time>
      </trkpt>
      <trkpt lat="43.89424" lon="1.88328">
        <ele>139.6</ele>
        <time>2021-09-23T16:39:55Z</time>
      </trkpt>
      <trkpt lat="43.89425" lon="1.88336">
        <ele>139.6</ele>
        <time>2021-09-23T16:39:56Z</time>
      </trkpt>
      <trkpt lat="43.89428" lon="1.88341">
        <ele>139.6</ele>
        <time>2021-09-23T16:39:57Z</time>
      </trkpt>
      <trkpt lat="43.89432" lon="1.88344">
        <ele>139.4</ele>
        <time>2021-09-23T16:39:58Z</time>
      </trkpt>
      <trkpt lat="43.89436" lon="1.88346">
        <ele>139.2</ele>
        <time>2021-09-23T16:39:59Z</time>
      </trkpt>
      <trkpt lat="43.89441" lon="1.88348">
        <ele>139.2</ele>
        <time>2021-09-23T16:40:00Z</time>
      </trkpt>
      <trkpt lat="43.89447" lon="1.88351">
        <ele>139.2</ele>
        <time>2021-09-23T16:40:01Z</time>
      </trkpt>
      <trkpt lat="43.89499" lon="1.88377">
        <ele>139</ele>
        <time>2021-09-23T16:40:11Z</time>
      </trkpt>
      <trkpt lat="43.89503" lon="1.88379">
        <ele>139</ele>
        <time>2021-09-23T16:40:12Z</time>
      </trkpt>
      <trkpt lat="43.89538" lon="1.88397">
        <ele>139</ele>
        <time>2021-09-23T16:40:18Z</time>
      </trkpt>
      <trkpt lat="43.89555" lon="1.88405">
        <ele>139</ele>
        <time>2021-09-23T16:40:21Z</time>
      </trkpt>
      <trkpt lat="43.896" lon="1.88434">
        <ele>139</ele>
        <time>2021-09-23T16:40:29Z</time>
      </trkpt>
      <trkpt lat="43.89636" lon="1.88467">
        <ele>138.4</ele>
        <time>2021-09-23T16:40:36Z</time>
      </trkpt>
      <trkpt lat="43.89641" lon="1.88472">
        <ele>138.4</ele>
        <time>2021-09-23T16:40:37Z</time>
      </trkpt>
      <trkpt lat="43.89675" lon="1.88507">
        <ele>138.4</ele>
        <time>2021-09-23T16:40:44Z</time>
      </trkpt>
      <trkpt lat="43.8968" lon="1.88512">
        <ele>138.4</ele>
        <time>2021-09-23T16:40:45Z</time>
      </trkpt>
      <trkpt lat="43.89686" lon="1.88518">
        <ele>138.4</ele>
        <time>2021-09-23T16:40:46Z</time>
      </trkpt>
      <trkpt lat="43.8969" lon="1.88524">
        <ele>138.4</ele>
        <time>2021-09-23T16:40:47Z</time>
      </trkpt>
      <trkpt lat="43.89695" lon="1.88529">
        <ele>138.6</ele>
        <time>2021-09-23T16:40:48Z</time>
      </trkpt>
      <trkpt lat="43.89699" lon="1.88533">
        <ele>138.6</ele>
        <time>2021-09-23T16:40:49Z</time>
      </trkpt>
      <trkpt lat="43.89704" lon="1.8854">
        <ele>138.6</ele>
        <time>2021-09-23T16:40:50Z</time>
      </trkpt>
      <trkpt lat="43.89709" lon="1.88545">
        <ele>138.6</ele>
        <time>2021-09-23T16:40:51Z</time>
      </trkpt>
      <trkpt lat="43.89712" lon="1.88549">
        <ele>139</ele>
        <time>2021-09-23T16:40:52Z</time>
      </trkpt>
      <trkpt lat="43.89717" lon="1.88554">
        <ele>139</ele>
        <time>2021-09-23T16:40:53Z</time>
      </trkpt>
      <trkpt lat="43.89741" lon="1.88581">
        <ele>139.2</ele>
        <time>2021-09-23T16:40:58Z</time>
      </trkpt>
      <trkpt lat="43.89766" lon="1.88613">
        <ele>139.2</ele>
        <time>2021-09-23T16:41:04Z</time>
      </trkpt>
      <trkpt lat="43.89768" lon="1.88621">
        <ele>139.2</ele>
        <time>2021-09-23T16:41:05Z</time>
      </trkpt>
      <trkpt lat="43.8977" lon="1.88629">
        <ele>139.2</ele>
        <time>2021-09-23T16:41:06Z</time>
      </trkpt>
      <trkpt lat="43.89771" lon="1.88637">
        <ele>139.2</ele>
        <time>2021-09-23T16:41:07Z</time>
      </trkpt>
      <trkpt lat="43.89772" lon="1.88645">
        <ele>139.2</ele>
        <time>2021-09-23T16:41:08Z</time>
      </trkpt>
      <trkpt lat="43.89774" lon="1.88667">
        <ele>139.2</ele>
        <time>2021-09-23T16:41:11Z</time>
      </trkpt>
      <trkpt lat="43.89776" lon="1.88683">
        <ele>139.2</ele>
        <time>2021-09-23T16:41:13Z</time>
      </trkpt>
      <trkpt lat="43.89782" lon="1.88755">
        <ele>139</ele>
        <time>2021-09-23T16:41:22Z</time>
      </trkpt>
      <trkpt lat="43.89786" lon="1.88789">
        <ele>139.2</ele>
        <time>2021-09-23T16:41:26Z</time>
      </trkpt>
      <trkpt lat="43.89787" lon="1.88796">
        <ele>139.2</ele>
        <time>2021-09-23T16:41:27Z</time>
      </trkpt>
      <trkpt lat="43.89788" lon="1.88812">
        <ele>139.4</ele>
        <time>2021-09-23T16:41:29Z</time>
      </trkpt>
      <trkpt lat="43.89789" lon="1.8882">
        <ele>139.6</ele>
        <time>2021-09-23T16:41:30Z</time>
      </trkpt>
      <trkpt lat="43.89792" lon="1.88836">
        <ele>139.6</ele>
        <time>2021-09-23T16:41:32Z</time>
      </trkpt>
      <trkpt lat="43.89793" lon="1.88844">
        <ele>139.6</ele>
        <time>2021-09-23T16:41:33Z</time>
      </trkpt>
      <trkpt lat="43.89794" lon="1.88859">
        <ele>139.6</ele>
        <time>2021-09-23T16:41:35Z</time>
      </trkpt>
      <trkpt lat="43.89797" lon="1.88874">
        <ele>139.6</ele>
        <time>2021-09-23T16:41:37Z</time>
      </trkpt>
      <trkpt lat="43.89798" lon="1.88882">
        <ele>139.6</ele>
        <time>2021-09-23T16:41:38Z</time>
      </trkpt>
      <trkpt lat="43.89799" lon="1.88889">
        <ele>139.6</ele>
        <time>2021-09-23T16:41:39Z</time>
      </trkpt>
      <trkpt lat="43.898" lon="1.88897">
        <ele>139.8</ele>
        <time>2021-09-23T16:41:40Z</time>
      </trkpt>
      <trkpt lat="43.89801" lon="1.88903">
        <ele>139.8</ele>
        <time>2021-09-23T16:41:41Z</time>
      </trkpt>
      <trkpt lat="43.89802" lon="1.8891">
        <ele>139.8</ele>
        <time>2021-09-23T16:41:42Z</time>
      </trkpt>
      <trkpt lat="43.89804" lon="1.88917">
        <ele>139.8</ele>
        <time>2021-09-23T16:41:43Z</time>
      </trkpt>
      <trkpt lat="43.89805" lon="1.88924">
        <ele>139.8</ele>
        <time>2021-09-23T16:41:44Z</time>
      </trkpt>
      <trkpt lat="43.89806" lon="1.88931">
        <ele>139.8</ele>
        <time>2021-09-23T16:41:45Z</time>
      </trkpt>
      <trkpt lat="43.89807" lon="1.88937">
        <ele>139.8</ele>
        <time>2021-09-23T16:41:46Z</time>
      </trkpt>
      <trkpt lat="43.89809" lon="1.88945">
        <ele>139.8</ele>
        <time>2021-09-23T16:41:47Z</time>
      </trkpt>
      <trkpt lat="43.8981" lon="1.88951">
        <ele>139.8</ele>
        <time>2021-09-23T16:41:48Z</time>
      </trkpt>
      <trkpt lat="43.8981" lon="1.88957">
        <ele>139.8</ele>
        <time>2021-09-23T16:41:49Z</time>
      </trkpt>
      <trkpt lat="43.89812" lon="1.8897">
        <ele>139.6</ele>
        <time>2021-09-23T16:41:51Z</time>
      </trkpt>
      <trkpt lat="43.89814" lon="1.88978">
        <ele>139.6</ele>
        <time>2021-09-23T16:41:52Z</time>
      </trkpt>
      <trkpt lat="43.89815" lon="1.88983">
        <ele>139.4</ele>
        <time>2021-09-23T16:41:53Z</time>
      </trkpt>
      <trkpt lat="43.89816" lon="1.88988">
        <ele>139.2</ele>
        <time>2021-09-23T16:41:54Z</time>
      </trkpt>
      <trkpt lat="43.89818" lon="1.88993">
        <ele>139</ele>
        <time>2021-09-23T16:41:55Z</time>
      </trkpt>
      <trkpt lat="43.89819" lon="1.88996">
        <ele>138.8</ele>
        <time>2021-09-23T16:41:56Z</time>
      </trkpt>
      <trkpt lat="43.89821" lon="1.88998">
        <ele>138.8</ele>
        <time>2021-09-23T16:41:57Z</time>
      </trkpt>
      <trkpt lat="43.89823" lon="1.89">
        <ele>138.4</ele>
        <time>2021-09-23T16:41:58Z</time>
      </trkpt>
      <trkpt lat="43.89824" lon="1.89002">
        <ele>138.2</ele>
        <time>2021-09-23T16:41:59Z</time>
      </trkpt>
      <trkpt lat="43.89825" lon="1.89003">
        <ele>138</ele>
        <time>2021-09-23T16:42:00Z</time>
      </trkpt>
      <trkpt lat="43.89827" lon="1.89003">
        <ele>138</ele>
        <time>2021-09-23T16:42:01Z</time>
      </trkpt>
      <trkpt lat="43.89828" lon="1.89002">
        <ele>138</ele>
        <time>2021-09-23T16:42:02Z</time>
      </trkpt>
      <trkpt lat="43.89829" lon="1.89001">
        <ele>138</ele>
        <time>2021-09-23T16:42:03Z</time>
      </trkpt>
      <trkpt lat="43.89831" lon="1.89">
        <ele>138</ele>
        <time>2021-09-23T16:42:04Z</time>
      </trkpt>
      <trkpt lat="43.89832" lon="1.88999">
        <ele>137.8</ele>
        <time>2021-09-23T16:42:05Z</time>
      </trkpt>
      <trkpt lat="43.89831" lon="1.88997">
        <ele>137.8</ele>
        <time>2021-09-23T16:42:06Z</time>
      </trkpt>
      <trkpt lat="43.8983" lon="1.88996">
        <ele>137.8</ele>
        <time>2021-09-23T16:42:07Z</time>
      </trkpt>
      <trkpt lat="43.89824" lon="1.88998">
        <ele>137.8</ele>
        <time>2021-09-23T16:42:10Z</time>
      </trkpt>
      <trkpt lat="43.89825" lon="1.89002">
        <ele>137.6</ele>
        <time>2021-09-23T16:42:12Z</time>
      </trkpt>
      <trkpt lat="43.8983" lon="1.8901">
        <ele>137.4</ele>
        <time>2021-09-23T16:42:16Z</time>
      </trkpt>
      <trkpt lat="43.89833" lon="1.89015">
        <ele>137.4</ele>
        <time>2021-09-23T16:42:18Z</time>
      </trkpt>
      <trkpt lat="43.89842" lon="1.89034">
        <ele>137.6</ele>
        <time>2021-09-23T16:42:26Z</time>
      </trkpt>
      <trkpt lat="43.89849" lon="1.89047">
        <ele>138.2</ele>
        <time>2021-09-23T16:42:30Z</time>
      </trkpt>
      <trkpt lat="43.89851" lon="1.8905">
        <ele>138.4</ele>
        <time>2021-09-23T16:42:31Z</time>
      </trkpt>
      <trkpt lat="43.89853" lon="1.89054">
        <ele>138.4</ele>
        <time>2021-09-23T16:42:32Z</time>
      </trkpt>
      <trkpt lat="43.89869" lon="1.89085">
        <ele>139.2</ele>
        <time>2021-09-23T16:42:40Z</time>
      </trkpt>
      <trkpt lat="43.89877" lon="1.89099">
        <ele>139.4</ele>
        <time>2021-09-23T16:42:44Z</time>
      </trkpt>
      <trkpt lat="43.89879" lon="1.89103">
        <ele>139.6</ele>
        <time>2021-09-23T16:42:45Z</time>
      </trkpt>
      <trkpt lat="43.89881" lon="1.89107">
        <ele>139.6</ele>
        <time>2021-09-23T16:42:46Z</time>
      </trkpt>
      <trkpt lat="43.89882" lon="1.8911">
        <ele>139.6</ele>
        <time>2021-09-23T16:42:47Z</time>
      </trkpt>
      <trkpt lat="43.89884" lon="1.89112">
        <ele>139.4</ele>
        <time>2021-09-23T16:42:48Z</time>
      </trkpt>
      <trkpt lat="43.89885" lon="1.89115">
        <ele>139.4</ele>
        <time>2021-09-23T16:42:49Z</time>
      </trkpt>
      <trkpt lat="43.89887" lon="1.89118">
        <ele>139.4</ele>
        <time>2021-09-23T16:42:50Z</time>
      </trkpt>
      <trkpt lat="43.89888" lon="1.8912">
        <ele>139.4</ele>
        <time>2021-09-23T16:42:51Z</time>
      </trkpt>
      <trkpt lat="43.89892" lon="1.89129">
        <ele>139.2</ele>
        <time>2021-09-23T16:42:54Z</time>
      </trkpt>
      <trkpt lat="43.89896" lon="1.89151">
        <ele>139</ele>
        <time>2021-09-23T16:43:00Z</time>
      </trkpt>
      <trkpt lat="43.89896" lon="1.89171">
        <ele>138.4</ele>
        <time>2021-09-23T16:43:06Z</time>
      </trkpt>
      <trkpt lat="43.89896" lon="1.89173">
        <ele>138.2</ele>
        <time>2021-09-23T16:43:07Z</time>
      </trkpt>
      <trkpt lat="43.89896" lon="1.89177">
        <ele>138</ele>
        <time>2021-09-23T16:43:09Z</time>
      </trkpt>
      <trkpt lat="43.89896" lon="1.89178">
        <ele>137.8</ele>
        <time>2021-09-23T16:43:10Z</time>
      </trkpt>
      <trkpt lat="43.89896" lon="1.8918">
        <ele>137.6</ele>
        <time>2021-09-23T16:43:11Z</time>
      </trkpt>
      <trkpt lat="43.89896" lon="1.89182">
        <ele>137.6</ele>
        <time>2021-09-23T16:43:12Z</time>
      </trkpt>
      <trkpt lat="43.89896" lon="1.89185">
        <ele>137.4</ele>
        <time>2021-09-23T16:43:14Z</time>
      </trkpt>
      <trkpt lat="43.89895" lon="1.89186">
        <ele>137</ele>
        <time>2021-09-23T16:43:15Z</time>
      </trkpt>
      <trkpt lat="43.89895" lon="1.89187">
        <ele>136.8</ele>
        <time>2021-09-23T16:43:16Z</time>
      </trkpt>
      <trkpt lat="43.89895" lon="1.89187">
        <ele>136.6</ele>
        <time>2021-09-23T16:43:17Z</time>
      </trkpt>
      <trkpt lat="43.89895" lon="1.89187">
        <ele>136.4</ele>
        <time>2021-09-23T16:43:18Z</time>
      </trkpt>
      <trkpt lat="43.89906" lon="1.8916">
        <ele>137.2</ele>
        <time>2021-09-23T16:44:17Z</time>
      </trkpt>
      <trkpt lat="43.89908" lon="1.89158">
        <ele>137.4</ele>
        <time>2021-09-23T16:44:18Z</time>
      </trkpt>
      <trkpt lat="43.8991" lon="1.89155">
        <ele>137.4</ele>
        <time>2021-09-23T16:44:19Z</time>
      </trkpt>
      <trkpt lat="43.89911" lon="1.89152">
        <ele>137.4</ele>
        <time>2021-09-23T16:44:20Z</time>
      </trkpt>
      <trkpt lat="43.89912" lon="1.89149">
        <ele>137.4</ele>
        <time>2021-09-23T16:44:21Z</time>
      </trkpt>
      <trkpt lat="43.89913" lon="1.89145">
        <ele>137.6</ele>
        <time>2021-09-23T16:44:22Z</time>
      </trkpt>
      <trkpt lat="43.89914" lon="1.89143">
        <ele>137.6</ele>
        <time>2021-09-23T16:44:23Z</time>
      </trkpt>
      <trkpt lat="43.89915" lon="1.89139">
        <ele>137.8</ele>
        <time>2021-09-23T16:44:24Z</time>
      </trkpt>
      <trkpt lat="43.89917" lon="1.89136">
        <ele>138</ele>
        <time>2021-09-23T16:44:25Z</time>
      </trkpt>
      <trkpt lat="43.89919" lon="1.89133">
        <ele>138.2</ele>
        <time>2021-09-23T16:44:26Z</time>
      </trkpt>
      <trkpt lat="43.89921" lon="1.8913">
        <ele>138.4</ele>
        <time>2021-09-23T16:44:27Z</time>
      </trkpt>
      <trkpt lat="43.89924" lon="1.89128">
        <ele>138.6</ele>
        <time>2021-09-23T16:44:28Z</time>
      </trkpt>
      <trkpt lat="43.89926" lon="1.89125">
        <ele>138.8</ele>
        <time>2021-09-23T16:44:29Z</time>
      </trkpt>
      <trkpt lat="43.89928" lon="1.89123">
        <ele>139</ele>
        <time>2021-09-23T16:44:30Z</time>
      </trkpt>
      <trkpt lat="43.89929" lon="1.8912">
        <ele>139</ele>
        <time>2021-09-23T16:44:31Z</time>
      </trkpt>
      <trkpt lat="43.8993" lon="1.89118">
        <ele>139.2</ele>
        <time>2021-09-23T16:44:32Z</time>
      </trkpt>
      <trkpt lat="43.8993" lon="1.89114">
        <ele>139.2</ele>
        <time>2021-09-23T16:44:33Z</time>
      </trkpt>
      <trkpt lat="43.89931" lon="1.89112">
        <ele>139.2</ele>
        <time>2021-09-23T16:44:34Z</time>
      </trkpt>
      <trkpt lat="43.89932" lon="1.89109">
        <ele>139.2</ele>
        <time>2021-09-23T16:44:35Z</time>
      </trkpt>
      <trkpt lat="43.89933" lon="1.89107">
        <ele>139.2</ele>
        <time>2021-09-23T16:44:36Z</time>
      </trkpt>
      <trkpt lat="43.89935" lon="1.89105">
        <ele>139.2</ele>
        <time>2021-09-23T16:44:37Z</time>
      </trkpt>
      <trkpt lat="43.89937" lon="1.89103">
        <ele>139.2</ele>
        <time>2021-09-23T16:44:38Z</time>
      </trkpt>
      <trkpt lat="43.89939" lon="1.89101">
        <ele>139.2</ele>
        <time>2021-09-23T16:44:39Z</time>
      </trkpt>
      <trkpt lat="43.89941" lon="1.89099">
        <ele>139.2</ele>
        <time>2021-09-23T16:44:40Z</time>
      </trkpt>
      <trkpt lat="43.89944" lon="1.89096">
        <ele>139</ele>
        <time>2021-09-23T16:44:41Z</time>
      </trkpt>
      <trkpt lat="43.89946" lon="1.89094">
        <ele>139</ele>
        <time>2021-09-23T16:44:42Z</time>
      </trkpt>
      <trkpt lat="43.89948" lon="1.89091">
        <ele>139</ele>
        <time>2021-09-23T16:44:43Z</time>
      </trkpt>
      <trkpt lat="43.8995" lon="1.89088">
        <ele>139</ele>
        <time>2021-09-23T16:44:44Z</time>
      </trkpt>
      <trkpt lat="43.89952" lon="1.89086">
        <ele>139</ele>
        <time>2021-09-23T16:44:45Z</time>
      </trkpt>
      <trkpt lat="43.89954" lon="1.89083">
        <ele>138.8</ele>
        <time>2021-09-23T16:44:46Z</time>
      </trkpt>
      <trkpt lat="43.89963" lon="1.89077">
        <ele>138.8</ele>
        <time>2021-09-23T16:44:50Z</time>
      </trkpt>
      <trkpt lat="43.89985" lon="1.89054">
        <ele>139</ele>
        <time>2021-09-23T16:44:59Z</time>
      </trkpt>
      <trkpt lat="43.9001" lon="1.89029">
        <ele>139</ele>
        <time>2021-09-23T16:45:07Z</time>
      </trkpt>
      <trkpt lat="43.90028" lon="1.89001">
        <ele>139</ele>
        <time>2021-09-23T16:45:14Z</time>
      </trkpt>
      <trkpt lat="43.90036" lon="1.88995">
        <ele>138.6</ele>
        <time>2021-09-23T16:45:16Z</time>
      </trkpt>
      <trkpt lat="43.90041" lon="1.88994">
        <ele>138.6</ele>
        <time>2021-09-23T16:45:17Z</time>
      </trkpt>
      <trkpt lat="43.90045" lon="1.88995">
        <ele>138.4</ele>
        <time>2021-09-23T16:45:18Z</time>
      </trkpt>
      <trkpt lat="43.90054" lon="1.89002">
        <ele>138.2</ele>
        <time>2021-09-23T16:45:20Z</time>
      </trkpt>
      <trkpt lat="43.90061" lon="1.89015">
        <ele>137.8</ele>
        <time>2021-09-23T16:45:22Z</time>
      </trkpt>
      <trkpt lat="43.90063" lon="1.89022">
        <ele>137.6</ele>
        <time>2021-09-23T16:45:23Z</time>
      </trkpt>
      <trkpt lat="43.90064" lon="1.8903">
        <ele>137.4</ele>
        <time>2021-09-23T16:45:24Z</time>
      </trkpt>
      <trkpt lat="43.90064" lon="1.8904">
        <ele>137.4</ele>
        <time>2021-09-23T16:45:25Z</time>
      </trkpt>
      <trkpt lat="43.90063" lon="1.89049">
        <ele>137.2</ele>
        <time>2021-09-23T16:45:26Z</time>
      </trkpt>
      <trkpt lat="43.90061" lon="1.89055">
        <ele>137</ele>
        <time>2021-09-23T16:45:27Z</time>
      </trkpt>
      <trkpt lat="43.90058" lon="1.89062">
        <ele>136.8</ele>
        <time>2021-09-23T16:45:28Z</time>
      </trkpt>
      <trkpt lat="43.90053" lon="1.89069">
        <ele>136.6</ele>
        <time>2021-09-23T16:45:29Z</time>
      </trkpt>
      <trkpt lat="43.90049" lon="1.89075">
        <ele>136.2</ele>
        <time>2021-09-23T16:45:30Z</time>
      </trkpt>
      <trkpt lat="43.90045" lon="1.8908">
        <ele>136</ele>
        <time>2021-09-23T16:45:31Z</time>
      </trkpt>
      <trkpt lat="43.9002" lon="1.89112">
        <ele>134.4</ele>
        <time>2021-09-23T16:45:36Z</time>
      </trkpt>
      <trkpt lat="43.90001" lon="1.89128">
        <ele>132.6</ele>
        <time>2021-09-23T16:45:39Z</time>
      </trkpt>
      <trkpt lat="43.89994" lon="1.89131">
        <ele>132.4</ele>
        <time>2021-09-23T16:45:40Z</time>
      </trkpt>
      <trkpt lat="43.89986" lon="1.89133">
        <ele>131.4</ele>
        <time>2021-09-23T16:45:41Z</time>
      </trkpt>
      <trkpt lat="43.89972" lon="1.89138">
        <ele>130.4</ele>
        <time>2021-09-23T16:45:43Z</time>
      </trkpt>
      <trkpt lat="43.89963" lon="1.89143">
        <ele>130.2</ele>
        <time>2021-09-23T16:45:44Z</time>
      </trkpt>
      <trkpt lat="43.89957" lon="1.89147">
        <ele>129.4</ele>
        <time>2021-09-23T16:45:45Z</time>
      </trkpt>
      <trkpt lat="43.89952" lon="1.89151">
        <ele>129.4</ele>
        <time>2021-09-23T16:45:46Z</time>
      </trkpt>
      <trkpt lat="43.89947" lon="1.89155">
        <ele>128.8</ele>
        <time>2021-09-23T16:45:47Z</time>
      </trkpt>
      <trkpt lat="43.89943" lon="1.89159">
        <ele>128.2</ele>
        <time>2021-09-23T16:45:48Z</time>
      </trkpt>
      <trkpt lat="43.89939" lon="1.89164">
        <ele>127.8</ele>
        <time>2021-09-23T16:45:49Z</time>
      </trkpt>
      <trkpt lat="43.89935" lon="1.89169">
        <ele>127.4</ele>
        <time>2021-09-23T16:45:50Z</time>
      </trkpt>
      <trkpt lat="43.89932" lon="1.89174">
        <ele>126.8</ele>
        <time>2021-09-23T16:45:51Z</time>
      </trkpt>
      <trkpt lat="43.89923" lon="1.8919">
        <ele>125.4</ele>
        <time>2021-09-23T16:45:53Z</time>
      </trkpt>
      <trkpt lat="43.89918" lon="1.89197">
        <ele>124.6</ele>
        <time>2021-09-23T16:45:54Z</time>
      </trkpt>
      <trkpt lat="43.89913" lon="1.89206">
        <ele>124.2</ele>
        <time>2021-09-23T16:45:55Z</time>
      </trkpt>
      <trkpt lat="43.89895" lon="1.8923">
        <ele>123.6</ele>
        <time>2021-09-23T16:45:58Z</time>
      </trkpt>
      <trkpt lat="43.89888" lon="1.89239">
        <ele>123</ele>
        <time>2021-09-23T16:45:59Z</time>
      </trkpt>
      <trkpt lat="43.89877" lon="1.89256">
        <ele>121.6</ele>
        <time>2021-09-23T16:46:01Z</time>
      </trkpt>
      <trkpt lat="43.89872" lon="1.89267">
        <ele>121.2</ele>
        <time>2021-09-23T16:46:02Z</time>
      </trkpt>
      <trkpt lat="43.89869" lon="1.89278">
        <ele>120.6</ele>
        <time>2021-09-23T16:46:03Z</time>
      </trkpt>
      <trkpt lat="43.89866" lon="1.89289">
        <ele>120</ele>
        <time>2021-09-23T16:46:04Z</time>
      </trkpt>
      <trkpt lat="43.89863" lon="1.89299">
        <ele>119.2</ele>
        <time>2021-09-23T16:46:05Z</time>
      </trkpt>
      <trkpt lat="43.89861" lon="1.89308">
        <ele>118.4</ele>
        <time>2021-09-23T16:46:06Z</time>
      </trkpt>
      <trkpt lat="43.89858" lon="1.89318">
        <ele>118</ele>
        <time>2021-09-23T16:46:07Z</time>
      </trkpt>
      <trkpt lat="43.89856" lon="1.89326">
        <ele>117.6</ele>
        <time>2021-09-23T16:46:08Z</time>
      </trkpt>
      <trkpt lat="43.89854" lon="1.89335">
        <ele>117.4</ele>
        <time>2021-09-23T16:46:09Z</time>
      </trkpt>
      <trkpt lat="43.89852" lon="1.89345">
        <ele>117</ele>
        <time>2021-09-23T16:46:10Z</time>
      </trkpt>
      <trkpt lat="43.89844" lon="1.89372">
        <ele>116.6</ele>
        <time>2021-09-23T16:46:13Z</time>
      </trkpt>
      <trkpt lat="43.89827" lon="1.89421">
        <ele>116.2</ele>
        <time>2021-09-23T16:46:19Z</time>
      </trkpt>
      <trkpt lat="43.89824" lon="1.8943">
        <ele>116.2</ele>
        <time>2021-09-23T16:46:20Z</time>
      </trkpt>
      <trkpt lat="43.89825" lon="1.89436">
        <ele>116.2</ele>
        <time>2021-09-23T16:46:21Z</time>
      </trkpt>
      <trkpt lat="43.89826" lon="1.89445">
        <ele>116</ele>
        <time>2021-09-23T16:46:22Z</time>
      </trkpt>
      <trkpt lat="43.89828" lon="1.89454">
        <ele>116</ele>
        <time>2021-09-23T16:46:23Z</time>
      </trkpt>
      <trkpt lat="43.8983" lon="1.8946">
        <ele>116</ele>
        <time>2021-09-23T16:46:24Z</time>
      </trkpt>
      <trkpt lat="43.89832" lon="1.89466">
        <ele>116</ele>
        <time>2021-09-23T16:46:25Z</time>
      </trkpt>
      <trkpt lat="43.89836" lon="1.89471">
        <ele>116.2</ele>
        <time>2021-09-23T16:46:26Z</time>
      </trkpt>
      <trkpt lat="43.89839" lon="1.89473">
        <ele>116.2</ele>
        <time>2021-09-23T16:46:27Z</time>
      </trkpt>
      <trkpt lat="43.89842" lon="1.89474">
        <ele>116.2</ele>
        <time>2021-09-23T16:46:28Z</time>
      </trkpt>
      <trkpt lat="43.89845" lon="1.89474">
        <ele>116.2</ele>
        <time>2021-09-23T16:46:29Z</time>
      </trkpt>
      <trkpt lat="43.89849" lon="1.89474">
        <ele>116.4</ele>
        <time>2021-09-23T16:46:30Z</time>
      </trkpt>
      <trkpt lat="43.89852" lon="1.89475">
        <ele>116.4</ele>
        <time>2021-09-23T16:46:31Z</time>
      </trkpt>
      <trkpt lat="43.8986" lon="1.89476">
        <ele>117</ele>
        <time>2021-09-23T16:46:33Z</time>
      </trkpt>
      <trkpt lat="43.89874" lon="1.89484">
        <ele>118</ele>
        <time>2021-09-23T16:46:36Z</time>
      </trkpt>
      <trkpt lat="43.89877" lon="1.89486">
        <ele>118</ele>
        <time>2021-09-23T16:46:37Z</time>
      </trkpt>
      <trkpt lat="43.8988" lon="1.89489">
        <ele>118.4</ele>
        <time>2021-09-23T16:46:38Z</time>
      </trkpt>
      <trkpt lat="43.89884" lon="1.89492">
        <ele>118.6</ele>
        <time>2021-09-23T16:46:39Z</time>
      </trkpt>
      <trkpt lat="43.89891" lon="1.89498">
        <ele>119.2</ele>
        <time>2021-09-23T16:46:41Z</time>
      </trkpt>
      <trkpt lat="43.89898" lon="1.89508">
        <ele>119.8</ele>
        <time>2021-09-23T16:46:44Z</time>
      </trkpt>
      <trkpt lat="43.899" lon="1.89511">
        <ele>120.6</ele>
        <time>2021-09-23T16:46:45Z</time>
      </trkpt>
      <trkpt lat="43.89902" lon="1.89514">
        <ele>120.6</ele>
        <time>2021-09-23T16:46:46Z</time>
      </trkpt>
      <trkpt lat="43.89904" lon="1.89517">
        <ele>121.2</ele>
        <time>2021-09-23T16:46:47Z</time>
      </trkpt>
      <trkpt lat="43.89906" lon="1.8952">
        <ele>121.8</ele>
        <time>2021-09-23T16:46:48Z</time>
      </trkpt>
      <trkpt lat="43.89908" lon="1.89522">
        <ele>122.2</ele>
        <time>2021-09-23T16:46:49Z</time>
      </trkpt>
      <trkpt lat="43.8991" lon="1.89525">
        <ele>122.6</ele>
        <time>2021-09-23T16:46:50Z</time>
      </trkpt>
      <trkpt lat="43.89912" lon="1.89528">
        <ele>122.8</ele>
        <time>2021-09-23T16:46:51Z</time>
      </trkpt>
      <trkpt lat="43.89914" lon="1.8953">
        <ele>123</ele>
        <time>2021-09-23T16:46:52Z</time>
      </trkpt>
      <trkpt lat="43.89915" lon="1.89533">
        <ele>123.2</ele>
        <time>2021-09-23T16:46:53Z</time>
      </trkpt>
      <trkpt lat="43.89917" lon="1.89536">
        <ele>123.8</ele>
        <time>2021-09-23T16:46:54Z</time>
      </trkpt>
      <trkpt lat="43.89919" lon="1.89539">
        <ele>123.8</ele>
        <time>2021-09-23T16:46:55Z</time>
      </trkpt>
      <trkpt lat="43.89921" lon="1.89541">
        <ele>124.4</ele>
        <time>2021-09-23T16:46:56Z</time>
      </trkpt>
      <trkpt lat="43.89923" lon="1.89543">
        <ele>124.4</ele>
        <time>2021-09-23T16:46:57Z</time>
      </trkpt>
      <trkpt lat="43.89926" lon="1.89545">
        <ele>125</ele>
        <time>2021-09-23T16:46:58Z</time>
      </trkpt>
      <trkpt lat="43.89928" lon="1.89547">
        <ele>125.2</ele>
        <time>2021-09-23T16:46:59Z</time>
      </trkpt>
      <trkpt lat="43.89931" lon="1.89548">
        <ele>125.4</ele>
        <time>2021-09-23T16:47:00Z</time>
      </trkpt>
      <trkpt lat="43.89934" lon="1.8955">
        <ele>125.6</ele>
        <time>2021-09-23T16:47:01Z</time>
      </trkpt>
      <trkpt lat="43.89936" lon="1.89551">
        <ele>125.6</ele>
        <time>2021-09-23T16:47:02Z</time>
      </trkpt>
      <trkpt lat="43.89939" lon="1.89551">
        <ele>126</ele>
        <time>2021-09-23T16:47:03Z</time>
      </trkpt>
      <trkpt lat="43.89941" lon="1.89552">
        <ele>126.2</ele>
        <time>2021-09-23T16:47:04Z</time>
      </trkpt>
      <trkpt lat="43.89943" lon="1.89553">
        <ele>126.6</ele>
        <time>2021-09-23T16:47:05Z</time>
      </trkpt>
      <trkpt lat="43.89946" lon="1.89553">
        <ele>126.8</ele>
        <time>2021-09-23T16:47:06Z</time>
      </trkpt>
      <trkpt lat="43.89948" lon="1.89554">
        <ele>127</ele>
        <time>2021-09-23T16:47:07Z</time>
      </trkpt>
      <trkpt lat="43.89951" lon="1.89554">
        <ele>127.2</ele>
        <time>2021-09-23T16:47:08Z</time>
      </trkpt>
      <trkpt lat="43.89953" lon="1.89555">
        <ele>127.6</ele>
        <time>2021-09-23T16:47:09Z</time>
      </trkpt>
      <trkpt lat="43.89955" lon="1.89556">
        <ele>128</ele>
        <time>2021-09-23T16:47:10Z</time>
      </trkpt>
      <trkpt lat="43.89959" lon="1.89557">
        <ele>128.2</ele>
        <time>2021-09-23T16:47:11Z</time>
      </trkpt>
      <trkpt lat="43.89961" lon="1.89558">
        <ele>128.4</ele>
        <time>2021-09-23T16:47:12Z</time>
      </trkpt>
      <trkpt lat="43.89963" lon="1.8956">
        <ele>128.6</ele>
        <time>2021-09-23T16:47:13Z</time>
      </trkpt>
      <trkpt lat="43.89966" lon="1.89561">
        <ele>128.8</ele>
        <time>2021-09-23T16:47:14Z</time>
      </trkpt>
      <trkpt lat="43.89968" lon="1.89563">
        <ele>128.8</ele>
        <time>2021-09-23T16:47:15Z</time>
      </trkpt>
      <trkpt lat="43.8997" lon="1.89565">
        <ele>129</ele>
        <time>2021-09-23T16:47:16Z</time>
      </trkpt>
      <trkpt lat="43.89972" lon="1.89567">
        <ele>129.4</ele>
        <time>2021-09-23T16:47:17Z</time>
      </trkpt>
      <trkpt lat="43.89973" lon="1.89569">
        <ele>129.4</ele>
        <time>2021-09-23T16:47:18Z</time>
      </trkpt>
      <trkpt lat="43.89974" lon="1.89572">
        <ele>130</ele>
        <time>2021-09-23T16:47:19Z</time>
      </trkpt>
      <trkpt lat="43.89975" lon="1.89574">
        <ele>130</ele>
        <time>2021-09-23T16:47:20Z</time>
      </trkpt>
      <trkpt lat="43.89976" lon="1.89577">
        <ele>130.4</ele>
        <time>2021-09-23T16:47:21Z</time>
      </trkpt>
      <trkpt lat="43.89977" lon="1.8958">
        <ele>130.6</ele>
        <time>2021-09-23T16:47:22Z</time>
      </trkpt>
      <trkpt lat="43.89979" lon="1.89583">
        <ele>131</ele>
        <time>2021-09-23T16:47:23Z</time>
      </trkpt>
      <trkpt lat="43.89979" lon="1.89586">
        <ele>131</ele>
        <time>2021-09-23T16:47:24Z</time>
      </trkpt>
      <trkpt lat="43.8998" lon="1.89588">
        <ele>131.4</ele>
        <time>2021-09-23T16:47:25Z</time>
      </trkpt>
      <trkpt lat="43.89981" lon="1.89591">
        <ele>131.8</ele>
        <time>2021-09-23T16:47:26Z</time>
      </trkpt>
      <trkpt lat="43.89982" lon="1.89595">
        <ele>131.8</ele>
        <time>2021-09-23T16:47:27Z</time>
      </trkpt>
      <trkpt lat="43.89982" lon="1.89598">
        <ele>132.2</ele>
        <time>2021-09-23T16:47:28Z</time>
      </trkpt>
      <trkpt lat="43.89983" lon="1.89601">
        <ele>132.4</ele>
        <time>2021-09-23T16:47:29Z</time>
      </trkpt>
      <trkpt lat="43.89983" lon="1.89603">
        <ele>132.8</ele>
        <time>2021-09-23T16:47:30Z</time>
      </trkpt>
      <trkpt lat="43.89984" lon="1.89606">
        <ele>133</ele>
        <time>2021-09-23T16:47:31Z</time>
      </trkpt>
      <trkpt lat="43.89985" lon="1.8961">
        <ele>133.4</ele>
        <time>2021-09-23T16:47:32Z</time>
      </trkpt>
      <trkpt lat="43.89986" lon="1.89614">
        <ele>133.6</ele>
        <time>2021-09-23T16:47:33Z</time>
      </trkpt>
      <trkpt lat="43.89987" lon="1.89617">
        <ele>133.8</ele>
        <time>2021-09-23T16:47:34Z</time>
      </trkpt>
      <trkpt lat="43.89987" lon="1.8962">
        <ele>134.2</ele>
        <time>2021-09-23T16:47:35Z</time>
      </trkpt>
      <trkpt lat="43.89988" lon="1.89623">
        <ele>134.4</ele>
        <time>2021-09-23T16:47:36Z</time>
      </trkpt>
      <trkpt lat="43.89988" lon="1.89626">
        <ele>134.6</ele>
        <time>2021-09-23T16:47:37Z</time>
      </trkpt>
      <trkpt lat="43.89989" lon="1.8963">
        <ele>134.8</ele>
        <time>2021-09-23T16:47:38Z</time>
      </trkpt>
      <trkpt lat="43.8999" lon="1.89633">
        <ele>135</ele>
        <time>2021-09-23T16:47:39Z</time>
      </trkpt>
      <trkpt lat="43.8999" lon="1.89636">
        <ele>135.2</ele>
        <time>2021-09-23T16:47:40Z</time>
      </trkpt>
      <trkpt lat="43.89991" lon="1.89639">
        <ele>135.4</ele>
        <time>2021-09-23T16:47:41Z</time>
      </trkpt>
      <trkpt lat="43.89992" lon="1.89643">
        <ele>135.8</ele>
        <time>2021-09-23T16:47:42Z</time>
      </trkpt>
      <trkpt lat="43.89993" lon="1.89646">
        <ele>136</ele>
        <time>2021-09-23T16:47:43Z</time>
      </trkpt>
      <trkpt lat="43.89994" lon="1.89649">
        <ele>136.2</ele>
        <time>2021-09-23T16:47:44Z</time>
      </trkpt>
      <trkpt lat="43.89994" lon="1.89652">
        <ele>136.4</ele>
        <time>2021-09-23T16:47:45Z</time>
      </trkpt>
      <trkpt lat="43.89995" lon="1.89655">
        <ele>136.6</ele>
        <time>2021-09-23T16:47:46Z</time>
      </trkpt>
      <trkpt lat="43.89995" lon="1.89658">
        <ele>136.6</ele>
        <time>2021-09-23T16:47:47Z</time>
      </trkpt>
      <trkpt lat="43.89996" lon="1.89661">
        <ele>136.8</ele>
        <time>2021-09-23T16:47:48Z</time>
      </trkpt>
      <trkpt lat="43.89997" lon="1.89663">
        <ele>137</ele>
        <time>2021-09-23T16:47:49Z</time>
      </trkpt>
      <trkpt lat="43.89997" lon="1.89666">
        <ele>137.2</ele>
        <time>2021-09-23T16:47:50Z</time>
      </trkpt>
      <trkpt lat="43.89995" lon="1.8967">
        <ele>137.4</ele>
        <time>2021-09-23T16:47:51Z</time>
      </trkpt>
      <trkpt lat="43.89995" lon="1.89673">
        <ele>137.4</ele>
        <time>2021-09-23T16:47:52Z</time>
      </trkpt>
      <trkpt lat="43.89997" lon="1.89676">
        <ele>137.8</ele>
        <time>2021-09-23T16:47:53Z</time>
      </trkpt>
      <trkpt lat="43.89997" lon="1.89678">
        <ele>137.8</ele>
        <time>2021-09-23T16:47:54Z</time>
      </trkpt>
      <trkpt lat="43.89996" lon="1.8968">
        <ele>138.2</ele>
        <time>2021-09-23T16:47:55Z</time>
      </trkpt>
      <trkpt lat="43.89995" lon="1.89681">
        <ele>138.4</ele>
        <time>2021-09-23T16:47:56Z</time>
      </trkpt>
      <trkpt lat="43.89993" lon="1.89681">
        <ele>138.6</ele>
        <time>2021-09-23T16:47:57Z</time>
      </trkpt>
      <trkpt lat="43.89992" lon="1.8968">
        <ele>138.8</ele>
        <time>2021-09-23T16:47:58Z</time>
      </trkpt>
      <trkpt lat="43.89991" lon="1.89679">
        <ele>138.8</ele>
        <time>2021-09-23T16:47:59Z</time>
      </trkpt>
      <trkpt lat="43.8999" lon="1.89677">
        <ele>139</ele>
        <time>2021-09-23T16:48:00Z</time>
      </trkpt>
      <trkpt lat="43.89988" lon="1.89675">
        <ele>139.2</ele>
        <time>2021-09-23T16:48:01Z</time>
      </trkpt>
      <trkpt lat="43.89988" lon="1.89673">
        <ele>139.4</ele>
        <time>2021-09-23T16:48:02Z</time>
      </trkpt>
      <trkpt lat="43.89988" lon="1.89671">
        <ele>139.6</ele>
        <time>2021-09-23T16:48:03Z</time>
      </trkpt>
      <trkpt lat="43.89987" lon="1.89668">
        <ele>139.6</ele>
        <time>2021-09-23T16:48:04Z</time>
      </trkpt>
      <trkpt lat="43.89988" lon="1.89666">
        <ele>139.6</ele>
        <time>2021-09-23T16:48:05Z</time>
      </trkpt>
      <trkpt lat="43.89988" lon="1.89663">
        <ele>139.8</ele>
        <time>2021-09-23T16:48:06Z</time>
      </trkpt>
      <trkpt lat="43.89988" lon="1.8966">
        <ele>139.8</ele>
        <time>2021-09-23T16:48:07Z</time>
      </trkpt>
      <trkpt lat="43.89988" lon="1.89657">
        <ele>139.8</ele>
        <time>2021-09-23T16:48:08Z</time>
      </trkpt>
      <trkpt lat="43.89988" lon="1.89654">
        <ele>140</ele>
        <time>2021-09-23T16:48:09Z</time>
      </trkpt>
      <trkpt lat="43.89988" lon="1.89651">
        <ele>140</ele>
        <time>2021-09-23T16:48:10Z</time>
      </trkpt>
      <trkpt lat="43.89987" lon="1.89648">
        <ele>140</ele>
        <time>2021-09-23T16:48:11Z</time>
      </trkpt>
      <trkpt lat="43.89986" lon="1.89645">
        <ele>140</ele>
        <time>2021-09-23T16:48:12Z</time>
      </trkpt>
      <trkpt lat="43.89986" lon="1.89643">
        <ele>139.8</ele>
        <time>2021-09-23T16:48:13Z</time>
      </trkpt>
      <trkpt lat="43.89986" lon="1.8964">
        <ele>139.8</ele>
        <time>2021-09-23T16:48:14Z</time>
      </trkpt>
      <trkpt lat="43.89985" lon="1.89637">
        <ele>139.8</ele>
        <time>2021-09-23T16:48:15Z</time>
      </trkpt>
      <trkpt lat="43.89984" lon="1.89634">
        <ele>139.8</ele>
        <time>2021-09-23T16:48:16Z</time>
      </trkpt>
      <trkpt lat="43.89983" lon="1.89631">
        <ele>139.8</ele>
        <time>2021-09-23T16:48:17Z</time>
      </trkpt>
      <trkpt lat="43.89982" lon="1.89628">
        <ele>139.8</ele>
        <time>2021-09-23T16:48:18Z</time>
      </trkpt>
      <trkpt lat="43.89981" lon="1.89624">
        <ele>139.8</ele>
        <time>2021-09-23T16:48:19Z</time>
      </trkpt>
      <trkpt lat="43.89981" lon="1.89621">
        <ele>139.6</ele>
        <time>2021-09-23T16:48:20Z</time>
      </trkpt>
      <trkpt lat="43.89982" lon="1.89619">
        <ele>139.6</ele>
        <time>2021-09-23T16:48:21Z</time>
      </trkpt>
      <trkpt lat="43.89982" lon="1.89617">
        <ele>139.6</ele>
        <time>2021-09-23T16:48:22Z</time>
      </trkpt>
      <trkpt lat="43.89982" lon="1.89615">
        <ele>139.4</ele>
        <time>2021-09-23T16:48:23Z</time>
      </trkpt>
      <trkpt lat="43.89982" lon="1.89613">
        <ele>139.4</ele>
        <time>2021-09-23T16:48:24Z</time>
      </trkpt>
      <trkpt lat="43.89982" lon="1.89611">
        <ele>139.4</ele>
        <time>2021-09-23T16:48:25Z</time>
      </trkpt>
      <trkpt lat="43.89981" lon="1.8961">
        <ele>139.4</ele>
        <time>2021-09-23T16:48:26Z</time>
      </trkpt>
      <trkpt lat="43.89981" lon="1.8961">
        <ele>139.2</ele>
        <time>2021-09-23T16:48:28Z</time>
      </trkpt>
      <trkpt lat="43.8998" lon="1.89603">
        <ele>138.6</ele>
        <time>2021-09-23T16:48:43Z</time>
      </trkpt>
      <trkpt lat="43.89979" lon="1.89599">
        <ele>138.6</ele>
        <time>2021-09-23T16:48:44Z</time>
      </trkpt>
      <trkpt lat="43.89969" lon="1.89575">
        <ele>138.6</ele>
        <time>2021-09-23T16:48:49Z</time>
      </trkpt>
      <trkpt lat="43.89964" lon="1.8957">
        <ele>138.4</ele>
        <time>2021-09-23T16:48:50Z</time>
      </trkpt>
      <trkpt lat="43.89957" lon="1.89565">
        <ele>138.4</ele>
        <time>2021-09-23T16:48:51Z</time>
      </trkpt>
      <trkpt lat="43.89951" lon="1.89562">
        <ele>138.2</ele>
        <time>2021-09-23T16:48:52Z</time>
      </trkpt>
      <trkpt lat="43.89945" lon="1.8956">
        <ele>138.2</ele>
        <time>2021-09-23T16:48:53Z</time>
      </trkpt>
      <trkpt lat="43.89939" lon="1.89559">
        <ele>138</ele>
        <time>2021-09-23T16:48:54Z</time>
      </trkpt>
      <trkpt lat="43.89934" lon="1.89559">
        <ele>137.6</ele>
        <time>2021-09-23T16:48:55Z</time>
      </trkpt>
      <trkpt lat="43.89927" lon="1.8956">
        <ele>137.4</ele>
        <time>2021-09-23T16:48:56Z</time>
      </trkpt>
      <trkpt lat="43.89921" lon="1.89561">
        <ele>136.8</ele>
        <time>2021-09-23T16:48:57Z</time>
      </trkpt>
      <trkpt lat="43.89915" lon="1.89562">
        <ele>136.6</ele>
        <time>2021-09-23T16:48:58Z</time>
      </trkpt>
      <trkpt lat="43.8991" lon="1.89563">
        <ele>136.2</ele>
        <time>2021-09-23T16:48:59Z</time>
      </trkpt>
      <trkpt lat="43.89905" lon="1.89564">
        <ele>135.8</ele>
        <time>2021-09-23T16:49:00Z</time>
      </trkpt>
      <trkpt lat="43.89901" lon="1.89564">
        <ele>135.4</ele>
        <time>2021-09-23T16:49:01Z</time>
      </trkpt>
      <trkpt lat="43.89895" lon="1.89565">
        <ele>135.2</ele>
        <time>2021-09-23T16:49:02Z</time>
      </trkpt>
      <trkpt lat="43.8989" lon="1.89564">
        <ele>134.2</ele>
        <time>2021-09-23T16:49:03Z</time>
      </trkpt>
      <trkpt lat="43.89887" lon="1.89564">
        <ele>133.2</ele>
        <time>2021-09-23T16:49:04Z</time>
      </trkpt>
      <trkpt lat="43.89883" lon="1.89563">
        <ele>132.8</ele>
        <time>2021-09-23T16:49:05Z</time>
      </trkpt>
      <trkpt lat="43.89879" lon="1.89562">
        <ele>132.2</ele>
        <time>2021-09-23T16:49:06Z</time>
      </trkpt>
      <trkpt lat="43.89875" lon="1.8956">
        <ele>131.8</ele>
        <time>2021-09-23T16:49:07Z</time>
      </trkpt>
      <trkpt lat="43.89874" lon="1.89557">
        <ele>131.2</ele>
        <time>2021-09-23T16:49:08Z</time>
      </trkpt>
      <trkpt lat="43.89873" lon="1.89554">
        <ele>130.8</ele>
        <time>2021-09-23T16:49:09Z</time>
      </trkpt>
      <trkpt lat="43.89872" lon="1.8955">
        <ele>130.2</ele>
        <time>2021-09-23T16:49:10Z</time>
      </trkpt>
      <trkpt lat="43.89869" lon="1.89546">
        <ele>129.8</ele>
        <time>2021-09-23T16:49:11Z</time>
      </trkpt>
      <trkpt lat="43.89866" lon="1.89542">
        <ele>129.6</ele>
        <time>2021-09-23T16:49:12Z</time>
      </trkpt>
      <trkpt lat="43.89862" lon="1.8954">
        <ele>129.2</ele>
        <time>2021-09-23T16:49:13Z</time>
      </trkpt>
      <trkpt lat="43.89859" lon="1.8954">
        <ele>129</ele>
        <time>2021-09-23T16:49:14Z</time>
      </trkpt>
      <trkpt lat="43.89857" lon="1.89541">
        <ele>129</ele>
        <time>2021-09-23T16:49:15Z</time>
      </trkpt>
      <trkpt lat="43.89854" lon="1.89543">
        <ele>129</ele>
        <time>2021-09-23T16:49:16Z</time>
      </trkpt>
      <trkpt lat="43.8985" lon="1.89545">
        <ele>128.8</ele>
        <time>2021-09-23T16:49:17Z</time>
      </trkpt>
      <trkpt lat="43.89847" lon="1.89547">
        <ele>128.8</ele>
        <time>2021-09-23T16:49:18Z</time>
      </trkpt>
      <trkpt lat="43.89844" lon="1.89548">
        <ele>128.8</ele>
        <time>2021-09-23T16:49:19Z</time>
      </trkpt>
      <trkpt lat="43.89834" lon="1.89551">
        <ele>128.8</ele>
        <time>2021-09-23T16:49:22Z</time>
      </trkpt>
      <trkpt lat="43.89833" lon="1.89554">
        <ele>129</ele>
        <time>2021-09-23T16:49:23Z</time>
      </trkpt>
      <trkpt lat="43.8983" lon="1.89559">
        <ele>129.6</ele>
        <time>2021-09-23T16:49:24Z</time>
      </trkpt>
      <trkpt lat="43.89827" lon="1.89561">
        <ele>129.6</ele>
        <time>2021-09-23T16:49:25Z</time>
      </trkpt>
      <trkpt lat="43.89819" lon="1.89567">
        <ele>130</ele>
        <time>2021-09-23T16:49:27Z</time>
      </trkpt>
      <trkpt lat="43.89815" lon="1.89568">
        <ele>130.2</ele>
        <time>2021-09-23T16:49:28Z</time>
      </trkpt>
      <trkpt lat="43.89811" lon="1.8957">
        <ele>130.4</ele>
        <time>2021-09-23T16:49:29Z</time>
      </trkpt>
      <trkpt lat="43.89808" lon="1.89571">
        <ele>130.6</ele>
        <time>2021-09-23T16:49:31Z</time>
      </trkpt>
      <trkpt lat="43.89806" lon="1.8957">
        <ele>130.6</ele>
        <time>2021-09-23T16:49:32Z</time>
      </trkpt>
      <trkpt lat="43.89804" lon="1.89569">
        <ele>130.6</ele>
        <time>2021-09-23T16:49:33Z</time>
      </trkpt>
      <trkpt lat="43.89802" lon="1.89568">
        <ele>130.4</ele>
        <time>2021-09-23T16:49:34Z</time>
      </trkpt>
      <trkpt lat="43.89799" lon="1.89566">
        <ele>130.2</ele>
        <time>2021-09-23T16:49:35Z</time>
      </trkpt>
      <trkpt lat="43.89796" lon="1.89564">
        <ele>130</ele>
        <time>2021-09-23T16:49:36Z</time>
      </trkpt>
      <trkpt lat="43.89792" lon="1.89563">
        <ele>130</ele>
        <time>2021-09-23T16:49:37Z</time>
      </trkpt>
      <trkpt lat="43.89788" lon="1.89563">
        <ele>129.8</ele>
        <time>2021-09-23T16:49:38Z</time>
      </trkpt>
      <trkpt lat="43.89785" lon="1.89564">
        <ele>129.6</ele>
        <time>2021-09-23T16:49:39Z</time>
      </trkpt>
      <trkpt lat="43.8978" lon="1.89567">
        <ele>129.4</ele>
        <time>2021-09-23T16:49:40Z</time>
      </trkpt>
      <trkpt lat="43.89778" lon="1.89568">
        <ele>129.4</ele>
        <time>2021-09-23T16:49:41Z</time>
      </trkpt>
      <trkpt lat="43.89777" lon="1.8957">
        <ele>129</ele>
        <time>2021-09-23T16:49:42Z</time>
      </trkpt>
      <trkpt lat="43.89774" lon="1.89571">
        <ele>128.8</ele>
        <time>2021-09-23T16:49:43Z</time>
      </trkpt>
      <trkpt lat="43.89772" lon="1.89575">
        <ele>128.2</ele>
        <time>2021-09-23T16:49:45Z</time>
      </trkpt>
      <trkpt lat="43.89772" lon="1.89579">
        <ele>128</ele>
        <time>2021-09-23T16:49:46Z</time>
      </trkpt>
      <trkpt lat="43.89768" lon="1.8959">
        <ele>128</ele>
        <time>2021-09-23T16:49:48Z</time>
      </trkpt>
      <trkpt lat="43.89756" lon="1.89611">
        <ele>127.8</ele>
        <time>2021-09-23T16:49:53Z</time>
      </trkpt>
      <trkpt lat="43.89753" lon="1.89614">
        <ele>127.8</ele>
        <time>2021-09-23T16:49:54Z</time>
      </trkpt>
      <trkpt lat="43.89749" lon="1.89617">
        <ele>127.8</ele>
        <time>2021-09-23T16:49:55Z</time>
      </trkpt>
      <trkpt lat="43.89745" lon="1.8962">
        <ele>127.8</ele>
        <time>2021-09-23T16:49:56Z</time>
      </trkpt>
      <trkpt lat="43.89737" lon="1.89631">
        <ele>128.2</ele>
        <time>2021-09-23T16:49:59Z</time>
      </trkpt>
      <trkpt lat="43.89729" lon="1.89647">
        <ele>128.4</ele>
        <time>2021-09-23T16:50:03Z</time>
      </trkpt>
      <trkpt lat="43.89728" lon="1.89651">
        <ele>128.4</ele>
        <time>2021-09-23T16:50:04Z</time>
      </trkpt>
      <trkpt lat="43.89728" lon="1.89655">
        <ele>128.4</ele>
        <time>2021-09-23T16:50:05Z</time>
      </trkpt>
      <trkpt lat="43.89727" lon="1.89657">
        <ele>128.4</ele>
        <time>2021-09-23T16:50:06Z</time>
      </trkpt>
      <trkpt lat="43.89726" lon="1.89661">
        <ele>128.4</ele>
        <time>2021-09-23T16:50:07Z</time>
      </trkpt>
      <trkpt lat="43.89725" lon="1.89663">
        <ele>128.4</ele>
        <time>2021-09-23T16:50:08Z</time>
      </trkpt>
      <trkpt lat="43.89725" lon="1.89665">
        <ele>128.4</ele>
        <time>2021-09-23T16:50:09Z</time>
      </trkpt>
      <trkpt lat="43.89724" lon="1.89666">
        <ele>128.2</ele>
        <time>2021-09-23T16:50:10Z</time>
      </trkpt>
      <trkpt lat="43.89723" lon="1.89668">
        <ele>128.2</ele>
        <time>2021-09-23T16:50:11Z</time>
      </trkpt>
      <trkpt lat="43.89721" lon="1.89672">
        <ele>128</ele>
        <time>2021-09-23T16:50:13Z</time>
      </trkpt>
      <trkpt lat="43.89719" lon="1.89674">
        <ele>127.8</ele>
        <time>2021-09-23T16:50:15Z</time>
      </trkpt>
      <trkpt lat="43.89718" lon="1.89675">
        <ele>127.6</ele>
        <time>2021-09-23T16:50:16Z</time>
      </trkpt>
      <trkpt lat="43.89717" lon="1.89676">
        <ele>127.4</ele>
        <time>2021-09-23T16:50:17Z</time>
      </trkpt>
      <trkpt lat="43.89708" lon="1.89672">
        <ele>127.2</ele>
        <time>2021-09-23T16:50:20Z</time>
      </trkpt>
      <trkpt lat="43.89703" lon="1.89672">
        <ele>127</ele>
        <time>2021-09-23T16:50:21Z</time>
      </trkpt>
      <trkpt lat="43.89691" lon="1.8967">
        <ele>126.8</ele>
        <time>2021-09-23T16:50:24Z</time>
      </trkpt>
      <trkpt lat="43.89687" lon="1.8967">
        <ele>126.8</ele>
        <time>2021-09-23T16:50:25Z</time>
      </trkpt>
      <trkpt lat="43.89682" lon="1.89671">
        <ele>126.8</ele>
        <time>2021-09-23T16:50:26Z</time>
      </trkpt>
      <trkpt lat="43.89672" lon="1.89676">
        <ele>126.6</ele>
        <time>2021-09-23T16:50:28Z</time>
      </trkpt>
      <trkpt lat="43.89666" lon="1.89679">
        <ele>126.6</ele>
        <time>2021-09-23T16:50:29Z</time>
      </trkpt>
      <trkpt lat="43.89661" lon="1.89681">
        <ele>126.6</ele>
        <time>2021-09-23T16:50:30Z</time>
      </trkpt>
      <trkpt lat="43.89655" lon="1.89684">
        <ele>126.6</ele>
        <time>2021-09-23T16:50:31Z</time>
      </trkpt>
      <trkpt lat="43.8965" lon="1.89687">
        <ele>126.6</ele>
        <time>2021-09-23T16:50:32Z</time>
      </trkpt>
      <trkpt lat="43.89649" lon="1.89691">
        <ele>126.6</ele>
        <time>2021-09-23T16:50:33Z</time>
      </trkpt>
      <trkpt lat="43.8965" lon="1.89699">
        <ele>126.6</ele>
        <time>2021-09-23T16:50:34Z</time>
      </trkpt>
      <trkpt lat="43.89652" lon="1.89704">
        <ele>126.8</ele>
        <time>2021-09-23T16:50:35Z</time>
      </trkpt>
      <trkpt lat="43.89652" lon="1.89708">
        <ele>126.8</ele>
        <time>2021-09-23T16:50:36Z</time>
      </trkpt>
      <trkpt lat="43.89651" lon="1.89709">
        <ele>127</ele>
        <time>2021-09-23T16:50:37Z</time>
      </trkpt>
      <trkpt lat="43.89649" lon="1.89709">
        <ele>127</ele>
        <time>2021-09-23T16:50:38Z</time>
      </trkpt>
      <trkpt lat="43.89646" lon="1.89709">
        <ele>127.8</ele>
        <time>2021-09-23T16:50:40Z</time>
      </trkpt>
      <trkpt lat="43.89644" lon="1.8971">
        <ele>128.2</ele>
        <time>2021-09-23T16:50:41Z</time>
      </trkpt>
      <trkpt lat="43.8963" lon="1.89714">
        <ele>128.6</ele>
        <time>2021-09-23T16:50:44Z</time>
      </trkpt>
      <trkpt lat="43.89626" lon="1.89714">
        <ele>128.6</ele>
        <time>2021-09-23T16:50:45Z</time>
      </trkpt>
      <trkpt lat="43.89605" lon="1.89722">
        <ele>129</ele>
        <time>2021-09-23T16:50:49Z</time>
      </trkpt>
      <trkpt lat="43.89594" lon="1.89725">
        <ele>129</ele>
        <time>2021-09-23T16:50:51Z</time>
      </trkpt>
      <trkpt lat="43.89586" lon="1.89729">
        <ele>128.8</ele>
        <time>2021-09-23T16:50:53Z</time>
      </trkpt>
      <trkpt lat="43.89583" lon="1.89731">
        <ele>128.8</ele>
        <time>2021-09-23T16:50:54Z</time>
      </trkpt>
      <trkpt lat="43.89579" lon="1.89734">
        <ele>128.8</ele>
        <time>2021-09-23T16:50:55Z</time>
      </trkpt>
      <trkpt lat="43.89577" lon="1.89737">
        <ele>128.8</ele>
        <time>2021-09-23T16:50:56Z</time>
      </trkpt>
      <trkpt lat="43.89576" lon="1.8974">
        <ele>128.8</ele>
        <time>2021-09-23T16:50:57Z</time>
      </trkpt>
      <trkpt lat="43.89574" lon="1.89742">
        <ele>128.8</ele>
        <time>2021-09-23T16:50:58Z</time>
      </trkpt>
      <trkpt lat="43.89573" lon="1.89743">
        <ele>128.8</ele>
        <time>2021-09-23T16:50:59Z</time>
      </trkpt>
      <trkpt lat="43.89571" lon="1.89743">
        <ele>129</ele>
        <time>2021-09-23T16:51:00Z</time>
      </trkpt>
      <trkpt lat="43.8957" lon="1.89744">
        <ele>129</ele>
        <time>2021-09-23T16:51:01Z</time>
      </trkpt>
      <trkpt lat="43.89569" lon="1.89743">
        <ele>129</ele>
        <time>2021-09-23T16:51:02Z</time>
      </trkpt>
      <trkpt lat="43.89567" lon="1.89738">
        <ele>129.2</ele>
        <time>2021-09-23T16:51:05Z</time>
      </trkpt>
      <trkpt lat="43.89565" lon="1.89736">
        <ele>129.2</ele>
        <time>2021-09-23T16:51:06Z</time>
      </trkpt>
      <trkpt lat="43.89565" lon="1.89733">
        <ele>129.4</ele>
        <time>2021-09-23T16:51:07Z</time>
      </trkpt>
      <trkpt lat="43.89565" lon="1.89731">
        <ele>129.4</ele>
        <time>2021-09-23T16:51:08Z</time>
      </trkpt>
      <trkpt lat="43.89564" lon="1.89728">
        <ele>129.4</ele>
        <time>2021-09-23T16:51:09Z</time>
      </trkpt>
      <trkpt lat="43.89563" lon="1.89726">
        <ele>129.4</ele>
        <time>2021-09-23T16:51:10Z</time>
      </trkpt>
      <trkpt lat="43.89561" lon="1.89724">
        <ele>129.2</ele>
        <time>2021-09-23T16:51:11Z</time>
      </trkpt>
      <trkpt lat="43.89551" lon="1.89722">
        <ele>128.8</ele>
        <time>2021-09-23T16:51:14Z</time>
      </trkpt>
      <trkpt lat="43.89547" lon="1.89721">
        <ele>128.6</ele>
        <time>2021-09-23T16:51:15Z</time>
      </trkpt>
      <trkpt lat="43.89543" lon="1.89719">
        <ele>128.2</ele>
        <time>2021-09-23T16:51:16Z</time>
      </trkpt>
      <trkpt lat="43.8954" lon="1.89717">
        <ele>128</ele>
        <time>2021-09-23T16:51:17Z</time>
      </trkpt>
      <trkpt lat="43.89538" lon="1.89716">
        <ele>127.4</ele>
        <time>2021-09-23T16:51:18Z</time>
      </trkpt>
      <trkpt lat="43.89537" lon="1.89715">
        <ele>126.8</ele>
        <time>2021-09-23T16:51:19Z</time>
      </trkpt>
      <trkpt lat="43.89536" lon="1.89714">
        <ele>125.6</ele>
        <time>2021-09-23T16:51:20Z</time>
      </trkpt>
      <trkpt lat="43.89535" lon="1.89713">
        <ele>125.2</ele>
        <time>2021-09-23T16:51:21Z</time>
      </trkpt>
      <trkpt lat="43.89532" lon="1.89708">
        <ele>123.8</ele>
        <time>2021-09-23T16:51:23Z</time>
      </trkpt>
      <trkpt lat="43.89532" lon="1.89706">
        <ele>123.4</ele>
        <time>2021-09-23T16:51:24Z</time>
      </trkpt>
      <trkpt lat="43.89532" lon="1.89703">
        <ele>122.8</ele>
        <time>2021-09-23T16:51:25Z</time>
      </trkpt>
      <trkpt lat="43.89532" lon="1.897">
        <ele>122.4</ele>
        <time>2021-09-23T16:51:26Z</time>
      </trkpt>
      <trkpt lat="43.89532" lon="1.89698">
        <ele>121.6</ele>
        <time>2021-09-23T16:51:27Z</time>
      </trkpt>
      <trkpt lat="43.89532" lon="1.89695">
        <ele>121.4</ele>
        <time>2021-09-23T16:51:28Z</time>
      </trkpt>
      <trkpt lat="43.89532" lon="1.89693">
        <ele>120.6</ele>
        <time>2021-09-23T16:51:29Z</time>
      </trkpt>
      <trkpt lat="43.89532" lon="1.89691">
        <ele>119.6</ele>
        <time>2021-09-23T16:51:30Z</time>
      </trkpt>
      <trkpt lat="43.8953" lon="1.89686">
        <ele>118.6</ele>
        <time>2021-09-23T16:51:32Z</time>
      </trkpt>
      <trkpt lat="43.89527" lon="1.89684">
        <ele>118</ele>
        <time>2021-09-23T16:51:33Z</time>
      </trkpt>
      <trkpt lat="43.89525" lon="1.89685">
        <ele>116.8</ele>
        <time>2021-09-23T16:51:34Z</time>
      </trkpt>
      <trkpt lat="43.8952" lon="1.89685">
        <ele>115.4</ele>
        <time>2021-09-23T16:51:36Z</time>
      </trkpt>
      <trkpt lat="43.89514" lon="1.89686">
        <ele>114.4</ele>
        <time>2021-09-23T16:51:39Z</time>
      </trkpt>
      <trkpt lat="43.89513" lon="1.89686">
        <ele>114.2</ele>
        <time>2021-09-23T16:51:40Z</time>
      </trkpt>
      <trkpt lat="43.89505" lon="1.89687">
        <ele>114</ele>
        <time>2021-09-23T16:51:44Z</time>
      </trkpt>
      <trkpt lat="43.89498" lon="1.89688">
        <ele>113.8</ele>
        <time>2021-09-23T16:51:47Z</time>
      </trkpt>
      <trkpt lat="43.89479" lon="1.89688">
        <ele>113.8</ele>
        <time>2021-09-23T16:51:55Z</time>
      </trkpt>
      <trkpt lat="43.89464" lon="1.89691">
        <ele>113.8</ele>
        <time>2021-09-23T16:52:01Z</time>
      </trkpt>
      <trkpt lat="43.89448" lon="1.89696">
        <ele>114</ele>
        <time>2021-09-23T16:52:08Z</time>
      </trkpt>
      <trkpt lat="43.89434" lon="1.89701">
        <ele>114.2</ele>
        <time>2021-09-23T16:52:13Z</time>
      </trkpt>
      <trkpt lat="43.89432" lon="1.89701">
        <ele>114.2</ele>
        <time>2021-09-23T16:52:14Z</time>
      </trkpt>
      <trkpt lat="43.89413" lon="1.89707">
        <ele>114.6</ele>
        <time>2021-09-23T16:52:20Z</time>
      </trkpt>
      <trkpt lat="43.89385" lon="1.89725">
        <ele>115.2</ele>
        <time>2021-09-23T16:52:26Z</time>
      </trkpt>
      <trkpt lat="43.8938" lon="1.89728">
        <ele>115.4</ele>
        <time>2021-09-23T16:52:27Z</time>
      </trkpt>
      <trkpt lat="43.89373" lon="1.89732">
        <ele>115.4</ele>
        <time>2021-09-23T16:52:28Z</time>
      </trkpt>
      <trkpt lat="43.89368" lon="1.89734">
        <ele>115.4</ele>
        <time>2021-09-23T16:52:29Z</time>
      </trkpt>
      <trkpt lat="43.89363" lon="1.89737">
        <ele>115.4</ele>
        <time>2021-09-23T16:52:30Z</time>
      </trkpt>
      <trkpt lat="43.89358" lon="1.8974">
        <ele>115.6</ele>
        <time>2021-09-23T16:52:31Z</time>
      </trkpt>
      <trkpt lat="43.89353" lon="1.89743">
        <ele>115.6</ele>
        <time>2021-09-23T16:52:32Z</time>
      </trkpt>
      <trkpt lat="43.89335" lon="1.89755">
        <ele>116.4</ele>
        <time>2021-09-23T16:52:36Z</time>
      </trkpt>
      <trkpt lat="43.8933" lon="1.89759">
        <ele>116.4</ele>
        <time>2021-09-23T16:52:37Z</time>
      </trkpt>
      <trkpt lat="43.89322" lon="1.89766">
        <ele>116.8</ele>
        <time>2021-09-23T16:52:39Z</time>
      </trkpt>
      <trkpt lat="43.89317" lon="1.89769">
        <ele>117.2</ele>
        <time>2021-09-23T16:52:40Z</time>
      </trkpt>
      <trkpt lat="43.89312" lon="1.89773">
        <ele>117.4</ele>
        <time>2021-09-23T16:52:41Z</time>
      </trkpt>
      <trkpt lat="43.89302" lon="1.89779">
        <ele>118.2</ele>
        <time>2021-09-23T16:52:43Z</time>
      </trkpt>
      <trkpt lat="43.89298" lon="1.89782">
        <ele>118.2</ele>
        <time>2021-09-23T16:52:44Z</time>
      </trkpt>
      <trkpt lat="43.89295" lon="1.89786">
        <ele>118.4</ele>
        <time>2021-09-23T16:52:45Z</time>
      </trkpt>
      <trkpt lat="43.89291" lon="1.89789">
        <ele>118.4</ele>
        <time>2021-09-23T16:52:46Z</time>
      </trkpt>
      <trkpt lat="43.89285" lon="1.89794">
        <ele>118.6</ele>
        <time>2021-09-23T16:52:47Z</time>
      </trkpt>
      <trkpt lat="43.89282" lon="1.89796">
        <ele>118.6</ele>
        <time>2021-09-23T16:52:48Z</time>
      </trkpt>
      <trkpt lat="43.89278" lon="1.898">
        <ele>118.8</ele>
        <time>2021-09-23T16:52:49Z</time>
      </trkpt>
      <trkpt lat="43.89275" lon="1.89803">
        <ele>119</ele>
        <time>2021-09-23T16:52:50Z</time>
      </trkpt>
      <trkpt lat="43.89271" lon="1.89807">
        <ele>119</ele>
        <time>2021-09-23T16:52:51Z</time>
      </trkpt>
      <trkpt lat="43.89267" lon="1.8981">
        <ele>119.4</ele>
        <time>2021-09-23T16:52:52Z</time>
      </trkpt>
      <trkpt lat="43.89264" lon="1.89813">
        <ele>119.4</ele>
        <time>2021-09-23T16:52:53Z</time>
      </trkpt>
      <trkpt lat="43.8926" lon="1.89817">
        <ele>119.6</ele>
        <time>2021-09-23T16:52:54Z</time>
      </trkpt>
      <trkpt lat="43.89256" lon="1.8982">
        <ele>119.6</ele>
        <time>2021-09-23T16:52:55Z</time>
      </trkpt>
      <trkpt lat="43.89252" lon="1.89823">
        <ele>119.8</ele>
        <time>2021-09-23T16:52:56Z</time>
      </trkpt>
      <trkpt lat="43.89247" lon="1.89825">
        <ele>119.8</ele>
        <time>2021-09-23T16:52:57Z</time>
      </trkpt>
      <trkpt lat="43.89243" lon="1.89827">
        <ele>119.8</ele>
        <time>2021-09-23T16:52:58Z</time>
      </trkpt>
      <trkpt lat="43.89238" lon="1.89828">
        <ele>119.8</ele>
        <time>2021-09-23T16:52:59Z</time>
      </trkpt>
      <trkpt lat="43.89233" lon="1.8983">
        <ele>119.8</ele>
        <time>2021-09-23T16:53:00Z</time>
      </trkpt>
      <trkpt lat="43.89229" lon="1.89833">
        <ele>120</ele>
        <time>2021-09-23T16:53:01Z</time>
      </trkpt>
      <trkpt lat="43.89223" lon="1.89837">
        <ele>119.8</ele>
        <time>2021-09-23T16:53:02Z</time>
      </trkpt>
      <trkpt lat="43.89219" lon="1.89841">
        <ele>119.8</ele>
        <time>2021-09-23T16:53:03Z</time>
      </trkpt>
      <trkpt lat="43.89215" lon="1.89846">
        <ele>119.6</ele>
        <time>2021-09-23T16:53:04Z</time>
      </trkpt>
      <trkpt lat="43.89211" lon="1.89851">
        <ele>119.4</ele>
        <time>2021-09-23T16:53:05Z</time>
      </trkpt>
      <trkpt lat="43.89205" lon="1.89859">
        <ele>119.4</ele>
        <time>2021-09-23T16:53:06Z</time>
      </trkpt>
      <trkpt lat="43.89201" lon="1.89865">
        <ele>119.2</ele>
        <time>2021-09-23T16:53:07Z</time>
      </trkpt>
      <trkpt lat="43.89197" lon="1.89871">
        <ele>118.8</ele>
        <time>2021-09-23T16:53:08Z</time>
      </trkpt>
      <trkpt lat="43.89188" lon="1.89887">
        <ele>118.6</ele>
        <time>2021-09-23T16:53:10Z</time>
      </trkpt>
      <trkpt lat="43.89184" lon="1.89894">
        <ele>118.4</ele>
        <time>2021-09-23T16:53:11Z</time>
      </trkpt>
      <trkpt lat="43.89178" lon="1.89909">
        <ele>118</ele>
        <time>2021-09-23T16:53:13Z</time>
      </trkpt>
      <trkpt lat="43.89176" lon="1.89915">
        <ele>117.6</ele>
        <time>2021-09-23T16:53:14Z</time>
      </trkpt>
      <trkpt lat="43.89173" lon="1.89923">
        <ele>117.6</ele>
        <time>2021-09-23T16:53:15Z</time>
      </trkpt>
      <trkpt lat="43.89171" lon="1.8993">
        <ele>117.4</ele>
        <time>2021-09-23T16:53:16Z</time>
      </trkpt>
      <trkpt lat="43.89168" lon="1.89937">
        <ele>117.2</ele>
        <time>2021-09-23T16:53:17Z</time>
      </trkpt>
      <trkpt lat="43.89166" lon="1.89941">
        <ele>117.2</ele>
        <time>2021-09-23T16:53:18Z</time>
      </trkpt>
      <trkpt lat="43.89163" lon="1.89947">
        <ele>117</ele>
        <time>2021-09-23T16:53:19Z</time>
      </trkpt>
      <trkpt lat="43.89159" lon="1.89953">
        <ele>117</ele>
        <time>2021-09-23T16:53:20Z</time>
      </trkpt>
      <trkpt lat="43.89157" lon="1.89958">
        <ele>117.4</ele>
        <time>2021-09-23T16:53:21Z</time>
      </trkpt>
      <trkpt lat="43.89155" lon="1.89963">
        <ele>117.4</ele>
        <time>2021-09-23T16:53:22Z</time>
      </trkpt>
      <trkpt lat="43.89154" lon="1.89967">
        <ele>117.8</ele>
        <time>2021-09-23T16:53:23Z</time>
      </trkpt>
      <trkpt lat="43.89153" lon="1.89972">
        <ele>118.4</ele>
        <time>2021-09-23T16:53:24Z</time>
      </trkpt>
      <trkpt lat="43.89152" lon="1.89975">
        <ele>118.8</ele>
        <time>2021-09-23T16:53:25Z</time>
      </trkpt>
      <trkpt lat="43.89151" lon="1.89979">
        <ele>119.2</ele>
        <time>2021-09-23T16:53:26Z</time>
      </trkpt>
      <trkpt lat="43.89144" lon="1.89993">
        <ele>119.8</ele>
        <time>2021-09-23T16:53:29Z</time>
      </trkpt>
      <trkpt lat="43.8914" lon="1.9">
        <ele>120</ele>
        <time>2021-09-23T16:53:30Z</time>
      </trkpt>
      <trkpt lat="43.8912" lon="1.90035">
        <ele>120</ele>
        <time>2021-09-23T16:53:34Z</time>
      </trkpt>
      <trkpt lat="43.89103" lon="1.90065">
        <ele>119.6</ele>
        <time>2021-09-23T16:53:37Z</time>
      </trkpt>
      <trkpt lat="43.891" lon="1.90073">
        <ele>119.4</ele>
        <time>2021-09-23T16:53:38Z</time>
      </trkpt>
      <trkpt lat="43.89096" lon="1.90082">
        <ele>119</ele>
        <time>2021-09-23T16:53:39Z</time>
      </trkpt>
      <trkpt lat="43.89094" lon="1.90092">
        <ele>117.4</ele>
        <time>2021-09-23T16:53:40Z</time>
      </trkpt>
      <trkpt lat="43.8909" lon="1.90101">
        <ele>117</ele>
        <time>2021-09-23T16:53:41Z</time>
      </trkpt>
      <trkpt lat="43.89087" lon="1.90109">
        <ele>116</ele>
        <time>2021-09-23T16:53:42Z</time>
      </trkpt>
      <trkpt lat="43.89084" lon="1.9012">
        <ele>115.6</ele>
        <time>2021-09-23T16:53:43Z</time>
      </trkpt>
      <trkpt lat="43.89082" lon="1.90128">
        <ele>115.2</ele>
        <time>2021-09-23T16:53:44Z</time>
      </trkpt>
      <trkpt lat="43.8908" lon="1.90135">
        <ele>115</ele>
        <time>2021-09-23T16:53:45Z</time>
      </trkpt>
      <trkpt lat="43.89077" lon="1.90144">
        <ele>114.8</ele>
        <time>2021-09-23T16:53:46Z</time>
      </trkpt>
      <trkpt lat="43.89069" lon="1.90165">
        <ele>114.6</ele>
        <time>2021-09-23T16:53:48Z</time>
      </trkpt>
      <trkpt lat="43.89064" lon="1.90181">
        <ele>114.6</ele>
        <time>2021-09-23T16:53:50Z</time>
      </trkpt>
      <trkpt lat="43.89048" lon="1.90235">
        <ele>114.6</ele>
        <time>2021-09-23T16:53:56Z</time>
      </trkpt>
      <trkpt lat="43.89046" lon="1.90245">
        <ele>114.6</ele>
        <time>2021-09-23T16:53:57Z</time>
      </trkpt>
      <trkpt lat="43.8904" lon="1.90286">
        <ele>114.6</ele>
        <time>2021-09-23T16:54:01Z</time>
      </trkpt>
      <trkpt lat="43.89039" lon="1.90292">
        <ele>114.6</ele>
        <time>2021-09-23T16:54:02Z</time>
      </trkpt>
      <trkpt lat="43.89037" lon="1.90299">
        <ele>114.6</ele>
        <time>2021-09-23T16:54:03Z</time>
      </trkpt>
      <trkpt lat="43.8903" lon="1.90333">
        <ele>114.6</ele>
        <time>2021-09-23T16:54:07Z</time>
      </trkpt>
      <trkpt lat="43.89028" lon="1.9035">
        <ele>114.8</ele>
        <time>2021-09-23T16:54:09Z</time>
      </trkpt>
      <trkpt lat="43.89026" lon="1.90369">
        <ele>114.8</ele>
        <time>2021-09-23T16:54:11Z</time>
      </trkpt>
      <trkpt lat="43.89025" lon="1.90391">
        <ele>115</ele>
        <time>2021-09-23T16:54:14Z</time>
      </trkpt>
      <trkpt lat="43.89024" lon="1.90399">
        <ele>115</ele>
        <time>2021-09-23T16:54:15Z</time>
      </trkpt>
      <trkpt lat="43.89025" lon="1.90415">
        <ele>115.2</ele>
        <time>2021-09-23T16:54:17Z</time>
      </trkpt>
      <trkpt lat="43.89025" lon="1.90423">
        <ele>115.2</ele>
        <time>2021-09-23T16:54:18Z</time>
      </trkpt>
      <trkpt lat="43.89025" lon="1.90431">
        <ele>115.4</ele>
        <time>2021-09-23T16:54:19Z</time>
      </trkpt>
      <trkpt lat="43.89025" lon="1.90439">
        <ele>115.4</ele>
        <time>2021-09-23T16:54:20Z</time>
      </trkpt>
      <trkpt lat="43.89025" lon="1.90447">
        <ele>115.6</ele>
        <time>2021-09-23T16:54:21Z</time>
      </trkpt>
      <trkpt lat="43.89025" lon="1.90454">
        <ele>115.8</ele>
        <time>2021-09-23T16:54:22Z</time>
      </trkpt>
      <trkpt lat="43.89025" lon="1.90461">
        <ele>116</ele>
        <time>2021-09-23T16:54:23Z</time>
      </trkpt>
      <trkpt lat="43.89025" lon="1.90469">
        <ele>116</ele>
        <time>2021-09-23T16:54:24Z</time>
      </trkpt>
      <trkpt lat="43.89026" lon="1.90476">
        <ele>116</ele>
        <time>2021-09-23T16:54:25Z</time>
      </trkpt>
      <trkpt lat="43.89026" lon="1.90482">
        <ele>116</ele>
        <time>2021-09-23T16:54:26Z</time>
      </trkpt>
      <trkpt lat="43.89027" lon="1.90488">
        <ele>115.8</ele>
        <time>2021-09-23T16:54:27Z</time>
      </trkpt>
      <trkpt lat="43.89028" lon="1.90494">
        <ele>115.8</ele>
        <time>2021-09-23T16:54:28Z</time>
      </trkpt>
      <trkpt lat="43.8903" lon="1.90498">
        <ele>115.8</ele>
        <time>2021-09-23T16:54:29Z</time>
      </trkpt>
      <trkpt lat="43.89033" lon="1.90501">
        <ele>115.8</ele>
        <time>2021-09-23T16:54:30Z</time>
      </trkpt>
      <trkpt lat="43.89036" lon="1.90502">
        <ele>115.8</ele>
        <time>2021-09-23T16:54:31Z</time>
      </trkpt>
      <trkpt lat="43.89037" lon="1.90501">
        <ele>116</ele>
        <time>2021-09-23T16:54:32Z</time>
      </trkpt>
      <trkpt lat="43.8904" lon="1.905">
        <ele>116.2</ele>
        <time>2021-09-23T16:54:33Z</time>
      </trkpt>
      <trkpt lat="43.89041" lon="1.905">
        <ele>116.2</ele>
        <time>2021-09-23T16:54:34Z</time>
      </trkpt>
      <trkpt lat="43.89042" lon="1.90499">
        <ele>116.4</ele>
        <time>2021-09-23T16:54:35Z</time>
      </trkpt>
      <trkpt lat="43.89044" lon="1.90499">
        <ele>116.6</ele>
        <time>2021-09-23T16:54:36Z</time>
      </trkpt>
      <trkpt lat="43.89045" lon="1.90499">
        <ele>116.6</ele>
        <time>2021-09-23T16:54:37Z</time>
      </trkpt>
      <trkpt lat="43.89047" lon="1.90499">
        <ele>116.8</ele>
        <time>2021-09-23T16:54:38Z</time>
      </trkpt>
      <trkpt lat="43.89048" lon="1.90499">
        <ele>117.2</ele>
        <time>2021-09-23T16:54:39Z</time>
      </trkpt>
      <trkpt lat="43.89049" lon="1.90499">
        <ele>117.4</ele>
        <time>2021-09-23T16:54:40Z</time>
      </trkpt>
      <trkpt lat="43.8905" lon="1.90499">
        <ele>117.6</ele>
        <time>2021-09-23T16:54:41Z</time>
      </trkpt>
      <trkpt lat="43.89052" lon="1.90499">
        <ele>117.8</ele>
        <time>2021-09-23T16:54:42Z</time>
      </trkpt>
      <trkpt lat="43.89054" lon="1.90498">
        <ele>118</ele>
        <time>2021-09-23T16:54:43Z</time>
      </trkpt>
      <trkpt lat="43.89056" lon="1.90498">
        <ele>118.4</ele>
        <time>2021-09-23T16:54:44Z</time>
      </trkpt>
      <trkpt lat="43.89057" lon="1.90498">
        <ele>118.6</ele>
        <time>2021-09-23T16:54:45Z</time>
      </trkpt>
      <trkpt lat="43.89059" lon="1.90498">
        <ele>119.4</ele>
        <time>2021-09-23T16:54:46Z</time>
      </trkpt>
      <trkpt lat="43.89061" lon="1.90498">
        <ele>119.8</ele>
        <time>2021-09-23T16:54:47Z</time>
      </trkpt>
      <trkpt lat="43.89063" lon="1.90497">
        <ele>120.2</ele>
        <time>2021-09-23T16:54:48Z</time>
      </trkpt>
      <trkpt lat="43.89064" lon="1.90497">
        <ele>120.4</ele>
        <time>2021-09-23T16:54:49Z</time>
      </trkpt>
      <trkpt lat="43.89065" lon="1.90496">
        <ele>121.2</ele>
        <time>2021-09-23T16:54:50Z</time>
      </trkpt>
      <trkpt lat="43.89067" lon="1.90495">
        <ele>122.2</ele>
        <time>2021-09-23T16:54:51Z</time>
      </trkpt>
      <trkpt lat="43.8907" lon="1.90494">
        <ele>122.6</ele>
        <time>2021-09-23T16:54:52Z</time>
      </trkpt>
      <trkpt lat="43.89073" lon="1.90494">
        <ele>123</ele>
        <time>2021-09-23T16:54:53Z</time>
      </trkpt>
      <trkpt lat="43.89075" lon="1.90494">
        <ele>123.2</ele>
        <time>2021-09-23T16:54:54Z</time>
      </trkpt>
      <trkpt lat="43.89077" lon="1.90493">
        <ele>123.6</ele>
        <time>2021-09-23T16:54:55Z</time>
      </trkpt>
      <trkpt lat="43.89078" lon="1.90494">
        <ele>123.8</ele>
        <time>2021-09-23T16:54:56Z</time>
      </trkpt>
      <trkpt lat="43.89082" lon="1.90495">
        <ele>124.4</ele>
        <time>2021-09-23T16:54:57Z</time>
      </trkpt>
      <trkpt lat="43.89084" lon="1.90496">
        <ele>124.6</ele>
        <time>2021-09-23T16:54:58Z</time>
      </trkpt>
      <trkpt lat="43.89086" lon="1.90498">
        <ele>124.8</ele>
        <time>2021-09-23T16:54:59Z</time>
      </trkpt>
      <trkpt lat="43.89088" lon="1.905">
        <ele>125.4</ele>
        <time>2021-09-23T16:55:00Z</time>
      </trkpt>
      <trkpt lat="43.89088" lon="1.90502">
        <ele>125.6</ele>
        <time>2021-09-23T16:55:01Z</time>
      </trkpt>
      <trkpt lat="43.89086" lon="1.90504">
        <ele>125.8</ele>
        <time>2021-09-23T16:55:02Z</time>
      </trkpt>
      <trkpt lat="43.89086" lon="1.90505">
        <ele>126</ele>
        <time>2021-09-23T16:55:03Z</time>
      </trkpt>
      <trkpt lat="43.89085" lon="1.90506">
        <ele>126.2</ele>
        <time>2021-09-23T16:55:04Z</time>
      </trkpt>
      <trkpt lat="43.89085" lon="1.90508">
        <ele>126.4</ele>
        <time>2021-09-23T16:55:05Z</time>
      </trkpt>
      <trkpt lat="43.89086" lon="1.9051">
        <ele>126.4</ele>
        <time>2021-09-23T16:55:06Z</time>
      </trkpt>
      <trkpt lat="43.89086" lon="1.90512">
        <ele>126.6</ele>
        <time>2021-09-23T16:55:07Z</time>
      </trkpt>
      <trkpt lat="43.89086" lon="1.90512">
        <ele>126.6</ele>
        <time>2021-09-23T16:55:08Z</time>
      </trkpt>
      <trkpt lat="43.89086" lon="1.90512">
        <ele>126.8</ele>
        <time>2021-09-23T16:55:09Z</time>
      </trkpt>
      <trkpt lat="43.89086" lon="1.90512">
        <ele>126.8</ele>
        <time>2021-09-23T16:55:10Z</time>
      </trkpt>
      <trkpt lat="43.89084" lon="1.90514">
        <ele>126.6</ele>
        <time>2021-09-23T16:56:20Z</time>
      </trkpt>
      <trkpt lat="43.89078" lon="1.90519">
        <ele>126.6</ele>
        <time>2021-09-23T16:56:22Z</time>
      </trkpt>
      <trkpt lat="43.89064" lon="1.9053">
        <ele>126.6</ele>
        <time>2021-09-23T16:56:27Z</time>
      </trkpt>
      <trkpt lat="43.89058" lon="1.90533">
        <ele>126.6</ele>
        <time>2021-09-23T16:56:29Z</time>
      </trkpt>
      <trkpt lat="43.89055" lon="1.90536">
        <ele>126.4</ele>
        <time>2021-09-23T16:56:31Z</time>
      </trkpt>
      <trkpt lat="43.89054" lon="1.90538">
        <ele>126.4</ele>
        <time>2021-09-23T16:56:32Z</time>
      </trkpt>
      <trkpt lat="43.89052" lon="1.90539">
        <ele>126.2</ele>
        <time>2021-09-23T16:56:33Z</time>
      </trkpt>
      <trkpt lat="43.89051" lon="1.90541">
        <ele>126.2</ele>
        <time>2021-09-23T16:56:34Z</time>
      </trkpt>
      <trkpt lat="43.8905" lon="1.90541">
        <ele>126</ele>
        <time>2021-09-23T16:56:35Z</time>
      </trkpt>
      <trkpt lat="43.8905" lon="1.90541">
        <ele>126</ele>
        <time>2021-09-23T16:56:36Z</time>
      </trkpt>
      <trkpt lat="43.8905" lon="1.90541">
        <ele>125.8</ele>
        <time>2021-09-23T16:56:38Z</time>
      </trkpt>
      <trkpt lat="43.89042" lon="1.9055">
        <ele>125.6</ele>
        <time>2021-09-23T16:57:04Z</time>
      </trkpt>
      <trkpt lat="43.89039" lon="1.90552">
        <ele>125.8</ele>
        <time>2021-09-23T16:57:05Z</time>
      </trkpt>
      <trkpt lat="43.89035" lon="1.90555">
        <ele>125.8</ele>
        <time>2021-09-23T16:57:06Z</time>
      </trkpt>
      <trkpt lat="43.8902" lon="1.90564">
        <ele>125.8</ele>
        <time>2021-09-23T16:57:09Z</time>
      </trkpt>
      <trkpt lat="43.89014" lon="1.90567">
        <ele>125.8</ele>
        <time>2021-09-23T16:57:10Z</time>
      </trkpt>
      <trkpt lat="43.88976" lon="1.90587">
        <ele>126</ele>
        <time>2021-09-23T16:57:16Z</time>
      </trkpt>
      <trkpt lat="43.88969" lon="1.9059">
        <ele>126</ele>
        <time>2021-09-23T16:57:17Z</time>
      </trkpt>
      <trkpt lat="43.88953" lon="1.90597">
        <ele>126.2</ele>
        <time>2021-09-23T16:57:19Z</time>
      </trkpt>
      <trkpt lat="43.8894" lon="1.90603">
        <ele>126.2</ele>
        <time>2021-09-23T16:57:21Z</time>
      </trkpt>
      <trkpt lat="43.88933" lon="1.90604">
        <ele>126.2</ele>
        <time>2021-09-23T16:57:22Z</time>
      </trkpt>
      <trkpt lat="43.88926" lon="1.90608">
        <ele>126.4</ele>
        <time>2021-09-23T16:57:23Z</time>
      </trkpt>
      <trkpt lat="43.8892" lon="1.90612">
        <ele>126.4</ele>
        <time>2021-09-23T16:57:24Z</time>
      </trkpt>
      <trkpt lat="43.88915" lon="1.90615">
        <ele>126.4</ele>
        <time>2021-09-23T16:57:25Z</time>
      </trkpt>
      <trkpt lat="43.8891" lon="1.90619">
        <ele>126.4</ele>
        <time>2021-09-23T16:57:26Z</time>
      </trkpt>
      <trkpt lat="43.88905" lon="1.90622">
        <ele>126.4</ele>
        <time>2021-09-23T16:57:27Z</time>
      </trkpt>
      <trkpt lat="43.88902" lon="1.90626">
        <ele>126.2</ele>
        <time>2021-09-23T16:57:28Z</time>
      </trkpt>
      <trkpt lat="43.88902" lon="1.90633">
        <ele>126</ele>
        <time>2021-09-23T16:57:29Z</time>
      </trkpt>
      <trkpt lat="43.88902" lon="1.9064">
        <ele>126</ele>
        <time>2021-09-23T16:57:30Z</time>
      </trkpt>
      <trkpt lat="43.88904" lon="1.90656">
        <ele>125.8</ele>
        <time>2021-09-23T16:57:32Z</time>
      </trkpt>
      <trkpt lat="43.88906" lon="1.90663">
        <ele>125.6</ele>
        <time>2021-09-23T16:57:33Z</time>
      </trkpt>
      <trkpt lat="43.88909" lon="1.90688">
        <ele>125.2</ele>
        <time>2021-09-23T16:57:36Z</time>
      </trkpt>
      <trkpt lat="43.88912" lon="1.90706">
        <ele>125.2</ele>
        <time>2021-09-23T16:57:38Z</time>
      </trkpt>
      <trkpt lat="43.88914" lon="1.90714">
        <ele>125.2</ele>
        <time>2021-09-23T16:57:39Z</time>
      </trkpt>
      <trkpt lat="43.88918" lon="1.90727">
        <ele>125.2</ele>
        <time>2021-09-23T16:57:41Z</time>
      </trkpt>
      <trkpt lat="43.88919" lon="1.90734">
        <ele>125.2</ele>
        <time>2021-09-23T16:57:42Z</time>
      </trkpt>
      <trkpt lat="43.8892" lon="1.90742">
        <ele>125.2</ele>
        <time>2021-09-23T16:57:43Z</time>
      </trkpt>
      <trkpt lat="43.88921" lon="1.90747">
        <ele>125.4</ele>
        <time>2021-09-23T16:57:44Z</time>
      </trkpt>
      <trkpt lat="43.88921" lon="1.90753">
        <ele>125.6</ele>
        <time>2021-09-23T16:57:45Z</time>
      </trkpt>
      <trkpt lat="43.88921" lon="1.90758">
        <ele>126.2</ele>
        <time>2021-09-23T16:57:46Z</time>
      </trkpt>
      <trkpt lat="43.88921" lon="1.90763">
        <ele>126.4</ele>
        <time>2021-09-23T16:57:47Z</time>
      </trkpt>
      <trkpt lat="43.88922" lon="1.90768">
        <ele>126.8</ele>
        <time>2021-09-23T16:57:48Z</time>
      </trkpt>
      <trkpt lat="43.88924" lon="1.90772">
        <ele>127.2</ele>
        <time>2021-09-23T16:57:49Z</time>
      </trkpt>
      <trkpt lat="43.88925" lon="1.90776">
        <ele>127.4</ele>
        <time>2021-09-23T16:57:50Z</time>
      </trkpt>
      <trkpt lat="43.88927" lon="1.9078">
        <ele>127.6</ele>
        <time>2021-09-23T16:57:51Z</time>
      </trkpt>
      <trkpt lat="43.8893" lon="1.90787">
        <ele>128.4</ele>
        <time>2021-09-23T16:57:53Z</time>
      </trkpt>
      <trkpt lat="43.88932" lon="1.90791">
        <ele>128.4</ele>
        <time>2021-09-23T16:57:54Z</time>
      </trkpt>
      <trkpt lat="43.88933" lon="1.90794">
        <ele>128.6</ele>
        <time>2021-09-23T16:57:55Z</time>
      </trkpt>
      <trkpt lat="43.88934" lon="1.90799">
        <ele>128.8</ele>
        <time>2021-09-23T16:57:56Z</time>
      </trkpt>
      <trkpt lat="43.88935" lon="1.90803">
        <ele>128.8</ele>
        <time>2021-09-23T16:57:57Z</time>
      </trkpt>
      <trkpt lat="43.88935" lon="1.90807">
        <ele>129.4</ele>
        <time>2021-09-23T16:57:58Z</time>
      </trkpt>
      <trkpt lat="43.88936" lon="1.90811">
        <ele>129.6</ele>
        <time>2021-09-23T16:57:59Z</time>
      </trkpt>
      <trkpt lat="43.88937" lon="1.90813">
        <ele>129.8</ele>
        <time>2021-09-23T16:58:00Z</time>
      </trkpt>
      <trkpt lat="43.88938" lon="1.90816">
        <ele>129.8</ele>
        <time>2021-09-23T16:58:01Z</time>
      </trkpt>
      <trkpt lat="43.8894" lon="1.90819">
        <ele>130</ele>
        <time>2021-09-23T16:58:02Z</time>
      </trkpt>
      <trkpt lat="43.88941" lon="1.9082">
        <ele>130</ele>
        <time>2021-09-23T16:58:03Z</time>
      </trkpt>
      <trkpt lat="43.88942" lon="1.90821">
        <ele>130.2</ele>
        <time>2021-09-23T16:58:04Z</time>
      </trkpt>
      <trkpt lat="43.88943" lon="1.90821">
        <ele>130.4</ele>
        <time>2021-09-23T16:58:05Z</time>
      </trkpt>
      <trkpt lat="43.88944" lon="1.90821">
        <ele>130.4</ele>
        <time>2021-09-23T16:58:06Z</time>
      </trkpt>
      <trkpt lat="43.88946" lon="1.90821">
        <ele>130.4</ele>
        <time>2021-09-23T16:58:07Z</time>
      </trkpt>
      <trkpt lat="43.88947" lon="1.90819">
        <ele>130.4</ele>
        <time>2021-09-23T16:58:08Z</time>
      </trkpt>
      <trkpt lat="43.88949" lon="1.90818">
        <ele>130.4</ele>
        <time>2021-09-23T16:58:09Z</time>
      </trkpt>
      <trkpt lat="43.88951" lon="1.90816">
        <ele>130.4</ele>
        <time>2021-09-23T16:58:10Z</time>
      </trkpt>
      <trkpt lat="43.88954" lon="1.90815">
        <ele>130.4</ele>
        <time>2021-09-23T16:58:11Z</time>
      </trkpt>
      <trkpt lat="43.88957" lon="1.90814">
        <ele>130.4</ele>
        <time>2021-09-23T16:58:12Z</time>
      </trkpt>
      <trkpt lat="43.88959" lon="1.90815">
        <ele>130.4</ele>
        <time>2021-09-23T16:58:13Z</time>
      </trkpt>
      <trkpt lat="43.88962" lon="1.90818">
        <ele>130.4</ele>
        <time>2021-09-23T16:58:14Z</time>
      </trkpt>
      <trkpt lat="43.88963" lon="1.90821">
        <ele>130.4</ele>
        <time>2021-09-23T16:58:15Z</time>
      </trkpt>
      <trkpt lat="43.88963" lon="1.90824">
        <ele>130.2</ele>
        <time>2021-09-23T16:58:16Z</time>
      </trkpt>
      <trkpt lat="43.88964" lon="1.90827">
        <ele>130.2</ele>
        <time>2021-09-23T16:58:17Z</time>
      </trkpt>
      <trkpt lat="43.88965" lon="1.9083">
        <ele>130.2</ele>
        <time>2021-09-23T16:58:18Z</time>
      </trkpt>
      <trkpt lat="43.88966" lon="1.90833">
        <ele>130.2</ele>
        <time>2021-09-23T16:58:19Z</time>
      </trkpt>
      <trkpt lat="43.88969" lon="1.90839">
        <ele>130.2</ele>
        <time>2021-09-23T16:58:21Z</time>
      </trkpt>
      <trkpt lat="43.88972" lon="1.90848">
        <ele>130.2</ele>
        <time>2021-09-23T16:58:24Z</time>
      </trkpt>
      <trkpt lat="43.88974" lon="1.90858">
        <ele>130.2</ele>
        <time>2021-09-23T16:58:27Z</time>
      </trkpt>
      <trkpt lat="43.88978" lon="1.90868">
        <ele>130.4</ele>
        <time>2021-09-23T16:58:30Z</time>
      </trkpt>
      <trkpt lat="43.88979" lon="1.90872">
        <ele>130.6</ele>
        <time>2021-09-23T16:58:31Z</time>
      </trkpt>
      <trkpt lat="43.88982" lon="1.90887">
        <ele>131</ele>
        <time>2021-09-23T16:58:35Z</time>
      </trkpt>
      <trkpt lat="43.88985" lon="1.90895">
        <ele>131</ele>
        <time>2021-09-23T16:58:37Z</time>
      </trkpt>
      <trkpt lat="43.8899" lon="1.90916">
        <ele>131.2</ele>
        <time>2021-09-23T16:58:42Z</time>
      </trkpt>
      <trkpt lat="43.8899" lon="1.90923">
        <ele>131.4</ele>
        <time>2021-09-23T16:58:43Z</time>
      </trkpt>
      <trkpt lat="43.8899" lon="1.90928">
        <ele>131.4</ele>
        <time>2021-09-23T16:58:44Z</time>
      </trkpt>
      <trkpt lat="43.88992" lon="1.90944">
        <ele>131.4</ele>
        <time>2021-09-23T16:58:47Z</time>
      </trkpt>
      <trkpt lat="43.88993" lon="1.90948">
        <ele>131.4</ele>
        <time>2021-09-23T16:58:48Z</time>
      </trkpt>
      <trkpt lat="43.88995" lon="1.90953">
        <ele>131.4</ele>
        <time>2021-09-23T16:58:49Z</time>
      </trkpt>
      <trkpt lat="43.89" lon="1.9096">
        <ele>131.4</ele>
        <time>2021-09-23T16:58:51Z</time>
      </trkpt>
      <trkpt lat="43.89004" lon="1.90963">
        <ele>131.4</ele>
        <time>2021-09-23T16:58:52Z</time>
      </trkpt>
      <trkpt lat="43.89007" lon="1.90965">
        <ele>131.4</ele>
        <time>2021-09-23T16:58:53Z</time>
      </trkpt>
      <trkpt lat="43.8902" lon="1.90981">
        <ele>131</ele>
        <time>2021-09-23T16:58:57Z</time>
      </trkpt>
      <trkpt lat="43.89047" lon="1.91019">
        <ele>130.8</ele>
        <time>2021-09-23T16:59:06Z</time>
      </trkpt>
      <trkpt lat="43.89072" lon="1.91058">
        <ele>130.6</ele>
        <time>2021-09-23T16:59:14Z</time>
      </trkpt>
      <trkpt lat="43.89087" lon="1.91084">
        <ele>130.6</ele>
        <time>2021-09-23T16:59:19Z</time>
      </trkpt>
      <trkpt lat="43.89092" lon="1.91093">
        <ele>130.8</ele>
        <time>2021-09-23T16:59:21Z</time>
      </trkpt>
      <trkpt lat="43.89095" lon="1.91098">
        <ele>130.8</ele>
        <time>2021-09-23T16:59:22Z</time>
      </trkpt>
      <trkpt lat="43.89098" lon="1.91103">
        <ele>130.8</ele>
        <time>2021-09-23T16:59:23Z</time>
      </trkpt>
      <trkpt lat="43.89132" lon="1.91163">
        <ele>130.8</ele>
        <time>2021-09-23T16:59:34Z</time>
      </trkpt>
      <trkpt lat="43.89165" lon="1.91218">
        <ele>130.6</ele>
        <time>2021-09-23T16:59:44Z</time>
      </trkpt>
      <trkpt lat="43.89187" lon="1.91257">
        <ele>130.8</ele>
        <time>2021-09-23T16:59:51Z</time>
      </trkpt>
      <trkpt lat="43.8919" lon="1.91263">
        <ele>130.8</ele>
        <time>2021-09-23T16:59:52Z</time>
      </trkpt>
      <trkpt lat="43.89196" lon="1.91273">
        <ele>130.8</ele>
        <time>2021-09-23T16:59:54Z</time>
      </trkpt>
      <trkpt lat="43.89199" lon="1.91279">
        <ele>131</ele>
        <time>2021-09-23T16:59:55Z</time>
      </trkpt>
      <trkpt lat="43.89202" lon="1.91284">
        <ele>131</ele>
        <time>2021-09-23T16:59:56Z</time>
      </trkpt>
      <trkpt lat="43.89205" lon="1.9129">
        <ele>130.8</ele>
        <time>2021-09-23T16:59:57Z</time>
      </trkpt>
      <trkpt lat="43.89207" lon="1.91295">
        <ele>131</ele>
        <time>2021-09-23T16:59:58Z</time>
      </trkpt>
      <trkpt lat="43.8921" lon="1.913">
        <ele>131</ele>
        <time>2021-09-23T16:59:59Z</time>
      </trkpt>
      <trkpt lat="43.89213" lon="1.91305">
        <ele>131.2</ele>
        <time>2021-09-23T17:00:00Z</time>
      </trkpt>
      <trkpt lat="43.89216" lon="1.9131">
        <ele>131.2</ele>
        <time>2021-09-23T17:00:01Z</time>
      </trkpt>
      <trkpt lat="43.89219" lon="1.91315">
        <ele>131.2</ele>
        <time>2021-09-23T17:00:02Z</time>
      </trkpt>
      <trkpt lat="43.89222" lon="1.9132">
        <ele>131.4</ele>
        <time>2021-09-23T17:00:03Z</time>
      </trkpt>
      <trkpt lat="43.89226" lon="1.91325">
        <ele>131.6</ele>
        <time>2021-09-23T17:00:04Z</time>
      </trkpt>
      <trkpt lat="43.89229" lon="1.91329">
        <ele>131.6</ele>
        <time>2021-09-23T17:00:05Z</time>
      </trkpt>
      <trkpt lat="43.89233" lon="1.91334">
        <ele>131.8</ele>
        <time>2021-09-23T17:00:06Z</time>
      </trkpt>
      <trkpt lat="43.89236" lon="1.91338">
        <ele>131.8</ele>
        <time>2021-09-23T17:00:07Z</time>
      </trkpt>
      <trkpt lat="43.89239" lon="1.91342">
        <ele>132</ele>
        <time>2021-09-23T17:00:08Z</time>
      </trkpt>
      <trkpt lat="43.89242" lon="1.91344">
        <ele>132</ele>
        <time>2021-09-23T17:00:09Z</time>
      </trkpt>
      <trkpt lat="43.89245" lon="1.91347">
        <ele>132.2</ele>
        <time>2021-09-23T17:00:10Z</time>
      </trkpt>
      <trkpt lat="43.89248" lon="1.91349">
        <ele>132.2</ele>
        <time>2021-09-23T17:00:11Z</time>
      </trkpt>
      <trkpt lat="43.89251" lon="1.91352">
        <ele>132.4</ele>
        <time>2021-09-23T17:00:12Z</time>
      </trkpt>
      <trkpt lat="43.89254" lon="1.91355">
        <ele>132.4</ele>
        <time>2021-09-23T17:00:13Z</time>
      </trkpt>
      <trkpt lat="43.89257" lon="1.91359">
        <ele>132.6</ele>
        <time>2021-09-23T17:00:14Z</time>
      </trkpt>
      <trkpt lat="43.89259" lon="1.91361">
        <ele>132.8</ele>
        <time>2021-09-23T17:00:15Z</time>
      </trkpt>
      <trkpt lat="43.89261" lon="1.91364">
        <ele>133</ele>
        <time>2021-09-23T17:00:16Z</time>
      </trkpt>
      <trkpt lat="43.89264" lon="1.91367">
        <ele>133.2</ele>
        <time>2021-09-23T17:00:17Z</time>
      </trkpt>
      <trkpt lat="43.89267" lon="1.91369">
        <ele>133.4</ele>
        <time>2021-09-23T17:00:18Z</time>
      </trkpt>
      <trkpt lat="43.8927" lon="1.91371">
        <ele>133.4</ele>
        <time>2021-09-23T17:00:19Z</time>
      </trkpt>
      <trkpt lat="43.89273" lon="1.91373">
        <ele>133.6</ele>
        <time>2021-09-23T17:00:20Z</time>
      </trkpt>
      <trkpt lat="43.89276" lon="1.91374">
        <ele>133.6</ele>
        <time>2021-09-23T17:00:21Z</time>
      </trkpt>
      <trkpt lat="43.89279" lon="1.91377">
        <ele>133.6</ele>
        <time>2021-09-23T17:00:22Z</time>
      </trkpt>
      <trkpt lat="43.89291" lon="1.9139">
        <ele>133.6</ele>
        <time>2021-09-23T17:00:26Z</time>
      </trkpt>
      <trkpt lat="43.89294" lon="1.91394">
        <ele>133.6</ele>
        <time>2021-09-23T17:00:27Z</time>
      </trkpt>
      <trkpt lat="43.89296" lon="1.91398">
        <ele>133.6</ele>
        <time>2021-09-23T17:00:28Z</time>
      </trkpt>
      <trkpt lat="43.89298" lon="1.91402">
        <ele>133.4</ele>
        <time>2021-09-23T17:00:29Z</time>
      </trkpt>
      <trkpt lat="43.893" lon="1.91405">
        <ele>133.4</ele>
        <time>2021-09-23T17:00:30Z</time>
      </trkpt>
      <trkpt lat="43.89305" lon="1.91412">
        <ele>133.2</ele>
        <time>2021-09-23T17:00:32Z</time>
      </trkpt>
      <trkpt lat="43.89308" lon="1.91415">
        <ele>133.2</ele>
        <time>2021-09-23T17:00:33Z</time>
      </trkpt>
      <trkpt lat="43.89333" lon="1.91447">
        <ele>133.4</ele>
        <time>2021-09-23T17:00:41Z</time>
      </trkpt>
      <trkpt lat="43.89356" lon="1.91474">
        <ele>133.2</ele>
        <time>2021-09-23T17:00:47Z</time>
      </trkpt>
      <trkpt lat="43.89372" lon="1.91493">
        <ele>133.2</ele>
        <time>2021-09-23T17:00:52Z</time>
      </trkpt>
      <trkpt lat="43.89374" lon="1.91497">
        <ele>133.2</ele>
        <time>2021-09-23T17:00:53Z</time>
      </trkpt>
      <trkpt lat="43.89378" lon="1.91501">
        <ele>133</ele>
        <time>2021-09-23T17:00:54Z</time>
      </trkpt>
      <trkpt lat="43.89381" lon="1.91505">
        <ele>133</ele>
        <time>2021-09-23T17:00:55Z</time>
      </trkpt>
      <trkpt lat="43.89384" lon="1.91509">
        <ele>132.8</ele>
        <time>2021-09-23T17:00:56Z</time>
      </trkpt>
      <trkpt lat="43.89387" lon="1.91515">
        <ele>132.8</ele>
        <time>2021-09-23T17:00:57Z</time>
      </trkpt>
      <trkpt lat="43.89388" lon="1.91519">
        <ele>132.8</ele>
        <time>2021-09-23T17:00:58Z</time>
      </trkpt>
      <trkpt lat="43.89389" lon="1.91524">
        <ele>132.8</ele>
        <time>2021-09-23T17:00:59Z</time>
      </trkpt>
      <trkpt lat="43.8939" lon="1.91528">
        <ele>132.8</ele>
        <time>2021-09-23T17:01:00Z</time>
      </trkpt>
      <trkpt lat="43.89391" lon="1.91532">
        <ele>132.8</ele>
        <time>2021-09-23T17:01:01Z</time>
      </trkpt>
      <trkpt lat="43.89393" lon="1.91535">
        <ele>132.8</ele>
        <time>2021-09-23T17:01:02Z</time>
      </trkpt>
      <trkpt lat="43.89396" lon="1.91539">
        <ele>132.8</ele>
        <time>2021-09-23T17:01:03Z</time>
      </trkpt>
      <trkpt lat="43.89398" lon="1.91542">
        <ele>132.8</ele>
        <time>2021-09-23T17:01:04Z</time>
      </trkpt>
      <trkpt lat="43.89416" lon="1.91567">
        <ele>133.4</ele>
        <time>2021-09-23T17:01:10Z</time>
      </trkpt>
      <trkpt lat="43.89443" lon="1.91598">
        <ele>133.8</ele>
        <time>2021-09-23T17:01:19Z</time>
      </trkpt>
      <trkpt lat="43.8947" lon="1.91632">
        <ele>133.6</ele>
        <time>2021-09-23T17:01:27Z</time>
      </trkpt>
      <trkpt lat="43.8948" lon="1.91645">
        <ele>133.4</ele>
        <time>2021-09-23T17:01:30Z</time>
      </trkpt>
      <trkpt lat="43.89491" lon="1.91664">
        <ele>133.4</ele>
        <time>2021-09-23T17:01:34Z</time>
      </trkpt>
      <trkpt lat="43.89497" lon="1.91674">
        <ele>133.2</ele>
        <time>2021-09-23T17:01:36Z</time>
      </trkpt>
      <trkpt lat="43.895" lon="1.91678">
        <ele>133.2</ele>
        <time>2021-09-23T17:01:37Z</time>
      </trkpt>
      <trkpt lat="43.89503" lon="1.91683">
        <ele>133.2</ele>
        <time>2021-09-23T17:01:38Z</time>
      </trkpt>
      <trkpt lat="43.89506" lon="1.91688">
        <ele>133.2</ele>
        <time>2021-09-23T17:01:39Z</time>
      </trkpt>
      <trkpt lat="43.89509" lon="1.91692">
        <ele>133.2</ele>
        <time>2021-09-23T17:01:40Z</time>
      </trkpt>
      <trkpt lat="43.89512" lon="1.91697">
        <ele>133.2</ele>
        <time>2021-09-23T17:01:41Z</time>
      </trkpt>
      <trkpt lat="43.89515" lon="1.91701">
        <ele>133.2</ele>
        <time>2021-09-23T17:01:42Z</time>
      </trkpt>
      <trkpt lat="43.89536" lon="1.91731">
        <ele>133.4</ele>
        <time>2021-09-23T17:01:49Z</time>
      </trkpt>
      <trkpt lat="43.89549" lon="1.91757">
        <ele>133.2</ele>
        <time>2021-09-23T17:01:54Z</time>
      </trkpt>
      <trkpt lat="43.89552" lon="1.91761">
        <ele>133.4</ele>
        <time>2021-09-23T17:01:55Z</time>
      </trkpt>
      <trkpt lat="43.89572" lon="1.91788">
        <ele>133</ele>
        <time>2021-09-23T17:02:01Z</time>
      </trkpt>
      <trkpt lat="43.89583" lon="1.918">
        <ele>133</ele>
        <time>2021-09-23T17:02:04Z</time>
      </trkpt>
      <trkpt lat="43.89615" lon="1.91834">
        <ele>132.4</ele>
        <time>2021-09-23T17:02:12Z</time>
      </trkpt>
      <trkpt lat="43.89636" lon="1.91857">
        <ele>132</ele>
        <time>2021-09-23T17:02:17Z</time>
      </trkpt>
      <trkpt lat="43.8964" lon="1.91862">
        <ele>131.8</ele>
        <time>2021-09-23T17:02:18Z</time>
      </trkpt>
      <trkpt lat="43.89653" lon="1.91876">
        <ele>131.6</ele>
        <time>2021-09-23T17:02:21Z</time>
      </trkpt>
      <trkpt lat="43.89665" lon="1.9189">
        <ele>130.6</ele>
        <time>2021-09-23T17:02:24Z</time>
      </trkpt>
      <trkpt lat="43.89683" lon="1.91911">
        <ele>130</ele>
        <time>2021-09-23T17:02:28Z</time>
      </trkpt>
      <trkpt lat="43.897" lon="1.91929">
        <ele>129.6</ele>
        <time>2021-09-23T17:02:31Z</time>
      </trkpt>
      <trkpt lat="43.89708" lon="1.91939">
        <ele>129.2</ele>
        <time>2021-09-23T17:02:33Z</time>
      </trkpt>
      <trkpt lat="43.89712" lon="1.91945">
        <ele>129.2</ele>
        <time>2021-09-23T17:02:34Z</time>
      </trkpt>
      <trkpt lat="43.89716" lon="1.9195">
        <ele>128.8</ele>
        <time>2021-09-23T17:02:35Z</time>
      </trkpt>
      <trkpt lat="43.89721" lon="1.91956">
        <ele>128.6</ele>
        <time>2021-09-23T17:02:36Z</time>
      </trkpt>
      <trkpt lat="43.89724" lon="1.91959">
        <ele>128.2</ele>
        <time>2021-09-23T17:02:37Z</time>
      </trkpt>
      <trkpt lat="43.89728" lon="1.91964">
        <ele>127.8</ele>
        <time>2021-09-23T17:02:38Z</time>
      </trkpt>
      <trkpt lat="43.89732" lon="1.91969">
        <ele>127.6</ele>
        <time>2021-09-23T17:02:39Z</time>
      </trkpt>
      <trkpt lat="43.89737" lon="1.91976">
        <ele>127.4</ele>
        <time>2021-09-23T17:02:40Z</time>
      </trkpt>
      <trkpt lat="43.89745" lon="1.91989">
        <ele>127.4</ele>
        <time>2021-09-23T17:02:42Z</time>
      </trkpt>
      <trkpt lat="43.89749" lon="1.91994">
        <ele>127.2</ele>
        <time>2021-09-23T17:02:43Z</time>
      </trkpt>
      <trkpt lat="43.89753" lon="1.91998">
        <ele>126.6</ele>
        <time>2021-09-23T17:02:44Z</time>
      </trkpt>
      <trkpt lat="43.89757" lon="1.92003">
        <ele>126.4</ele>
        <time>2021-09-23T17:02:45Z</time>
      </trkpt>
      <trkpt lat="43.89761" lon="1.92008">
        <ele>126</ele>
        <time>2021-09-23T17:02:46Z</time>
      </trkpt>
      <trkpt lat="43.89769" lon="1.92016">
        <ele>125.8</ele>
        <time>2021-09-23T17:02:48Z</time>
      </trkpt>
      <trkpt lat="43.89773" lon="1.9202">
        <ele>125.8</ele>
        <time>2021-09-23T17:02:49Z</time>
      </trkpt>
      <trkpt lat="43.89777" lon="1.92024">
        <ele>125.6</ele>
        <time>2021-09-23T17:02:50Z</time>
      </trkpt>
      <trkpt lat="43.89779" lon="1.92026">
        <ele>125.6</ele>
        <time>2021-09-23T17:02:51Z</time>
      </trkpt>
      <trkpt lat="43.89782" lon="1.92029">
        <ele>125.4</ele>
        <time>2021-09-23T17:02:52Z</time>
      </trkpt>
      <trkpt lat="43.89785" lon="1.92032">
        <ele>125.4</ele>
        <time>2021-09-23T17:02:53Z</time>
      </trkpt>
      <trkpt lat="43.89787" lon="1.92035">
        <ele>125.4</ele>
        <time>2021-09-23T17:02:54Z</time>
      </trkpt>
      <trkpt lat="43.89793" lon="1.92041">
        <ele>125.4</ele>
        <time>2021-09-23T17:02:56Z</time>
      </trkpt>
      <trkpt lat="43.89795" lon="1.92044">
        <ele>125.6</ele>
        <time>2021-09-23T17:02:57Z</time>
      </trkpt>
      <trkpt lat="43.89797" lon="1.92047">
        <ele>125.6</ele>
        <time>2021-09-23T17:02:58Z</time>
      </trkpt>
      <trkpt lat="43.898" lon="1.9205">
        <ele>125.6</ele>
        <time>2021-09-23T17:02:59Z</time>
      </trkpt>
      <trkpt lat="43.89805" lon="1.92056">
        <ele>125.8</ele>
        <time>2021-09-23T17:03:01Z</time>
      </trkpt>
      <trkpt lat="43.89808" lon="1.92059">
        <ele>125.8</ele>
        <time>2021-09-23T17:03:02Z</time>
      </trkpt>
      <trkpt lat="43.8981" lon="1.92061">
        <ele>125.8</ele>
        <time>2021-09-23T17:03:03Z</time>
      </trkpt>
      <trkpt lat="43.89812" lon="1.92064">
        <ele>125.8</ele>
        <time>2021-09-23T17:03:04Z</time>
      </trkpt>
      <trkpt lat="43.89814" lon="1.92066">
        <ele>126</ele>
        <time>2021-09-23T17:03:05Z</time>
      </trkpt>
      <trkpt lat="43.89816" lon="1.92067">
        <ele>126.2</ele>
        <time>2021-09-23T17:03:06Z</time>
      </trkpt>
      <trkpt lat="43.89817" lon="1.92068">
        <ele>126.2</ele>
        <time>2021-09-23T17:03:07Z</time>
      </trkpt>
      <trkpt lat="43.89818" lon="1.92069">
        <ele>126.4</ele>
        <time>2021-09-23T17:03:08Z</time>
      </trkpt>
      <trkpt lat="43.89819" lon="1.9207">
        <ele>126.4</ele>
        <time>2021-09-23T17:03:09Z</time>
      </trkpt>
      <trkpt lat="43.8982" lon="1.92073">
        <ele>126.6</ele>
        <time>2021-09-23T17:03:11Z</time>
      </trkpt>
      <trkpt lat="43.89821" lon="1.92074">
        <ele>126.6</ele>
        <time>2021-09-23T17:03:12Z</time>
      </trkpt>
      <trkpt lat="43.89821" lon="1.92075">
        <ele>126.6</ele>
        <time>2021-09-23T17:03:13Z</time>
      </trkpt>
      <trkpt lat="43.89821" lon="1.92076">
        <ele>126.6</ele>
        <time>2021-09-23T17:03:14Z</time>
      </trkpt>
      <trkpt lat="43.89821" lon="1.92076">
        <ele>126.6</ele>
        <time>2021-09-23T17:03:15Z</time>
      </trkpt>
      <trkpt lat="43.89821" lon="1.92076">
        <ele>126.6</ele>
        <time>2021-09-23T17:03:16Z</time>
      </trkpt>
      <trkpt lat="43.89821" lon="1.92076">
        <ele>126.8</ele>
        <time>2021-09-23T17:03:17Z</time>
      </trkpt>
      <trkpt lat="43.89828" lon="1.92111">
        <ele>131.4</ele>
        <time>2021-09-23T17:17:47Z</time>
      </trkpt>
      <trkpt lat="43.8983" lon="1.92114">
        <ele>131.4</ele>
        <time>2021-09-23T17:17:48Z</time>
      </trkpt>
      <trkpt lat="43.89833" lon="1.92117">
        <ele>131.4</ele>
        <time>2021-09-23T17:17:49Z</time>
      </trkpt>
      <trkpt lat="43.89841" lon="1.92126">
        <ele>131.8</ele>
        <time>2021-09-23T17:17:52Z</time>
      </trkpt>
      <trkpt lat="43.89843" lon="1.92128">
        <ele>132</ele>
        <time>2021-09-23T17:17:53Z</time>
      </trkpt>
      <trkpt lat="43.89845" lon="1.92132">
        <ele>131.8</ele>
        <time>2021-09-23T17:17:54Z</time>
      </trkpt>
      <trkpt lat="43.89859" lon="1.92152">
        <ele>131.8</ele>
        <time>2021-09-23T17:18:00Z</time>
      </trkpt>
      <trkpt lat="43.89866" lon="1.92158">
        <ele>131.8</ele>
        <time>2021-09-23T17:18:02Z</time>
      </trkpt>
      <trkpt lat="43.89869" lon="1.92163">
        <ele>131.8</ele>
        <time>2021-09-23T17:18:03Z</time>
      </trkpt>
      <trkpt lat="43.89872" lon="1.92166">
        <ele>131.6</ele>
        <time>2021-09-23T17:18:04Z</time>
      </trkpt>
      <trkpt lat="43.8988" lon="1.92176">
        <ele>131.6</ele>
        <time>2021-09-23T17:18:07Z</time>
      </trkpt>
      <trkpt lat="43.89883" lon="1.92179">
        <ele>131.6</ele>
        <time>2021-09-23T17:18:08Z</time>
      </trkpt>
      <trkpt lat="43.89885" lon="1.92181">
        <ele>131.8</ele>
        <time>2021-09-23T17:18:09Z</time>
      </trkpt>
      <trkpt lat="43.89887" lon="1.92183">
        <ele>132</ele>
        <time>2021-09-23T17:18:10Z</time>
      </trkpt>
      <trkpt lat="43.89888" lon="1.92184">
        <ele>132.2</ele>
        <time>2021-09-23T17:18:11Z</time>
      </trkpt>
      <trkpt lat="43.8989" lon="1.92185">
        <ele>132.2</ele>
        <time>2021-09-23T17:18:12Z</time>
      </trkpt>
      <trkpt lat="43.89891" lon="1.92187">
        <ele>132.6</ele>
        <time>2021-09-23T17:18:13Z</time>
      </trkpt>
      <trkpt lat="43.89905" lon="1.9219">
        <ele>133.4</ele>
        <time>2021-09-23T17:18:18Z</time>
      </trkpt>
      <trkpt lat="43.89908" lon="1.92191">
        <ele>133.4</ele>
        <time>2021-09-23T17:18:19Z</time>
      </trkpt>
      <trkpt lat="43.89917" lon="1.92197">
        <ele>133.4</ele>
        <time>2021-09-23T17:18:22Z</time>
      </trkpt>
      <trkpt lat="43.8992" lon="1.92199">
        <ele>133.4</ele>
        <time>2021-09-23T17:18:23Z</time>
      </trkpt>
      <trkpt lat="43.89922" lon="1.92201">
        <ele>133.4</ele>
        <time>2021-09-23T17:18:24Z</time>
      </trkpt>
      <trkpt lat="43.89934" lon="1.92212">
        <ele>133.2</ele>
        <time>2021-09-23T17:18:29Z</time>
      </trkpt>
      <trkpt lat="43.89936" lon="1.92214">
        <ele>133.2</ele>
        <time>2021-09-23T17:18:30Z</time>
      </trkpt>
      <trkpt lat="43.89939" lon="1.92217">
        <ele>133.2</ele>
        <time>2021-09-23T17:18:31Z</time>
      </trkpt>
      <trkpt lat="43.8994" lon="1.92219">
        <ele>133.2</ele>
        <time>2021-09-23T17:18:32Z</time>
      </trkpt>
      <trkpt lat="43.89942" lon="1.9222">
        <ele>133.2</ele>
        <time>2021-09-23T17:18:33Z</time>
      </trkpt>
      <trkpt lat="43.89945" lon="1.92222">
        <ele>133.2</ele>
        <time>2021-09-23T17:18:34Z</time>
      </trkpt>
      <trkpt lat="43.89947" lon="1.92224">
        <ele>133.2</ele>
        <time>2021-09-23T17:18:35Z</time>
      </trkpt>
      <trkpt lat="43.89949" lon="1.92226">
        <ele>133.2</ele>
        <time>2021-09-23T17:18:36Z</time>
      </trkpt>
      <trkpt lat="43.89952" lon="1.92228">
        <ele>133.2</ele>
        <time>2021-09-23T17:18:37Z</time>
      </trkpt>
      <trkpt lat="43.89955" lon="1.9223">
        <ele>133.2</ele>
        <time>2021-09-23T17:18:38Z</time>
      </trkpt>
      <trkpt lat="43.89966" lon="1.92241">
        <ele>133.2</ele>
        <time>2021-09-23T17:18:42Z</time>
      </trkpt>
      <trkpt lat="43.89972" lon="1.92246">
        <ele>133.2</ele>
        <time>2021-09-23T17:18:44Z</time>
      </trkpt>
      <trkpt lat="43.89996" lon="1.92266">
        <ele>133.8</ele>
        <time>2021-09-23T17:18:51Z</time>
      </trkpt>
      <trkpt lat="43.89999" lon="1.92269">
        <ele>134</ele>
        <time>2021-09-23T17:18:52Z</time>
      </trkpt>
      <trkpt lat="43.9003" lon="1.92294">
        <ele>134.2</ele>
        <time>2021-09-23T17:19:00Z</time>
      </trkpt>
      <trkpt lat="43.90065" lon="1.92331">
        <ele>134.8</ele>
        <time>2021-09-23T17:19:09Z</time>
      </trkpt>
      <trkpt lat="43.90093" lon="1.92362">
        <ele>134.8</ele>
        <time>2021-09-23T17:19:16Z</time>
      </trkpt>
      <trkpt lat="43.9012" lon="1.92395">
        <ele>134.8</ele>
        <time>2021-09-23T17:19:23Z</time>
      </trkpt>
      <trkpt lat="43.90135" lon="1.92416">
        <ele>134.8</ele>
        <time>2021-09-23T17:19:27Z</time>
      </trkpt>
      <trkpt lat="43.90139" lon="1.92421">
        <ele>134.8</ele>
        <time>2021-09-23T17:19:28Z</time>
      </trkpt>
      <trkpt lat="43.90157" lon="1.92449">
        <ele>134</ele>
        <time>2021-09-23T17:19:33Z</time>
      </trkpt>
      <trkpt lat="43.90172" lon="1.92472">
        <ele>133</ele>
        <time>2021-09-23T17:19:37Z</time>
      </trkpt>
      <trkpt lat="43.90191" lon="1.92497">
        <ele>132.8</ele>
        <time>2021-09-23T17:19:42Z</time>
      </trkpt>
      <trkpt lat="43.90194" lon="1.92502">
        <ele>132.8</ele>
        <time>2021-09-23T17:19:43Z</time>
      </trkpt>
      <trkpt lat="43.90197" lon="1.92506">
        <ele>132.6</ele>
        <time>2021-09-23T17:19:44Z</time>
      </trkpt>
      <trkpt lat="43.90201" lon="1.92512">
        <ele>132.6</ele>
        <time>2021-09-23T17:19:45Z</time>
      </trkpt>
      <trkpt lat="43.90214" lon="1.92528">
        <ele>132.6</ele>
        <time>2021-09-23T17:19:49Z</time>
      </trkpt>
      <trkpt lat="43.90217" lon="1.92532">
        <ele>132.6</ele>
        <time>2021-09-23T17:19:50Z</time>
      </trkpt>
      <trkpt lat="43.9022" lon="1.92535">
        <ele>132.4</ele>
        <time>2021-09-23T17:19:51Z</time>
      </trkpt>
      <trkpt lat="43.90231" lon="1.92547">
        <ele>132.4</ele>
        <time>2021-09-23T17:19:54Z</time>
      </trkpt>
      <trkpt lat="43.90236" lon="1.92552">
        <ele>132.4</ele>
        <time>2021-09-23T17:19:55Z</time>
      </trkpt>
      <trkpt lat="43.90255" lon="1.92564">
        <ele>132.4</ele>
        <time>2021-09-23T17:19:59Z</time>
      </trkpt>
      <trkpt lat="43.90265" lon="1.9257">
        <ele>132.4</ele>
        <time>2021-09-23T17:20:01Z</time>
      </trkpt>
      <trkpt lat="43.90314" lon="1.926">
        <ele>132.6</ele>
        <time>2021-09-23T17:20:10Z</time>
      </trkpt>
      <trkpt lat="43.90345" lon="1.9262">
        <ele>132.8</ele>
        <time>2021-09-23T17:20:16Z</time>
      </trkpt>
      <trkpt lat="43.90349" lon="1.92623">
        <ele>132.8</ele>
        <time>2021-09-23T17:20:17Z</time>
      </trkpt>
      <trkpt lat="43.90355" lon="1.92627">
        <ele>133</ele>
        <time>2021-09-23T17:20:18Z</time>
      </trkpt>
      <trkpt lat="43.90359" lon="1.92631">
        <ele>133.2</ele>
        <time>2021-09-23T17:20:19Z</time>
      </trkpt>
      <trkpt lat="43.90362" lon="1.92633">
        <ele>133.4</ele>
        <time>2021-09-23T17:20:20Z</time>
      </trkpt>
      <trkpt lat="43.90376" lon="1.92644">
        <ele>134.2</ele>
        <time>2021-09-23T17:20:23Z</time>
      </trkpt>
      <trkpt lat="43.90386" lon="1.92652">
        <ele>134.6</ele>
        <time>2021-09-23T17:20:25Z</time>
      </trkpt>
      <trkpt lat="43.90416" lon="1.9268">
        <ele>135.2</ele>
        <time>2021-09-23T17:20:31Z</time>
      </trkpt>
      <trkpt lat="43.90425" lon="1.9269">
        <ele>135.4</ele>
        <time>2021-09-23T17:20:33Z</time>
      </trkpt>
      <trkpt lat="43.9043" lon="1.92696">
        <ele>135.6</ele>
        <time>2021-09-23T17:20:34Z</time>
      </trkpt>
      <trkpt lat="43.90434" lon="1.92701">
        <ele>135.6</ele>
        <time>2021-09-23T17:20:35Z</time>
      </trkpt>
      <trkpt lat="43.90439" lon="1.92707">
        <ele>135.6</ele>
        <time>2021-09-23T17:20:36Z</time>
      </trkpt>
      <trkpt lat="43.90443" lon="1.92712">
        <ele>135.8</ele>
        <time>2021-09-23T17:20:37Z</time>
      </trkpt>
      <trkpt lat="43.90448" lon="1.92717">
        <ele>135.8</ele>
        <time>2021-09-23T17:20:38Z</time>
      </trkpt>
      <trkpt lat="43.90453" lon="1.92722">
        <ele>135.8</ele>
        <time>2021-09-23T17:20:39Z</time>
      </trkpt>
      <trkpt lat="43.90458" lon="1.92728">
        <ele>135.8</ele>
        <time>2021-09-23T17:20:40Z</time>
      </trkpt>
      <trkpt lat="43.90462" lon="1.92733">
        <ele>135.8</ele>
        <time>2021-09-23T17:20:41Z</time>
      </trkpt>
      <trkpt lat="43.90467" lon="1.92738">
        <ele>135.8</ele>
        <time>2021-09-23T17:20:42Z</time>
      </trkpt>
      <trkpt lat="43.90471" lon="1.92744">
        <ele>135.8</ele>
        <time>2021-09-23T17:20:43Z</time>
      </trkpt>
      <trkpt lat="43.90476" lon="1.9275">
        <ele>135.8</ele>
        <time>2021-09-23T17:20:44Z</time>
      </trkpt>
      <trkpt lat="43.9048" lon="1.92755">
        <ele>135.8</ele>
        <time>2021-09-23T17:20:45Z</time>
      </trkpt>
      <trkpt lat="43.9052" lon="1.92806">
        <ele>135.8</ele>
        <time>2021-09-23T17:20:54Z</time>
      </trkpt>
      <trkpt lat="43.90561" lon="1.92856">
        <ele>135.6</ele>
        <time>2021-09-23T17:21:03Z</time>
      </trkpt>
      <trkpt lat="43.9057" lon="1.92868">
        <ele>135.8</ele>
        <time>2021-09-23T17:21:05Z</time>
      </trkpt>
      <trkpt lat="43.90595" lon="1.92904">
        <ele>135.6</ele>
        <time>2021-09-23T17:21:11Z</time>
      </trkpt>
      <trkpt lat="43.90608" lon="1.92932">
        <ele>135.6</ele>
        <time>2021-09-23T17:21:15Z</time>
      </trkpt>
      <trkpt lat="43.90612" lon="1.92947">
        <ele>135.6</ele>
        <time>2021-09-23T17:21:17Z</time>
      </trkpt>
      <trkpt lat="43.90627" lon="1.93018">
        <ele>135.4</ele>
        <time>2021-09-23T17:21:25Z</time>
      </trkpt>
      <trkpt lat="43.90627" lon="1.93034">
        <ele>135.4</ele>
        <time>2021-09-23T17:21:27Z</time>
      </trkpt>
      <trkpt lat="43.90624" lon="1.93051">
        <ele>135.4</ele>
        <time>2021-09-23T17:21:29Z</time>
      </trkpt>
      <trkpt lat="43.90622" lon="1.93059">
        <ele>135.4</ele>
        <time>2021-09-23T17:21:30Z</time>
      </trkpt>
      <trkpt lat="43.90615" lon="1.9309">
        <ele>135.4</ele>
        <time>2021-09-23T17:21:34Z</time>
      </trkpt>
      <trkpt lat="43.90614" lon="1.93098">
        <ele>135.4</ele>
        <time>2021-09-23T17:21:35Z</time>
      </trkpt>
      <trkpt lat="43.90614" lon="1.93106">
        <ele>135.4</ele>
        <time>2021-09-23T17:21:36Z</time>
      </trkpt>
      <trkpt lat="43.90617" lon="1.93131">
        <ele>135.4</ele>
        <time>2021-09-23T17:21:39Z</time>
      </trkpt>
      <trkpt lat="43.90621" lon="1.93146">
        <ele>135.6</ele>
        <time>2021-09-23T17:21:41Z</time>
      </trkpt>
      <trkpt lat="43.90641" lon="1.93216">
        <ele>136</ele>
        <time>2021-09-23T17:21:50Z</time>
      </trkpt>
      <trkpt lat="43.90643" lon="1.93224">
        <ele>136.2</ele>
        <time>2021-09-23T17:21:51Z</time>
      </trkpt>
      <trkpt lat="43.90645" lon="1.93233">
        <ele>136.2</ele>
        <time>2021-09-23T17:21:52Z</time>
      </trkpt>
      <trkpt lat="43.90663" lon="1.93311">
        <ele>135.8</ele>
        <time>2021-09-23T17:22:02Z</time>
      </trkpt>
      <trkpt lat="43.9067" lon="1.93343">
        <ele>135.8</ele>
        <time>2021-09-23T17:22:06Z</time>
      </trkpt>
      <trkpt lat="43.90679" lon="1.93383">
        <ele>136</ele>
        <time>2021-09-23T17:22:11Z</time>
      </trkpt>
      <trkpt lat="43.90697" lon="1.93454">
        <ele>136.6</ele>
        <time>2021-09-23T17:22:20Z</time>
      </trkpt>
      <trkpt lat="43.90701" lon="1.9347">
        <ele>136.6</ele>
        <time>2021-09-23T17:22:22Z</time>
      </trkpt>
      <trkpt lat="43.90723" lon="1.93538">
        <ele>136.2</ele>
        <time>2021-09-23T17:22:31Z</time>
      </trkpt>
      <trkpt lat="43.90727" lon="1.93546">
        <ele>136.2</ele>
        <time>2021-09-23T17:22:32Z</time>
      </trkpt>
      <trkpt lat="43.90766" lon="1.93609">
        <ele>136.4</ele>
        <time>2021-09-23T17:22:42Z</time>
      </trkpt>
      <trkpt lat="43.9077" lon="1.93616">
        <ele>136.4</ele>
        <time>2021-09-23T17:22:43Z</time>
      </trkpt>
      <trkpt lat="43.90785" lon="1.93641">
        <ele>136.6</ele>
        <time>2021-09-23T17:22:47Z</time>
      </trkpt>
      <trkpt lat="43.90793" lon="1.93663">
        <ele>136.8</ele>
        <time>2021-09-23T17:22:50Z</time>
      </trkpt>
      <trkpt lat="43.90798" lon="1.93679">
        <ele>136.8</ele>
        <time>2021-09-23T17:22:52Z</time>
      </trkpt>
      <trkpt lat="43.908" lon="1.93695">
        <ele>136.8</ele>
        <time>2021-09-23T17:22:55Z</time>
      </trkpt>
      <trkpt lat="43.90802" lon="1.93719">
        <ele>136.8</ele>
        <time>2021-09-23T17:22:57Z</time>
      </trkpt>
      <trkpt lat="43.90807" lon="1.9377">
        <ele>137</ele>
        <time>2021-09-23T17:23:03Z</time>
      </trkpt>
      <trkpt lat="43.9082" lon="1.9385">
        <ele>137</ele>
        <time>2021-09-23T17:23:13Z</time>
      </trkpt>
      <trkpt lat="43.9082" lon="1.93867">
        <ele>137</ele>
        <time>2021-09-23T17:23:15Z</time>
      </trkpt>
      <trkpt lat="43.90818" lon="1.93883">
        <ele>137</ele>
        <time>2021-09-23T17:23:17Z</time>
      </trkpt>
      <trkpt lat="43.90811" lon="1.93899">
        <ele>136.8</ele>
        <time>2021-09-23T17:23:19Z</time>
      </trkpt>
      <trkpt lat="43.90808" lon="1.93905">
        <ele>136.8</ele>
        <time>2021-09-23T17:23:20Z</time>
      </trkpt>
      <trkpt lat="43.90804" lon="1.93911">
        <ele>137</ele>
        <time>2021-09-23T17:23:22Z</time>
      </trkpt>
      <trkpt lat="43.90778" lon="1.93958">
        <ele>137</ele>
        <time>2021-09-23T17:23:28Z</time>
      </trkpt>
      <trkpt lat="43.90776" lon="1.93966">
        <ele>137</ele>
        <time>2021-09-23T17:23:29Z</time>
      </trkpt>
      <trkpt lat="43.90773" lon="1.93982">
        <ele>137</ele>
        <time>2021-09-23T17:23:31Z</time>
      </trkpt>
      <trkpt lat="43.90771" lon="1.94007">
        <ele>137.2</ele>
        <time>2021-09-23T17:23:34Z</time>
      </trkpt>
      <trkpt lat="43.90769" lon="1.94032">
        <ele>137.2</ele>
        <time>2021-09-23T17:23:38Z</time>
      </trkpt>
      <trkpt lat="43.90765" lon="1.94063">
        <ele>137.4</ele>
        <time>2021-09-23T17:23:41Z</time>
      </trkpt>
      <trkpt lat="43.90764" lon="1.94071">
        <ele>137.4</ele>
        <time>2021-09-23T17:23:42Z</time>
      </trkpt>
      <trkpt lat="43.90764" lon="1.94071">
        <ele>137.4</ele>
        <time>2021-09-23T17:23:43Z</time>
      </trkpt>
      <trkpt lat="43.90756" lon="1.94111">
        <ele>137.6</ele>
        <time>2021-09-23T17:23:47Z</time>
      </trkpt>
      <trkpt lat="43.90744" lon="1.94158">
        <ele>138</ele>
        <time>2021-09-23T17:23:53Z</time>
      </trkpt>
      <trkpt lat="43.90727" lon="1.94229">
        <ele>138.4</ele>
        <time>2021-09-23T17:24:02Z</time>
      </trkpt>
      <trkpt lat="43.90725" lon="1.94237">
        <ele>138.4</ele>
        <time>2021-09-23T17:24:03Z</time>
      </trkpt>
      <trkpt lat="43.90724" lon="1.94254">
        <ele>138.6</ele>
        <time>2021-09-23T17:24:05Z</time>
      </trkpt>
      <trkpt lat="43.90723" lon="1.94294">
        <ele>138.6</ele>
        <time>2021-09-23T17:24:10Z</time>
      </trkpt>
      <trkpt lat="43.90725" lon="1.94376">
        <ele>138.6</ele>
        <time>2021-09-23T17:24:20Z</time>
      </trkpt>
      <trkpt lat="43.90725" lon="1.94385">
        <ele>138.6</ele>
        <time>2021-09-23T17:24:21Z</time>
      </trkpt>
      <trkpt lat="43.90721" lon="1.94465">
        <ele>138.6</ele>
        <time>2021-09-23T17:24:31Z</time>
      </trkpt>
      <trkpt lat="43.9072" lon="1.94474">
        <ele>138.6</ele>
        <time>2021-09-23T17:24:32Z</time>
      </trkpt>
      <trkpt lat="43.9072" lon="1.94478">
        <ele>138.6</ele>
        <time>2021-09-23T17:24:33Z</time>
      </trkpt>
      <trkpt lat="43.90719" lon="1.94485">
        <ele>138.6</ele>
        <time>2021-09-23T17:24:34Z</time>
      </trkpt>
      <trkpt lat="43.90719" lon="1.94491">
        <ele>138.6</ele>
        <time>2021-09-23T17:24:35Z</time>
      </trkpt>
      <trkpt lat="43.90719" lon="1.94495">
        <ele>138.6</ele>
        <time>2021-09-23T17:24:36Z</time>
      </trkpt>
      <trkpt lat="43.90721" lon="1.94498">
        <ele>138.6</ele>
        <time>2021-09-23T17:24:37Z</time>
      </trkpt>
      <trkpt lat="43.90722" lon="1.94499">
        <ele>138.6</ele>
        <time>2021-09-23T17:24:38Z</time>
      </trkpt>
      <trkpt lat="43.90723" lon="1.945">
        <ele>138.6</ele>
        <time>2021-09-23T17:24:39Z</time>
      </trkpt>
      <trkpt lat="43.90723" lon="1.945">
        <ele>138.6</ele>
        <time>2021-09-23T17:24:40Z</time>
      </trkpt>
      <trkpt lat="43.90719" lon="1.94502">
        <ele>138.4</ele>
        <time>2021-09-23T17:38:53Z</time>
      </trkpt>
      <trkpt lat="43.90719" lon="1.94503">
        <ele>138.4</ele>
        <time>2021-09-23T17:38:54Z</time>
      </trkpt>
      <trkpt lat="43.90718" lon="1.94504">
        <ele>138.4</ele>
        <time>2021-09-23T17:38:55Z</time>
      </trkpt>
      <trkpt lat="43.90718" lon="1.94504">
        <ele>138.4</ele>
        <time>2021-09-23T17:38:56Z</time>
      </trkpt>
      <trkpt lat="43.90718" lon="1.94506">
        <ele>138.4</ele>
        <time>2021-09-23T17:38:58Z</time>
      </trkpt>
      <trkpt lat="43.90718" lon="1.94509">
        <ele>138.4</ele>
        <time>2021-09-23T17:38:59Z</time>
      </trkpt>
      <trkpt lat="43.90716" lon="1.94521">
        <ele>138.4</ele>
        <time>2021-09-23T17:39:04Z</time>
      </trkpt>
      <trkpt lat="43.90715" lon="1.94538">
        <ele>138.4</ele>
        <time>2021-09-23T17:39:10Z</time>
      </trkpt>
      <trkpt lat="43.90714" lon="1.94571">
        <ele>138.6</ele>
        <time>2021-09-23T17:39:17Z</time>
      </trkpt>
      <trkpt lat="43.90714" lon="1.94582">
        <ele>138.6</ele>
        <time>2021-09-23T17:39:19Z</time>
      </trkpt>
      <trkpt lat="43.90712" lon="1.94608">
        <ele>138.8</ele>
        <time>2021-09-23T17:39:24Z</time>
      </trkpt>
      <trkpt lat="43.90711" lon="1.94633">
        <ele>139</ele>
        <time>2021-09-23T17:39:29Z</time>
      </trkpt>
      <trkpt lat="43.9071" lon="1.94641">
        <ele>139</ele>
        <time>2021-09-23T17:39:31Z</time>
      </trkpt>
      <trkpt lat="43.90711" lon="1.94645">
        <ele>139</ele>
        <time>2021-09-23T17:39:32Z</time>
      </trkpt>
      <trkpt lat="43.90713" lon="1.94648">
        <ele>139</ele>
        <time>2021-09-23T17:39:33Z</time>
      </trkpt>
      <trkpt lat="43.90715" lon="1.9465">
        <ele>139</ele>
        <time>2021-09-23T17:39:34Z</time>
      </trkpt>
      <trkpt lat="43.90716" lon="1.94654">
        <ele>139</ele>
        <time>2021-09-23T17:39:35Z</time>
      </trkpt>
      <trkpt lat="43.90716" lon="1.94657">
        <ele>139</ele>
        <time>2021-09-23T17:39:36Z</time>
      </trkpt>
      <trkpt lat="43.90715" lon="1.94659">
        <ele>139</ele>
        <time>2021-09-23T17:39:37Z</time>
      </trkpt>
      <trkpt lat="43.90714" lon="1.94661">
        <ele>139</ele>
        <time>2021-09-23T17:39:38Z</time>
      </trkpt>
      <trkpt lat="43.90713" lon="1.94663">
        <ele>138.8</ele>
        <time>2021-09-23T17:39:39Z</time>
      </trkpt>
      <trkpt lat="43.90711" lon="1.94666">
        <ele>138.8</ele>
        <time>2021-09-23T17:39:40Z</time>
      </trkpt>
      <trkpt lat="43.9071" lon="1.94667">
        <ele>138.8</ele>
        <time>2021-09-23T17:39:41Z</time>
      </trkpt>
      <trkpt lat="43.90709" lon="1.9467">
        <ele>138.6</ele>
        <time>2021-09-23T17:39:42Z</time>
      </trkpt>
      <trkpt lat="43.90708" lon="1.94672">
        <ele>138.6</ele>
        <time>2021-09-23T17:39:43Z</time>
      </trkpt>
      <trkpt lat="43.90707" lon="1.94674">
        <ele>138.6</ele>
        <time>2021-09-23T17:39:44Z</time>
      </trkpt>
      <trkpt lat="43.90707" lon="1.94676">
        <ele>138.6</ele>
        <time>2021-09-23T17:39:45Z</time>
      </trkpt>
      <trkpt lat="43.90706" lon="1.94679">
        <ele>138.6</ele>
        <time>2021-09-23T17:39:46Z</time>
      </trkpt>
      <trkpt lat="43.90705" lon="1.9468">
        <ele>138.6</ele>
        <time>2021-09-23T17:39:47Z</time>
      </trkpt>
      <trkpt lat="43.90703" lon="1.94682">
        <ele>138.6</ele>
        <time>2021-09-23T17:39:48Z</time>
      </trkpt>
      <trkpt lat="43.90702" lon="1.94682">
        <ele>138.6</ele>
        <time>2021-09-23T17:39:49Z</time>
      </trkpt>
      <trkpt lat="43.907" lon="1.94683">
        <ele>138.6</ele>
        <time>2021-09-23T17:39:50Z</time>
      </trkpt>
      <trkpt lat="43.90698" lon="1.94684">
        <ele>138.6</ele>
        <time>2021-09-23T17:39:51Z</time>
      </trkpt>
      <trkpt lat="43.90696" lon="1.94686">
        <ele>138.6</ele>
        <time>2021-09-23T17:39:52Z</time>
      </trkpt>
      <trkpt lat="43.90693" lon="1.94693">
        <ele>138.6</ele>
        <time>2021-09-23T17:39:55Z</time>
      </trkpt>
      <trkpt lat="43.90691" lon="1.94695">
        <ele>138.6</ele>
        <time>2021-09-23T17:39:56Z</time>
      </trkpt>
      <trkpt lat="43.9069" lon="1.94697">
        <ele>138.6</ele>
        <time>2021-09-23T17:39:57Z</time>
      </trkpt>
      <trkpt lat="43.90689" lon="1.94699">
        <ele>138.6</ele>
        <time>2021-09-23T17:39:59Z</time>
      </trkpt>
      <trkpt lat="43.90689" lon="1.947">
        <ele>138.6</ele>
        <time>2021-09-23T17:40:00Z</time>
      </trkpt>
      <trkpt lat="43.90689" lon="1.947">
        <ele>138.6</ele>
        <time>2021-09-23T17:40:01Z</time>
      </trkpt>
      <trkpt lat="43.90688" lon="1.94709">
        <ele>138.8</ele>
        <time>2021-09-23T17:40:13Z</time>
      </trkpt>
      <trkpt lat="43.90687" lon="1.94715">
        <ele>138.8</ele>
        <time>2021-09-23T17:40:15Z</time>
      </trkpt>
      <trkpt lat="43.90685" lon="1.9472">
        <ele>138.8</ele>
        <time>2021-09-23T17:40:17Z</time>
      </trkpt>
      <trkpt lat="43.90685" lon="1.94723">
        <ele>138.8</ele>
        <time>2021-09-23T17:40:18Z</time>
      </trkpt>
      <trkpt lat="43.90684" lon="1.94725">
        <ele>138.8</ele>
        <time>2021-09-23T17:40:19Z</time>
      </trkpt>
      <trkpt lat="43.90683" lon="1.94728">
        <ele>138.8</ele>
        <time>2021-09-23T17:40:20Z</time>
      </trkpt>
      <trkpt lat="43.90677" lon="1.94751">
        <ele>138.6</ele>
        <time>2021-09-23T17:40:27Z</time>
      </trkpt>
      <trkpt lat="43.9067" lon="1.94782">
        <ele>138.6</ele>
        <time>2021-09-23T17:40:33Z</time>
      </trkpt>
      <trkpt lat="43.90665" lon="1.94805">
        <ele>138.8</ele>
        <time>2021-09-23T17:40:37Z</time>
      </trkpt>
      <trkpt lat="43.9066" lon="1.94825">
        <ele>138.8</ele>
        <time>2021-09-23T17:40:40Z</time>
      </trkpt>
      <trkpt lat="43.90648" lon="1.94876">
        <ele>138.8</ele>
        <time>2021-09-23T17:40:48Z</time>
      </trkpt>
      <trkpt lat="43.90643" lon="1.94896">
        <ele>138.8</ele>
        <time>2021-09-23T17:40:51Z</time>
      </trkpt>
      <trkpt lat="43.90632" lon="1.9492">
        <ele>138.8</ele>
        <time>2021-09-23T17:40:55Z</time>
      </trkpt>
      <trkpt lat="43.9061" lon="1.94959">
        <ele>138.8</ele>
        <time>2021-09-23T17:41:02Z</time>
      </trkpt>
      <trkpt lat="43.90601" lon="1.94976">
        <ele>138.8</ele>
        <time>2021-09-23T17:41:05Z</time>
      </trkpt>
      <trkpt lat="43.90598" lon="1.94982">
        <ele>138.8</ele>
        <time>2021-09-23T17:41:06Z</time>
      </trkpt>
      <trkpt lat="43.90591" lon="1.94993">
        <ele>138.8</ele>
        <time>2021-09-23T17:41:08Z</time>
      </trkpt>
      <trkpt lat="43.90585" lon="1.95004">
        <ele>138.8</ele>
        <time>2021-09-23T17:41:10Z</time>
      </trkpt>
      <trkpt lat="43.90571" lon="1.95033">
        <ele>138.6</ele>
        <time>2021-09-23T17:41:15Z</time>
      </trkpt>
      <trkpt lat="43.90571" lon="1.95046">
        <ele>138.6</ele>
        <time>2021-09-23T17:41:17Z</time>
      </trkpt>
      <trkpt lat="43.90574" lon="1.95051">
        <ele>138.6</ele>
        <time>2021-09-23T17:41:18Z</time>
      </trkpt>
      <trkpt lat="43.90578" lon="1.95054">
        <ele>138.8</ele>
        <time>2021-09-23T17:41:19Z</time>
      </trkpt>
      <trkpt lat="43.90583" lon="1.95056">
        <ele>138.8</ele>
        <time>2021-09-23T17:41:20Z</time>
      </trkpt>
      <trkpt lat="43.90592" lon="1.9506">
        <ele>138.8</ele>
        <time>2021-09-23T17:41:22Z</time>
      </trkpt>
      <trkpt lat="43.90598" lon="1.95062">
        <ele>138.8</ele>
        <time>2021-09-23T17:41:23Z</time>
      </trkpt>
      <trkpt lat="43.90623" lon="1.9507">
        <ele>138.4</ele>
        <time>2021-09-23T17:41:28Z</time>
      </trkpt>
      <trkpt lat="43.90632" lon="1.95078">
        <ele>138.4</ele>
        <time>2021-09-23T17:41:30Z</time>
      </trkpt>
      <trkpt lat="43.90635" lon="1.95084">
        <ele>138.4</ele>
        <time>2021-09-23T17:41:31Z</time>
      </trkpt>
      <trkpt lat="43.90638" lon="1.9509">
        <ele>138.4</ele>
        <time>2021-09-23T17:41:32Z</time>
      </trkpt>
      <trkpt lat="43.90639" lon="1.95097">
        <ele>138.4</ele>
        <time>2021-09-23T17:41:33Z</time>
      </trkpt>
      <trkpt lat="43.90641" lon="1.95105">
        <ele>138.4</ele>
        <time>2021-09-23T17:41:34Z</time>
      </trkpt>
      <trkpt lat="43.90642" lon="1.95113">
        <ele>138.4</ele>
        <time>2021-09-23T17:41:35Z</time>
      </trkpt>
      <trkpt lat="43.90646" lon="1.95159">
        <ele>138.4</ele>
        <time>2021-09-23T17:41:41Z</time>
      </trkpt>
      <trkpt lat="43.90654" lon="1.9521">
        <ele>138.6</ele>
        <time>2021-09-23T17:41:48Z</time>
      </trkpt>
      <trkpt lat="43.90656" lon="1.95218">
        <ele>138.6</ele>
        <time>2021-09-23T17:41:49Z</time>
      </trkpt>
      <trkpt lat="43.90657" lon="1.95225">
        <ele>139</ele>
        <time>2021-09-23T17:41:50Z</time>
      </trkpt>
      <trkpt lat="43.90673" lon="1.95281">
        <ele>139</ele>
        <time>2021-09-23T17:41:58Z</time>
      </trkpt>
      <trkpt lat="43.90695" lon="1.95353">
        <ele>139.4</ele>
        <time>2021-09-23T17:42:08Z</time>
      </trkpt>
      <trkpt lat="43.90717" lon="1.95409">
        <ele>139.8</ele>
        <time>2021-09-23T17:42:16Z</time>
      </trkpt>
      <trkpt lat="43.90733" lon="1.95444">
        <ele>140</ele>
        <time>2021-09-23T17:42:21Z</time>
      </trkpt>
      <trkpt lat="43.90746" lon="1.95472">
        <ele>140.2</ele>
        <time>2021-09-23T17:42:25Z</time>
      </trkpt>
      <trkpt lat="43.90759" lon="1.95501">
        <ele>140</ele>
        <time>2021-09-23T17:42:29Z</time>
      </trkpt>
      <trkpt lat="43.9079" lon="1.95566">
        <ele>140</ele>
        <time>2021-09-23T17:42:38Z</time>
      </trkpt>
      <trkpt lat="43.908" lon="1.95589">
        <ele>140.2</ele>
        <time>2021-09-23T17:42:41Z</time>
      </trkpt>
      <trkpt lat="43.90807" lon="1.95603">
        <ele>140.2</ele>
        <time>2021-09-23T17:42:43Z</time>
      </trkpt>
      <trkpt lat="43.90809" lon="1.95609">
        <ele>140.2</ele>
        <time>2021-09-23T17:42:44Z</time>
      </trkpt>
      <trkpt lat="43.90814" lon="1.95617">
        <ele>140.2</ele>
        <time>2021-09-23T17:42:45Z</time>
      </trkpt>
      <trkpt lat="43.90817" lon="1.95624">
        <ele>140.2</ele>
        <time>2021-09-23T17:42:46Z</time>
      </trkpt>
      <trkpt lat="43.9082" lon="1.95631">
        <ele>140.2</ele>
        <time>2021-09-23T17:42:47Z</time>
      </trkpt>
      <trkpt lat="43.90823" lon="1.95638">
        <ele>140.2</ele>
        <time>2021-09-23T17:42:48Z</time>
      </trkpt>
      <trkpt lat="43.90826" lon="1.95645">
        <ele>140.2</ele>
        <time>2021-09-23T17:42:49Z</time>
      </trkpt>
      <trkpt lat="43.9083" lon="1.95651">
        <ele>140.2</ele>
        <time>2021-09-23T17:42:50Z</time>
      </trkpt>
      <trkpt lat="43.90833" lon="1.95658">
        <ele>140.2</ele>
        <time>2021-09-23T17:42:51Z</time>
      </trkpt>
      <trkpt lat="43.90839" lon="1.95671">
        <ele>140.2</ele>
        <time>2021-09-23T17:42:53Z</time>
      </trkpt>
      <trkpt lat="43.90842" lon="1.95678">
        <ele>140.2</ele>
        <time>2021-09-23T17:42:54Z</time>
      </trkpt>
      <trkpt lat="43.90845" lon="1.95685">
        <ele>140.2</ele>
        <time>2021-09-23T17:42:55Z</time>
      </trkpt>
      <trkpt lat="43.90852" lon="1.95698">
        <ele>140.4</ele>
        <time>2021-09-23T17:42:57Z</time>
      </trkpt>
      <trkpt lat="43.90857" lon="1.95712">
        <ele>140.4</ele>
        <time>2021-09-23T17:42:59Z</time>
      </trkpt>
      <trkpt lat="43.90872" lon="1.95744">
        <ele>140.6</ele>
        <time>2021-09-23T17:43:04Z</time>
      </trkpt>
      <trkpt lat="43.90875" lon="1.95752">
        <ele>140.4</ele>
        <time>2021-09-23T17:43:05Z</time>
      </trkpt>
      <trkpt lat="43.90885" lon="1.95771">
        <ele>140.2</ele>
        <time>2021-09-23T17:43:08Z</time>
      </trkpt>
      <trkpt lat="43.90898" lon="1.95797">
        <ele>140</ele>
        <time>2021-09-23T17:43:12Z</time>
      </trkpt>
      <trkpt lat="43.909" lon="1.95803">
        <ele>140.2</ele>
        <time>2021-09-23T17:43:13Z</time>
      </trkpt>
      <trkpt lat="43.90902" lon="1.95818">
        <ele>140.2</ele>
        <time>2021-09-23T17:43:15Z</time>
      </trkpt>
      <trkpt lat="43.90899" lon="1.95825">
        <ele>140</ele>
        <time>2021-09-23T17:43:16Z</time>
      </trkpt>
      <trkpt lat="43.90895" lon="1.9583">
        <ele>140</ele>
        <time>2021-09-23T17:43:17Z</time>
      </trkpt>
      <trkpt lat="43.9088" lon="1.95847">
        <ele>139.8</ele>
        <time>2021-09-23T17:43:20Z</time>
      </trkpt>
      <trkpt lat="43.90875" lon="1.95853">
        <ele>139.8</ele>
        <time>2021-09-23T17:43:21Z</time>
      </trkpt>
      <trkpt lat="43.90856" lon="1.95876">
        <ele>139.8</ele>
        <time>2021-09-23T17:43:25Z</time>
      </trkpt>
      <trkpt lat="43.90828" lon="1.95911">
        <ele>140</ele>
        <time>2021-09-23T17:43:31Z</time>
      </trkpt>
      <trkpt lat="43.90822" lon="1.95916">
        <ele>140</ele>
        <time>2021-09-23T17:43:32Z</time>
      </trkpt>
      <trkpt lat="43.90817" lon="1.95921">
        <ele>140</ele>
        <time>2021-09-23T17:43:33Z</time>
      </trkpt>
      <trkpt lat="43.90778" lon="1.95954">
        <ele>140</ele>
        <time>2021-09-23T17:43:40Z</time>
      </trkpt>
      <trkpt lat="43.90733" lon="1.95991">
        <ele>139.8</ele>
        <time>2021-09-23T17:43:48Z</time>
      </trkpt>
      <trkpt lat="43.90723" lon="1.95999">
        <ele>140</ele>
        <time>2021-09-23T17:43:50Z</time>
      </trkpt>
      <trkpt lat="43.90719" lon="1.96002">
        <ele>140</ele>
        <time>2021-09-23T17:43:51Z</time>
      </trkpt>
      <trkpt lat="43.90713" lon="1.96006">
        <ele>140.2</ele>
        <time>2021-09-23T17:43:52Z</time>
      </trkpt>
      <trkpt lat="43.90708" lon="1.96011">
        <ele>140.2</ele>
        <time>2021-09-23T17:43:53Z</time>
      </trkpt>
      <trkpt lat="43.90701" lon="1.96016">
        <ele>140.2</ele>
        <time>2021-09-23T17:43:54Z</time>
      </trkpt>
      <trkpt lat="43.90697" lon="1.96019">
        <ele>140.2</ele>
        <time>2021-09-23T17:43:55Z</time>
      </trkpt>
      <trkpt lat="43.90692" lon="1.96024">
        <ele>140.4</ele>
        <time>2021-09-23T17:43:56Z</time>
      </trkpt>
      <trkpt lat="43.90687" lon="1.96028">
        <ele>140.6</ele>
        <time>2021-09-23T17:43:57Z</time>
      </trkpt>
      <trkpt lat="43.90682" lon="1.96032">
        <ele>140.6</ele>
        <time>2021-09-23T17:43:58Z</time>
      </trkpt>
      <trkpt lat="43.90676" lon="1.96037">
        <ele>140.6</ele>
        <time>2021-09-23T17:43:59Z</time>
      </trkpt>
      <trkpt lat="43.90638" lon="1.96071">
        <ele>141</ele>
        <time>2021-09-23T17:44:06Z</time>
      </trkpt>
      <trkpt lat="43.90605" lon="1.96114">
        <ele>141.2</ele>
        <time>2021-09-23T17:44:13Z</time>
      </trkpt>
      <trkpt lat="43.9059" lon="1.96128">
        <ele>141.2</ele>
        <time>2021-09-23T17:44:16Z</time>
      </trkpt>
      <trkpt lat="43.90583" lon="1.96131">
        <ele>141</ele>
        <time>2021-09-23T17:44:17Z</time>
      </trkpt>
      <trkpt lat="43.90577" lon="1.96133">
        <ele>140.8</ele>
        <time>2021-09-23T17:44:18Z</time>
      </trkpt>
      <trkpt lat="43.90552" lon="1.96137">
        <ele>140.2</ele>
        <time>2021-09-23T17:44:22Z</time>
      </trkpt>
      <trkpt lat="43.90548" lon="1.96138">
        <ele>140.2</ele>
        <time>2021-09-23T17:44:23Z</time>
      </trkpt>
      <trkpt lat="43.90544" lon="1.96137">
        <ele>140</ele>
        <time>2021-09-23T17:44:24Z</time>
      </trkpt>
      <trkpt lat="43.90541" lon="1.96133">
        <ele>139.8</ele>
        <time>2021-09-23T17:44:25Z</time>
      </trkpt>
      <trkpt lat="43.90537" lon="1.96128">
        <ele>139.6</ele>
        <time>2021-09-23T17:44:26Z</time>
      </trkpt>
      <trkpt lat="43.90529" lon="1.96116">
        <ele>139.4</ele>
        <time>2021-09-23T17:44:28Z</time>
      </trkpt>
      <trkpt lat="43.90526" lon="1.96109">
        <ele>139</ele>
        <time>2021-09-23T17:44:29Z</time>
      </trkpt>
      <trkpt lat="43.90522" lon="1.96103">
        <ele>138.8</ele>
        <time>2021-09-23T17:44:30Z</time>
      </trkpt>
      <trkpt lat="43.90489" lon="1.96044">
        <ele>138.8</ele>
        <time>2021-09-23T17:44:39Z</time>
      </trkpt>
      <trkpt lat="43.9046" lon="1.95992">
        <ele>139.8</ele>
        <time>2021-09-23T17:44:47Z</time>
      </trkpt>
      <trkpt lat="43.90456" lon="1.95986">
        <ele>140</ele>
        <time>2021-09-23T17:44:48Z</time>
      </trkpt>
      <trkpt lat="43.90426" lon="1.95931">
        <ele>140.6</ele>
        <time>2021-09-23T17:44:56Z</time>
      </trkpt>
      <trkpt lat="43.90414" lon="1.95909">
        <ele>140.8</ele>
        <time>2021-09-23T17:44:59Z</time>
      </trkpt>
      <trkpt lat="43.90405" lon="1.95896">
        <ele>141</ele>
        <time>2021-09-23T17:45:01Z</time>
      </trkpt>
      <trkpt lat="43.90393" lon="1.95877">
        <ele>141.2</ele>
        <time>2021-09-23T17:45:04Z</time>
      </trkpt>
      <trkpt lat="43.90384" lon="1.95866">
        <ele>141.6</ele>
        <time>2021-09-23T17:45:06Z</time>
      </trkpt>
      <trkpt lat="43.90379" lon="1.95861">
        <ele>141.6</ele>
        <time>2021-09-23T17:45:07Z</time>
      </trkpt>
      <trkpt lat="43.90369" lon="1.95852">
        <ele>141.6</ele>
        <time>2021-09-23T17:45:09Z</time>
      </trkpt>
      <trkpt lat="43.90363" lon="1.95848">
        <ele>141.6</ele>
        <time>2021-09-23T17:45:10Z</time>
      </trkpt>
      <trkpt lat="43.90328" lon="1.95835">
        <ele>141.4</ele>
        <time>2021-09-23T17:45:16Z</time>
      </trkpt>
      <trkpt lat="43.90306" lon="1.95831">
        <ele>141.4</ele>
        <time>2021-09-23T17:45:20Z</time>
      </trkpt>
      <trkpt lat="43.90301" lon="1.9583">
        <ele>141.4</ele>
        <time>2021-09-23T17:45:21Z</time>
      </trkpt>
      <trkpt lat="43.90296" lon="1.9583">
        <ele>141.2</ele>
        <time>2021-09-23T17:45:22Z</time>
      </trkpt>
      <trkpt lat="43.90291" lon="1.95831">
        <ele>141.2</ele>
        <time>2021-09-23T17:45:23Z</time>
      </trkpt>
      <trkpt lat="43.90287" lon="1.95834">
        <ele>141.2</ele>
        <time>2021-09-23T17:45:24Z</time>
      </trkpt>
      <trkpt lat="43.90283" lon="1.95836">
        <ele>141</ele>
        <time>2021-09-23T17:45:25Z</time>
      </trkpt>
      <trkpt lat="43.90279" lon="1.9584">
        <ele>140.8</ele>
        <time>2021-09-23T17:45:26Z</time>
      </trkpt>
      <trkpt lat="43.90277" lon="1.95843">
        <ele>140.8</ele>
        <time>2021-09-23T17:45:27Z</time>
      </trkpt>
      <trkpt lat="43.90275" lon="1.95847">
        <ele>140.6</ele>
        <time>2021-09-23T17:45:28Z</time>
      </trkpt>
      <trkpt lat="43.90275" lon="1.95851">
        <ele>140.6</ele>
        <time>2021-09-23T17:45:29Z</time>
      </trkpt>
      <trkpt lat="43.90276" lon="1.95854">
        <ele>140.6</ele>
        <time>2021-09-23T17:45:30Z</time>
      </trkpt>
      <trkpt lat="43.90277" lon="1.95856">
        <ele>140.4</ele>
        <time>2021-09-23T17:45:31Z</time>
      </trkpt>
      <trkpt lat="43.90278" lon="1.95858">
        <ele>140.4</ele>
        <time>2021-09-23T17:45:32Z</time>
      </trkpt>
      <trkpt lat="43.90279" lon="1.95859">
        <ele>140.2</ele>
        <time>2021-09-23T17:45:33Z</time>
      </trkpt>
      <trkpt lat="43.9028" lon="1.9586">
        <ele>140.2</ele>
        <time>2021-09-23T17:45:34Z</time>
      </trkpt>
      <trkpt lat="43.90281" lon="1.95861">
        <ele>140.2</ele>
        <time>2021-09-23T17:45:35Z</time>
      </trkpt>
      <trkpt lat="43.90282" lon="1.95863">
        <ele>140</ele>
        <time>2021-09-23T17:45:36Z</time>
      </trkpt>
      <trkpt lat="43.90282" lon="1.95864">
        <ele>140</ele>
        <time>2021-09-23T17:45:37Z</time>
      </trkpt>
      <trkpt lat="43.90282" lon="1.95866">
        <ele>140</ele>
        <time>2021-09-23T17:45:38Z</time>
      </trkpt>
      <trkpt lat="43.90282" lon="1.95868">
        <ele>140</ele>
        <time>2021-09-23T17:45:39Z</time>
      </trkpt>
      <trkpt lat="43.90282" lon="1.9587">
        <ele>140</ele>
        <time>2021-09-23T17:45:40Z</time>
      </trkpt>
      <trkpt lat="43.90282" lon="1.95872">
        <ele>140</ele>
        <time>2021-09-23T17:45:41Z</time>
      </trkpt>
      <trkpt lat="43.90284" lon="1.95879">
        <ele>140</ele>
        <time>2021-09-23T17:45:44Z</time>
      </trkpt>
      <trkpt lat="43.90285" lon="1.95881">
        <ele>140</ele>
        <time>2021-09-23T17:45:45Z</time>
      </trkpt>
      <trkpt lat="43.90285" lon="1.95883">
        <ele>140</ele>
        <time>2021-09-23T17:45:46Z</time>
      </trkpt>
      <trkpt lat="43.90285" lon="1.95886">
        <ele>140</ele>
        <time>2021-09-23T17:45:47Z</time>
      </trkpt>
      <trkpt lat="43.90284" lon="1.95889">
        <ele>140</ele>
        <time>2021-09-23T17:45:48Z</time>
      </trkpt>
      <trkpt lat="43.90283" lon="1.95892">
        <ele>140</ele>
        <time>2021-09-23T17:45:49Z</time>
      </trkpt>
      <trkpt lat="43.90283" lon="1.95895">
        <ele>140</ele>
        <time>2021-09-23T17:45:50Z</time>
      </trkpt>
      <trkpt lat="43.90284" lon="1.95899">
        <ele>140.2</ele>
        <time>2021-09-23T17:45:52Z</time>
      </trkpt>
      <trkpt lat="43.90284" lon="1.95902">
        <ele>140.2</ele>
        <time>2021-09-23T17:45:53Z</time>
      </trkpt>
      <trkpt lat="43.90286" lon="1.95903">
        <ele>140.2</ele>
        <time>2021-09-23T17:45:54Z</time>
      </trkpt>
      <trkpt lat="43.90287" lon="1.95901">
        <ele>140.2</ele>
        <time>2021-09-23T17:45:55Z</time>
      </trkpt>
      <trkpt lat="43.90288" lon="1.95873">
        <ele>140.4</ele>
        <time>2021-09-23T17:46:05Z</time>
      </trkpt>
      <trkpt lat="43.90287" lon="1.95869">
        <ele>140.2</ele>
        <time>2021-09-23T17:46:07Z</time>
      </trkpt>
      <trkpt lat="43.90285" lon="1.95869">
        <ele>140.2</ele>
        <time>2021-09-23T17:46:09Z</time>
      </trkpt>
      <trkpt lat="43.90284" lon="1.95875">
        <ele>140.2</ele>
        <time>2021-09-23T17:46:11Z</time>
      </trkpt>
      <trkpt lat="43.90284" lon="1.95878">
        <ele>140.2</ele>
        <time>2021-09-23T17:46:12Z</time>
      </trkpt>
      <trkpt lat="43.90284" lon="1.95881">
        <ele>140.2</ele>
        <time>2021-09-23T17:46:13Z</time>
      </trkpt>
      <trkpt lat="43.90285" lon="1.95885">
        <ele>140.2</ele>
        <time>2021-09-23T17:46:14Z</time>
      </trkpt>
      <trkpt lat="43.90284" lon="1.9592">
        <ele>140.2</ele>
        <time>2021-09-23T17:46:22Z</time>
      </trkpt>
      <trkpt lat="43.90284" lon="1.95949">
        <ele>140.4</ele>
        <time>2021-09-23T17:46:28Z</time>
      </trkpt>
      <trkpt lat="43.90283" lon="1.95997">
        <ele>140.4</ele>
        <time>2021-09-23T17:46:36Z</time>
      </trkpt>
      <trkpt lat="43.90283" lon="1.96009">
        <ele>140.4</ele>
        <time>2021-09-23T17:46:38Z</time>
      </trkpt>
      <trkpt lat="43.90282" lon="1.96058">
        <ele>140.4</ele>
        <time>2021-09-23T17:46:45Z</time>
      </trkpt>
      <trkpt lat="43.90282" lon="1.9612">
        <ele>140.6</ele>
        <time>2021-09-23T17:46:54Z</time>
      </trkpt>
      <trkpt lat="43.90281" lon="1.9616">
        <ele>140.8</ele>
        <time>2021-09-23T17:47:00Z</time>
      </trkpt>
      <trkpt lat="43.90281" lon="1.96166">
        <ele>140.8</ele>
        <time>2021-09-23T17:47:01Z</time>
      </trkpt>
      <trkpt lat="43.90281" lon="1.96174">
        <ele>140.8</ele>
        <time>2021-09-23T17:47:02Z</time>
      </trkpt>
      <trkpt lat="43.90279" lon="1.96233">
        <ele>141</ele>
        <time>2021-09-23T17:47:10Z</time>
      </trkpt>
      <trkpt lat="43.90277" lon="1.96241">
        <ele>141</ele>
        <time>2021-09-23T17:47:11Z</time>
      </trkpt>
      <trkpt lat="43.90268" lon="1.96282">
        <ele>141.4</ele>
        <time>2021-09-23T17:47:16Z</time>
      </trkpt>
      <trkpt lat="43.90255" lon="1.96339">
        <ele>141.4</ele>
        <time>2021-09-23T17:47:23Z</time>
      </trkpt>
      <trkpt lat="43.90246" lon="1.96397">
        <ele>141.4</ele>
        <time>2021-09-23T17:47:30Z</time>
      </trkpt>
      <trkpt lat="43.90244" lon="1.96429">
        <ele>141.4</ele>
        <time>2021-09-23T17:47:34Z</time>
      </trkpt>
      <trkpt lat="43.90242" lon="1.96472">
        <ele>141.6</ele>
        <time>2021-09-23T17:47:39Z</time>
      </trkpt>
      <trkpt lat="43.90241" lon="1.96508">
        <ele>141.8</ele>
        <time>2021-09-23T17:47:43Z</time>
      </trkpt>
      <trkpt lat="43.9024" lon="1.96516">
        <ele>141.8</ele>
        <time>2021-09-23T17:47:44Z</time>
      </trkpt>
      <trkpt lat="43.90239" lon="1.9654">
        <ele>141.8</ele>
        <time>2021-09-23T17:47:47Z</time>
      </trkpt>
      <trkpt lat="43.90227" lon="1.96622">
        <ele>142.2</ele>
        <time>2021-09-23T17:47:56Z</time>
      </trkpt>
      <trkpt lat="43.90215" lon="1.96692">
        <ele>142.2</ele>
        <time>2021-09-23T17:48:04Z</time>
      </trkpt>
      <trkpt lat="43.90204" lon="1.96773">
        <ele>142.2</ele>
        <time>2021-09-23T17:48:13Z</time>
      </trkpt>
      <trkpt lat="43.902" lon="1.96787">
        <ele>142.4</ele>
        <time>2021-09-23T17:48:15Z</time>
      </trkpt>
      <trkpt lat="43.90192" lon="1.96812">
        <ele>142.4</ele>
        <time>2021-09-23T17:48:18Z</time>
      </trkpt>
      <trkpt lat="43.90189" lon="1.9682">
        <ele>142.4</ele>
        <time>2021-09-23T17:48:19Z</time>
      </trkpt>
      <trkpt lat="43.90187" lon="1.96826">
        <ele>142.4</ele>
        <time>2021-09-23T17:48:20Z</time>
      </trkpt>
      <trkpt lat="43.90184" lon="1.96834">
        <ele>142.4</ele>
        <time>2021-09-23T17:48:21Z</time>
      </trkpt>
      <trkpt lat="43.9018" lon="1.96843">
        <ele>142.6</ele>
        <time>2021-09-23T17:48:22Z</time>
      </trkpt>
      <trkpt lat="43.90177" lon="1.9685">
        <ele>142.8</ele>
        <time>2021-09-23T17:48:23Z</time>
      </trkpt>
      <trkpt lat="43.90175" lon="1.96855">
        <ele>143</ele>
        <time>2021-09-23T17:48:24Z</time>
      </trkpt>
      <trkpt lat="43.90172" lon="1.96861">
        <ele>143.2</ele>
        <time>2021-09-23T17:48:25Z</time>
      </trkpt>
      <trkpt lat="43.90167" lon="1.96869">
        <ele>143.2</ele>
        <time>2021-09-23T17:48:26Z</time>
      </trkpt>
      <trkpt lat="43.90164" lon="1.96874">
        <ele>143.4</ele>
        <time>2021-09-23T17:48:27Z</time>
      </trkpt>
      <trkpt lat="43.90161" lon="1.96879">
        <ele>143.6</ele>
        <time>2021-09-23T17:48:28Z</time>
      </trkpt>
      <trkpt lat="43.90159" lon="1.96882">
        <ele>143.8</ele>
        <time>2021-09-23T17:48:29Z</time>
      </trkpt>
      <trkpt lat="43.90155" lon="1.96885">
        <ele>144.2</ele>
        <time>2021-09-23T17:48:30Z</time>
      </trkpt>
      <trkpt lat="43.90151" lon="1.96888">
        <ele>144.6</ele>
        <time>2021-09-23T17:48:31Z</time>
      </trkpt>
      <trkpt lat="43.90148" lon="1.96891">
        <ele>145.2</ele>
        <time>2021-09-23T17:48:32Z</time>
      </trkpt>
      <trkpt lat="43.90145" lon="1.96893">
        <ele>145.4</ele>
        <time>2021-09-23T17:48:33Z</time>
      </trkpt>
      <trkpt lat="43.90143" lon="1.96895">
        <ele>145.8</ele>
        <time>2021-09-23T17:48:34Z</time>
      </trkpt>
      <trkpt lat="43.9014" lon="1.96897">
        <ele>146</ele>
        <time>2021-09-23T17:48:35Z</time>
      </trkpt>
      <trkpt lat="43.90136" lon="1.969">
        <ele>146.4</ele>
        <time>2021-09-23T17:48:36Z</time>
      </trkpt>
      <trkpt lat="43.90133" lon="1.96902">
        <ele>147</ele>
        <time>2021-09-23T17:48:37Z</time>
      </trkpt>
      <trkpt lat="43.90131" lon="1.96904">
        <ele>147.4</ele>
        <time>2021-09-23T17:48:38Z</time>
      </trkpt>
      <trkpt lat="43.90127" lon="1.96907">
        <ele>147.6</ele>
        <time>2021-09-23T17:48:39Z</time>
      </trkpt>
      <trkpt lat="43.90124" lon="1.96909">
        <ele>147.8</ele>
        <time>2021-09-23T17:48:40Z</time>
      </trkpt>
      <trkpt lat="43.9012" lon="1.9691">
        <ele>148</ele>
        <time>2021-09-23T17:48:41Z</time>
      </trkpt>
      <trkpt lat="43.90117" lon="1.96912">
        <ele>148.4</ele>
        <time>2021-09-23T17:48:42Z</time>
      </trkpt>
      <trkpt lat="43.90115" lon="1.96913">
        <ele>148.8</ele>
        <time>2021-09-23T17:48:43Z</time>
      </trkpt>
      <trkpt lat="43.90112" lon="1.96915">
        <ele>149</ele>
        <time>2021-09-23T17:48:44Z</time>
      </trkpt>
      <trkpt lat="43.90108" lon="1.96916">
        <ele>149.2</ele>
        <time>2021-09-23T17:48:45Z</time>
      </trkpt>
      <trkpt lat="43.90105" lon="1.96918">
        <ele>149.4</ele>
        <time>2021-09-23T17:48:46Z</time>
      </trkpt>
      <trkpt lat="43.90103" lon="1.96919">
        <ele>149.4</ele>
        <time>2021-09-23T17:48:47Z</time>
      </trkpt>
      <trkpt lat="43.90099" lon="1.96921">
        <ele>149.4</ele>
        <time>2021-09-23T17:48:48Z</time>
      </trkpt>
      <trkpt lat="43.90096" lon="1.96922">
        <ele>149.6</ele>
        <time>2021-09-23T17:48:49Z</time>
      </trkpt>
      <trkpt lat="43.90093" lon="1.96924">
        <ele>149.8</ele>
        <time>2021-09-23T17:48:50Z</time>
      </trkpt>
      <trkpt lat="43.9009" lon="1.96927">
        <ele>149.8</ele>
        <time>2021-09-23T17:48:51Z</time>
      </trkpt>
      <trkpt lat="43.90087" lon="1.9693">
        <ele>150</ele>
        <time>2021-09-23T17:48:52Z</time>
      </trkpt>
      <trkpt lat="43.90086" lon="1.96933">
        <ele>150.2</ele>
        <time>2021-09-23T17:48:53Z</time>
      </trkpt>
      <trkpt lat="43.90084" lon="1.96936">
        <ele>150.2</ele>
        <time>2021-09-23T17:48:54Z</time>
      </trkpt>
      <trkpt lat="43.90083" lon="1.96939">
        <ele>150.2</ele>
        <time>2021-09-23T17:48:55Z</time>
      </trkpt>
      <trkpt lat="43.90082" lon="1.96942">
        <ele>150.4</ele>
        <time>2021-09-23T17:48:56Z</time>
      </trkpt>
      <trkpt lat="43.90081" lon="1.96947">
        <ele>150.4</ele>
        <time>2021-09-23T17:48:57Z</time>
      </trkpt>
      <trkpt lat="43.9008" lon="1.9695">
        <ele>150.4</ele>
        <time>2021-09-23T17:48:58Z</time>
      </trkpt>
      <trkpt lat="43.90079" lon="1.96954">
        <ele>150.6</ele>
        <time>2021-09-23T17:48:59Z</time>
      </trkpt>
      <trkpt lat="43.90077" lon="1.96958">
        <ele>150.6</ele>
        <time>2021-09-23T17:49:00Z</time>
      </trkpt>
      <trkpt lat="43.90076" lon="1.96962">
        <ele>150.6</ele>
        <time>2021-09-23T17:49:01Z</time>
      </trkpt>
      <trkpt lat="43.90074" lon="1.96966">
        <ele>150.6</ele>
        <time>2021-09-23T17:49:02Z</time>
      </trkpt>
      <trkpt lat="43.90073" lon="1.96971">
        <ele>150.8</ele>
        <time>2021-09-23T17:49:03Z</time>
      </trkpt>
      <trkpt lat="43.90072" lon="1.96975">
        <ele>150.8</ele>
        <time>2021-09-23T17:49:04Z</time>
      </trkpt>
      <trkpt lat="43.9007" lon="1.96979">
        <ele>150.8</ele>
        <time>2021-09-23T17:49:05Z</time>
      </trkpt>
      <trkpt lat="43.90068" lon="1.96982">
        <ele>150.8</ele>
        <time>2021-09-23T17:49:06Z</time>
      </trkpt>
      <trkpt lat="43.90066" lon="1.96986">
        <ele>150.8</ele>
        <time>2021-09-23T17:49:07Z</time>
      </trkpt>
      <trkpt lat="43.90065" lon="1.9699">
        <ele>151</ele>
        <time>2021-09-23T17:49:08Z</time>
      </trkpt>
      <trkpt lat="43.90063" lon="1.96995">
        <ele>151.2</ele>
        <time>2021-09-23T17:49:09Z</time>
      </trkpt>
      <trkpt lat="43.90061" lon="1.96999">
        <ele>151.4</ele>
        <time>2021-09-23T17:49:10Z</time>
      </trkpt>
      <trkpt lat="43.90059" lon="1.97003">
        <ele>151.4</ele>
        <time>2021-09-23T17:49:11Z</time>
      </trkpt>
      <trkpt lat="43.90057" lon="1.97008">
        <ele>151.6</ele>
        <time>2021-09-23T17:49:12Z</time>
      </trkpt>
      <trkpt lat="43.90054" lon="1.97013">
        <ele>151.6</ele>
        <time>2021-09-23T17:49:13Z</time>
      </trkpt>
      <trkpt lat="43.90052" lon="1.97017">
        <ele>151.6</ele>
        <time>2021-09-23T17:49:14Z</time>
      </trkpt>
      <trkpt lat="43.9005" lon="1.97022">
        <ele>151.6</ele>
        <time>2021-09-23T17:49:15Z</time>
      </trkpt>
      <trkpt lat="43.90048" lon="1.97027">
        <ele>151.8</ele>
        <time>2021-09-23T17:49:16Z</time>
      </trkpt>
      <trkpt lat="43.90046" lon="1.97032">
        <ele>151.8</ele>
        <time>2021-09-23T17:49:17Z</time>
      </trkpt>
      <trkpt lat="43.90043" lon="1.97037">
        <ele>151.8</ele>
        <time>2021-09-23T17:49:18Z</time>
      </trkpt>
      <trkpt lat="43.90041" lon="1.97042">
        <ele>151.8</ele>
        <time>2021-09-23T17:49:19Z</time>
      </trkpt>
      <trkpt lat="43.90013" lon="1.97089">
        <ele>152</ele>
        <time>2021-09-23T17:49:28Z</time>
      </trkpt>
      <trkpt lat="43.8998" lon="1.97134">
        <ele>152.2</ele>
        <time>2021-09-23T17:49:37Z</time>
      </trkpt>
      <trkpt lat="43.89963" lon="1.97156">
        <ele>152.2</ele>
        <time>2021-09-23T17:49:42Z</time>
      </trkpt>
      <trkpt lat="43.8996" lon="1.97161">
        <ele>152.4</ele>
        <time>2021-09-23T17:49:43Z</time>
      </trkpt>
      <trkpt lat="43.89956" lon="1.97165">
        <ele>152.4</ele>
        <time>2021-09-23T17:49:44Z</time>
      </trkpt>
      <trkpt lat="43.89951" lon="1.97171">
        <ele>152.4</ele>
        <time>2021-09-23T17:49:45Z</time>
      </trkpt>
      <trkpt lat="43.89915" lon="1.9722">
        <ele>152.2</ele>
        <time>2021-09-23T17:49:54Z</time>
      </trkpt>
      <trkpt lat="43.89888" lon="1.97264">
        <ele>152.2</ele>
        <time>2021-09-23T17:50:01Z</time>
      </trkpt>
      <trkpt lat="43.89869" lon="1.97322">
        <ele>152</ele>
        <time>2021-09-23T17:50:09Z</time>
      </trkpt>
      <trkpt lat="43.89852" lon="1.97374">
        <ele>152</ele>
        <time>2021-09-23T17:50:16Z</time>
      </trkpt>
      <trkpt lat="43.89849" lon="1.97382">
        <ele>152</ele>
        <time>2021-09-23T17:50:17Z</time>
      </trkpt>
      <trkpt lat="43.89843" lon="1.97396">
        <ele>152</ele>
        <time>2021-09-23T17:50:19Z</time>
      </trkpt>
      <trkpt lat="43.89812" lon="1.97466">
        <ele>152.2</ele>
        <time>2021-09-23T17:50:29Z</time>
      </trkpt>
      <trkpt lat="43.89796" lon="1.97497">
        <ele>152.2</ele>
        <time>2021-09-23T17:50:34Z</time>
      </trkpt>
      <trkpt lat="43.89793" lon="1.97503">
        <ele>152.2</ele>
        <time>2021-09-23T17:50:35Z</time>
      </trkpt>
      <trkpt lat="43.89789" lon="1.97511">
        <ele>152.2</ele>
        <time>2021-09-23T17:50:36Z</time>
      </trkpt>
      <trkpt lat="43.89786" lon="1.97516">
        <ele>152.2</ele>
        <time>2021-09-23T17:50:37Z</time>
      </trkpt>
      <trkpt lat="43.89783" lon="1.97523">
        <ele>152.4</ele>
        <time>2021-09-23T17:50:38Z</time>
      </trkpt>
      <trkpt lat="43.8978" lon="1.97528">
        <ele>152.4</ele>
        <time>2021-09-23T17:50:39Z</time>
      </trkpt>
      <trkpt lat="43.89776" lon="1.97534">
        <ele>152.4</ele>
        <time>2021-09-23T17:50:40Z</time>
      </trkpt>
      <trkpt lat="43.89772" lon="1.97541">
        <ele>152.4</ele>
        <time>2021-09-23T17:50:41Z</time>
      </trkpt>
      <trkpt lat="43.89762" lon="1.97559">
        <ele>152.4</ele>
        <time>2021-09-23T17:50:44Z</time>
      </trkpt>
      <trkpt lat="43.89753" lon="1.97573">
        <ele>152.6</ele>
        <time>2021-09-23T17:50:46Z</time>
      </trkpt>
      <trkpt lat="43.89725" lon="1.9761">
        <ele>152.2</ele>
        <time>2021-09-23T17:50:53Z</time>
      </trkpt>
      <trkpt lat="43.89712" lon="1.97625">
        <ele>152.2</ele>
        <time>2021-09-23T17:50:56Z</time>
      </trkpt>
      <trkpt lat="43.89708" lon="1.97629">
        <ele>152.2</ele>
        <time>2021-09-23T17:50:57Z</time>
      </trkpt>
      <trkpt lat="43.89704" lon="1.97633">
        <ele>152.2</ele>
        <time>2021-09-23T17:50:58Z</time>
      </trkpt>
      <trkpt lat="43.897" lon="1.97637">
        <ele>152.2</ele>
        <time>2021-09-23T17:50:59Z</time>
      </trkpt>
      <trkpt lat="43.89694" lon="1.97642">
        <ele>152.2</ele>
        <time>2021-09-23T17:51:00Z</time>
      </trkpt>
      <trkpt lat="43.89689" lon="1.97644">
        <ele>152.2</ele>
        <time>2021-09-23T17:51:01Z</time>
      </trkpt>
      <trkpt lat="43.89675" lon="1.97649">
        <ele>152.2</ele>
        <time>2021-09-23T17:51:04Z</time>
      </trkpt>
      <trkpt lat="43.89671" lon="1.9765">
        <ele>152.2</ele>
        <time>2021-09-23T17:51:05Z</time>
      </trkpt>
      <trkpt lat="43.89666" lon="1.97652">
        <ele>152.2</ele>
        <time>2021-09-23T17:51:06Z</time>
      </trkpt>
      <trkpt lat="43.89661" lon="1.97654">
        <ele>152.2</ele>
        <time>2021-09-23T17:51:07Z</time>
      </trkpt>
      <trkpt lat="43.89656" lon="1.97656">
        <ele>152.2</ele>
        <time>2021-09-23T17:51:08Z</time>
      </trkpt>
      <trkpt lat="43.89631" lon="1.97673">
        <ele>152</ele>
        <time>2021-09-23T17:51:13Z</time>
      </trkpt>
      <trkpt lat="43.89614" lon="1.97689">
        <ele>151.4</ele>
        <time>2021-09-23T17:51:17Z</time>
      </trkpt>
      <trkpt lat="43.89611" lon="1.97692">
        <ele>151.4</ele>
        <time>2021-09-23T17:51:18Z</time>
      </trkpt>
      <trkpt lat="43.89609" lon="1.97696">
        <ele>151.4</ele>
        <time>2021-09-23T17:51:19Z</time>
      </trkpt>
      <trkpt lat="43.89608" lon="1.97701">
        <ele>151.4</ele>
        <time>2021-09-23T17:51:20Z</time>
      </trkpt>
      <trkpt lat="43.89608" lon="1.97703">
        <ele>151.2</ele>
        <time>2021-09-23T17:51:21Z</time>
      </trkpt>
      <trkpt lat="43.89609" lon="1.97705">
        <ele>151.2</ele>
        <time>2021-09-23T17:51:22Z</time>
      </trkpt>
      <trkpt lat="43.89611" lon="1.97707">
        <ele>151.2</ele>
        <time>2021-09-23T17:51:23Z</time>
      </trkpt>
      <trkpt lat="43.89612" lon="1.97708">
        <ele>151.2</ele>
        <time>2021-09-23T17:51:24Z</time>
      </trkpt>
      <trkpt lat="43.89613" lon="1.97709">
        <ele>151.2</ele>
        <time>2021-09-23T17:51:25Z</time>
      </trkpt>
      <trkpt lat="43.89614" lon="1.9771">
        <ele>151.2</ele>
        <time>2021-09-23T17:51:26Z</time>
      </trkpt>
      <trkpt lat="43.89615" lon="1.97711">
        <ele>151.2</ele>
        <time>2021-09-23T17:51:27Z</time>
      </trkpt>
      <trkpt lat="43.89617" lon="1.97713">
        <ele>151.2</ele>
        <time>2021-09-23T17:51:28Z</time>
      </trkpt>
      <trkpt lat="43.89623" lon="1.97722">
        <ele>151.4</ele>
        <time>2021-09-23T17:51:31Z</time>
      </trkpt>
      <trkpt lat="43.89624" lon="1.97728">
        <ele>151.4</ele>
        <time>2021-09-23T17:51:32Z</time>
      </trkpt>
      <trkpt lat="43.89624" lon="1.97733">
        <ele>151.4</ele>
        <time>2021-09-23T17:51:33Z</time>
      </trkpt>
      <trkpt lat="43.89624" lon="1.97738">
        <ele>151.4</ele>
        <time>2021-09-23T17:51:34Z</time>
      </trkpt>
      <trkpt lat="43.89624" lon="1.97742">
        <ele>151.4</ele>
        <time>2021-09-23T17:51:35Z</time>
      </trkpt>
      <trkpt lat="43.89623" lon="1.97747">
        <ele>151.4</ele>
        <time>2021-09-23T17:51:36Z</time>
      </trkpt>
      <trkpt lat="43.89622" lon="1.97753">
        <ele>151.4</ele>
        <time>2021-09-23T17:51:37Z</time>
      </trkpt>
      <trkpt lat="43.89616" lon="1.97782">
        <ele>151.8</ele>
        <time>2021-09-23T17:51:42Z</time>
      </trkpt>
      <trkpt lat="43.89607" lon="1.97821">
        <ele>152.2</ele>
        <time>2021-09-23T17:51:48Z</time>
      </trkpt>
      <trkpt lat="43.89605" lon="1.97826">
        <ele>152.2</ele>
        <time>2021-09-23T17:51:49Z</time>
      </trkpt>
      <trkpt lat="43.89604" lon="1.97833">
        <ele>152.2</ele>
        <time>2021-09-23T17:51:50Z</time>
      </trkpt>
      <trkpt lat="43.89602" lon="1.97841">
        <ele>152.2</ele>
        <time>2021-09-23T17:51:51Z</time>
      </trkpt>
      <trkpt lat="43.89591" lon="1.97885">
        <ele>152.4</ele>
        <time>2021-09-23T17:51:57Z</time>
      </trkpt>
      <trkpt lat="43.89577" lon="1.97946">
        <ele>152.4</ele>
        <time>2021-09-23T17:52:05Z</time>
      </trkpt>
      <trkpt lat="43.89565" lon="1.9801">
        <ele>152.6</ele>
        <time>2021-09-23T17:52:13Z</time>
      </trkpt>
      <trkpt lat="43.89557" lon="1.98085">
        <ele>152.8</ele>
        <time>2021-09-23T17:52:22Z</time>
      </trkpt>
      <trkpt lat="43.89556" lon="1.98101">
        <ele>152.8</ele>
        <time>2021-09-23T17:52:24Z</time>
      </trkpt>
      <trkpt lat="43.8956" lon="1.98116">
        <ele>152.8</ele>
        <time>2021-09-23T17:52:26Z</time>
      </trkpt>
      <trkpt lat="43.89575" lon="1.98131">
        <ele>153</ele>
        <time>2021-09-23T17:52:29Z</time>
      </trkpt>
      <trkpt lat="43.8958" lon="1.98146">
        <ele>153</ele>
        <time>2021-09-23T17:52:31Z</time>
      </trkpt>
      <trkpt lat="43.89579" lon="1.98155">
        <ele>153</ele>
        <time>2021-09-23T17:52:32Z</time>
      </trkpt>
      <trkpt lat="43.89574" lon="1.9818">
        <ele>153</ele>
        <time>2021-09-23T17:52:35Z</time>
      </trkpt>
      <trkpt lat="43.89573" lon="1.98188">
        <ele>153</ele>
        <time>2021-09-23T17:52:36Z</time>
      </trkpt>
      <trkpt lat="43.89566" lon="1.98222">
        <ele>153</ele>
        <time>2021-09-23T17:52:40Z</time>
      </trkpt>
      <trkpt lat="43.8956" lon="1.98248">
        <ele>152.6</ele>
        <time>2021-09-23T17:52:43Z</time>
      </trkpt>
      <trkpt lat="43.89558" lon="1.98256">
        <ele>152.4</ele>
        <time>2021-09-23T17:52:44Z</time>
      </trkpt>
      <trkpt lat="43.89553" lon="1.98262">
        <ele>152.4</ele>
        <time>2021-09-23T17:52:45Z</time>
      </trkpt>
      <trkpt lat="43.89548" lon="1.98267">
        <ele>152.4</ele>
        <time>2021-09-23T17:52:46Z</time>
      </trkpt>
      <trkpt lat="43.89541" lon="1.9827">
        <ele>152.2</ele>
        <time>2021-09-23T17:52:47Z</time>
      </trkpt>
      <trkpt lat="43.89535" lon="1.9827">
        <ele>152.2</ele>
        <time>2021-09-23T17:52:48Z</time>
      </trkpt>
      <trkpt lat="43.89523" lon="1.98268">
        <ele>152.2</ele>
        <time>2021-09-23T17:52:50Z</time>
      </trkpt>
      <trkpt lat="43.89516" lon="1.98268">
        <ele>152.2</ele>
        <time>2021-09-23T17:52:51Z</time>
      </trkpt>
      <trkpt lat="43.89505" lon="1.98273">
        <ele>152</ele>
        <time>2021-09-23T17:52:53Z</time>
      </trkpt>
      <trkpt lat="43.895" lon="1.98279">
        <ele>152.2</ele>
        <time>2021-09-23T17:52:54Z</time>
      </trkpt>
      <trkpt lat="43.89497" lon="1.98286">
        <ele>152</ele>
        <time>2021-09-23T17:52:55Z</time>
      </trkpt>
      <trkpt lat="43.89495" lon="1.98294">
        <ele>152</ele>
        <time>2021-09-23T17:52:56Z</time>
      </trkpt>
      <trkpt lat="43.89495" lon="1.98302">
        <ele>152</ele>
        <time>2021-09-23T17:52:57Z</time>
      </trkpt>
      <trkpt lat="43.89495" lon="1.9831">
        <ele>152.4</ele>
        <time>2021-09-23T17:52:58Z</time>
      </trkpt>
      <trkpt lat="43.89496" lon="1.98318">
        <ele>152.4</ele>
        <time>2021-09-23T17:52:59Z</time>
      </trkpt>
      <trkpt lat="43.89497" lon="1.98326">
        <ele>152.4</ele>
        <time>2021-09-23T17:53:00Z</time>
      </trkpt>
      <trkpt lat="43.89497" lon="1.98334">
        <ele>152.4</ele>
        <time>2021-09-23T17:53:01Z</time>
      </trkpt>
      <trkpt lat="43.89497" lon="1.98342">
        <ele>152.6</ele>
        <time>2021-09-23T17:53:02Z</time>
      </trkpt>
      <trkpt lat="43.89496" lon="1.9835">
        <ele>152.6</ele>
        <time>2021-09-23T17:53:03Z</time>
      </trkpt>
      <trkpt lat="43.89494" lon="1.98359">
        <ele>152.8</ele>
        <time>2021-09-23T17:53:04Z</time>
      </trkpt>
      <trkpt lat="43.89492" lon="1.98375">
        <ele>152.6</ele>
        <time>2021-09-23T17:53:06Z</time>
      </trkpt>
      <trkpt lat="43.89491" lon="1.98383">
        <ele>152.6</ele>
        <time>2021-09-23T17:53:07Z</time>
      </trkpt>
      <trkpt lat="43.89487" lon="1.98408">
        <ele>152.6</ele>
        <time>2021-09-23T17:53:10Z</time>
      </trkpt>
      <trkpt lat="43.89486" lon="1.98417">
        <ele>152.8</ele>
        <time>2021-09-23T17:53:11Z</time>
      </trkpt>
      <trkpt lat="43.89482" lon="1.98442">
        <ele>152.8</ele>
        <time>2021-09-23T17:53:14Z</time>
      </trkpt>
      <trkpt lat="43.89482" lon="1.98451">
        <ele>152.8</ele>
        <time>2021-09-23T17:53:15Z</time>
      </trkpt>
      <trkpt lat="43.89474" lon="1.98511">
        <ele>152.8</ele>
        <time>2021-09-23T17:53:22Z</time>
      </trkpt>
      <trkpt lat="43.89472" lon="1.98518">
        <ele>152.8</ele>
        <time>2021-09-23T17:53:23Z</time>
      </trkpt>
      <trkpt lat="43.89468" lon="1.9853">
        <ele>152.6</ele>
        <time>2021-09-23T17:53:25Z</time>
      </trkpt>
      <trkpt lat="43.89465" lon="1.98537">
        <ele>152.6</ele>
        <time>2021-09-23T17:53:26Z</time>
      </trkpt>
      <trkpt lat="43.89464" lon="1.98543">
        <ele>152.6</ele>
        <time>2021-09-23T17:53:27Z</time>
      </trkpt>
      <trkpt lat="43.89465" lon="1.98549">
        <ele>152.6</ele>
        <time>2021-09-23T17:53:28Z</time>
      </trkpt>
      <trkpt lat="43.89467" lon="1.98555">
        <ele>152.6</ele>
        <time>2021-09-23T17:53:29Z</time>
      </trkpt>
      <trkpt lat="43.89469" lon="1.98559">
        <ele>152.6</ele>
        <time>2021-09-23T17:53:30Z</time>
      </trkpt>
      <trkpt lat="43.89472" lon="1.98564">
        <ele>152.6</ele>
        <time>2021-09-23T17:53:31Z</time>
      </trkpt>
      <trkpt lat="43.89475" lon="1.98568">
        <ele>152.4</ele>
        <time>2021-09-23T17:53:32Z</time>
      </trkpt>
      <trkpt lat="43.89478" lon="1.98572">
        <ele>152.4</ele>
        <time>2021-09-23T17:53:33Z</time>
      </trkpt>
      <trkpt lat="43.89481" lon="1.98575">
        <ele>152.4</ele>
        <time>2021-09-23T17:53:34Z</time>
      </trkpt>
      <trkpt lat="43.89484" lon="1.98578">
        <ele>152.2</ele>
        <time>2021-09-23T17:53:35Z</time>
      </trkpt>
      <trkpt lat="43.89486" lon="1.98582">
        <ele>152.2</ele>
        <time>2021-09-23T17:53:36Z</time>
      </trkpt>
      <trkpt lat="43.8949" lon="1.98586">
        <ele>152.2</ele>
        <time>2021-09-23T17:53:37Z</time>
      </trkpt>
      <trkpt lat="43.89493" lon="1.9859">
        <ele>152.2</ele>
        <time>2021-09-23T17:53:38Z</time>
      </trkpt>
      <trkpt lat="43.89496" lon="1.98594">
        <ele>152.2</ele>
        <time>2021-09-23T17:53:39Z</time>
      </trkpt>
      <trkpt lat="43.89499" lon="1.98599">
        <ele>152.2</ele>
        <time>2021-09-23T17:53:40Z</time>
      </trkpt>
      <trkpt lat="43.89511" lon="1.98617">
        <ele>152.2</ele>
        <time>2021-09-23T17:53:44Z</time>
      </trkpt>
      <trkpt lat="43.89542" lon="1.9866">
        <ele>152.8</ele>
        <time>2021-09-23T17:53:54Z</time>
      </trkpt>
      <trkpt lat="43.89548" lon="1.9867">
        <ele>153</ele>
        <time>2021-09-23T17:53:56Z</time>
      </trkpt>
      <trkpt lat="43.89562" lon="1.98699">
        <ele>153.2</ele>
        <time>2021-09-23T17:54:01Z</time>
      </trkpt>
      <trkpt lat="43.89578" lon="1.98733">
        <ele>153.4</ele>
        <time>2021-09-23T17:54:06Z</time>
      </trkpt>
      <trkpt lat="43.89585" lon="1.98747">
        <ele>153.4</ele>
        <time>2021-09-23T17:54:08Z</time>
      </trkpt>
      <trkpt lat="43.89616" lon="1.98816">
        <ele>153</ele>
        <time>2021-09-23T17:54:18Z</time>
      </trkpt>
      <trkpt lat="43.89622" lon="1.98828">
        <ele>153</ele>
        <time>2021-09-23T17:54:20Z</time>
      </trkpt>
      <trkpt lat="43.89625" lon="1.98836">
        <ele>153</ele>
        <time>2021-09-23T17:54:21Z</time>
      </trkpt>
      <trkpt lat="43.89627" lon="1.9884">
        <ele>153</ele>
        <time>2021-09-23T17:54:22Z</time>
      </trkpt>
      <trkpt lat="43.89629" lon="1.98846">
        <ele>152.8</ele>
        <time>2021-09-23T17:54:23Z</time>
      </trkpt>
      <trkpt lat="43.89632" lon="1.98851">
        <ele>152.8</ele>
        <time>2021-09-23T17:54:24Z</time>
      </trkpt>
      <trkpt lat="43.89633" lon="1.98856">
        <ele>152.8</ele>
        <time>2021-09-23T17:54:25Z</time>
      </trkpt>
      <trkpt lat="43.89634" lon="1.98863">
        <ele>152.8</ele>
        <time>2021-09-23T17:54:26Z</time>
      </trkpt>
      <trkpt lat="43.89633" lon="1.98867">
        <ele>152.6</ele>
        <time>2021-09-23T17:54:27Z</time>
      </trkpt>
      <trkpt lat="43.89631" lon="1.98873">
        <ele>152.6</ele>
        <time>2021-09-23T17:54:28Z</time>
      </trkpt>
      <trkpt lat="43.89629" lon="1.9888">
        <ele>152.6</ele>
        <time>2021-09-23T17:54:29Z</time>
      </trkpt>
      <trkpt lat="43.89627" lon="1.98886">
        <ele>152.4</ele>
        <time>2021-09-23T17:54:30Z</time>
      </trkpt>
      <trkpt lat="43.89625" lon="1.98891">
        <ele>152.4</ele>
        <time>2021-09-23T17:54:31Z</time>
      </trkpt>
      <trkpt lat="43.89617" lon="1.98918">
        <ele>152.4</ele>
        <time>2021-09-23T17:54:35Z</time>
      </trkpt>
      <trkpt lat="43.89604" lon="1.98978">
        <ele>152.2</ele>
        <time>2021-09-23T17:54:44Z</time>
      </trkpt>
      <trkpt lat="43.89603" lon="1.98983">
        <ele>152.2</ele>
        <time>2021-09-23T17:54:45Z</time>
      </trkpt>
      <trkpt lat="43.89603" lon="1.98987">
        <ele>152</ele>
        <time>2021-09-23T17:54:46Z</time>
      </trkpt>
      <trkpt lat="43.89602" lon="1.98992">
        <ele>152</ele>
        <time>2021-09-23T17:54:47Z</time>
      </trkpt>
      <trkpt lat="43.89602" lon="1.98998">
        <ele>152</ele>
        <time>2021-09-23T17:54:48Z</time>
      </trkpt>
      <trkpt lat="43.89602" lon="1.99002">
        <ele>151.8</ele>
        <time>2021-09-23T17:54:49Z</time>
      </trkpt>
      <trkpt lat="43.89602" lon="1.99006">
        <ele>151.8</ele>
        <time>2021-09-23T17:54:50Z</time>
      </trkpt>
      <trkpt lat="43.89604" lon="1.99009">
        <ele>151.8</ele>
        <time>2021-09-23T17:54:51Z</time>
      </trkpt>
      <trkpt lat="43.89606" lon="1.99011">
        <ele>151.6</ele>
        <time>2021-09-23T17:54:52Z</time>
      </trkpt>
      <trkpt lat="43.89608" lon="1.99011">
        <ele>151.6</ele>
        <time>2021-09-23T17:54:53Z</time>
      </trkpt>
      <trkpt lat="43.89611" lon="1.99011">
        <ele>151.4</ele>
        <time>2021-09-23T17:54:54Z</time>
      </trkpt>
      <trkpt lat="43.89614" lon="1.99012">
        <ele>151.4</ele>
        <time>2021-09-23T17:54:55Z</time>
      </trkpt>
      <trkpt lat="43.89617" lon="1.99013">
        <ele>151.2</ele>
        <time>2021-09-23T17:54:56Z</time>
      </trkpt>
      <trkpt lat="43.89619" lon="1.99015">
        <ele>151.2</ele>
        <time>2021-09-23T17:54:57Z</time>
      </trkpt>
      <trkpt lat="43.89623" lon="1.99017">
        <ele>151.2</ele>
        <time>2021-09-23T17:54:58Z</time>
      </trkpt>
      <trkpt lat="43.89626" lon="1.9902">
        <ele>151.2</ele>
        <time>2021-09-23T17:54:59Z</time>
      </trkpt>
      <trkpt lat="43.89628" lon="1.99022">
        <ele>151.2</ele>
        <time>2021-09-23T17:55:00Z</time>
      </trkpt>
      <trkpt lat="43.89641" lon="1.99034">
        <ele>151.2</ele>
        <time>2021-09-23T17:55:05Z</time>
      </trkpt>
      <trkpt lat="43.89643" lon="1.99037">
        <ele>151.2</ele>
        <time>2021-09-23T17:55:06Z</time>
      </trkpt>
      <trkpt lat="43.89644" lon="1.9904">
        <ele>151.2</ele>
        <time>2021-09-23T17:55:07Z</time>
      </trkpt>
      <trkpt lat="43.89645" lon="1.99044">
        <ele>151.2</ele>
        <time>2021-09-23T17:55:08Z</time>
      </trkpt>
      <trkpt lat="43.89646" lon="1.99047">
        <ele>151.2</ele>
        <time>2021-09-23T17:55:09Z</time>
      </trkpt>
      <trkpt lat="43.89648" lon="1.9905">
        <ele>151.2</ele>
        <time>2021-09-23T17:55:10Z</time>
      </trkpt>
      <trkpt lat="43.89649" lon="1.99054">
        <ele>151</ele>
        <time>2021-09-23T17:55:11Z</time>
      </trkpt>
      <trkpt lat="43.89651" lon="1.99057">
        <ele>151</ele>
        <time>2021-09-23T17:55:12Z</time>
      </trkpt>
      <trkpt lat="43.89666" lon="1.99095">
        <ele>151</ele>
        <time>2021-09-23T17:55:22Z</time>
      </trkpt>
      <trkpt lat="43.89672" lon="1.99109">
        <ele>151.2</ele>
        <time>2021-09-23T17:55:26Z</time>
      </trkpt>
      <trkpt lat="43.89673" lon="1.99112">
        <ele>151.2</ele>
        <time>2021-09-23T17:55:27Z</time>
      </trkpt>
      <trkpt lat="43.89674" lon="1.99114">
        <ele>151.2</ele>
        <time>2021-09-23T17:55:28Z</time>
      </trkpt>
      <trkpt lat="43.89675" lon="1.99117">
        <ele>151.2</ele>
        <time>2021-09-23T17:55:29Z</time>
      </trkpt>
      <trkpt lat="43.89676" lon="1.99119">
        <ele>151.2</ele>
        <time>2021-09-23T17:55:30Z</time>
      </trkpt>
      <trkpt lat="43.89677" lon="1.99121">
        <ele>151.2</ele>
        <time>2021-09-23T17:55:31Z</time>
      </trkpt>
      <trkpt lat="43.89679" lon="1.99125">
        <ele>151.2</ele>
        <time>2021-09-23T17:55:33Z</time>
      </trkpt>
      <trkpt lat="43.89679" lon="1.99126">
        <ele>151.2</ele>
        <time>2021-09-23T17:55:34Z</time>
      </trkpt>
      <trkpt lat="43.8968" lon="1.99127">
        <ele>151.2</ele>
        <time>2021-09-23T17:55:35Z</time>
      </trkpt>
      <trkpt lat="43.89681" lon="1.99127">
        <ele>151.2</ele>
        <time>2021-09-23T17:55:36Z</time>
      </trkpt>
      <trkpt lat="43.89681" lon="1.99128">
        <ele>151.2</ele>
        <time>2021-09-23T17:55:37Z</time>
      </trkpt>
      <trkpt lat="43.89682" lon="1.9913">
        <ele>151.2</ele>
        <time>2021-09-23T17:55:38Z</time>
      </trkpt>
      <trkpt lat="43.89683" lon="1.99131">
        <ele>151.2</ele>
        <time>2021-09-23T17:55:39Z</time>
      </trkpt>
      <trkpt lat="43.89684" lon="1.99131">
        <ele>151</ele>
        <time>2021-09-23T17:55:40Z</time>
      </trkpt>
      <trkpt lat="43.89686" lon="1.99131">
        <ele>151</ele>
        <time>2021-09-23T17:55:41Z</time>
      </trkpt>
      <trkpt lat="43.89688" lon="1.9913">
        <ele>151</ele>
        <time>2021-09-23T17:55:42Z</time>
      </trkpt>
      <trkpt lat="43.89692" lon="1.99128">
        <ele>151</ele>
        <time>2021-09-23T17:55:44Z</time>
      </trkpt>
      <trkpt lat="43.89694" lon="1.99127">
        <ele>151</ele>
        <time>2021-09-23T17:55:45Z</time>
      </trkpt>
      <trkpt lat="43.89696" lon="1.99125">
        <ele>151</ele>
        <time>2021-09-23T17:55:46Z</time>
      </trkpt>
      <trkpt lat="43.89701" lon="1.99124">
        <ele>151</ele>
        <time>2021-09-23T17:55:48Z</time>
      </trkpt>
      <trkpt lat="43.8971" lon="1.99118">
        <ele>151.4</ele>
        <time>2021-09-23T17:55:51Z</time>
      </trkpt>
      <trkpt lat="43.89726" lon="1.99106">
        <ele>151.6</ele>
        <time>2021-09-23T17:55:56Z</time>
      </trkpt>
      <trkpt lat="43.89729" lon="1.99103">
        <ele>151.6</ele>
        <time>2021-09-23T17:55:57Z</time>
      </trkpt>
      <trkpt lat="43.89747" lon="1.99084">
        <ele>151.6</ele>
        <time>2021-09-23T17:56:02Z</time>
      </trkpt>
      <trkpt lat="43.89754" lon="1.99075">
        <ele>151.6</ele>
        <time>2021-09-23T17:56:04Z</time>
      </trkpt>
      <trkpt lat="43.89758" lon="1.99071">
        <ele>151.6</ele>
        <time>2021-09-23T17:56:05Z</time>
      </trkpt>
      <trkpt lat="43.89774" lon="1.99053">
        <ele>151.8</ele>
        <time>2021-09-23T17:56:09Z</time>
      </trkpt>
      <trkpt lat="43.89803" lon="1.99024">
        <ele>151.6</ele>
        <time>2021-09-23T17:56:16Z</time>
      </trkpt>
      <trkpt lat="43.89808" lon="1.99021">
        <ele>151.6</ele>
        <time>2021-09-23T17:56:17Z</time>
      </trkpt>
      <trkpt lat="43.89816" lon="1.99017">
        <ele>151.4</ele>
        <time>2021-09-23T17:56:19Z</time>
      </trkpt>
      <trkpt lat="43.8982" lon="1.99017">
        <ele>151.4</ele>
        <time>2021-09-23T17:56:20Z</time>
      </trkpt>
      <trkpt lat="43.89825" lon="1.99017">
        <ele>151.4</ele>
        <time>2021-09-23T17:56:21Z</time>
      </trkpt>
      <trkpt lat="43.89829" lon="1.99017">
        <ele>151.4</ele>
        <time>2021-09-23T17:56:22Z</time>
      </trkpt>
      <trkpt lat="43.89834" lon="1.99019">
        <ele>151.4</ele>
        <time>2021-09-23T17:56:23Z</time>
      </trkpt>
      <trkpt lat="43.89838" lon="1.99021">
        <ele>151.4</ele>
        <time>2021-09-23T17:56:24Z</time>
      </trkpt>
      <trkpt lat="43.89842" lon="1.99024">
        <ele>151.4</ele>
        <time>2021-09-23T17:56:25Z</time>
      </trkpt>
      <trkpt lat="43.89845" lon="1.99028">
        <ele>151.4</ele>
        <time>2021-09-23T17:56:26Z</time>
      </trkpt>
      <trkpt lat="43.89848" lon="1.99033">
        <ele>151.4</ele>
        <time>2021-09-23T17:56:27Z</time>
      </trkpt>
      <trkpt lat="43.89852" lon="1.99037">
        <ele>151.4</ele>
        <time>2021-09-23T17:56:28Z</time>
      </trkpt>
      <trkpt lat="43.89855" lon="1.9904">
        <ele>151.4</ele>
        <time>2021-09-23T17:56:29Z</time>
      </trkpt>
      <trkpt lat="43.89869" lon="1.99046">
        <ele>151.4</ele>
        <time>2021-09-23T17:56:32Z</time>
      </trkpt>
      <trkpt lat="43.89874" lon="1.99047">
        <ele>151.4</ele>
        <time>2021-09-23T17:56:33Z</time>
      </trkpt>
      <trkpt lat="43.89878" lon="1.9905">
        <ele>151.4</ele>
        <time>2021-09-23T17:56:34Z</time>
      </trkpt>
      <trkpt lat="43.89909" lon="1.99074">
        <ele>151.2</ele>
        <time>2021-09-23T17:56:41Z</time>
      </trkpt>
      <trkpt lat="43.89921" lon="1.99085">
        <ele>151.2</ele>
        <time>2021-09-23T17:56:44Z</time>
      </trkpt>
      <trkpt lat="43.89935" lon="1.99095">
        <ele>151.4</ele>
        <time>2021-09-23T17:56:47Z</time>
      </trkpt>
      <trkpt lat="43.8996" lon="1.99118">
        <ele>151.6</ele>
        <time>2021-09-23T17:56:53Z</time>
      </trkpt>
      <trkpt lat="43.9" lon="1.99154">
        <ele>152</ele>
        <time>2021-09-23T17:57:02Z</time>
      </trkpt>
      <trkpt lat="43.9002" lon="1.99178">
        <ele>152</ele>
        <time>2021-09-23T17:57:07Z</time>
      </trkpt>
      <trkpt lat="43.90031" lon="1.99193">
        <ele>152</ele>
        <time>2021-09-23T17:57:10Z</time>
      </trkpt>
      <trkpt lat="43.90044" lon="1.99215">
        <ele>152</ele>
        <time>2021-09-23T17:57:14Z</time>
      </trkpt>
      <trkpt lat="43.90047" lon="1.99221">
        <ele>152</ele>
        <time>2021-09-23T17:57:15Z</time>
      </trkpt>
      <trkpt lat="43.90049" lon="1.99228">
        <ele>151.8</ele>
        <time>2021-09-23T17:57:16Z</time>
      </trkpt>
      <trkpt lat="43.90063" lon="1.99279">
        <ele>151.8</ele>
        <time>2021-09-23T17:57:24Z</time>
      </trkpt>
      <trkpt lat="43.90064" lon="1.99283">
        <ele>151.8</ele>
        <time>2021-09-23T17:57:25Z</time>
      </trkpt>
      <trkpt lat="43.90065" lon="1.99285">
        <ele>151.8</ele>
        <time>2021-09-23T17:57:26Z</time>
      </trkpt>
      <trkpt lat="43.90067" lon="1.99287">
        <ele>151.8</ele>
        <time>2021-09-23T17:57:27Z</time>
      </trkpt>
      <trkpt lat="43.90069" lon="1.99286">
        <ele>151.8</ele>
        <time>2021-09-23T17:57:28Z</time>
      </trkpt>
      <trkpt lat="43.90071" lon="1.99283">
        <ele>151.8</ele>
        <time>2021-09-23T17:57:29Z</time>
      </trkpt>
      <trkpt lat="43.9007" lon="1.99279">
        <ele>151.8</ele>
        <time>2021-09-23T17:57:30Z</time>
      </trkpt>
      <trkpt lat="43.90064" lon="1.99253">
        <ele>151.6</ele>
        <time>2021-09-23T17:57:34Z</time>
      </trkpt>
      <trkpt lat="43.90059" lon="1.99233">
        <ele>151.2</ele>
        <time>2021-09-23T17:57:36Z</time>
      </trkpt>
      <trkpt lat="43.90058" lon="1.99219">
        <ele>151</ele>
        <time>2021-09-23T17:57:37Z</time>
      </trkpt>
      <trkpt lat="43.90059" lon="1.99207">
        <ele>150.8</ele>
        <time>2021-09-23T17:57:38Z</time>
      </trkpt>
      <trkpt lat="43.90061" lon="1.99197">
        <ele>150.4</ele>
        <time>2021-09-23T17:57:39Z</time>
      </trkpt>
      <trkpt lat="43.90064" lon="1.9919">
        <ele>149.8</ele>
        <time>2021-09-23T17:57:40Z</time>
      </trkpt>
      <trkpt lat="43.9007" lon="1.99182">
        <ele>149.6</ele>
        <time>2021-09-23T17:57:41Z</time>
      </trkpt>
      <trkpt lat="43.90076" lon="1.99174">
        <ele>148.8</ele>
        <time>2021-09-23T17:57:42Z</time>
      </trkpt>
      <trkpt lat="43.90084" lon="1.99165">
        <ele>148.4</ele>
        <time>2021-09-23T17:57:43Z</time>
      </trkpt>
      <trkpt lat="43.90091" lon="1.99156">
        <ele>147.4</ele>
        <time>2021-09-23T17:57:44Z</time>
      </trkpt>
      <trkpt lat="43.90104" lon="1.99141">
        <ele>145.6</ele>
        <time>2021-09-23T17:57:46Z</time>
      </trkpt>
      <trkpt lat="43.90111" lon="1.99132">
        <ele>144.4</ele>
        <time>2021-09-23T17:57:47Z</time>
      </trkpt>
      <trkpt lat="43.90122" lon="1.99115">
        <ele>143</ele>
        <time>2021-09-23T17:57:49Z</time>
      </trkpt>
      <trkpt lat="43.90132" lon="1.99098">
        <ele>141.6</ele>
        <time>2021-09-23T17:57:51Z</time>
      </trkpt>
      <trkpt lat="43.90142" lon="1.99071">
        <ele>140.6</ele>
        <time>2021-09-23T17:57:54Z</time>
      </trkpt>
      <trkpt lat="43.90145" lon="1.99061">
        <ele>140.2</ele>
        <time>2021-09-23T17:57:55Z</time>
      </trkpt>
      <trkpt lat="43.90148" lon="1.99052">
        <ele>139.6</ele>
        <time>2021-09-23T17:57:56Z</time>
      </trkpt>
      <trkpt lat="43.90151" lon="1.99042">
        <ele>139.2</ele>
        <time>2021-09-23T17:57:57Z</time>
      </trkpt>
      <trkpt lat="43.90152" lon="1.99034">
        <ele>138.8</ele>
        <time>2021-09-23T17:57:58Z</time>
      </trkpt>
      <trkpt lat="43.90154" lon="1.99027">
        <ele>138.4</ele>
        <time>2021-09-23T17:57:59Z</time>
      </trkpt>
      <trkpt lat="43.90155" lon="1.99022">
        <ele>138</ele>
        <time>2021-09-23T17:58:00Z</time>
      </trkpt>
      <trkpt lat="43.90157" lon="1.99015">
        <ele>138</ele>
        <time>2021-09-23T17:58:01Z</time>
      </trkpt>
      <trkpt lat="43.90159" lon="1.9901">
        <ele>137.8</ele>
        <time>2021-09-23T17:58:02Z</time>
      </trkpt>
      <trkpt lat="43.9016" lon="1.99004">
        <ele>137.4</ele>
        <time>2021-09-23T17:58:03Z</time>
      </trkpt>
      <trkpt lat="43.90161" lon="1.99">
        <ele>137.2</ele>
        <time>2021-09-23T17:58:04Z</time>
      </trkpt>
      <trkpt lat="43.90163" lon="1.98995">
        <ele>137.2</ele>
        <time>2021-09-23T17:58:05Z</time>
      </trkpt>
      <trkpt lat="43.90164" lon="1.9899">
        <ele>137.2</ele>
        <time>2021-09-23T17:58:06Z</time>
      </trkpt>
      <trkpt lat="43.90167" lon="1.98985">
        <ele>137</ele>
        <time>2021-09-23T17:58:07Z</time>
      </trkpt>
      <trkpt lat="43.90168" lon="1.98982">
        <ele>136.8</ele>
        <time>2021-09-23T17:58:08Z</time>
      </trkpt>
      <trkpt lat="43.90171" lon="1.98979">
        <ele>136.8</ele>
        <time>2021-09-23T17:58:09Z</time>
      </trkpt>
      <trkpt lat="43.90173" lon="1.98977">
        <ele>136.6</ele>
        <time>2021-09-23T17:58:10Z</time>
      </trkpt>
      <trkpt lat="43.90176" lon="1.98975">
        <ele>136.6</ele>
        <time>2021-09-23T17:58:11Z</time>
      </trkpt>
      <trkpt lat="43.90179" lon="1.98976">
        <ele>136.6</ele>
        <time>2021-09-23T17:58:12Z</time>
      </trkpt>
      <trkpt lat="43.90181" lon="1.98978">
        <ele>136.6</ele>
        <time>2021-09-23T17:58:13Z</time>
      </trkpt>
      <trkpt lat="43.90189" lon="1.98985">
        <ele>136.2</ele>
        <time>2021-09-23T17:58:16Z</time>
      </trkpt>
      <trkpt lat="43.90191" lon="1.98988">
        <ele>136.2</ele>
        <time>2021-09-23T17:58:17Z</time>
      </trkpt>
      <trkpt lat="43.90193" lon="1.98991">
        <ele>136.2</ele>
        <time>2021-09-23T17:58:18Z</time>
      </trkpt>
      <trkpt lat="43.90194" lon="1.98993">
        <ele>136</ele>
        <time>2021-09-23T17:58:19Z</time>
      </trkpt>
      <trkpt lat="43.90197" lon="1.98995">
        <ele>136</ele>
        <time>2021-09-23T17:58:20Z</time>
      </trkpt>
      <trkpt lat="43.90199" lon="1.98996">
        <ele>135.8</ele>
        <time>2021-09-23T17:58:21Z</time>
      </trkpt>
      <trkpt lat="43.90201" lon="1.98997">
        <ele>135.8</ele>
        <time>2021-09-23T17:58:22Z</time>
      </trkpt>
      <trkpt lat="43.90203" lon="1.98998">
        <ele>135.8</ele>
        <time>2021-09-23T17:58:23Z</time>
      </trkpt>
      <trkpt lat="43.90206" lon="1.99001">
        <ele>135.8</ele>
        <time>2021-09-23T17:58:24Z</time>
      </trkpt>
      <trkpt lat="43.9021" lon="1.9901">
        <ele>135.6</ele>
        <time>2021-09-23T17:58:27Z</time>
      </trkpt>
      <trkpt lat="43.90215" lon="1.99024">
        <ele>135.6</ele>
        <time>2021-09-23T17:58:31Z</time>
      </trkpt>
      <trkpt lat="43.90216" lon="1.99028">
        <ele>135.6</ele>
        <time>2021-09-23T17:58:32Z</time>
      </trkpt>
      <trkpt lat="43.90217" lon="1.99031">
        <ele>135.6</ele>
        <time>2021-09-23T17:58:33Z</time>
      </trkpt>
      <trkpt lat="43.90221" lon="1.99044">
        <ele>135.8</ele>
        <time>2021-09-23T17:58:36Z</time>
      </trkpt>
      <trkpt lat="43.90221" lon="1.99046">
        <ele>136</ele>
        <time>2021-09-23T17:58:37Z</time>
      </trkpt>
      <trkpt lat="43.9022" lon="1.99047">
        <ele>136</ele>
        <time>2021-09-23T17:58:38Z</time>
      </trkpt>
      <trkpt lat="43.90218" lon="1.99047">
        <ele>136.2</ele>
        <time>2021-09-23T17:58:39Z</time>
      </trkpt>
      <trkpt lat="43.90215" lon="1.99044">
        <ele>136.2</ele>
        <time>2021-09-23T17:58:40Z</time>
      </trkpt>
      <trkpt lat="43.90209" lon="1.99035">
        <ele>136.4</ele>
        <time>2021-09-23T17:58:42Z</time>
      </trkpt>
      <trkpt lat="43.90203" lon="1.99031">
        <ele>136.6</ele>
        <time>2021-09-23T17:58:44Z</time>
      </trkpt>
      <trkpt lat="43.90199" lon="1.99032">
        <ele>136.6</ele>
        <time>2021-09-23T17:58:45Z</time>
      </trkpt>
      <trkpt lat="43.90196" lon="1.99033">
        <ele>136.6</ele>
        <time>2021-09-23T17:58:46Z</time>
      </trkpt>
      <trkpt lat="43.90193" lon="1.99032">
        <ele>136.4</ele>
        <time>2021-09-23T17:58:47Z</time>
      </trkpt>
      <trkpt lat="43.90192" lon="1.9903">
        <ele>136.4</ele>
        <time>2021-09-23T17:58:48Z</time>
      </trkpt>
      <trkpt lat="43.90192" lon="1.99026">
        <ele>136.4</ele>
        <time>2021-09-23T17:58:49Z</time>
      </trkpt>
      <trkpt lat="43.90193" lon="1.99023">
        <ele>136.4</ele>
        <time>2021-09-23T17:58:50Z</time>
      </trkpt>
      <trkpt lat="43.90194" lon="1.99019">
        <ele>136.4</ele>
        <time>2021-09-23T17:58:51Z</time>
      </trkpt>
      <trkpt lat="43.90196" lon="1.99012">
        <ele>136.2</ele>
        <time>2021-09-23T17:58:53Z</time>
      </trkpt>
      <trkpt lat="43.90198" lon="1.99009">
        <ele>136.2</ele>
        <time>2021-09-23T17:58:54Z</time>
      </trkpt>
      <trkpt lat="43.90199" lon="1.99005">
        <ele>136.2</ele>
        <time>2021-09-23T17:58:55Z</time>
      </trkpt>
      <trkpt lat="43.90201" lon="1.99001">
        <ele>136.2</ele>
        <time>2021-09-23T17:58:56Z</time>
      </trkpt>
      <trkpt lat="43.90206" lon="1.99">
        <ele>136.2</ele>
        <time>2021-09-23T17:58:58Z</time>
      </trkpt>
      <trkpt lat="43.90208" lon="1.99002">
        <ele>136.2</ele>
        <time>2021-09-23T17:58:59Z</time>
      </trkpt>
      <trkpt lat="43.90209" lon="1.99004">
        <ele>136.2</ele>
        <time>2021-09-23T17:59:00Z</time>
      </trkpt>
      <trkpt lat="43.90211" lon="1.99007">
        <ele>136.2</ele>
        <time>2021-09-23T17:59:01Z</time>
      </trkpt>
      <trkpt lat="43.90213" lon="1.99009">
        <ele>136</ele>
        <time>2021-09-23T17:59:02Z</time>
      </trkpt>
      <trkpt lat="43.90214" lon="1.99012">
        <ele>135.8</ele>
        <time>2021-09-23T17:59:03Z</time>
      </trkpt>
      <trkpt lat="43.90217" lon="1.99019">
        <ele>136</ele>
        <time>2021-09-23T17:59:05Z</time>
      </trkpt>
      <trkpt lat="43.90218" lon="1.99024">
        <ele>136</ele>
        <time>2021-09-23T17:59:07Z</time>
      </trkpt>
      <trkpt lat="43.90219" lon="1.99028">
        <ele>136</ele>
        <time>2021-09-23T17:59:08Z</time>
      </trkpt>
      <trkpt lat="43.90221" lon="1.99032">
        <ele>136</ele>
        <time>2021-09-23T17:59:09Z</time>
      </trkpt>
      <trkpt lat="43.90223" lon="1.99038">
        <ele>136</ele>
        <time>2021-09-23T17:59:11Z</time>
      </trkpt>
      <trkpt lat="43.90224" lon="1.99039">
        <ele>136</ele>
        <time>2021-09-23T17:59:12Z</time>
      </trkpt>
      <trkpt lat="43.90226" lon="1.9904">
        <ele>136.2</ele>
        <time>2021-09-23T17:59:13Z</time>
      </trkpt>
      <trkpt lat="43.90227" lon="1.99041">
        <ele>136.4</ele>
        <time>2021-09-23T17:59:14Z</time>
      </trkpt>
      <trkpt lat="43.90228" lon="1.9904">
        <ele>136.4</ele>
        <time>2021-09-23T17:59:15Z</time>
      </trkpt>
      <trkpt lat="43.90229" lon="1.99038">
        <ele>136.4</ele>
        <time>2021-09-23T17:59:16Z</time>
      </trkpt>
      <trkpt lat="43.90232" lon="1.99034">
        <ele>136.6</ele>
        <time>2021-09-23T17:59:18Z</time>
      </trkpt>
      <trkpt lat="43.90237" lon="1.99033">
        <ele>136.8</ele>
        <time>2021-09-23T17:59:20Z</time>
      </trkpt>
      <trkpt lat="43.90238" lon="1.99033">
        <ele>136.8</ele>
        <time>2021-09-23T17:59:21Z</time>
      </trkpt>
      <trkpt lat="43.9024" lon="1.99033">
        <ele>136.8</ele>
        <time>2021-09-23T17:59:22Z</time>
      </trkpt>
      <trkpt lat="43.90241" lon="1.99032">
        <ele>136.8</ele>
        <time>2021-09-23T17:59:23Z</time>
      </trkpt>
      <trkpt lat="43.90242" lon="1.9903">
        <ele>137</ele>
        <time>2021-09-23T17:59:24Z</time>
      </trkpt>
      <trkpt lat="43.90243" lon="1.99028">
        <ele>137</ele>
        <time>2021-09-23T17:59:25Z</time>
      </trkpt>
      <trkpt lat="43.90244" lon="1.99027">
        <ele>137</ele>
        <time>2021-09-23T17:59:26Z</time>
      </trkpt>
      <trkpt lat="43.90246" lon="1.99024">
        <ele>137</ele>
        <time>2021-09-23T17:59:27Z</time>
      </trkpt>
      <trkpt lat="43.90257" lon="1.9901">
        <ele>137.2</ele>
        <time>2021-09-23T17:59:33Z</time>
      </trkpt>
      <trkpt lat="43.90278" lon="1.9899">
        <ele>138</ele>
        <time>2021-09-23T17:59:42Z</time>
      </trkpt>
      <trkpt lat="43.90302" lon="1.98968">
        <ele>138.8</ele>
        <time>2021-09-23T17:59:50Z</time>
      </trkpt>
      <trkpt lat="43.90334" lon="1.98937">
        <ele>139</ele>
        <time>2021-09-23T18:00:00Z</time>
      </trkpt>
      <trkpt lat="43.90339" lon="1.98926">
        <ele>139</ele>
        <time>2021-09-23T18:00:02Z</time>
      </trkpt>
      <trkpt lat="43.90344" lon="1.98908">
        <ele>139.2</ele>
        <time>2021-09-23T18:00:05Z</time>
      </trkpt>
      <trkpt lat="43.90355" lon="1.9887">
        <ele>139.4</ele>
        <time>2021-09-23T18:00:11Z</time>
      </trkpt>
      <trkpt lat="43.90358" lon="1.98865">
        <ele>139.4</ele>
        <time>2021-09-23T18:00:12Z</time>
      </trkpt>
      <trkpt lat="43.90362" lon="1.98861">
        <ele>139.4</ele>
        <time>2021-09-23T18:00:13Z</time>
      </trkpt>
      <trkpt lat="43.90366" lon="1.98858">
        <ele>139.4</ele>
        <time>2021-09-23T18:00:14Z</time>
      </trkpt>
      <trkpt lat="43.9037" lon="1.98856">
        <ele>139.2</ele>
        <time>2021-09-23T18:00:15Z</time>
      </trkpt>
      <trkpt lat="43.90375" lon="1.98853">
        <ele>139.2</ele>
        <time>2021-09-23T18:00:16Z</time>
      </trkpt>
      <trkpt lat="43.90379" lon="1.9885">
        <ele>139.2</ele>
        <time>2021-09-23T18:00:17Z</time>
      </trkpt>
      <trkpt lat="43.90427" lon="1.98819">
        <ele>138.8</ele>
        <time>2021-09-23T18:00:27Z</time>
      </trkpt>
      <trkpt lat="43.9045" lon="1.98806">
        <ele>139</ele>
        <time>2021-09-23T18:00:32Z</time>
      </trkpt>
      <trkpt lat="43.90459" lon="1.98803">
        <ele>139</ele>
        <time>2021-09-23T18:00:34Z</time>
      </trkpt>
      <trkpt lat="43.9048" lon="1.98797">
        <ele>139</ele>
        <time>2021-09-23T18:00:38Z</time>
      </trkpt>
      <trkpt lat="43.90507" lon="1.98789">
        <ele>139</ele>
        <time>2021-09-23T18:00:43Z</time>
      </trkpt>
      <trkpt lat="43.90547" lon="1.9878">
        <ele>138.4</ele>
        <time>2021-09-23T18:00:49Z</time>
      </trkpt>
      <trkpt lat="43.90553" lon="1.98779">
        <ele>138.2</ele>
        <time>2021-09-23T18:00:50Z</time>
      </trkpt>
      <trkpt lat="43.90569" lon="1.98777">
        <ele>137.8</ele>
        <time>2021-09-23T18:00:52Z</time>
      </trkpt>
      <trkpt lat="43.90616" lon="1.98775">
        <ele>137.2</ele>
        <time>2021-09-23T18:00:59Z</time>
      </trkpt>
      <trkpt lat="43.90644" lon="1.98775">
        <ele>136.8</ele>
        <time>2021-09-23T18:01:03Z</time>
      </trkpt>
      <trkpt lat="43.90664" lon="1.98775">
        <ele>136.8</ele>
        <time>2021-09-23T18:01:06Z</time>
      </trkpt>
      <trkpt lat="43.90676" lon="1.98775">
        <ele>136.8</ele>
        <time>2021-09-23T18:01:08Z</time>
      </trkpt>
      <trkpt lat="43.9069" lon="1.9878">
        <ele>136.8</ele>
        <time>2021-09-23T18:01:10Z</time>
      </trkpt>
      <trkpt lat="43.90695" lon="1.98783">
        <ele>136.8</ele>
        <time>2021-09-23T18:01:11Z</time>
      </trkpt>
      <trkpt lat="43.90701" lon="1.98787">
        <ele>136.8</ele>
        <time>2021-09-23T18:01:12Z</time>
      </trkpt>
      <trkpt lat="43.90705" lon="1.98791">
        <ele>136.8</ele>
        <time>2021-09-23T18:01:13Z</time>
      </trkpt>
      <trkpt lat="43.9071" lon="1.98796">
        <ele>136.8</ele>
        <time>2021-09-23T18:01:14Z</time>
      </trkpt>
      <trkpt lat="43.90717" lon="1.98801">
        <ele>137</ele>
        <time>2021-09-23T18:01:15Z</time>
      </trkpt>
      <trkpt lat="43.90722" lon="1.98806">
        <ele>137</ele>
        <time>2021-09-23T18:01:16Z</time>
      </trkpt>
      <trkpt lat="43.90727" lon="1.98811">
        <ele>137.2</ele>
        <time>2021-09-23T18:01:17Z</time>
      </trkpt>
      <trkpt lat="43.90731" lon="1.98815">
        <ele>137.4</ele>
        <time>2021-09-23T18:01:18Z</time>
      </trkpt>
      <trkpt lat="43.90736" lon="1.9882">
        <ele>137.6</ele>
        <time>2021-09-23T18:01:19Z</time>
      </trkpt>
      <trkpt lat="43.90748" lon="1.98829">
        <ele>137.6</ele>
        <time>2021-09-23T18:01:21Z</time>
      </trkpt>
      <trkpt lat="43.90762" lon="1.9884">
        <ele>137.8</ele>
        <time>2021-09-23T18:01:24Z</time>
      </trkpt>
      <trkpt lat="43.90774" lon="1.98849">
        <ele>138.2</ele>
        <time>2021-09-23T18:01:26Z</time>
      </trkpt>
      <trkpt lat="43.90779" lon="1.98852">
        <ele>138.4</ele>
        <time>2021-09-23T18:01:27Z</time>
      </trkpt>
      <trkpt lat="43.90783" lon="1.98855">
        <ele>138.4</ele>
        <time>2021-09-23T18:01:28Z</time>
      </trkpt>
      <trkpt lat="43.9079" lon="1.98858">
        <ele>138.6</ele>
        <time>2021-09-23T18:01:29Z</time>
      </trkpt>
      <trkpt lat="43.90795" lon="1.98861">
        <ele>138.8</ele>
        <time>2021-09-23T18:01:30Z</time>
      </trkpt>
      <trkpt lat="43.908" lon="1.98866">
        <ele>139</ele>
        <time>2021-09-23T18:01:31Z</time>
      </trkpt>
      <trkpt lat="43.90803" lon="1.98872">
        <ele>139</ele>
        <time>2021-09-23T18:01:32Z</time>
      </trkpt>
      <trkpt lat="43.90805" lon="1.98878">
        <ele>139</ele>
        <time>2021-09-23T18:01:33Z</time>
      </trkpt>
      <trkpt lat="43.90807" lon="1.98887">
        <ele>139</ele>
        <time>2021-09-23T18:01:34Z</time>
      </trkpt>
      <trkpt lat="43.90808" lon="1.98895">
        <ele>139.2</ele>
        <time>2021-09-23T18:01:35Z</time>
      </trkpt>
      <trkpt lat="43.90809" lon="1.98903">
        <ele>139.4</ele>
        <time>2021-09-23T18:01:36Z</time>
      </trkpt>
      <trkpt lat="43.90809" lon="1.9891">
        <ele>139.4</ele>
        <time>2021-09-23T18:01:37Z</time>
      </trkpt>
      <trkpt lat="43.90813" lon="1.9898">
        <ele>139.6</ele>
        <time>2021-09-23T18:01:45Z</time>
      </trkpt>
      <trkpt lat="43.90816" lon="1.99046">
        <ele>139.8</ele>
        <time>2021-09-23T18:01:53Z</time>
      </trkpt>
      <trkpt lat="43.90808" lon="1.99097">
        <ele>140</ele>
        <time>2021-09-23T18:01:59Z</time>
      </trkpt>
      <trkpt lat="43.90802" lon="1.9912">
        <ele>140</ele>
        <time>2021-09-23T18:02:02Z</time>
      </trkpt>
      <trkpt lat="43.90794" lon="1.99152">
        <ele>140.2</ele>
        <time>2021-09-23T18:02:06Z</time>
      </trkpt>
      <trkpt lat="43.90792" lon="1.99159">
        <ele>140.2</ele>
        <time>2021-09-23T18:02:07Z</time>
      </trkpt>
      <trkpt lat="43.90791" lon="1.99166">
        <ele>140.4</ele>
        <time>2021-09-23T18:02:08Z</time>
      </trkpt>
      <trkpt lat="43.90787" lon="1.9918">
        <ele>140.4</ele>
        <time>2021-09-23T18:02:10Z</time>
      </trkpt>
      <trkpt lat="43.90785" lon="1.99186">
        <ele>140.4</ele>
        <time>2021-09-23T18:02:11Z</time>
      </trkpt>
      <trkpt lat="43.90783" lon="1.99194">
        <ele>140.6</ele>
        <time>2021-09-23T18:02:12Z</time>
      </trkpt>
      <trkpt lat="43.9078" lon="1.99203">
        <ele>140.6</ele>
        <time>2021-09-23T18:02:13Z</time>
      </trkpt>
      <trkpt lat="43.90778" lon="1.9921">
        <ele>140.8</ele>
        <time>2021-09-23T18:02:14Z</time>
      </trkpt>
      <trkpt lat="43.90764" lon="1.99253">
        <ele>140.8</ele>
        <time>2021-09-23T18:02:20Z</time>
      </trkpt>
      <trkpt lat="43.90744" lon="1.99326">
        <ele>140.8</ele>
        <time>2021-09-23T18:02:29Z</time>
      </trkpt>
      <trkpt lat="43.90734" lon="1.99387">
        <ele>140.8</ele>
        <time>2021-09-23T18:02:36Z</time>
      </trkpt>
      <trkpt lat="43.90735" lon="1.99414">
        <ele>140.8</ele>
        <time>2021-09-23T18:02:39Z</time>
      </trkpt>
      <trkpt lat="43.90738" lon="1.99429">
        <ele>141</ele>
        <time>2021-09-23T18:02:41Z</time>
      </trkpt>
      <trkpt lat="43.90739" lon="1.99437">
        <ele>141</ele>
        <time>2021-09-23T18:02:42Z</time>
      </trkpt>
      <trkpt lat="43.90741" lon="1.99444">
        <ele>141</ele>
        <time>2021-09-23T18:02:43Z</time>
      </trkpt>
      <trkpt lat="43.90743" lon="1.99451">
        <ele>141</ele>
        <time>2021-09-23T18:02:44Z</time>
      </trkpt>
      <trkpt lat="43.90745" lon="1.99458">
        <ele>141</ele>
        <time>2021-09-23T18:02:45Z</time>
      </trkpt>
      <trkpt lat="43.90751" lon="1.99472">
        <ele>141</ele>
        <time>2021-09-23T18:02:47Z</time>
      </trkpt>
      <trkpt lat="43.90753" lon="1.9948">
        <ele>141</ele>
        <time>2021-09-23T18:02:48Z</time>
      </trkpt>
      <trkpt lat="43.90756" lon="1.99496">
        <ele>141</ele>
        <time>2021-09-23T18:02:50Z</time>
      </trkpt>
      <trkpt lat="43.90755" lon="1.99505">
        <ele>141</ele>
        <time>2021-09-23T18:02:51Z</time>
      </trkpt>
      <trkpt lat="43.90754" lon="1.99514">
        <ele>140.8</ele>
        <time>2021-09-23T18:02:52Z</time>
      </trkpt>
      <trkpt lat="43.90751" lon="1.99522">
        <ele>140.8</ele>
        <time>2021-09-23T18:02:53Z</time>
      </trkpt>
      <trkpt lat="43.90747" lon="1.99529">
        <ele>140.8</ele>
        <time>2021-09-23T18:02:54Z</time>
      </trkpt>
      <trkpt lat="43.90743" lon="1.99537">
        <ele>140.6</ele>
        <time>2021-09-23T18:02:55Z</time>
      </trkpt>
      <trkpt lat="43.90739" lon="1.99544">
        <ele>140.6</ele>
        <time>2021-09-23T18:02:56Z</time>
      </trkpt>
      <trkpt lat="43.90734" lon="1.99549">
        <ele>140.6</ele>
        <time>2021-09-23T18:02:57Z</time>
      </trkpt>
      <trkpt lat="43.90724" lon="1.99558">
        <ele>140.6</ele>
        <time>2021-09-23T18:02:59Z</time>
      </trkpt>
      <trkpt lat="43.90709" lon="1.99572">
        <ele>141</ele>
        <time>2021-09-23T18:03:02Z</time>
      </trkpt>
      <trkpt lat="43.90704" lon="1.99577">
        <ele>141</ele>
        <time>2021-09-23T18:03:03Z</time>
      </trkpt>
      <trkpt lat="43.90699" lon="1.99582">
        <ele>141.2</ele>
        <time>2021-09-23T18:03:04Z</time>
      </trkpt>
      <trkpt lat="43.90694" lon="1.99588">
        <ele>141.4</ele>
        <time>2021-09-23T18:03:05Z</time>
      </trkpt>
      <trkpt lat="43.90684" lon="1.996">
        <ele>141.8</ele>
        <time>2021-09-23T18:03:07Z</time>
      </trkpt>
      <trkpt lat="43.90675" lon="1.99613">
        <ele>142.2</ele>
        <time>2021-09-23T18:03:09Z</time>
      </trkpt>
      <trkpt lat="43.9067" lon="1.99622">
        <ele>142.2</ele>
        <time>2021-09-23T18:03:10Z</time>
      </trkpt>
      <trkpt lat="43.90664" lon="1.99638">
        <ele>142.4</ele>
        <time>2021-09-23T18:03:12Z</time>
      </trkpt>
      <trkpt lat="43.90653" lon="1.99683">
        <ele>142.6</ele>
        <time>2021-09-23T18:03:17Z</time>
      </trkpt>
      <trkpt lat="43.90643" lon="1.99754">
        <ele>142.8</ele>
        <time>2021-09-23T18:03:25Z</time>
      </trkpt>
      <trkpt lat="43.90635" lon="1.99817">
        <ele>142.8</ele>
        <time>2021-09-23T18:03:32Z</time>
      </trkpt>
      <trkpt lat="43.90632" lon="1.99825">
        <ele>142.8</ele>
        <time>2021-09-23T18:03:33Z</time>
      </trkpt>
      <trkpt lat="43.90627" lon="1.9983">
        <ele>142.8</ele>
        <time>2021-09-23T18:03:34Z</time>
      </trkpt>
      <trkpt lat="43.90621" lon="1.99833">
        <ele>142.8</ele>
        <time>2021-09-23T18:03:35Z</time>
      </trkpt>
      <trkpt lat="43.90614" lon="1.99833">
        <ele>142.8</ele>
        <time>2021-09-23T18:03:36Z</time>
      </trkpt>
      <trkpt lat="43.90601" lon="1.9983">
        <ele>142.8</ele>
        <time>2021-09-23T18:03:38Z</time>
      </trkpt>
      <trkpt lat="43.90594" lon="1.99828">
        <ele>142.8</ele>
        <time>2021-09-23T18:03:39Z</time>
      </trkpt>
      <trkpt lat="43.90589" lon="1.99826">
        <ele>142.8</ele>
        <time>2021-09-23T18:03:40Z</time>
      </trkpt>
      <trkpt lat="43.90556" lon="1.9982">
        <ele>142.6</ele>
        <time>2021-09-23T18:03:45Z</time>
      </trkpt>
      <trkpt lat="43.90549" lon="1.99821">
        <ele>142.4</ele>
        <time>2021-09-23T18:03:46Z</time>
      </trkpt>
      <trkpt lat="43.90544" lon="1.99822">
        <ele>142.4</ele>
        <time>2021-09-23T18:03:47Z</time>
      </trkpt>
      <trkpt lat="43.90539" lon="1.99824">
        <ele>142.2</ele>
        <time>2021-09-23T18:03:48Z</time>
      </trkpt>
      <trkpt lat="43.90535" lon="1.99825">
        <ele>142</ele>
        <time>2021-09-23T18:03:49Z</time>
      </trkpt>
      <trkpt lat="43.90532" lon="1.99828">
        <ele>142</ele>
        <time>2021-09-23T18:03:50Z</time>
      </trkpt>
      <trkpt lat="43.90529" lon="1.9983">
        <ele>141.6</ele>
        <time>2021-09-23T18:03:51Z</time>
      </trkpt>
      <trkpt lat="43.90526" lon="1.99834">
        <ele>141.4</ele>
        <time>2021-09-23T18:03:52Z</time>
      </trkpt>
      <trkpt lat="43.90524" lon="1.99837">
        <ele>141.2</ele>
        <time>2021-09-23T18:03:53Z</time>
      </trkpt>
      <trkpt lat="43.90519" lon="1.99846">
        <ele>141</ele>
        <time>2021-09-23T18:03:55Z</time>
      </trkpt>
      <trkpt lat="43.90516" lon="1.99851">
        <ele>140.8</ele>
        <time>2021-09-23T18:03:56Z</time>
      </trkpt>
      <trkpt lat="43.9051" lon="1.99884">
        <ele>140</ele>
        <time>2021-09-23T18:04:02Z</time>
      </trkpt>
      <trkpt lat="43.9051" lon="1.99892">
        <ele>140</ele>
        <time>2021-09-23T18:04:04Z</time>
      </trkpt>
      <trkpt lat="43.90511" lon="1.99896">
        <ele>140</ele>
        <time>2021-09-23T18:04:05Z</time>
      </trkpt>
      <trkpt lat="43.90511" lon="1.99901">
        <ele>140</ele>
        <time>2021-09-23T18:04:06Z</time>
      </trkpt>
      <trkpt lat="43.9051" lon="1.99904">
        <ele>140</ele>
        <time>2021-09-23T18:04:07Z</time>
      </trkpt>
      <trkpt lat="43.9051" lon="1.99906">
        <ele>140</ele>
        <time>2021-09-23T18:04:08Z</time>
      </trkpt>
      <trkpt lat="43.9051" lon="1.99909">
        <ele>140</ele>
        <time>2021-09-23T18:04:09Z</time>
      </trkpt>
      <trkpt lat="43.9051" lon="1.99911">
        <ele>140</ele>
        <time>2021-09-23T18:04:10Z</time>
      </trkpt>
      <trkpt lat="43.9051" lon="1.99913">
        <ele>140</ele>
        <time>2021-09-23T18:04:11Z</time>
      </trkpt>
      <trkpt lat="43.9051" lon="1.99914">
        <ele>140</ele>
        <time>2021-09-23T18:04:12Z</time>
      </trkpt>
      <trkpt lat="43.9051" lon="1.99916">
        <ele>140</ele>
        <time>2021-09-23T18:04:13Z</time>
      </trkpt>
      <trkpt lat="43.90509" lon="1.9992">
        <ele>140</ele>
        <time>2021-09-23T18:04:15Z</time>
      </trkpt>
      <trkpt lat="43.9051" lon="1.99922">
        <ele>140.2</ele>
        <time>2021-09-23T18:04:16Z</time>
      </trkpt>
      <trkpt lat="43.9051" lon="1.99924">
        <ele>140.2</ele>
        <time>2021-09-23T18:04:17Z</time>
      </trkpt>
      <trkpt lat="43.9051" lon="1.99926">
        <ele>140.2</ele>
        <time>2021-09-23T18:04:18Z</time>
      </trkpt>
      <trkpt lat="43.90511" lon="1.99929">
        <ele>140.2</ele>
        <time>2021-09-23T18:04:19Z</time>
      </trkpt>
      <trkpt lat="43.90511" lon="1.99931">
        <ele>140.2</ele>
        <time>2021-09-23T18:04:20Z</time>
      </trkpt>
      <trkpt lat="43.9051" lon="1.99933">
        <ele>140.2</ele>
        <time>2021-09-23T18:04:21Z</time>
      </trkpt>
      <trkpt lat="43.90508" lon="1.99938">
        <ele>140.4</ele>
        <time>2021-09-23T18:04:23Z</time>
      </trkpt>
      <trkpt lat="43.90508" lon="1.9994">
        <ele>140.6</ele>
        <time>2021-09-23T18:04:24Z</time>
      </trkpt>
      <trkpt lat="43.90509" lon="1.99948">
        <ele>140.8</ele>
        <time>2021-09-23T18:04:27Z</time>
      </trkpt>
      <trkpt lat="43.90509" lon="1.99951">
        <ele>141</ele>
        <time>2021-09-23T18:04:28Z</time>
      </trkpt>
      <trkpt lat="43.90509" lon="1.99954">
        <ele>141</ele>
        <time>2021-09-23T18:04:29Z</time>
      </trkpt>
      <trkpt lat="43.90508" lon="1.99962">
        <ele>141.2</ele>
        <time>2021-09-23T18:04:31Z</time>
      </trkpt>
      <trkpt lat="43.90508" lon="1.99985">
        <ele>141.4</ele>
        <time>2021-09-23T18:04:36Z</time>
      </trkpt>
      <trkpt lat="43.90508" lon="1.99996">
        <ele>141.6</ele>
        <time>2021-09-23T18:04:38Z</time>
      </trkpt>
      <trkpt lat="43.90509" lon="2.0001">
        <ele>142</ele>
        <time>2021-09-23T18:04:41Z</time>
      </trkpt>
      <trkpt lat="43.90509" lon="2.00037">
        <ele>142.6</ele>
        <time>2021-09-23T18:04:46Z</time>
      </trkpt>
      <trkpt lat="43.90508" lon="2.00061">
        <ele>142.8</ele>
        <time>2021-09-23T18:04:51Z</time>
      </trkpt>
      <trkpt lat="43.90508" lon="2.00065">
        <ele>142.8</ele>
        <time>2021-09-23T18:04:52Z</time>
      </trkpt>
      <trkpt lat="43.90507" lon="2.00077">
        <ele>143</ele>
        <time>2021-09-23T18:04:54Z</time>
      </trkpt>
      <trkpt lat="43.90506" lon="2.00082">
        <ele>143</ele>
        <time>2021-09-23T18:04:55Z</time>
      </trkpt>
      <trkpt lat="43.90503" lon="2.00111">
        <ele>143.2</ele>
        <time>2021-09-23T18:05:01Z</time>
      </trkpt>
      <trkpt lat="43.90502" lon="2.00119">
        <ele>143.2</ele>
        <time>2021-09-23T18:05:03Z</time>
      </trkpt>
      <trkpt lat="43.90502" lon="2.00132">
        <ele>143.6</ele>
        <time>2021-09-23T18:05:06Z</time>
      </trkpt>
      <trkpt lat="43.90501" lon="2.00136">
        <ele>143.8</ele>
        <time>2021-09-23T18:05:07Z</time>
      </trkpt>
      <trkpt lat="43.90501" lon="2.0014">
        <ele>143.8</ele>
        <time>2021-09-23T18:05:08Z</time>
      </trkpt>
      <trkpt lat="43.90501" lon="2.00142">
        <ele>144</ele>
        <time>2021-09-23T18:05:09Z</time>
      </trkpt>
      <trkpt lat="43.90502" lon="2.00146">
        <ele>144.2</ele>
        <time>2021-09-23T18:05:10Z</time>
      </trkpt>
      <trkpt lat="43.90502" lon="2.0015">
        <ele>144.8</ele>
        <time>2021-09-23T18:05:11Z</time>
      </trkpt>
      <trkpt lat="43.90502" lon="2.00155">
        <ele>145.2</ele>
        <time>2021-09-23T18:05:13Z</time>
      </trkpt>
      <trkpt lat="43.90503" lon="2.00158">
        <ele>145.4</ele>
        <time>2021-09-23T18:05:14Z</time>
      </trkpt>
      <trkpt lat="43.90503" lon="2.00161">
        <ele>145.4</ele>
        <time>2021-09-23T18:05:15Z</time>
      </trkpt>
      <trkpt lat="43.90503" lon="2.00165">
        <ele>145.8</ele>
        <time>2021-09-23T18:05:16Z</time>
      </trkpt>
      <trkpt lat="43.90503" lon="2.00168">
        <ele>145.8</ele>
        <time>2021-09-23T18:05:17Z</time>
      </trkpt>
      <trkpt lat="43.90503" lon="2.00172">
        <ele>146</ele>
        <time>2021-09-23T18:05:18Z</time>
      </trkpt>
      <trkpt lat="43.90504" lon="2.00175">
        <ele>146.2</ele>
        <time>2021-09-23T18:05:19Z</time>
      </trkpt>
      <trkpt lat="43.90504" lon="2.00179">
        <ele>146.4</ele>
        <time>2021-09-23T18:05:20Z</time>
      </trkpt>
      <trkpt lat="43.90504" lon="2.00182">
        <ele>146.8</ele>
        <time>2021-09-23T18:05:21Z</time>
      </trkpt>
      <trkpt lat="43.90504" lon="2.00186">
        <ele>147.2</ele>
        <time>2021-09-23T18:05:22Z</time>
      </trkpt>
      <trkpt lat="43.90505" lon="2.0019">
        <ele>147.6</ele>
        <time>2021-09-23T18:05:23Z</time>
      </trkpt>
      <trkpt lat="43.90505" lon="2.00194">
        <ele>147.6</ele>
        <time>2021-09-23T18:05:24Z</time>
      </trkpt>
      <trkpt lat="43.90506" lon="2.00197">
        <ele>148</ele>
        <time>2021-09-23T18:05:25Z</time>
      </trkpt>
      <trkpt lat="43.90506" lon="2.002">
        <ele>148.2</ele>
        <time>2021-09-23T18:05:26Z</time>
      </trkpt>
      <trkpt lat="43.90507" lon="2.00203">
        <ele>148.4</ele>
        <time>2021-09-23T18:05:27Z</time>
      </trkpt>
      <trkpt lat="43.90507" lon="2.00206">
        <ele>148.8</ele>
        <time>2021-09-23T18:05:28Z</time>
      </trkpt>
      <trkpt lat="43.90507" lon="2.00209">
        <ele>149</ele>
        <time>2021-09-23T18:05:29Z</time>
      </trkpt>
      <trkpt lat="43.90507" lon="2.00211">
        <ele>149.6</ele>
        <time>2021-09-23T18:05:30Z</time>
      </trkpt>
      <trkpt lat="43.90507" lon="2.00214">
        <ele>149.8</ele>
        <time>2021-09-23T18:05:31Z</time>
      </trkpt>
      <trkpt lat="43.90508" lon="2.00218">
        <ele>150</ele>
        <time>2021-09-23T18:05:32Z</time>
      </trkpt>
      <trkpt lat="43.90508" lon="2.00221">
        <ele>150</ele>
        <time>2021-09-23T18:05:33Z</time>
      </trkpt>
      <trkpt lat="43.90507" lon="2.00224">
        <ele>150.4</ele>
        <time>2021-09-23T18:05:34Z</time>
      </trkpt>
      <trkpt lat="43.90507" lon="2.00226">
        <ele>150.6</ele>
        <time>2021-09-23T18:05:35Z</time>
      </trkpt>
      <trkpt lat="43.90506" lon="2.00229">
        <ele>151</ele>
        <time>2021-09-23T18:05:36Z</time>
      </trkpt>
      <trkpt lat="43.90504" lon="2.00232">
        <ele>151.4</ele>
        <time>2021-09-23T18:05:37Z</time>
      </trkpt>
      <trkpt lat="43.90503" lon="2.00235">
        <ele>151.8</ele>
        <time>2021-09-23T18:05:38Z</time>
      </trkpt>
      <trkpt lat="43.90503" lon="2.00237">
        <ele>152</ele>
        <time>2021-09-23T18:05:39Z</time>
      </trkpt>
      <trkpt lat="43.90501" lon="2.0024">
        <ele>152.2</ele>
        <time>2021-09-23T18:05:40Z</time>
      </trkpt>
      <trkpt lat="43.90499" lon="2.00243">
        <ele>152.4</ele>
        <time>2021-09-23T18:05:41Z</time>
      </trkpt>
      <trkpt lat="43.90497" lon="2.00246">
        <ele>152.4</ele>
        <time>2021-09-23T18:05:42Z</time>
      </trkpt>
      <trkpt lat="43.90495" lon="2.00249">
        <ele>152.6</ele>
        <time>2021-09-23T18:05:43Z</time>
      </trkpt>
      <trkpt lat="43.90493" lon="2.00251">
        <ele>153</ele>
        <time>2021-09-23T18:05:44Z</time>
      </trkpt>
      <trkpt lat="43.90491" lon="2.00254">
        <ele>153.2</ele>
        <time>2021-09-23T18:05:45Z</time>
      </trkpt>
      <trkpt lat="43.90489" lon="2.00256">
        <ele>153.4</ele>
        <time>2021-09-23T18:05:46Z</time>
      </trkpt>
      <trkpt lat="43.90487" lon="2.00258">
        <ele>153.4</ele>
        <time>2021-09-23T18:05:47Z</time>
      </trkpt>
      <trkpt lat="43.90485" lon="2.00261">
        <ele>153.6</ele>
        <time>2021-09-23T18:05:48Z</time>
      </trkpt>
      <trkpt lat="43.90483" lon="2.00263">
        <ele>153.6</ele>
        <time>2021-09-23T18:05:49Z</time>
      </trkpt>
      <trkpt lat="43.90482" lon="2.00266">
        <ele>154</ele>
        <time>2021-09-23T18:05:50Z</time>
      </trkpt>
      <trkpt lat="43.90481" lon="2.00269">
        <ele>154</ele>
        <time>2021-09-23T18:05:51Z</time>
      </trkpt>
      <trkpt lat="43.9048" lon="2.00272">
        <ele>154.2</ele>
        <time>2021-09-23T18:05:52Z</time>
      </trkpt>
      <trkpt lat="43.9048" lon="2.00274">
        <ele>154.2</ele>
        <time>2021-09-23T18:05:53Z</time>
      </trkpt>
      <trkpt lat="43.90479" lon="2.00278">
        <ele>154.2</ele>
        <time>2021-09-23T18:05:54Z</time>
      </trkpt>
      <trkpt lat="43.90479" lon="2.00281">
        <ele>154.2</ele>
        <time>2021-09-23T18:05:55Z</time>
      </trkpt>
      <trkpt lat="43.90478" lon="2.00284">
        <ele>154.2</ele>
        <time>2021-09-23T18:05:56Z</time>
      </trkpt>
      <trkpt lat="43.90477" lon="2.00286">
        <ele>154.2</ele>
        <time>2021-09-23T18:05:57Z</time>
      </trkpt>
      <trkpt lat="43.90477" lon="2.0029">
        <ele>154.2</ele>
        <time>2021-09-23T18:05:58Z</time>
      </trkpt>
      <trkpt lat="43.90476" lon="2.00294">
        <ele>154.2</ele>
        <time>2021-09-23T18:05:59Z</time>
      </trkpt>
      <trkpt lat="43.90476" lon="2.00297">
        <ele>154.2</ele>
        <time>2021-09-23T18:06:00Z</time>
      </trkpt>
      <trkpt lat="43.90475" lon="2.00301">
        <ele>154.2</ele>
        <time>2021-09-23T18:06:01Z</time>
      </trkpt>
      <trkpt lat="43.90474" lon="2.00305">
        <ele>154.2</ele>
        <time>2021-09-23T18:06:02Z</time>
      </trkpt>
      <trkpt lat="43.90474" lon="2.00309">
        <ele>154.2</ele>
        <time>2021-09-23T18:06:03Z</time>
      </trkpt>
      <trkpt lat="43.90473" lon="2.00314">
        <ele>154.2</ele>
        <time>2021-09-23T18:06:04Z</time>
      </trkpt>
      <trkpt lat="43.90472" lon="2.00318">
        <ele>154.2</ele>
        <time>2021-09-23T18:06:05Z</time>
      </trkpt>
      <trkpt lat="43.90472" lon="2.00323">
        <ele>154.2</ele>
        <time>2021-09-23T18:06:06Z</time>
      </trkpt>
      <trkpt lat="43.90471" lon="2.00327">
        <ele>154.2</ele>
        <time>2021-09-23T18:06:07Z</time>
      </trkpt>
      <trkpt lat="43.9047" lon="2.00331">
        <ele>154.2</ele>
        <time>2021-09-23T18:06:08Z</time>
      </trkpt>
      <trkpt lat="43.90467" lon="2.00365">
        <ele>154.4</ele>
        <time>2021-09-23T18:06:15Z</time>
      </trkpt>
      <trkpt lat="43.90463" lon="2.004">
        <ele>154.6</ele>
        <time>2021-09-23T18:06:22Z</time>
      </trkpt>
      <trkpt lat="43.90463" lon="2.00409">
        <ele>154.6</ele>
        <time>2021-09-23T18:06:24Z</time>
      </trkpt>
      <trkpt lat="43.90461" lon="2.00437">
        <ele>154.6</ele>
        <time>2021-09-23T18:06:29Z</time>
      </trkpt>
      <trkpt lat="43.90459" lon="2.00463">
        <ele>154.6</ele>
        <time>2021-09-23T18:06:33Z</time>
      </trkpt>
      <trkpt lat="43.90458" lon="2.00488">
        <ele>154.6</ele>
        <time>2021-09-23T18:06:37Z</time>
      </trkpt>
      <trkpt lat="43.90456" lon="2.00519">
        <ele>154.4</ele>
        <time>2021-09-23T18:06:42Z</time>
      </trkpt>
      <trkpt lat="43.90455" lon="2.00525">
        <ele>154.4</ele>
        <time>2021-09-23T18:06:43Z</time>
      </trkpt>
      <trkpt lat="43.90455" lon="2.00533">
        <ele>154.4</ele>
        <time>2021-09-23T18:06:44Z</time>
      </trkpt>
      <trkpt lat="43.90454" lon="2.00537">
        <ele>154.4</ele>
        <time>2021-09-23T18:06:45Z</time>
      </trkpt>
      <trkpt lat="43.90451" lon="2.00555">
        <ele>154.4</ele>
        <time>2021-09-23T18:06:48Z</time>
      </trkpt>
      <trkpt lat="43.90436" lon="2.00601">
        <ele>154.4</ele>
        <time>2021-09-23T18:06:56Z</time>
      </trkpt>
      <trkpt lat="43.90416" lon="2.00657">
        <ele>154.4</ele>
        <time>2021-09-23T18:07:05Z</time>
      </trkpt>
      <trkpt lat="43.90402" lon="2.00719">
        <ele>154.4</ele>
        <time>2021-09-23T18:07:14Z</time>
      </trkpt>
      <trkpt lat="43.90387" lon="2.00796">
        <ele>155</ele>
        <time>2021-09-23T18:07:24Z</time>
      </trkpt>
      <trkpt lat="43.90384" lon="2.00812">
        <ele>155</ele>
        <time>2021-09-23T18:07:26Z</time>
      </trkpt>
      <trkpt lat="43.90383" lon="2.00827">
        <ele>155</ele>
        <time>2021-09-23T18:07:28Z</time>
      </trkpt>
      <trkpt lat="43.90385" lon="2.00838">
        <ele>155</ele>
        <time>2021-09-23T18:07:30Z</time>
      </trkpt>
      <trkpt lat="43.90388" lon="2.00841">
        <ele>155</ele>
        <time>2021-09-23T18:07:31Z</time>
      </trkpt>
      <trkpt lat="43.90392" lon="2.00841">
        <ele>155</ele>
        <time>2021-09-23T18:07:32Z</time>
      </trkpt>
      <trkpt lat="43.90396" lon="2.00841">
        <ele>155</ele>
        <time>2021-09-23T18:07:33Z</time>
      </trkpt>
      <trkpt lat="43.90399" lon="2.0084">
        <ele>155</ele>
        <time>2021-09-23T18:07:34Z</time>
      </trkpt>
      <trkpt lat="43.90404" lon="2.00839">
        <ele>155</ele>
        <time>2021-09-23T18:07:35Z</time>
      </trkpt>
      <trkpt lat="43.90408" lon="2.00839">
        <ele>155</ele>
        <time>2021-09-23T18:07:36Z</time>
      </trkpt>
      <trkpt lat="43.90419" lon="2.00838">
        <ele>155</ele>
        <time>2021-09-23T18:07:39Z</time>
      </trkpt>
      <trkpt lat="43.90443" lon="2.00835">
        <ele>154.2</ele>
        <time>2021-09-23T18:07:45Z</time>
      </trkpt>
      <trkpt lat="43.90444" lon="2.00834">
        <ele>154.2</ele>
        <time>2021-09-23T18:07:46Z</time>
      </trkpt>
      <trkpt lat="43.90446" lon="2.00834">
        <ele>154</ele>
        <time>2021-09-23T18:07:47Z</time>
      </trkpt>
      <trkpt lat="43.90447" lon="2.00834">
        <ele>154</ele>
        <time>2021-09-23T18:07:48Z</time>
      </trkpt>
      <trkpt lat="43.90448" lon="2.00834">
        <ele>153.8</ele>
        <time>2021-09-23T18:07:49Z</time>
      </trkpt>
      <trkpt lat="43.90449" lon="2.00834">
        <ele>153.6</ele>
        <time>2021-09-23T18:07:50Z</time>
      </trkpt>
      <trkpt lat="43.9045" lon="2.00834">
        <ele>153.2</ele>
        <time>2021-09-23T18:07:51Z</time>
      </trkpt>
      <trkpt lat="43.90451" lon="2.00834">
        <ele>153.2</ele>
        <time>2021-09-23T18:07:52Z</time>
      </trkpt>
      <trkpt lat="43.90452" lon="2.00834">
        <ele>153</ele>
        <time>2021-09-23T18:07:53Z</time>
      </trkpt>
      <trkpt lat="43.90453" lon="2.00833">
        <ele>153</ele>
        <time>2021-09-23T18:07:54Z</time>
      </trkpt>
      <trkpt lat="43.90454" lon="2.00834">
        <ele>152.8</ele>
        <time>2021-09-23T18:07:55Z</time>
      </trkpt>
      <trkpt lat="43.90455" lon="2.00834">
        <ele>152.8</ele>
        <time>2021-09-23T18:07:56Z</time>
      </trkpt>
      <trkpt lat="43.90456" lon="2.00833">
        <ele>152.6</ele>
        <time>2021-09-23T18:07:57Z</time>
      </trkpt>
      <trkpt lat="43.90457" lon="2.00833">
        <ele>152.4</ele>
        <time>2021-09-23T18:07:58Z</time>
      </trkpt>
      <trkpt lat="43.90458" lon="2.00832">
        <ele>152.4</ele>
        <time>2021-09-23T18:07:59Z</time>
      </trkpt>
      <trkpt lat="43.90458" lon="2.00831">
        <ele>152.4</ele>
        <time>2021-09-23T18:08:00Z</time>
      </trkpt>
      <trkpt lat="43.90458" lon="2.00831">
        <ele>152.4</ele>
        <time>2021-09-23T18:08:01Z</time>
      </trkpt>
      <trkpt lat="43.90458" lon="2.00831">
        <ele>152.2</ele>
        <time>2021-09-23T18:08:02Z</time>
      </trkpt>
      <trkpt lat="43.90458" lon="2.00831">
        <ele>152</ele>
        <time>2021-09-23T18:08:03Z</time>
      </trkpt>
      <trkpt lat="43.90469" lon="2.00832">
        <ele>150.2</ele>
        <time>2021-09-23T18:08:31Z</time>
      </trkpt>
      <trkpt lat="43.90472" lon="2.00831">
        <ele>150.2</ele>
        <time>2021-09-23T18:08:32Z</time>
      </trkpt>
      <trkpt lat="43.90474" lon="2.00831">
        <ele>150</ele>
        <time>2021-09-23T18:08:33Z</time>
      </trkpt>
      <trkpt lat="43.90481" lon="2.00829">
        <ele>149.2</ele>
        <time>2021-09-23T18:08:36Z</time>
      </trkpt>
      <trkpt lat="43.90487" lon="2.00824">
        <ele>148</ele>
        <time>2021-09-23T18:08:39Z</time>
      </trkpt>
      <trkpt lat="43.90488" lon="2.00823">
        <ele>147.6</ele>
        <time>2021-09-23T18:08:40Z</time>
      </trkpt>
      <trkpt lat="43.90491" lon="2.00821">
        <ele>147.4</ele>
        <time>2021-09-23T18:08:41Z</time>
      </trkpt>
      <trkpt lat="43.90493" lon="2.00819">
        <ele>147</ele>
        <time>2021-09-23T18:08:42Z</time>
      </trkpt>
      <trkpt lat="43.90498" lon="2.00815">
        <ele>145.8</ele>
        <time>2021-09-23T18:08:45Z</time>
      </trkpt>
      <trkpt lat="43.905" lon="2.00813">
        <ele>145.4</ele>
        <time>2021-09-23T18:08:46Z</time>
      </trkpt>
      <trkpt lat="43.90501" lon="2.00813">
        <ele>144.8</ele>
        <time>2021-09-23T18:08:47Z</time>
      </trkpt>
      <trkpt lat="43.90506" lon="2.00809">
        <ele>143.8</ele>
        <time>2021-09-23T18:08:49Z</time>
      </trkpt>
      <trkpt lat="43.90508" lon="2.00808">
        <ele>143.4</ele>
        <time>2021-09-23T18:08:50Z</time>
      </trkpt>
      <trkpt lat="43.90513" lon="2.00802">
        <ele>143</ele>
        <time>2021-09-23T18:08:52Z</time>
      </trkpt>
      <trkpt lat="43.90516" lon="2.008">
        <ele>142.6</ele>
        <time>2021-09-23T18:08:53Z</time>
      </trkpt>
      <trkpt lat="43.90528" lon="2.00794">
        <ele>141.2</ele>
        <time>2021-09-23T18:08:56Z</time>
      </trkpt>
      <trkpt lat="43.90531" lon="2.00793">
        <ele>140.8</ele>
        <time>2021-09-23T18:08:57Z</time>
      </trkpt>
      <trkpt lat="43.90535" lon="2.00792">
        <ele>140.4</ele>
        <time>2021-09-23T18:08:58Z</time>
      </trkpt>
      <trkpt lat="43.90538" lon="2.00793">
        <ele>140.2</ele>
        <time>2021-09-23T18:08:59Z</time>
      </trkpt>
      <trkpt lat="43.90539" lon="2.00796">
        <ele>139.8</ele>
        <time>2021-09-23T18:09:00Z</time>
      </trkpt>
      <trkpt lat="43.90539" lon="2.00799">
        <ele>139.4</ele>
        <time>2021-09-23T18:09:01Z</time>
      </trkpt>
      <trkpt lat="43.90538" lon="2.00803">
        <ele>139</ele>
        <time>2021-09-23T18:09:02Z</time>
      </trkpt>
      <trkpt lat="43.90536" lon="2.00807">
        <ele>138.8</ele>
        <time>2021-09-23T18:09:03Z</time>
      </trkpt>
      <trkpt lat="43.90534" lon="2.00812">
        <ele>138.6</ele>
        <time>2021-09-23T18:09:04Z</time>
      </trkpt>
      <trkpt lat="43.90533" lon="2.00817">
        <ele>138.4</ele>
        <time>2021-09-23T18:09:05Z</time>
      </trkpt>
      <trkpt lat="43.90532" lon="2.0082">
        <ele>138.2</ele>
        <time>2021-09-23T18:09:06Z</time>
      </trkpt>
      <trkpt lat="43.90529" lon="2.00832">
        <ele>137.8</ele>
        <time>2021-09-23T18:09:09Z</time>
      </trkpt>
      <trkpt lat="43.9053" lon="2.00835">
        <ele>137.6</ele>
        <time>2021-09-23T18:09:10Z</time>
      </trkpt>
      <trkpt lat="43.90532" lon="2.00838">
        <ele>137.6</ele>
        <time>2021-09-23T18:09:11Z</time>
      </trkpt>
      <trkpt lat="43.90543" lon="2.0086">
        <ele>137</ele>
        <time>2021-09-23T18:09:16Z</time>
      </trkpt>
      <trkpt lat="43.90552" lon="2.00872">
        <ele>136.6</ele>
        <time>2021-09-23T18:09:19Z</time>
      </trkpt>
      <trkpt lat="43.90554" lon="2.00876">
        <ele>136.6</ele>
        <time>2021-09-23T18:09:20Z</time>
      </trkpt>
      <trkpt lat="43.90562" lon="2.00888">
        <ele>136.6</ele>
        <time>2021-09-23T18:09:23Z</time>
      </trkpt>
      <trkpt lat="43.90565" lon="2.0089">
        <ele>136.6</ele>
        <time>2021-09-23T18:09:24Z</time>
      </trkpt>
      <trkpt lat="43.90567" lon="2.00892">
        <ele>136.6</ele>
        <time>2021-09-23T18:09:25Z</time>
      </trkpt>
      <trkpt lat="43.9057" lon="2.00893">
        <ele>136.8</ele>
        <time>2021-09-23T18:09:26Z</time>
      </trkpt>
      <trkpt lat="43.90572" lon="2.00895">
        <ele>137</ele>
        <time>2021-09-23T18:09:27Z</time>
      </trkpt>
      <trkpt lat="43.90574" lon="2.00898">
        <ele>137.2</ele>
        <time>2021-09-23T18:09:28Z</time>
      </trkpt>
      <trkpt lat="43.90582" lon="2.00901">
        <ele>137.8</ele>
        <time>2021-09-23T18:09:31Z</time>
      </trkpt>
      <trkpt lat="43.90585" lon="2.00901">
        <ele>138.2</ele>
        <time>2021-09-23T18:09:32Z</time>
      </trkpt>
      <trkpt lat="43.90587" lon="2.00902">
        <ele>138.6</ele>
        <time>2021-09-23T18:09:33Z</time>
      </trkpt>
      <trkpt lat="43.90589" lon="2.00901">
        <ele>138.6</ele>
        <time>2021-09-23T18:09:34Z</time>
      </trkpt>
      <trkpt lat="43.90591" lon="2.00901">
        <ele>139.2</ele>
        <time>2021-09-23T18:09:35Z</time>
      </trkpt>
      <trkpt lat="43.90593" lon="2.009">
        <ele>139.4</ele>
        <time>2021-09-23T18:09:36Z</time>
      </trkpt>
      <trkpt lat="43.90594" lon="2.00899">
        <ele>139.6</ele>
        <time>2021-09-23T18:09:37Z</time>
      </trkpt>
      <trkpt lat="43.90595" lon="2.00898">
        <ele>139.6</ele>
        <time>2021-09-23T18:09:38Z</time>
      </trkpt>
      <trkpt lat="43.90595" lon="2.00898">
        <ele>139.8</ele>
        <time>2021-09-23T18:09:39Z</time>
      </trkpt>
      <trkpt lat="43.90595" lon="2.00898">
        <ele>140</ele>
        <time>2021-09-23T18:09:40Z</time>
      </trkpt>
      <trkpt lat="43.90595" lon="2.00898">
        <ele>140</ele>
        <time>2021-09-23T18:09:41Z</time>
      </trkpt>
      <trkpt lat="43.90599" lon="2.00895">
        <ele>139.8</ele>
        <time>2021-09-23T18:10:38Z</time>
      </trkpt>
      <trkpt lat="43.90601" lon="2.00892">
        <ele>139.8</ele>
        <time>2021-09-23T18:10:40Z</time>
      </trkpt>
      <trkpt lat="43.90604" lon="2.00888">
        <ele>139.8</ele>
        <time>2021-09-23T18:10:42Z</time>
      </trkpt>
      <trkpt lat="43.9061" lon="2.00883">
        <ele>140</ele>
        <time>2021-09-23T18:10:46Z</time>
      </trkpt>
      <trkpt lat="43.90612" lon="2.00882">
        <ele>140</ele>
        <time>2021-09-23T18:10:47Z</time>
      </trkpt>
      <trkpt lat="43.90613" lon="2.00881">
        <ele>140</ele>
        <time>2021-09-23T18:10:49Z</time>
      </trkpt>
      <trkpt lat="43.90614" lon="2.0088">
        <ele>140</ele>
        <time>2021-09-23T18:10:50Z</time>
      </trkpt>
      <trkpt lat="43.90615" lon="2.00879">
        <ele>140</ele>
        <time>2021-09-23T18:10:51Z</time>
      </trkpt>
      <trkpt lat="43.90617" lon="2.00878">
        <ele>140</ele>
        <time>2021-09-23T18:10:52Z</time>
      </trkpt>
      <trkpt lat="43.90618" lon="2.00877">
        <ele>140</ele>
        <time>2021-09-23T18:10:53Z</time>
      </trkpt>
      <trkpt lat="43.90619" lon="2.00876">
        <ele>139.8</ele>
        <time>2021-09-23T18:10:54Z</time>
      </trkpt>
      <trkpt lat="43.90621" lon="2.00876">
        <ele>139.8</ele>
        <time>2021-09-23T18:10:55Z</time>
      </trkpt>
      <trkpt lat="43.90623" lon="2.00877">
        <ele>139.8</ele>
        <time>2021-09-23T18:10:56Z</time>
      </trkpt>
      <trkpt lat="43.90625" lon="2.00878">
        <ele>139.8</ele>
        <time>2021-09-23T18:10:57Z</time>
      </trkpt>
      <trkpt lat="43.9063" lon="2.00881">
        <ele>139.8</ele>
        <time>2021-09-23T18:11:00Z</time>
      </trkpt>
      <trkpt lat="43.90641" lon="2.0089">
        <ele>139.8</ele>
        <time>2021-09-23T18:11:07Z</time>
      </trkpt>
      <trkpt lat="43.90655" lon="2.00908">
        <ele>139.8</ele>
        <time>2021-09-23T18:11:14Z</time>
      </trkpt>
      <trkpt lat="43.90657" lon="2.00915">
        <ele>140</ele>
        <time>2021-09-23T18:11:16Z</time>
      </trkpt>
      <trkpt lat="43.90657" lon="2.00919">
        <ele>140</ele>
        <time>2021-09-23T18:11:17Z</time>
      </trkpt>
      <trkpt lat="43.90657" lon="2.00923">
        <ele>140</ele>
        <time>2021-09-23T18:11:18Z</time>
      </trkpt>
      <trkpt lat="43.90656" lon="2.00927">
        <ele>140</ele>
        <time>2021-09-23T18:11:19Z</time>
      </trkpt>
      <trkpt lat="43.90656" lon="2.00931">
        <ele>140.2</ele>
        <time>2021-09-23T18:11:20Z</time>
      </trkpt>
      <trkpt lat="43.90656" lon="2.00934">
        <ele>140.2</ele>
        <time>2021-09-23T18:11:21Z</time>
      </trkpt>
      <trkpt lat="43.90658" lon="2.00948">
        <ele>140.2</ele>
        <time>2021-09-23T18:11:24Z</time>
      </trkpt>
      <trkpt lat="43.9066" lon="2.00951">
        <ele>140.2</ele>
        <time>2021-09-23T18:11:25Z</time>
      </trkpt>
      <trkpt lat="43.90662" lon="2.00955">
        <ele>140.2</ele>
        <time>2021-09-23T18:11:26Z</time>
      </trkpt>
      <trkpt lat="43.90664" lon="2.00958">
        <ele>140.2</ele>
        <time>2021-09-23T18:11:27Z</time>
      </trkpt>
      <trkpt lat="43.90667" lon="2.00962">
        <ele>140.2</ele>
        <time>2021-09-23T18:11:28Z</time>
      </trkpt>
      <trkpt lat="43.90679" lon="2.0098">
        <ele>140.2</ele>
        <time>2021-09-23T18:11:33Z</time>
      </trkpt>
      <trkpt lat="43.90685" lon="2.0099">
        <ele>140.4</ele>
        <time>2021-09-23T18:11:36Z</time>
      </trkpt>
      <trkpt lat="43.90687" lon="2.00992">
        <ele>140.4</ele>
        <time>2021-09-23T18:11:37Z</time>
      </trkpt>
      <trkpt lat="43.90689" lon="2.00994">
        <ele>140.4</ele>
        <time>2021-09-23T18:11:38Z</time>
      </trkpt>
      <trkpt lat="43.90691" lon="2.00997">
        <ele>140.4</ele>
        <time>2021-09-23T18:11:39Z</time>
      </trkpt>
      <trkpt lat="43.90693" lon="2.00999">
        <ele>140.4</ele>
        <time>2021-09-23T18:11:40Z</time>
      </trkpt>
      <trkpt lat="43.90697" lon="2.01002">
        <ele>140.4</ele>
        <time>2021-09-23T18:11:42Z</time>
      </trkpt>
      <trkpt lat="43.907" lon="2.01002">
        <ele>140.4</ele>
        <time>2021-09-23T18:11:43Z</time>
      </trkpt>
      <trkpt lat="43.90702" lon="2.01002">
        <ele>140.4</ele>
        <time>2021-09-23T18:11:44Z</time>
      </trkpt>
      <trkpt lat="43.90704" lon="2.01002">
        <ele>140.2</ele>
        <time>2021-09-23T18:11:45Z</time>
      </trkpt>
      <trkpt lat="43.90707" lon="2.01001">
        <ele>140.2</ele>
        <time>2021-09-23T18:11:46Z</time>
      </trkpt>
      <trkpt lat="43.90709" lon="2.00999">
        <ele>140.2</ele>
        <time>2021-09-23T18:11:47Z</time>
      </trkpt>
      <trkpt lat="43.90711" lon="2.00998">
        <ele>140.2</ele>
        <time>2021-09-23T18:11:48Z</time>
      </trkpt>
      <trkpt lat="43.90713" lon="2.00997">
        <ele>140.2</ele>
        <time>2021-09-23T18:11:49Z</time>
      </trkpt>
      <trkpt lat="43.90715" lon="2.00995">
        <ele>140.2</ele>
        <time>2021-09-23T18:11:50Z</time>
      </trkpt>
      <trkpt lat="43.90716" lon="2.00993">
        <ele>140.2</ele>
        <time>2021-09-23T18:11:51Z</time>
      </trkpt>
      <trkpt lat="43.90718" lon="2.00992">
        <ele>140.2</ele>
        <time>2021-09-23T18:11:52Z</time>
      </trkpt>
      <trkpt lat="43.9072" lon="2.0099">
        <ele>140.2</ele>
        <time>2021-09-23T18:11:53Z</time>
      </trkpt>
      <trkpt lat="43.90721" lon="2.00989">
        <ele>140.2</ele>
        <time>2021-09-23T18:11:54Z</time>
      </trkpt>
      <trkpt lat="43.90723" lon="2.00987">
        <ele>140.4</ele>
        <time>2021-09-23T18:11:55Z</time>
      </trkpt>
      <trkpt lat="43.90724" lon="2.00985">
        <ele>140.4</ele>
        <time>2021-09-23T18:11:56Z</time>
      </trkpt>
      <trkpt lat="43.90726" lon="2.00983">
        <ele>140.4</ele>
        <time>2021-09-23T18:11:57Z</time>
      </trkpt>
      <trkpt lat="43.90727" lon="2.00981">
        <ele>140.4</ele>
        <time>2021-09-23T18:11:58Z</time>
      </trkpt>
      <trkpt lat="43.90728" lon="2.00979">
        <ele>140.4</ele>
        <time>2021-09-23T18:11:59Z</time>
      </trkpt>
      <trkpt lat="43.9073" lon="2.00976">
        <ele>140.4</ele>
        <time>2021-09-23T18:12:00Z</time>
      </trkpt>
      <trkpt lat="43.90732" lon="2.00974">
        <ele>140.4</ele>
        <time>2021-09-23T18:12:01Z</time>
      </trkpt>
      <trkpt lat="43.90737" lon="2.00971">
        <ele>140.4</ele>
        <time>2021-09-23T18:12:03Z</time>
      </trkpt>
      <trkpt lat="43.9074" lon="2.00971">
        <ele>140.6</ele>
        <time>2021-09-23T18:12:04Z</time>
      </trkpt>
      <trkpt lat="43.90743" lon="2.00972">
        <ele>140.6</ele>
        <time>2021-09-23T18:12:05Z</time>
      </trkpt>
      <trkpt lat="43.90747" lon="2.00975">
        <ele>140.4</ele>
        <time>2021-09-23T18:12:07Z</time>
      </trkpt>
      <trkpt lat="43.90749" lon="2.00977">
        <ele>140.4</ele>
        <time>2021-09-23T18:12:08Z</time>
      </trkpt>
      <trkpt lat="43.9075" lon="2.0098">
        <ele>140.4</ele>
        <time>2021-09-23T18:12:09Z</time>
      </trkpt>
      <trkpt lat="43.90752" lon="2.00982">
        <ele>140.4</ele>
        <time>2021-09-23T18:12:10Z</time>
      </trkpt>
      <trkpt lat="43.90762" lon="2.00994">
        <ele>140</ele>
        <time>2021-09-23T18:12:15Z</time>
      </trkpt>
      <trkpt lat="43.90764" lon="2.00996">
        <ele>140</ele>
        <time>2021-09-23T18:12:16Z</time>
      </trkpt>
      <trkpt lat="43.90766" lon="2.00999">
        <ele>139.8</ele>
        <time>2021-09-23T18:12:17Z</time>
      </trkpt>
      <trkpt lat="43.90768" lon="2.01002">
        <ele>139.6</ele>
        <time>2021-09-23T18:12:18Z</time>
      </trkpt>
      <trkpt lat="43.90783" lon="2.01022">
        <ele>139.2</ele>
        <time>2021-09-23T18:12:26Z</time>
      </trkpt>
      <trkpt lat="43.90784" lon="2.01024">
        <ele>139.2</ele>
        <time>2021-09-23T18:12:27Z</time>
      </trkpt>
      <trkpt lat="43.90788" lon="2.01029">
        <ele>139</ele>
        <time>2021-09-23T18:12:29Z</time>
      </trkpt>
      <trkpt lat="43.90789" lon="2.01031">
        <ele>138.8</ele>
        <time>2021-09-23T18:12:30Z</time>
      </trkpt>
      <trkpt lat="43.9079" lon="2.01033">
        <ele>138.8</ele>
        <time>2021-09-23T18:12:31Z</time>
      </trkpt>
      <trkpt lat="43.90791" lon="2.01035">
        <ele>138.8</ele>
        <time>2021-09-23T18:12:32Z</time>
      </trkpt>
      <trkpt lat="43.90793" lon="2.01037">
        <ele>138.6</ele>
        <time>2021-09-23T18:12:33Z</time>
      </trkpt>
      <trkpt lat="43.90794" lon="2.01039">
        <ele>138.6</ele>
        <time>2021-09-23T18:12:34Z</time>
      </trkpt>
      <trkpt lat="43.90795" lon="2.0104">
        <ele>138.6</ele>
        <time>2021-09-23T18:12:35Z</time>
      </trkpt>
      <trkpt lat="43.90797" lon="2.01043">
        <ele>138.6</ele>
        <time>2021-09-23T18:12:36Z</time>
      </trkpt>
      <trkpt lat="43.90798" lon="2.01045">
        <ele>138.4</ele>
        <time>2021-09-23T18:12:37Z</time>
      </trkpt>
      <trkpt lat="43.908" lon="2.01049">
        <ele>138.4</ele>
        <time>2021-09-23T18:12:39Z</time>
      </trkpt>
      <trkpt lat="43.90801" lon="2.0105">
        <ele>138.4</ele>
        <time>2021-09-23T18:12:40Z</time>
      </trkpt>
      <trkpt lat="43.90802" lon="2.01052">
        <ele>138.4</ele>
        <time>2021-09-23T18:12:41Z</time>
      </trkpt>
      <trkpt lat="43.90803" lon="2.01054">
        <ele>138.4</ele>
        <time>2021-09-23T18:12:42Z</time>
      </trkpt>
      <trkpt lat="43.90805" lon="2.01056">
        <ele>138.4</ele>
        <time>2021-09-23T18:12:43Z</time>
      </trkpt>
      <trkpt lat="43.90808" lon="2.0106">
        <ele>138.4</ele>
        <time>2021-09-23T18:12:45Z</time>
      </trkpt>
      <trkpt lat="43.90823" lon="2.01081">
        <ele>138.4</ele>
        <time>2021-09-23T18:12:54Z</time>
      </trkpt>
      <trkpt lat="43.90837" lon="2.01103">
        <ele>138.8</ele>
        <time>2021-09-23T18:13:01Z</time>
      </trkpt>
      <trkpt lat="43.90855" lon="2.01128">
        <ele>139</ele>
        <time>2021-09-23T18:13:09Z</time>
      </trkpt>
      <trkpt lat="43.90867" lon="2.01155">
        <ele>139.4</ele>
        <time>2021-09-23T18:13:16Z</time>
      </trkpt>
      <trkpt lat="43.90867" lon="2.01158">
        <ele>139.6</ele>
        <time>2021-09-23T18:13:17Z</time>
      </trkpt>
      <trkpt lat="43.90866" lon="2.01163">
        <ele>139.8</ele>
        <time>2021-09-23T18:13:18Z</time>
      </trkpt>
      <trkpt lat="43.90863" lon="2.0117">
        <ele>139.8</ele>
        <time>2021-09-23T18:13:20Z</time>
      </trkpt>
      <trkpt lat="43.90861" lon="2.01174">
        <ele>140</ele>
        <time>2021-09-23T18:13:21Z</time>
      </trkpt>
      <trkpt lat="43.90858" lon="2.01177">
        <ele>140.2</ele>
        <time>2021-09-23T18:13:22Z</time>
      </trkpt>
      <trkpt lat="43.90856" lon="2.01181">
        <ele>140.4</ele>
        <time>2021-09-23T18:13:23Z</time>
      </trkpt>
      <trkpt lat="43.90854" lon="2.01183">
        <ele>140.4</ele>
        <time>2021-09-23T18:13:24Z</time>
      </trkpt>
      <trkpt lat="43.90852" lon="2.01186">
        <ele>140.4</ele>
        <time>2021-09-23T18:13:25Z</time>
      </trkpt>
      <trkpt lat="43.9085" lon="2.01189">
        <ele>140.6</ele>
        <time>2021-09-23T18:13:26Z</time>
      </trkpt>
      <trkpt lat="43.90845" lon="2.01195">
        <ele>140.8</ele>
        <time>2021-09-23T18:13:28Z</time>
      </trkpt>
      <trkpt lat="43.90841" lon="2.01202">
        <ele>141.2</ele>
        <time>2021-09-23T18:13:30Z</time>
      </trkpt>
      <trkpt lat="43.90822" lon="2.01238">
        <ele>142</ele>
        <time>2021-09-23T18:13:39Z</time>
      </trkpt>
      <trkpt lat="43.90809" lon="2.01278">
        <ele>142.2</ele>
        <time>2021-09-23T18:13:46Z</time>
      </trkpt>
      <trkpt lat="43.90797" lon="2.01332">
        <ele>142.2</ele>
        <time>2021-09-23T18:13:54Z</time>
      </trkpt>
      <trkpt lat="43.90795" lon="2.01385">
        <ele>142</ele>
        <time>2021-09-23T18:14:01Z</time>
      </trkpt>
      <trkpt lat="43.90795" lon="2.01421">
        <ele>142.2</ele>
        <time>2021-09-23T18:14:06Z</time>
      </trkpt>
      <trkpt lat="43.90795" lon="2.01442">
        <ele>142.2</ele>
        <time>2021-09-23T18:14:09Z</time>
      </trkpt>
      <trkpt lat="43.90796" lon="2.01449">
        <ele>142.4</ele>
        <time>2021-09-23T18:14:10Z</time>
      </trkpt>
      <trkpt lat="43.90796" lon="2.01456">
        <ele>142.4</ele>
        <time>2021-09-23T18:14:11Z</time>
      </trkpt>
      <trkpt lat="43.90796" lon="2.01461">
        <ele>142.4</ele>
        <time>2021-09-23T18:14:12Z</time>
      </trkpt>
      <trkpt lat="43.90797" lon="2.01469">
        <ele>142.6</ele>
        <time>2021-09-23T18:14:13Z</time>
      </trkpt>
      <trkpt lat="43.90798" lon="2.01476">
        <ele>142.6</ele>
        <time>2021-09-23T18:14:14Z</time>
      </trkpt>
      <trkpt lat="43.90799" lon="2.01483">
        <ele>142.6</ele>
        <time>2021-09-23T18:14:15Z</time>
      </trkpt>
      <trkpt lat="43.90806" lon="2.01535">
        <ele>142.6</ele>
        <time>2021-09-23T18:14:22Z</time>
      </trkpt>
      <trkpt lat="43.90815" lon="2.01598">
        <ele>143</ele>
        <time>2021-09-23T18:14:30Z</time>
      </trkpt>
      <trkpt lat="43.90824" lon="2.01663">
        <ele>143.2</ele>
        <time>2021-09-23T18:14:38Z</time>
      </trkpt>
      <trkpt lat="43.90826" lon="2.01679">
        <ele>143.2</ele>
        <time>2021-09-23T18:14:40Z</time>
      </trkpt>
      <trkpt lat="43.90837" lon="2.01748">
        <ele>143.2</ele>
        <time>2021-09-23T18:14:49Z</time>
      </trkpt>
      <trkpt lat="43.9084" lon="2.01752">
        <ele>143</ele>
        <time>2021-09-23T18:14:50Z</time>
      </trkpt>
      <trkpt lat="43.90844" lon="2.01754">
        <ele>143</ele>
        <time>2021-09-23T18:14:51Z</time>
      </trkpt>
      <trkpt lat="43.90847" lon="2.01752">
        <ele>143</ele>
        <time>2021-09-23T18:14:52Z</time>
      </trkpt>
      <trkpt lat="43.90851" lon="2.0175">
        <ele>143</ele>
        <time>2021-09-23T18:14:53Z</time>
      </trkpt>
      <trkpt lat="43.90855" lon="2.01747">
        <ele>143</ele>
        <time>2021-09-23T18:14:54Z</time>
      </trkpt>
      <trkpt lat="43.90859" lon="2.01744">
        <ele>143</ele>
        <time>2021-09-23T18:14:55Z</time>
      </trkpt>
      <trkpt lat="43.90863" lon="2.0174">
        <ele>143</ele>
        <time>2021-09-23T18:14:56Z</time>
      </trkpt>
      <trkpt lat="43.90881" lon="2.01725">
        <ele>143</ele>
        <time>2021-09-23T18:15:00Z</time>
      </trkpt>
      <trkpt lat="43.90895" lon="2.01714">
        <ele>142.8</ele>
        <time>2021-09-23T18:15:03Z</time>
      </trkpt>
      <trkpt lat="43.9092" lon="2.01694">
        <ele>142.4</ele>
        <time>2021-09-23T18:15:08Z</time>
      </trkpt>
      <trkpt lat="43.90959" lon="2.01661">
        <ele>142.4</ele>
        <time>2021-09-23T18:15:16Z</time>
      </trkpt>
      <trkpt lat="43.91009" lon="2.0162">
        <ele>142.4</ele>
        <time>2021-09-23T18:15:26Z</time>
      </trkpt>
      <trkpt lat="43.91043" lon="2.01591">
        <ele>142.8</ele>
        <time>2021-09-23T18:15:33Z</time>
      </trkpt>
      <trkpt lat="43.91058" lon="2.01579">
        <ele>143</ele>
        <time>2021-09-23T18:15:36Z</time>
      </trkpt>
      <trkpt lat="43.91063" lon="2.01576">
        <ele>143</ele>
        <time>2021-09-23T18:15:37Z</time>
      </trkpt>
      <trkpt lat="43.91073" lon="2.01572">
        <ele>143</ele>
        <time>2021-09-23T18:15:39Z</time>
      </trkpt>
      <trkpt lat="43.91078" lon="2.01573">
        <ele>143.2</ele>
        <time>2021-09-23T18:15:40Z</time>
      </trkpt>
      <trkpt lat="43.91083" lon="2.01577">
        <ele>143.2</ele>
        <time>2021-09-23T18:15:41Z</time>
      </trkpt>
      <trkpt lat="43.91088" lon="2.01583">
        <ele>143.2</ele>
        <time>2021-09-23T18:15:42Z</time>
      </trkpt>
      <trkpt lat="43.9109" lon="2.01588">
        <ele>143.2</ele>
        <time>2021-09-23T18:15:43Z</time>
      </trkpt>
      <trkpt lat="43.91099" lon="2.01607">
        <ele>143.2</ele>
        <time>2021-09-23T18:15:46Z</time>
      </trkpt>
      <trkpt lat="43.91109" lon="2.01626">
        <ele>143.2</ele>
        <time>2021-09-23T18:15:49Z</time>
      </trkpt>
      <trkpt lat="43.91138" lon="2.01686">
        <ele>143</ele>
        <time>2021-09-23T18:15:58Z</time>
      </trkpt>
      <trkpt lat="43.91166" lon="2.01754">
        <ele>142.8</ele>
        <time>2021-09-23T18:16:08Z</time>
      </trkpt>
      <trkpt lat="43.91186" lon="2.01811">
        <ele>142.8</ele>
        <time>2021-09-23T18:16:16Z</time>
      </trkpt>
      <trkpt lat="43.91196" lon="2.0184">
        <ele>142.8</ele>
        <time>2021-09-23T18:16:20Z</time>
      </trkpt>
      <trkpt lat="43.91206" lon="2.01899">
        <ele>142.4</ele>
        <time>2021-09-23T18:16:27Z</time>
      </trkpt>
      <trkpt lat="43.91206" lon="2.01907">
        <ele>142.4</ele>
        <time>2021-09-23T18:16:28Z</time>
      </trkpt>
      <trkpt lat="43.91202" lon="2.01932">
        <ele>142.2</ele>
        <time>2021-09-23T18:16:31Z</time>
      </trkpt>
      <trkpt lat="43.91199" lon="2.01945">
        <ele>141.8</ele>
        <time>2021-09-23T18:16:33Z</time>
      </trkpt>
      <trkpt lat="43.91198" lon="2.01951">
        <ele>141.6</ele>
        <time>2021-09-23T18:16:34Z</time>
      </trkpt>
      <trkpt lat="43.91198" lon="2.01955">
        <ele>141.6</ele>
        <time>2021-09-23T18:16:35Z</time>
      </trkpt>
      <trkpt lat="43.91199" lon="2.01959">
        <ele>141.6</ele>
        <time>2021-09-23T18:16:36Z</time>
      </trkpt>
      <trkpt lat="43.91199" lon="2.01962">
        <ele>141</ele>
        <time>2021-09-23T18:16:37Z</time>
      </trkpt>
      <trkpt lat="43.91201" lon="2.01966">
        <ele>141</ele>
        <time>2021-09-23T18:16:38Z</time>
      </trkpt>
      <trkpt lat="43.91202" lon="2.0197">
        <ele>140.6</ele>
        <time>2021-09-23T18:16:39Z</time>
      </trkpt>
      <trkpt lat="43.91215" lon="2.01993">
        <ele>140</ele>
        <time>2021-09-23T18:16:44Z</time>
      </trkpt>
      <trkpt lat="43.91225" lon="2.02005">
        <ele>140</ele>
        <time>2021-09-23T18:16:47Z</time>
      </trkpt>
      <trkpt lat="43.91228" lon="2.02009">
        <ele>140</ele>
        <time>2021-09-23T18:16:48Z</time>
      </trkpt>
      <trkpt lat="43.91237" lon="2.02018">
        <ele>140</ele>
        <time>2021-09-23T18:16:50Z</time>
      </trkpt>
      <trkpt lat="43.91241" lon="2.02022">
        <ele>140</ele>
        <time>2021-09-23T18:16:51Z</time>
      </trkpt>
      <trkpt lat="43.91245" lon="2.02028">
        <ele>140</ele>
        <time>2021-09-23T18:16:52Z</time>
      </trkpt>
      <trkpt lat="43.91251" lon="2.0204">
        <ele>140.2</ele>
        <time>2021-09-23T18:16:54Z</time>
      </trkpt>
      <trkpt lat="43.91253" lon="2.02047">
        <ele>140.2</ele>
        <time>2021-09-23T18:16:55Z</time>
      </trkpt>
      <trkpt lat="43.91254" lon="2.02053">
        <ele>140.4</ele>
        <time>2021-09-23T18:16:56Z</time>
      </trkpt>
      <trkpt lat="43.91255" lon="2.0206">
        <ele>140.4</ele>
        <time>2021-09-23T18:16:57Z</time>
      </trkpt>
      <trkpt lat="43.91256" lon="2.02067">
        <ele>140.4</ele>
        <time>2021-09-23T18:16:58Z</time>
      </trkpt>
      <trkpt lat="43.91255" lon="2.02074">
        <ele>140.4</ele>
        <time>2021-09-23T18:16:59Z</time>
      </trkpt>
      <trkpt lat="43.91254" lon="2.02081">
        <ele>140.4</ele>
        <time>2021-09-23T18:17:00Z</time>
      </trkpt>
      <trkpt lat="43.91251" lon="2.02109">
        <ele>140.6</ele>
        <time>2021-09-23T18:17:04Z</time>
      </trkpt>
      <trkpt lat="43.91251" lon="2.02116">
        <ele>141</ele>
        <time>2021-09-23T18:17:05Z</time>
      </trkpt>
      <trkpt lat="43.91253" lon="2.02136">
        <ele>141</ele>
        <time>2021-09-23T18:17:08Z</time>
      </trkpt>
      <trkpt lat="43.91257" lon="2.02155">
        <ele>141.6</ele>
        <time>2021-09-23T18:17:11Z</time>
      </trkpt>
      <trkpt lat="43.91259" lon="2.02162">
        <ele>141.8</ele>
        <time>2021-09-23T18:17:12Z</time>
      </trkpt>
      <trkpt lat="43.91272" lon="2.022">
        <ele>142.6</ele>
        <time>2021-09-23T18:17:18Z</time>
      </trkpt>
      <trkpt lat="43.91275" lon="2.02205">
        <ele>143</ele>
        <time>2021-09-23T18:17:19Z</time>
      </trkpt>
      <trkpt lat="43.91288" lon="2.02233">
        <ele>143.6</ele>
        <time>2021-09-23T18:17:24Z</time>
      </trkpt>
      <trkpt lat="43.91291" lon="2.02239">
        <ele>143.8</ele>
        <time>2021-09-23T18:17:25Z</time>
      </trkpt>
      <trkpt lat="43.91293" lon="2.02245">
        <ele>143.8</ele>
        <time>2021-09-23T18:17:26Z</time>
      </trkpt>
      <trkpt lat="43.91296" lon="2.02251">
        <ele>143.8</ele>
        <time>2021-09-23T18:17:27Z</time>
      </trkpt>
      <trkpt lat="43.91299" lon="2.02257">
        <ele>143.8</ele>
        <time>2021-09-23T18:17:28Z</time>
      </trkpt>
      <trkpt lat="43.91302" lon="2.02263">
        <ele>143.8</ele>
        <time>2021-09-23T18:17:29Z</time>
      </trkpt>
      <trkpt lat="43.91305" lon="2.02269">
        <ele>144.2</ele>
        <time>2021-09-23T18:17:30Z</time>
      </trkpt>
      <trkpt lat="43.91307" lon="2.02275">
        <ele>144.2</ele>
        <time>2021-09-23T18:17:31Z</time>
      </trkpt>
      <trkpt lat="43.9131" lon="2.02281">
        <ele>144.2</ele>
        <time>2021-09-23T18:17:32Z</time>
      </trkpt>
      <trkpt lat="43.91314" lon="2.02288">
        <ele>144.2</ele>
        <time>2021-09-23T18:17:33Z</time>
      </trkpt>
      <trkpt lat="43.91316" lon="2.02293">
        <ele>143.8</ele>
        <time>2021-09-23T18:17:34Z</time>
      </trkpt>
      <trkpt lat="43.9132" lon="2.02301">
        <ele>144.2</ele>
        <time>2021-09-23T18:17:35Z</time>
      </trkpt>
      <trkpt lat="43.91323" lon="2.02307">
        <ele>144.2</ele>
        <time>2021-09-23T18:17:36Z</time>
      </trkpt>
      <trkpt lat="43.91325" lon="2.02314">
        <ele>144.2</ele>
        <time>2021-09-23T18:17:37Z</time>
      </trkpt>
      <trkpt lat="43.9133" lon="2.02328">
        <ele>144.2</ele>
        <time>2021-09-23T18:17:39Z</time>
      </trkpt>
      <trkpt lat="43.91346" lon="2.02388">
        <ele>143.8</ele>
        <time>2021-09-23T18:17:47Z</time>
      </trkpt>
      <trkpt lat="43.91369" lon="2.02455">
        <ele>143.6</ele>
        <time>2021-09-23T18:17:56Z</time>
      </trkpt>
      <trkpt lat="43.91396" lon="2.02521">
        <ele>143.6</ele>
        <time>2021-09-23T18:18:05Z</time>
      </trkpt>
      <trkpt lat="43.91409" lon="2.02556">
        <ele>143.8</ele>
        <time>2021-09-23T18:18:10Z</time>
      </trkpt>
      <trkpt lat="43.91411" lon="2.02562">
        <ele>143.8</ele>
        <time>2021-09-23T18:18:11Z</time>
      </trkpt>
      <trkpt lat="43.91414" lon="2.02567">
        <ele>143.8</ele>
        <time>2021-09-23T18:18:12Z</time>
      </trkpt>
      <trkpt lat="43.91417" lon="2.02573">
        <ele>143.8</ele>
        <time>2021-09-23T18:18:13Z</time>
      </trkpt>
      <trkpt lat="43.9142" lon="2.02578">
        <ele>143.8</ele>
        <time>2021-09-23T18:18:14Z</time>
      </trkpt>
      <trkpt lat="43.91426" lon="2.02589">
        <ele>143.8</ele>
        <time>2021-09-23T18:18:16Z</time>
      </trkpt>
      <trkpt lat="43.91436" lon="2.02606">
        <ele>143.8</ele>
        <time>2021-09-23T18:18:19Z</time>
      </trkpt>
      <trkpt lat="43.91449" lon="2.0263">
        <ele>143.8</ele>
        <time>2021-09-23T18:18:23Z</time>
      </trkpt>
      <trkpt lat="43.9146" lon="2.02656">
        <ele>143.8</ele>
        <time>2021-09-23T18:18:27Z</time>
      </trkpt>
      <trkpt lat="43.91463" lon="2.0267">
        <ele>143.8</ele>
        <time>2021-09-23T18:18:29Z</time>
      </trkpt>
      <trkpt lat="43.91464" lon="2.02705">
        <ele>144.2</ele>
        <time>2021-09-23T18:18:34Z</time>
      </trkpt>
      <trkpt lat="43.91464" lon="2.02713">
        <ele>144.2</ele>
        <time>2021-09-23T18:18:35Z</time>
      </trkpt>
      <trkpt lat="43.91465" lon="2.0272">
        <ele>144.4</ele>
        <time>2021-09-23T18:18:36Z</time>
      </trkpt>
      <trkpt lat="43.91465" lon="2.02728">
        <ele>144.4</ele>
        <time>2021-09-23T18:18:37Z</time>
      </trkpt>
      <trkpt lat="43.91469" lon="2.02773">
        <ele>145</ele>
        <time>2021-09-23T18:18:43Z</time>
      </trkpt>
      <trkpt lat="43.91471" lon="2.02789">
        <ele>145</ele>
        <time>2021-09-23T18:18:45Z</time>
      </trkpt>
      <trkpt lat="43.91475" lon="2.02846">
        <ele>145</ele>
        <time>2021-09-23T18:18:52Z</time>
      </trkpt>
      <trkpt lat="43.91473" lon="2.02892">
        <ele>144.8</ele>
        <time>2021-09-23T18:18:58Z</time>
      </trkpt>
      <trkpt lat="43.91472" lon="2.02899">
        <ele>144.8</ele>
        <time>2021-09-23T18:18:59Z</time>
      </trkpt>
      <trkpt lat="43.91472" lon="2.02906">
        <ele>144.8</ele>
        <time>2021-09-23T18:19:00Z</time>
      </trkpt>
      <trkpt lat="43.91471" lon="2.02912">
        <ele>144.6</ele>
        <time>2021-09-23T18:19:01Z</time>
      </trkpt>
      <trkpt lat="43.91471" lon="2.02918">
        <ele>144.6</ele>
        <time>2021-09-23T18:19:02Z</time>
      </trkpt>
      <trkpt lat="43.9147" lon="2.02924">
        <ele>144.6</ele>
        <time>2021-09-23T18:19:03Z</time>
      </trkpt>
      <trkpt lat="43.9147" lon="2.0293">
        <ele>144.6</ele>
        <time>2021-09-23T18:19:04Z</time>
      </trkpt>
      <trkpt lat="43.9147" lon="2.02936">
        <ele>144.6</ele>
        <time>2021-09-23T18:19:05Z</time>
      </trkpt>
      <trkpt lat="43.9147" lon="2.0294">
        <ele>144.6</ele>
        <time>2021-09-23T18:19:06Z</time>
      </trkpt>
      <trkpt lat="43.9147" lon="2.02943">
        <ele>144.6</ele>
        <time>2021-09-23T18:19:07Z</time>
      </trkpt>
      <trkpt lat="43.91471" lon="2.02945">
        <ele>144.6</ele>
        <time>2021-09-23T18:19:08Z</time>
      </trkpt>
      <trkpt lat="43.91471" lon="2.02948">
        <ele>144.6</ele>
        <time>2021-09-23T18:19:09Z</time>
      </trkpt>
      <trkpt lat="43.91473" lon="2.0295">
        <ele>144.6</ele>
        <time>2021-09-23T18:19:10Z</time>
      </trkpt>
      <trkpt lat="43.91475" lon="2.02951">
        <ele>144.6</ele>
        <time>2021-09-23T18:19:11Z</time>
      </trkpt>
      <trkpt lat="43.91486" lon="2.02953">
        <ele>144.6</ele>
        <time>2021-09-23T18:19:14Z</time>
      </trkpt>
      <trkpt lat="43.91489" lon="2.02953">
        <ele>144.6</ele>
        <time>2021-09-23T18:19:15Z</time>
      </trkpt>
      <trkpt lat="43.9151" lon="2.02954">
        <ele>144.6</ele>
        <time>2021-09-23T18:19:20Z</time>
      </trkpt>
      <trkpt lat="43.91532" lon="2.02956">
        <ele>144.6</ele>
        <time>2021-09-23T18:19:24Z</time>
      </trkpt>
      <trkpt lat="43.91537" lon="2.02956">
        <ele>144.6</ele>
        <time>2021-09-23T18:19:25Z</time>
      </trkpt>
      <trkpt lat="43.91558" lon="2.02957">
        <ele>144.6</ele>
        <time>2021-09-23T18:19:29Z</time>
      </trkpt>
      <trkpt lat="43.91604" lon="2.02961">
        <ele>144.8</ele>
        <time>2021-09-23T18:19:37Z</time>
      </trkpt>
      <trkpt lat="43.9166" lon="2.02965">
        <ele>144.8</ele>
        <time>2021-09-23T18:19:47Z</time>
      </trkpt>
      <trkpt lat="43.91666" lon="2.02965">
        <ele>144.8</ele>
        <time>2021-09-23T18:19:48Z</time>
      </trkpt>
      <trkpt lat="43.91695" lon="2.02969">
        <ele>145</ele>
        <time>2021-09-23T18:19:53Z</time>
      </trkpt>
      <trkpt lat="43.91711" lon="2.02971">
        <ele>145</ele>
        <time>2021-09-23T18:19:56Z</time>
      </trkpt>
      <trkpt lat="43.91716" lon="2.02972">
        <ele>145</ele>
        <time>2021-09-23T18:19:57Z</time>
      </trkpt>
      <trkpt lat="43.91722" lon="2.02972">
        <ele>145</ele>
        <time>2021-09-23T18:19:58Z</time>
      </trkpt>
      <trkpt lat="43.91727" lon="2.02973">
        <ele>145</ele>
        <time>2021-09-23T18:19:59Z</time>
      </trkpt>
      <trkpt lat="43.91732" lon="2.02973">
        <ele>145</ele>
        <time>2021-09-23T18:20:00Z</time>
      </trkpt>
      <trkpt lat="43.91737" lon="2.02974">
        <ele>145</ele>
        <time>2021-09-23T18:20:01Z</time>
      </trkpt>
      <trkpt lat="43.91742" lon="2.02975">
        <ele>145</ele>
        <time>2021-09-23T18:20:02Z</time>
      </trkpt>
      <trkpt lat="43.91745" lon="2.02975">
        <ele>145</ele>
        <time>2021-09-23T18:20:03Z</time>
      </trkpt>
      <trkpt lat="43.91748" lon="2.02975">
        <ele>144.8</ele>
        <time>2021-09-23T18:20:04Z</time>
      </trkpt>
      <trkpt lat="43.91751" lon="2.02976">
        <ele>144.8</ele>
        <time>2021-09-23T18:20:05Z</time>
      </trkpt>
      <trkpt lat="43.91752" lon="2.02976">
        <ele>144.8</ele>
        <time>2021-09-23T18:20:06Z</time>
      </trkpt>
      <trkpt lat="43.91753" lon="2.02976">
        <ele>144.8</ele>
        <time>2021-09-23T18:20:07Z</time>
      </trkpt>
      <trkpt lat="43.91753" lon="2.02976">
        <ele>144.6</ele>
        <time>2021-09-23T18:20:08Z</time>
      </trkpt>
      <trkpt lat="43.91753" lon="2.02976">
        <ele>144.6</ele>
        <time>2021-09-23T18:20:09Z</time>
      </trkpt>
      <trkpt lat="43.91756" lon="2.02977">
        <ele>144.2</ele>
        <time>2021-09-23T18:20:40Z</time>
      </trkpt>
      <trkpt lat="43.91762" lon="2.02981">
        <ele>144.2</ele>
        <time>2021-09-23T18:20:42Z</time>
      </trkpt>
      <trkpt lat="43.91774" lon="2.02982">
        <ele>144.2</ele>
        <time>2021-09-23T18:20:45Z</time>
      </trkpt>
      <trkpt lat="43.91778" lon="2.02979">
        <ele>144.2</ele>
        <time>2021-09-23T18:20:46Z</time>
      </trkpt>
      <trkpt lat="43.91786" lon="2.02972">
        <ele>144.4</ele>
        <time>2021-09-23T18:20:48Z</time>
      </trkpt>
      <trkpt lat="43.91791" lon="2.02968">
        <ele>144.6</ele>
        <time>2021-09-23T18:20:49Z</time>
      </trkpt>
      <trkpt lat="43.91811" lon="2.02954">
        <ele>144.8</ele>
        <time>2021-09-23T18:20:53Z</time>
      </trkpt>
      <trkpt lat="43.91827" lon="2.02944">
        <ele>145</ele>
        <time>2021-09-23T18:20:56Z</time>
      </trkpt>
      <trkpt lat="43.91861" lon="2.02925">
        <ele>145</ele>
        <time>2021-09-23T18:21:02Z</time>
      </trkpt>
      <trkpt lat="43.91915" lon="2.02893">
        <ele>144.8</ele>
        <time>2021-09-23T18:21:11Z</time>
      </trkpt>
      <trkpt lat="43.91921" lon="2.02889">
        <ele>144.8</ele>
        <time>2021-09-23T18:21:12Z</time>
      </trkpt>
      <trkpt lat="43.91971" lon="2.02859">
        <ele>144.6</ele>
        <time>2021-09-23T18:21:20Z</time>
      </trkpt>
      <trkpt lat="43.92001" lon="2.02841">
        <ele>144.4</ele>
        <time>2021-09-23T18:21:25Z</time>
      </trkpt>
      <trkpt lat="43.92006" lon="2.02837">
        <ele>144.4</ele>
        <time>2021-09-23T18:21:26Z</time>
      </trkpt>
      <trkpt lat="43.92012" lon="2.02834">
        <ele>144.2</ele>
        <time>2021-09-23T18:21:27Z</time>
      </trkpt>
      <trkpt lat="43.92018" lon="2.0283">
        <ele>144.2</ele>
        <time>2021-09-23T18:21:28Z</time>
      </trkpt>
      <trkpt lat="43.92023" lon="2.02827">
        <ele>144.2</ele>
        <time>2021-09-23T18:21:29Z</time>
      </trkpt>
      <trkpt lat="43.92029" lon="2.02823">
        <ele>144.2</ele>
        <time>2021-09-23T18:21:30Z</time>
      </trkpt>
      <trkpt lat="43.92035" lon="2.0282">
        <ele>144.2</ele>
        <time>2021-09-23T18:21:31Z</time>
      </trkpt>
      <trkpt lat="43.92041" lon="2.02817">
        <ele>144.2</ele>
        <time>2021-09-23T18:21:32Z</time>
      </trkpt>
      <trkpt lat="43.92052" lon="2.0281">
        <ele>144.2</ele>
        <time>2021-09-23T18:21:34Z</time>
      </trkpt>
      <trkpt lat="43.92058" lon="2.02807">
        <ele>144.2</ele>
        <time>2021-09-23T18:21:35Z</time>
      </trkpt>
      <trkpt lat="43.92068" lon="2.02798">
        <ele>144.2</ele>
        <time>2021-09-23T18:21:37Z</time>
      </trkpt>
      <trkpt lat="43.92072" lon="2.02793">
        <ele>144.2</ele>
        <time>2021-09-23T18:21:38Z</time>
      </trkpt>
      <trkpt lat="43.92079" lon="2.0278">
        <ele>144.4</ele>
        <time>2021-09-23T18:21:40Z</time>
      </trkpt>
      <trkpt lat="43.92081" lon="2.02773">
        <ele>144.4</ele>
        <time>2021-09-23T18:21:41Z</time>
      </trkpt>
      <trkpt lat="43.92083" lon="2.02765">
        <ele>144.4</ele>
        <time>2021-09-23T18:21:42Z</time>
      </trkpt>
      <trkpt lat="43.92084" lon="2.02756">
        <ele>144.4</ele>
        <time>2021-09-23T18:21:43Z</time>
      </trkpt>
      <trkpt lat="43.92084" lon="2.02748">
        <ele>144.4</ele>
        <time>2021-09-23T18:21:44Z</time>
      </trkpt>
      <trkpt lat="43.92084" lon="2.0274">
        <ele>144.4</ele>
        <time>2021-09-23T18:21:45Z</time>
      </trkpt>
      <trkpt lat="43.92083" lon="2.02723">
        <ele>144.4</ele>
        <time>2021-09-23T18:21:47Z</time>
      </trkpt>
      <trkpt lat="43.92082" lon="2.02682">
        <ele>144.6</ele>
        <time>2021-09-23T18:21:52Z</time>
      </trkpt>
      <trkpt lat="43.92082" lon="2.02674">
        <ele>144.6</ele>
        <time>2021-09-23T18:21:53Z</time>
      </trkpt>
      <trkpt lat="43.92081" lon="2.02658">
        <ele>144.8</ele>
        <time>2021-09-23T18:21:55Z</time>
      </trkpt>
      <trkpt lat="43.92081" lon="2.02651">
        <ele>145</ele>
        <time>2021-09-23T18:21:56Z</time>
      </trkpt>
      <trkpt lat="43.92081" lon="2.02643">
        <ele>145</ele>
        <time>2021-09-23T18:21:57Z</time>
      </trkpt>
      <trkpt lat="43.9208" lon="2.02636">
        <ele>145.2</ele>
        <time>2021-09-23T18:21:58Z</time>
      </trkpt>
      <trkpt lat="43.9208" lon="2.02629">
        <ele>145.2</ele>
        <time>2021-09-23T18:21:59Z</time>
      </trkpt>
      <trkpt lat="43.92081" lon="2.02623">
        <ele>145.4</ele>
        <time>2021-09-23T18:22:00Z</time>
      </trkpt>
      <trkpt lat="43.92083" lon="2.02617">
        <ele>145.4</ele>
        <time>2021-09-23T18:22:01Z</time>
      </trkpt>
      <trkpt lat="43.92086" lon="2.02613">
        <ele>145.6</ele>
        <time>2021-09-23T18:22:02Z</time>
      </trkpt>
      <trkpt lat="43.9209" lon="2.02609">
        <ele>145.8</ele>
        <time>2021-09-23T18:22:03Z</time>
      </trkpt>
      <trkpt lat="43.92094" lon="2.02607">
        <ele>146</ele>
        <time>2021-09-23T18:22:04Z</time>
      </trkpt>
      <trkpt lat="43.92097" lon="2.02605">
        <ele>146.4</ele>
        <time>2021-09-23T18:22:05Z</time>
      </trkpt>
      <trkpt lat="43.92101" lon="2.02602">
        <ele>146.4</ele>
        <time>2021-09-23T18:22:06Z</time>
      </trkpt>
      <trkpt lat="43.92103" lon="2.02598">
        <ele>146.8</ele>
        <time>2021-09-23T18:22:07Z</time>
      </trkpt>
      <trkpt lat="43.92105" lon="2.02594">
        <ele>146.8</ele>
        <time>2021-09-23T18:22:08Z</time>
      </trkpt>
      <trkpt lat="43.92106" lon="2.02588">
        <ele>147.2</ele>
        <time>2021-09-23T18:22:09Z</time>
      </trkpt>
      <trkpt lat="43.92105" lon="2.02571">
        <ele>147.6</ele>
        <time>2021-09-23T18:22:12Z</time>
      </trkpt>
      <trkpt lat="43.92104" lon="2.02564">
        <ele>147.6</ele>
        <time>2021-09-23T18:22:13Z</time>
      </trkpt>
      <trkpt lat="43.92104" lon="2.02558">
        <ele>147.6</ele>
        <time>2021-09-23T18:22:14Z</time>
      </trkpt>
      <trkpt lat="43.92103" lon="2.02552">
        <ele>147.8</ele>
        <time>2021-09-23T18:22:15Z</time>
      </trkpt>
      <trkpt lat="43.92103" lon="2.02545">
        <ele>147.8</ele>
        <time>2021-09-23T18:22:16Z</time>
      </trkpt>
      <trkpt lat="43.92103" lon="2.02539">
        <ele>147.8</ele>
        <time>2021-09-23T18:22:17Z</time>
      </trkpt>
      <trkpt lat="43.92104" lon="2.02533">
        <ele>148</ele>
        <time>2021-09-23T18:22:18Z</time>
      </trkpt>
      <trkpt lat="43.92105" lon="2.02526">
        <ele>147.8</ele>
        <time>2021-09-23T18:22:19Z</time>
      </trkpt>
      <trkpt lat="43.92106" lon="2.02521">
        <ele>148</ele>
        <time>2021-09-23T18:22:20Z</time>
      </trkpt>
      <trkpt lat="43.92108" lon="2.02515">
        <ele>148.4</ele>
        <time>2021-09-23T18:22:21Z</time>
      </trkpt>
      <trkpt lat="43.9211" lon="2.0251">
        <ele>148.6</ele>
        <time>2021-09-23T18:22:22Z</time>
      </trkpt>
      <trkpt lat="43.92112" lon="2.02505">
        <ele>149</ele>
        <time>2021-09-23T18:22:23Z</time>
      </trkpt>
      <trkpt lat="43.92113" lon="2.025">
        <ele>149.2</ele>
        <time>2021-09-23T18:22:24Z</time>
      </trkpt>
      <trkpt lat="43.92115" lon="2.02496">
        <ele>149.2</ele>
        <time>2021-09-23T18:22:25Z</time>
      </trkpt>
      <trkpt lat="43.92117" lon="2.02491">
        <ele>149.4</ele>
        <time>2021-09-23T18:22:26Z</time>
      </trkpt>
      <trkpt lat="43.92119" lon="2.02486">
        <ele>149.6</ele>
        <time>2021-09-23T18:22:27Z</time>
      </trkpt>
      <trkpt lat="43.92121" lon="2.02481">
        <ele>149.8</ele>
        <time>2021-09-23T18:22:28Z</time>
      </trkpt>
      <trkpt lat="43.92123" lon="2.02475">
        <ele>149.8</ele>
        <time>2021-09-23T18:22:29Z</time>
      </trkpt>
      <trkpt lat="43.92126" lon="2.0247">
        <ele>150</ele>
        <time>2021-09-23T18:22:30Z</time>
      </trkpt>
      <trkpt lat="43.92128" lon="2.02465">
        <ele>150.2</ele>
        <time>2021-09-23T18:22:31Z</time>
      </trkpt>
      <trkpt lat="43.9213" lon="2.0246">
        <ele>150.4</ele>
        <time>2021-09-23T18:22:32Z</time>
      </trkpt>
      <trkpt lat="43.92131" lon="2.02457">
        <ele>150.6</ele>
        <time>2021-09-23T18:22:33Z</time>
      </trkpt>
      <trkpt lat="43.92133" lon="2.02452">
        <ele>150.8</ele>
        <time>2021-09-23T18:22:34Z</time>
      </trkpt>
      <trkpt lat="43.92135" lon="2.02447">
        <ele>150.8</ele>
        <time>2021-09-23T18:22:35Z</time>
      </trkpt>
      <trkpt lat="43.92138" lon="2.02443">
        <ele>151</ele>
        <time>2021-09-23T18:22:36Z</time>
      </trkpt>
      <trkpt lat="43.9214" lon="2.02439">
        <ele>151.4</ele>
        <time>2021-09-23T18:22:37Z</time>
      </trkpt>
      <trkpt lat="43.92142" lon="2.02434">
        <ele>151.4</ele>
        <time>2021-09-23T18:22:38Z</time>
      </trkpt>
      <trkpt lat="43.92143" lon="2.02429">
        <ele>152</ele>
        <time>2021-09-23T18:22:39Z</time>
      </trkpt>
      <trkpt lat="43.92145" lon="2.02424">
        <ele>152.2</ele>
        <time>2021-09-23T18:22:40Z</time>
      </trkpt>
      <trkpt lat="43.92147" lon="2.02418">
        <ele>152.4</ele>
        <time>2021-09-23T18:22:41Z</time>
      </trkpt>
      <trkpt lat="43.92149" lon="2.02413">
        <ele>152.4</ele>
        <time>2021-09-23T18:22:42Z</time>
      </trkpt>
      <trkpt lat="43.92151" lon="2.02408">
        <ele>152.8</ele>
        <time>2021-09-23T18:22:43Z</time>
      </trkpt>
      <trkpt lat="43.92152" lon="2.02403">
        <ele>153</ele>
        <time>2021-09-23T18:22:44Z</time>
      </trkpt>
      <trkpt lat="43.92155" lon="2.02397">
        <ele>153.2</ele>
        <time>2021-09-23T18:22:45Z</time>
      </trkpt>
      <trkpt lat="43.92157" lon="2.02391">
        <ele>153.6</ele>
        <time>2021-09-23T18:22:46Z</time>
      </trkpt>
      <trkpt lat="43.92159" lon="2.02385">
        <ele>153.8</ele>
        <time>2021-09-23T18:22:47Z</time>
      </trkpt>
      <trkpt lat="43.92161" lon="2.0238">
        <ele>154</ele>
        <time>2021-09-23T18:22:48Z</time>
      </trkpt>
      <trkpt lat="43.92163" lon="2.02375">
        <ele>154</ele>
        <time>2021-09-23T18:22:49Z</time>
      </trkpt>
      <trkpt lat="43.92165" lon="2.02369">
        <ele>154.2</ele>
        <time>2021-09-23T18:22:50Z</time>
      </trkpt>
      <trkpt lat="43.92168" lon="2.02363">
        <ele>154.2</ele>
        <time>2021-09-23T18:22:51Z</time>
      </trkpt>
      <trkpt lat="43.9217" lon="2.02358">
        <ele>154.4</ele>
        <time>2021-09-23T18:22:52Z</time>
      </trkpt>
      <trkpt lat="43.92172" lon="2.02353">
        <ele>154.4</ele>
        <time>2021-09-23T18:22:53Z</time>
      </trkpt>
      <trkpt lat="43.92174" lon="2.02346">
        <ele>154.4</ele>
        <time>2021-09-23T18:22:54Z</time>
      </trkpt>
      <trkpt lat="43.92177" lon="2.0234">
        <ele>154.6</ele>
        <time>2021-09-23T18:22:55Z</time>
      </trkpt>
      <trkpt lat="43.92179" lon="2.02334">
        <ele>154.8</ele>
        <time>2021-09-23T18:22:56Z</time>
      </trkpt>
      <trkpt lat="43.92181" lon="2.02329">
        <ele>155</ele>
        <time>2021-09-23T18:22:57Z</time>
      </trkpt>
      <trkpt lat="43.92183" lon="2.02323">
        <ele>155</ele>
        <time>2021-09-23T18:22:58Z</time>
      </trkpt>
      <trkpt lat="43.92187" lon="2.02315">
        <ele>155</ele>
        <time>2021-09-23T18:22:59Z</time>
      </trkpt>
      <trkpt lat="43.92189" lon="2.02308">
        <ele>155.2</ele>
        <time>2021-09-23T18:23:00Z</time>
      </trkpt>
      <trkpt lat="43.92191" lon="2.02303">
        <ele>155.2</ele>
        <time>2021-09-23T18:23:01Z</time>
      </trkpt>
      <trkpt lat="43.92194" lon="2.02295">
        <ele>155.2</ele>
        <time>2021-09-23T18:23:02Z</time>
      </trkpt>
      <trkpt lat="43.92197" lon="2.02288">
        <ele>155.2</ele>
        <time>2021-09-23T18:23:03Z</time>
      </trkpt>
      <trkpt lat="43.92199" lon="2.02282">
        <ele>155.2</ele>
        <time>2021-09-23T18:23:04Z</time>
      </trkpt>
      <trkpt lat="43.92202" lon="2.02275">
        <ele>155.2</ele>
        <time>2021-09-23T18:23:05Z</time>
      </trkpt>
      <trkpt lat="43.92205" lon="2.02268">
        <ele>155.2</ele>
        <time>2021-09-23T18:23:06Z</time>
      </trkpt>
      <trkpt lat="43.92208" lon="2.02261">
        <ele>155.2</ele>
        <time>2021-09-23T18:23:07Z</time>
      </trkpt>
      <trkpt lat="43.92211" lon="2.02253">
        <ele>155.2</ele>
        <time>2021-09-23T18:23:08Z</time>
      </trkpt>
      <trkpt lat="43.92214" lon="2.02246">
        <ele>155.2</ele>
        <time>2021-09-23T18:23:09Z</time>
      </trkpt>
      <trkpt lat="43.92217" lon="2.02238">
        <ele>155.2</ele>
        <time>2021-09-23T18:23:10Z</time>
      </trkpt>
      <trkpt lat="43.9222" lon="2.0223">
        <ele>155.4</ele>
        <time>2021-09-23T18:23:11Z</time>
      </trkpt>
      <trkpt lat="43.92223" lon="2.02223">
        <ele>155.4</ele>
        <time>2021-09-23T18:23:12Z</time>
      </trkpt>
      <trkpt lat="43.92235" lon="2.02193">
        <ele>155.4</ele>
        <time>2021-09-23T18:23:16Z</time>
      </trkpt>
      <trkpt lat="43.92253" lon="2.02151">
        <ele>155.2</ele>
        <time>2021-09-23T18:23:22Z</time>
      </trkpt>
      <trkpt lat="43.92284" lon="2.02107">
        <ele>155.2</ele>
        <time>2021-09-23T18:23:29Z</time>
      </trkpt>
      <trkpt lat="43.923" lon="2.02092">
        <ele>155.2</ele>
        <time>2021-09-23T18:23:32Z</time>
      </trkpt>
      <trkpt lat="43.92305" lon="2.02088">
        <ele>155.2</ele>
        <time>2021-09-23T18:23:33Z</time>
      </trkpt>
      <trkpt lat="43.92308" lon="2.02085">
        <ele>155.2</ele>
        <time>2021-09-23T18:23:34Z</time>
      </trkpt>
      <trkpt lat="43.92313" lon="2.0208">
        <ele>155.4</ele>
        <time>2021-09-23T18:23:35Z</time>
      </trkpt>
      <trkpt lat="43.92317" lon="2.02076">
        <ele>155.4</ele>
        <time>2021-09-23T18:23:36Z</time>
      </trkpt>
      <trkpt lat="43.9232" lon="2.02071">
        <ele>155.6</ele>
        <time>2021-09-23T18:23:37Z</time>
      </trkpt>
      <trkpt lat="43.92324" lon="2.02067">
        <ele>155.6</ele>
        <time>2021-09-23T18:23:38Z</time>
      </trkpt>
      <trkpt lat="43.92327" lon="2.02062">
        <ele>155.8</ele>
        <time>2021-09-23T18:23:39Z</time>
      </trkpt>
      <trkpt lat="43.9233" lon="2.02058">
        <ele>156</ele>
        <time>2021-09-23T18:23:40Z</time>
      </trkpt>
      <trkpt lat="43.92333" lon="2.02053">
        <ele>156.4</ele>
        <time>2021-09-23T18:23:41Z</time>
      </trkpt>
      <trkpt lat="43.92335" lon="2.02048">
        <ele>156.4</ele>
        <time>2021-09-23T18:23:42Z</time>
      </trkpt>
      <trkpt lat="43.92338" lon="2.02043">
        <ele>156.8</ele>
        <time>2021-09-23T18:23:43Z</time>
      </trkpt>
      <trkpt lat="43.92341" lon="2.02037">
        <ele>157</ele>
        <time>2021-09-23T18:23:44Z</time>
      </trkpt>
      <trkpt lat="43.92344" lon="2.02031">
        <ele>157.6</ele>
        <time>2021-09-23T18:23:45Z</time>
      </trkpt>
      <trkpt lat="43.92347" lon="2.02024">
        <ele>158</ele>
        <time>2021-09-23T18:23:46Z</time>
      </trkpt>
      <trkpt lat="43.92354" lon="2.02007">
        <ele>159</ele>
        <time>2021-09-23T18:23:49Z</time>
      </trkpt>
      <trkpt lat="43.92357" lon="2.02">
        <ele>159.4</ele>
        <time>2021-09-23T18:23:50Z</time>
      </trkpt>
      <trkpt lat="43.9236" lon="2.01994">
        <ele>159.6</ele>
        <time>2021-09-23T18:23:51Z</time>
      </trkpt>
      <trkpt lat="43.92363" lon="2.01989">
        <ele>159.8</ele>
        <time>2021-09-23T18:23:52Z</time>
      </trkpt>
      <trkpt lat="43.92365" lon="2.01983">
        <ele>160</ele>
        <time>2021-09-23T18:23:53Z</time>
      </trkpt>
      <trkpt lat="43.92368" lon="2.01976">
        <ele>160.2</ele>
        <time>2021-09-23T18:23:54Z</time>
      </trkpt>
      <trkpt lat="43.92371" lon="2.01969">
        <ele>160.4</ele>
        <time>2021-09-23T18:23:55Z</time>
      </trkpt>
      <trkpt lat="43.92373" lon="2.01964">
        <ele>160.8</ele>
        <time>2021-09-23T18:23:56Z</time>
      </trkpt>
      <trkpt lat="43.92376" lon="2.01959">
        <ele>161.2</ele>
        <time>2021-09-23T18:23:57Z</time>
      </trkpt>
      <trkpt lat="43.92378" lon="2.01953">
        <ele>161.2</ele>
        <time>2021-09-23T18:23:58Z</time>
      </trkpt>
      <trkpt lat="43.92382" lon="2.01946">
        <ele>161.6</ele>
        <time>2021-09-23T18:23:59Z</time>
      </trkpt>
      <trkpt lat="43.92384" lon="2.01941">
        <ele>161.6</ele>
        <time>2021-09-23T18:24:00Z</time>
      </trkpt>
      <trkpt lat="43.92387" lon="2.01935">
        <ele>161.8</ele>
        <time>2021-09-23T18:24:01Z</time>
      </trkpt>
      <trkpt lat="43.9239" lon="2.01931">
        <ele>161.8</ele>
        <time>2021-09-23T18:24:02Z</time>
      </trkpt>
      <trkpt lat="43.92392" lon="2.01925">
        <ele>162</ele>
        <time>2021-09-23T18:24:03Z</time>
      </trkpt>
      <trkpt lat="43.92396" lon="2.01918">
        <ele>162.2</ele>
        <time>2021-09-23T18:24:04Z</time>
      </trkpt>
      <trkpt lat="43.92398" lon="2.01912">
        <ele>162.2</ele>
        <time>2021-09-23T18:24:05Z</time>
      </trkpt>
      <trkpt lat="43.92401" lon="2.01905">
        <ele>162.4</ele>
        <time>2021-09-23T18:24:06Z</time>
      </trkpt>
      <trkpt lat="43.92404" lon="2.01898">
        <ele>162.4</ele>
        <time>2021-09-23T18:24:07Z</time>
      </trkpt>
      <trkpt lat="43.92407" lon="2.01891">
        <ele>162.4</ele>
        <time>2021-09-23T18:24:08Z</time>
      </trkpt>
      <trkpt lat="43.9241" lon="2.01885">
        <ele>162.4</ele>
        <time>2021-09-23T18:24:09Z</time>
      </trkpt>
      <trkpt lat="43.92413" lon="2.01878">
        <ele>162.4</ele>
        <time>2021-09-23T18:24:10Z</time>
      </trkpt>
      <trkpt lat="43.92417" lon="2.0187">
        <ele>162.4</ele>
        <time>2021-09-23T18:24:11Z</time>
      </trkpt>
      <trkpt lat="43.9242" lon="2.01863">
        <ele>162.4</ele>
        <time>2021-09-23T18:24:12Z</time>
      </trkpt>
      <trkpt lat="43.92423" lon="2.01856">
        <ele>162.4</ele>
        <time>2021-09-23T18:24:13Z</time>
      </trkpt>
      <trkpt lat="43.92427" lon="2.01849">
        <ele>162.4</ele>
        <time>2021-09-23T18:24:14Z</time>
      </trkpt>
      <trkpt lat="43.9243" lon="2.01842">
        <ele>162.2</ele>
        <time>2021-09-23T18:24:15Z</time>
      </trkpt>
      <trkpt lat="43.92433" lon="2.01835">
        <ele>162.2</ele>
        <time>2021-09-23T18:24:16Z</time>
      </trkpt>
      <trkpt lat="43.92437" lon="2.01828">
        <ele>162.2</ele>
        <time>2021-09-23T18:24:17Z</time>
      </trkpt>
      <trkpt lat="43.92441" lon="2.01821">
        <ele>162.2</ele>
        <time>2021-09-23T18:24:18Z</time>
      </trkpt>
      <trkpt lat="43.92444" lon="2.01813">
        <ele>162.2</ele>
        <time>2021-09-23T18:24:19Z</time>
      </trkpt>
      <trkpt lat="43.92448" lon="2.01806">
        <ele>162.2</ele>
        <time>2021-09-23T18:24:20Z</time>
      </trkpt>
      <trkpt lat="43.92452" lon="2.01799">
        <ele>162.2</ele>
        <time>2021-09-23T18:24:21Z</time>
      </trkpt>
      <trkpt lat="43.92455" lon="2.01791">
        <ele>162.2</ele>
        <time>2021-09-23T18:24:22Z</time>
      </trkpt>
      <trkpt lat="43.92479" lon="2.01734">
        <ele>161.8</ele>
        <time>2021-09-23T18:24:29Z</time>
      </trkpt>
      <trkpt lat="43.925" lon="2.01665">
        <ele>161.6</ele>
        <time>2021-09-23T18:24:37Z</time>
      </trkpt>
      <trkpt lat="43.92503" lon="2.01657">
        <ele>161.6</ele>
        <time>2021-09-23T18:24:38Z</time>
      </trkpt>
      <trkpt lat="43.92509" lon="2.0164">
        <ele>161.6</ele>
        <time>2021-09-23T18:24:40Z</time>
      </trkpt>
      <trkpt lat="43.92511" lon="2.01631">
        <ele>161.6</ele>
        <time>2021-09-23T18:24:41Z</time>
      </trkpt>
      <trkpt lat="43.92514" lon="2.01623">
        <ele>161.6</ele>
        <time>2021-09-23T18:24:42Z</time>
      </trkpt>
      <trkpt lat="43.92525" lon="2.01592">
        <ele>161.6</ele>
        <time>2021-09-23T18:24:46Z</time>
      </trkpt>
      <trkpt lat="43.92528" lon="2.01585">
        <ele>161.6</ele>
        <time>2021-09-23T18:24:47Z</time>
      </trkpt>
      <trkpt lat="43.92532" lon="2.01578">
        <ele>161.4</ele>
        <time>2021-09-23T18:24:48Z</time>
      </trkpt>
      <trkpt lat="43.92536" lon="2.01572">
        <ele>161.6</ele>
        <time>2021-09-23T18:24:49Z</time>
      </trkpt>
      <trkpt lat="43.92541" lon="2.01566">
        <ele>161.6</ele>
        <time>2021-09-23T18:24:50Z</time>
      </trkpt>
      <trkpt lat="43.92545" lon="2.01561">
        <ele>161.6</ele>
        <time>2021-09-23T18:24:51Z</time>
      </trkpt>
      <trkpt lat="43.9255" lon="2.01556">
        <ele>161.6</ele>
        <time>2021-09-23T18:24:52Z</time>
      </trkpt>
      <trkpt lat="43.92554" lon="2.01552">
        <ele>161.6</ele>
        <time>2021-09-23T18:24:53Z</time>
      </trkpt>
      <trkpt lat="43.92558" lon="2.01548">
        <ele>161.6</ele>
        <time>2021-09-23T18:24:54Z</time>
      </trkpt>
      <trkpt lat="43.92562" lon="2.01544">
        <ele>161.6</ele>
        <time>2021-09-23T18:24:55Z</time>
      </trkpt>
      <trkpt lat="43.92565" lon="2.0154">
        <ele>161.6</ele>
        <time>2021-09-23T18:24:56Z</time>
      </trkpt>
      <trkpt lat="43.92568" lon="2.01536">
        <ele>161.6</ele>
        <time>2021-09-23T18:24:57Z</time>
      </trkpt>
      <trkpt lat="43.92569" lon="2.01531">
        <ele>161.6</ele>
        <time>2021-09-23T18:24:58Z</time>
      </trkpt>
      <trkpt lat="43.92571" lon="2.01525">
        <ele>161.8</ele>
        <time>2021-09-23T18:24:59Z</time>
      </trkpt>
      <trkpt lat="43.92571" lon="2.0152">
        <ele>161.8</ele>
        <time>2021-09-23T18:25:00Z</time>
      </trkpt>
      <trkpt lat="43.92572" lon="2.01514">
        <ele>161.8</ele>
        <time>2021-09-23T18:25:01Z</time>
      </trkpt>
      <trkpt lat="43.92572" lon="2.01508">
        <ele>161.8</ele>
        <time>2021-09-23T18:25:02Z</time>
      </trkpt>
      <trkpt lat="43.92572" lon="2.01503">
        <ele>161.8</ele>
        <time>2021-09-23T18:25:03Z</time>
      </trkpt>
      <trkpt lat="43.92571" lon="2.01497">
        <ele>161.8</ele>
        <time>2021-09-23T18:25:04Z</time>
      </trkpt>
      <trkpt lat="43.9257" lon="2.01493">
        <ele>161.8</ele>
        <time>2021-09-23T18:25:05Z</time>
      </trkpt>
      <trkpt lat="43.9257" lon="2.01489">
        <ele>161.8</ele>
        <time>2021-09-23T18:25:06Z</time>
      </trkpt>
      <trkpt lat="43.92569" lon="2.01485">
        <ele>161.8</ele>
        <time>2021-09-23T18:25:07Z</time>
      </trkpt>
      <trkpt lat="43.92569" lon="2.01483">
        <ele>161.6</ele>
        <time>2021-09-23T18:25:08Z</time>
      </trkpt>
      <trkpt lat="43.92569" lon="2.01481">
        <ele>161.6</ele>
        <time>2021-09-23T18:25:09Z</time>
      </trkpt>
      <trkpt lat="43.92569" lon="2.01481">
        <ele>161.6</ele>
        <time>2021-09-23T18:25:10Z</time>
      </trkpt>
      <trkpt lat="43.92569" lon="2.01481">
        <ele>161.6</ele>
        <time>2021-09-23T18:25:11Z</time>
      </trkpt>
      <trkpt lat="43.92569" lon="2.01481">
        <ele>161.6</ele>
        <time>2021-09-23T18:25:12Z</time>
      </trkpt>
      <trkpt lat="43.92567" lon="2.01475">
        <ele>161.2</ele>
        <time>2021-09-23T18:26:31Z</time>
      </trkpt>
      <trkpt lat="43.92565" lon="2.0147">
        <ele>161.4</ele>
        <time>2021-09-23T18:26:33Z</time>
      </trkpt>
      <trkpt lat="43.92561" lon="2.01448">
        <ele>161.6</ele>
        <time>2021-09-23T18:26:38Z</time>
      </trkpt>
      <trkpt lat="43.92561" lon="2.01444">
        <ele>161.6</ele>
        <time>2021-09-23T18:26:39Z</time>
      </trkpt>
      <trkpt lat="43.92556" lon="2.01423">
        <ele>161.8</ele>
        <time>2021-09-23T18:26:44Z</time>
      </trkpt>
      <trkpt lat="43.92555" lon="2.01415">
        <ele>162.2</ele>
        <time>2021-09-23T18:26:46Z</time>
      </trkpt>
      <trkpt lat="43.92551" lon="2.01388">
        <ele>162.4</ele>
        <time>2021-09-23T18:26:51Z</time>
      </trkpt>
      <trkpt lat="43.92547" lon="2.01361">
        <ele>162.2</ele>
        <time>2021-09-23T18:26:55Z</time>
      </trkpt>
      <trkpt lat="43.92545" lon="2.01353">
        <ele>162.2</ele>
        <time>2021-09-23T18:26:56Z</time>
      </trkpt>
      <trkpt lat="43.92528" lon="2.01307">
        <ele>161.4</ele>
        <time>2021-09-23T18:27:02Z</time>
      </trkpt>
      <trkpt lat="43.92526" lon="2.01298">
        <ele>161.2</ele>
        <time>2021-09-23T18:27:03Z</time>
      </trkpt>
      <trkpt lat="43.92525" lon="2.01286">
        <ele>160.8</ele>
        <time>2021-09-23T18:27:04Z</time>
      </trkpt>
      <trkpt lat="43.92524" lon="2.01271">
        <ele>160.2</ele>
        <time>2021-09-23T18:27:06Z</time>
      </trkpt>
      <trkpt lat="43.92524" lon="2.01262">
        <ele>159.8</ele>
        <time>2021-09-23T18:27:07Z</time>
      </trkpt>
      <trkpt lat="43.92519" lon="2.01206">
        <ele>158.6</ele>
        <time>2021-09-23T18:27:13Z</time>
      </trkpt>
      <trkpt lat="43.92518" lon="2.01194">
        <ele>158.4</ele>
        <time>2021-09-23T18:27:14Z</time>
      </trkpt>
      <trkpt lat="43.92514" lon="2.01144">
        <ele>157.6</ele>
        <time>2021-09-23T18:27:19Z</time>
      </trkpt>
      <trkpt lat="43.92513" lon="2.01133">
        <ele>157.6</ele>
        <time>2021-09-23T18:27:20Z</time>
      </trkpt>
      <trkpt lat="43.92513" lon="2.01068">
        <ele>156.6</ele>
        <time>2021-09-23T18:27:26Z</time>
      </trkpt>
      <trkpt lat="43.92513" lon="2.01057">
        <ele>156.4</ele>
        <time>2021-09-23T18:27:27Z</time>
      </trkpt>
      <trkpt lat="43.92516" lon="2.01002">
        <ele>155.4</ele>
        <time>2021-09-23T18:27:32Z</time>
      </trkpt>
      <trkpt lat="43.92517" lon="2.00957">
        <ele>155.2</ele>
        <time>2021-09-23T18:27:36Z</time>
      </trkpt>
      <trkpt lat="43.92525" lon="2.00889">
        <ele>154.8</ele>
        <time>2021-09-23T18:27:42Z</time>
      </trkpt>
      <trkpt lat="43.92532" lon="2.00849">
        <ele>154.4</ele>
        <time>2021-09-23T18:27:46Z</time>
      </trkpt>
      <trkpt lat="43.92533" lon="2.00826">
        <ele>154.4</ele>
        <time>2021-09-23T18:27:48Z</time>
      </trkpt>
      <trkpt lat="43.92534" lon="2.00817">
        <ele>154.4</ele>
        <time>2021-09-23T18:27:49Z</time>
      </trkpt>
      <trkpt lat="43.92536" lon="2.00795">
        <ele>154</ele>
        <time>2021-09-23T18:27:51Z</time>
      </trkpt>
      <trkpt lat="43.92537" lon="2.00785">
        <ele>154</ele>
        <time>2021-09-23T18:27:52Z</time>
      </trkpt>
      <trkpt lat="43.92538" lon="2.00775">
        <ele>153.8</ele>
        <time>2021-09-23T18:27:53Z</time>
      </trkpt>
      <trkpt lat="43.92539" lon="2.00767">
        <ele>153.6</ele>
        <time>2021-09-23T18:27:54Z</time>
      </trkpt>
      <trkpt lat="43.9254" lon="2.00758">
        <ele>153.4</ele>
        <time>2021-09-23T18:27:55Z</time>
      </trkpt>
      <trkpt lat="43.92541" lon="2.00748">
        <ele>153.4</ele>
        <time>2021-09-23T18:27:56Z</time>
      </trkpt>
      <trkpt lat="43.92542" lon="2.00739">
        <ele>153.2</ele>
        <time>2021-09-23T18:27:57Z</time>
      </trkpt>
      <trkpt lat="43.92543" lon="2.0073">
        <ele>153.4</ele>
        <time>2021-09-23T18:27:58Z</time>
      </trkpt>
      <trkpt lat="43.92544" lon="2.00721">
        <ele>153.4</ele>
        <time>2021-09-23T18:27:59Z</time>
      </trkpt>
      <trkpt lat="43.92546" lon="2.00703">
        <ele>153.2</ele>
        <time>2021-09-23T18:28:01Z</time>
      </trkpt>
      <trkpt lat="43.92547" lon="2.00696">
        <ele>153</ele>
        <time>2021-09-23T18:28:02Z</time>
      </trkpt>
      <trkpt lat="43.92547" lon="2.00689">
        <ele>153.2</ele>
        <time>2021-09-23T18:28:03Z</time>
      </trkpt>
      <trkpt lat="43.92547" lon="2.00684">
        <ele>153.2</ele>
        <time>2021-09-23T18:28:04Z</time>
      </trkpt>
      <trkpt lat="43.92546" lon="2.00678">
        <ele>153.2</ele>
        <time>2021-09-23T18:28:05Z</time>
      </trkpt>
      <trkpt lat="43.92543" lon="2.00673">
        <ele>153.2</ele>
        <time>2021-09-23T18:28:06Z</time>
      </trkpt>
      <trkpt lat="43.92539" lon="2.0067">
        <ele>153.2</ele>
        <time>2021-09-23T18:28:07Z</time>
      </trkpt>
      <trkpt lat="43.92534" lon="2.00668">
        <ele>153.2</ele>
        <time>2021-09-23T18:28:08Z</time>
      </trkpt>
      <trkpt lat="43.92529" lon="2.00665">
        <ele>153.2</ele>
        <time>2021-09-23T18:28:09Z</time>
      </trkpt>
      <trkpt lat="43.92522" lon="2.00662">
        <ele>153.2</ele>
        <time>2021-09-23T18:28:10Z</time>
      </trkpt>
      <trkpt lat="43.92516" lon="2.00659">
        <ele>153</ele>
        <time>2021-09-23T18:28:11Z</time>
      </trkpt>
      <trkpt lat="43.92504" lon="2.00654">
        <ele>152.6</ele>
        <time>2021-09-23T18:28:13Z</time>
      </trkpt>
      <trkpt lat="43.92492" lon="2.00648">
        <ele>152.2</ele>
        <time>2021-09-23T18:28:15Z</time>
      </trkpt>
      <trkpt lat="43.92486" lon="2.00644">
        <ele>152</ele>
        <time>2021-09-23T18:28:16Z</time>
      </trkpt>
      <trkpt lat="43.92476" lon="2.00635">
        <ele>151.6</ele>
        <time>2021-09-23T18:28:18Z</time>
      </trkpt>
      <trkpt lat="43.92472" lon="2.0063">
        <ele>151.4</ele>
        <time>2021-09-23T18:28:19Z</time>
      </trkpt>
      <trkpt lat="43.9247" lon="2.00625">
        <ele>151</ele>
        <time>2021-09-23T18:28:20Z</time>
      </trkpt>
      <trkpt lat="43.92469" lon="2.00622">
        <ele>151</ele>
        <time>2021-09-23T18:28:21Z</time>
      </trkpt>
      <trkpt lat="43.92469" lon="2.0062">
        <ele>150.6</ele>
        <time>2021-09-23T18:28:22Z</time>
      </trkpt>
      <trkpt lat="43.92469" lon="2.00618">
        <ele>150.4</ele>
        <time>2021-09-23T18:28:23Z</time>
      </trkpt>
      <trkpt lat="43.92469" lon="2.00617">
        <ele>150.2</ele>
        <time>2021-09-23T18:28:24Z</time>
      </trkpt>
      <trkpt lat="43.92469" lon="2.00617">
        <ele>150</ele>
        <time>2021-09-23T18:28:25Z</time>
      </trkpt>
      <trkpt lat="43.92469" lon="2.00617">
        <ele>149.8</ele>
        <time>2021-09-23T18:28:26Z</time>
      </trkpt>
      <trkpt lat="43.92471" lon="2.0061">
        <ele>149.4</ele>
        <time>2021-09-23T18:29:02Z</time>
      </trkpt>
      <trkpt lat="43.92473" lon="2.00601">
        <ele>149.4</ele>
        <time>2021-09-23T18:29:04Z</time>
      </trkpt>
      <trkpt lat="43.92478" lon="2.00576">
        <ele>149.2</ele>
        <time>2021-09-23T18:29:08Z</time>
      </trkpt>
      <trkpt lat="43.9248" lon="2.00569">
        <ele>149.4</ele>
        <time>2021-09-23T18:29:09Z</time>
      </trkpt>
      <trkpt lat="43.92487" lon="2.00525">
        <ele>149.6</ele>
        <time>2021-09-23T18:29:14Z</time>
      </trkpt>
      <trkpt lat="43.92495" lon="2.00475">
        <ele>150</ele>
        <time>2021-09-23T18:29:19Z</time>
      </trkpt>
      <trkpt lat="43.92497" lon="2.00465">
        <ele>150.2</ele>
        <time>2021-09-23T18:29:20Z</time>
      </trkpt>
      <trkpt lat="43.92506" lon="2.00425">
        <ele>151</ele>
        <time>2021-09-23T18:29:24Z</time>
      </trkpt>
      <trkpt lat="43.92515" lon="2.00385">
        <ele>151.6</ele>
        <time>2021-09-23T18:29:28Z</time>
      </trkpt>
      <trkpt lat="43.92523" lon="2.00355">
        <ele>152</ele>
        <time>2021-09-23T18:29:31Z</time>
      </trkpt>
      <trkpt lat="43.9253" lon="2.00336">
        <ele>152.2</ele>
        <time>2021-09-23T18:29:33Z</time>
      </trkpt>
      <trkpt lat="43.92533" lon="2.00327">
        <ele>152.2</ele>
        <time>2021-09-23T18:29:34Z</time>
      </trkpt>
      <trkpt lat="43.92536" lon="2.00318">
        <ele>152.4</ele>
        <time>2021-09-23T18:29:35Z</time>
      </trkpt>
      <trkpt lat="43.9254" lon="2.00309">
        <ele>152.4</ele>
        <time>2021-09-23T18:29:36Z</time>
      </trkpt>
      <trkpt lat="43.92543" lon="2.003">
        <ele>152.4</ele>
        <time>2021-09-23T18:29:37Z</time>
      </trkpt>
      <trkpt lat="43.92547" lon="2.00292">
        <ele>152.4</ele>
        <time>2021-09-23T18:29:38Z</time>
      </trkpt>
      <trkpt lat="43.9255" lon="2.00283">
        <ele>152.6</ele>
        <time>2021-09-23T18:29:39Z</time>
      </trkpt>
      <trkpt lat="43.92554" lon="2.00275">
        <ele>152.6</ele>
        <time>2021-09-23T18:29:40Z</time>
      </trkpt>
      <trkpt lat="43.92557" lon="2.00266">
        <ele>152.6</ele>
        <time>2021-09-23T18:29:41Z</time>
      </trkpt>
      <trkpt lat="43.9256" lon="2.00258">
        <ele>152.6</ele>
        <time>2021-09-23T18:29:42Z</time>
      </trkpt>
      <trkpt lat="43.92564" lon="2.0025">
        <ele>152.6</ele>
        <time>2021-09-23T18:29:43Z</time>
      </trkpt>
      <trkpt lat="43.92567" lon="2.00241">
        <ele>152.8</ele>
        <time>2021-09-23T18:29:44Z</time>
      </trkpt>
      <trkpt lat="43.9257" lon="2.00233">
        <ele>152.8</ele>
        <time>2021-09-23T18:29:45Z</time>
      </trkpt>
      <trkpt lat="43.92573" lon="2.00225">
        <ele>152.8</ele>
        <time>2021-09-23T18:29:46Z</time>
      </trkpt>
      <trkpt lat="43.92576" lon="2.00217">
        <ele>152.8</ele>
        <time>2021-09-23T18:29:47Z</time>
      </trkpt>
      <trkpt lat="43.92579" lon="2.00209">
        <ele>152.8</ele>
        <time>2021-09-23T18:29:48Z</time>
      </trkpt>
      <trkpt lat="43.92582" lon="2.002">
        <ele>152.8</ele>
        <time>2021-09-23T18:29:49Z</time>
      </trkpt>
      <trkpt lat="43.9259" lon="2.00176">
        <ele>153</ele>
        <time>2021-09-23T18:29:52Z</time>
      </trkpt>
      <trkpt lat="43.92598" lon="2.00152">
        <ele>153.2</ele>
        <time>2021-09-23T18:29:55Z</time>
      </trkpt>
      <trkpt lat="43.926" lon="2.00145">
        <ele>153.2</ele>
        <time>2021-09-23T18:29:56Z</time>
      </trkpt>
      <trkpt lat="43.92604" lon="2.0013">
        <ele>153.2</ele>
        <time>2021-09-23T18:29:58Z</time>
      </trkpt>
      <trkpt lat="43.92606" lon="2.00123">
        <ele>153.2</ele>
        <time>2021-09-23T18:29:59Z</time>
      </trkpt>
      <trkpt lat="43.92607" lon="2.00116">
        <ele>153.2</ele>
        <time>2021-09-23T18:30:00Z</time>
      </trkpt>
      <trkpt lat="43.9261" lon="2.00101">
        <ele>153.2</ele>
        <time>2021-09-23T18:30:02Z</time>
      </trkpt>
      <trkpt lat="43.92611" lon="2.00094">
        <ele>153.4</ele>
        <time>2021-09-23T18:30:03Z</time>
      </trkpt>
      <trkpt lat="43.9262" lon="2.00047">
        <ele>153.4</ele>
        <time>2021-09-23T18:30:09Z</time>
      </trkpt>
      <trkpt lat="43.92629" lon="1.99977">
        <ele>152.6</ele>
        <time>2021-09-23T18:30:17Z</time>
      </trkpt>
      <trkpt lat="43.92631" lon="1.99934">
        <ele>152.2</ele>
        <time>2021-09-23T18:30:22Z</time>
      </trkpt>
      <trkpt lat="43.92631" lon="1.99898">
        <ele>152</ele>
        <time>2021-09-23T18:30:26Z</time>
      </trkpt>
      <trkpt lat="43.92633" lon="1.99862">
        <ele>151.6</ele>
        <time>2021-09-23T18:30:30Z</time>
      </trkpt>
      <trkpt lat="43.92637" lon="1.99807">
        <ele>150.8</ele>
        <time>2021-09-23T18:30:36Z</time>
      </trkpt>
      <trkpt lat="43.9264" lon="1.99779">
        <ele>150.4</ele>
        <time>2021-09-23T18:30:39Z</time>
      </trkpt>
      <trkpt lat="43.92653" lon="1.99727">
        <ele>150.2</ele>
        <time>2021-09-23T18:30:45Z</time>
      </trkpt>
      <trkpt lat="43.92666" lon="1.99696">
        <ele>150.2</ele>
        <time>2021-09-23T18:30:49Z</time>
      </trkpt>
      <trkpt lat="43.92669" lon="1.99689">
        <ele>150.2</ele>
        <time>2021-09-23T18:30:50Z</time>
      </trkpt>
      <trkpt lat="43.92673" lon="1.99681">
        <ele>150</ele>
        <time>2021-09-23T18:30:51Z</time>
      </trkpt>
      <trkpt lat="43.92682" lon="1.99659">
        <ele>149.8</ele>
        <time>2021-09-23T18:30:54Z</time>
      </trkpt>
      <trkpt lat="43.92689" lon="1.99644">
        <ele>149.8</ele>
        <time>2021-09-23T18:30:56Z</time>
      </trkpt>
      <trkpt lat="43.92719" lon="1.99572">
        <ele>149.2</ele>
        <time>2021-09-23T18:31:05Z</time>
      </trkpt>
      <trkpt lat="43.9275" lon="1.99511">
        <ele>149.4</ele>
        <time>2021-09-23T18:31:13Z</time>
      </trkpt>
      <trkpt lat="43.92788" lon="1.99456">
        <ele>149.2</ele>
        <time>2021-09-23T18:31:21Z</time>
      </trkpt>
      <trkpt lat="43.92793" lon="1.99449">
        <ele>149.2</ele>
        <time>2021-09-23T18:31:22Z</time>
      </trkpt>
      <trkpt lat="43.92801" lon="1.99436">
        <ele>149.2</ele>
        <time>2021-09-23T18:31:24Z</time>
      </trkpt>
      <trkpt lat="43.92809" lon="1.99421">
        <ele>149.2</ele>
        <time>2021-09-23T18:31:26Z</time>
      </trkpt>
      <trkpt lat="43.92813" lon="1.99414">
        <ele>149.2</ele>
        <time>2021-09-23T18:31:27Z</time>
      </trkpt>
      <trkpt lat="43.92817" lon="1.99407">
        <ele>149.2</ele>
        <time>2021-09-23T18:31:28Z</time>
      </trkpt>
      <trkpt lat="43.92821" lon="1.99399">
        <ele>149.2</ele>
        <time>2021-09-23T18:31:29Z</time>
      </trkpt>
      <trkpt lat="43.92825" lon="1.99392">
        <ele>149.2</ele>
        <time>2021-09-23T18:31:30Z</time>
      </trkpt>
      <trkpt lat="43.92829" lon="1.99385">
        <ele>149.2</ele>
        <time>2021-09-23T18:31:31Z</time>
      </trkpt>
      <trkpt lat="43.92834" lon="1.99379">
        <ele>149</ele>
        <time>2021-09-23T18:31:32Z</time>
      </trkpt>
      <trkpt lat="43.92838" lon="1.99372">
        <ele>149</ele>
        <time>2021-09-23T18:31:33Z</time>
      </trkpt>
      <trkpt lat="43.92842" lon="1.99365">
        <ele>149</ele>
        <time>2021-09-23T18:31:34Z</time>
      </trkpt>
      <trkpt lat="43.92846" lon="1.99358">
        <ele>149</ele>
        <time>2021-09-23T18:31:35Z</time>
      </trkpt>
      <trkpt lat="43.9285" lon="1.99351">
        <ele>149</ele>
        <time>2021-09-23T18:31:36Z</time>
      </trkpt>
      <trkpt lat="43.92853" lon="1.99344">
        <ele>149</ele>
        <time>2021-09-23T18:31:37Z</time>
      </trkpt>
      <trkpt lat="43.92858" lon="1.99337">
        <ele>149</ele>
        <time>2021-09-23T18:31:38Z</time>
      </trkpt>
      <trkpt lat="43.92865" lon="1.99323">
        <ele>149</ele>
        <time>2021-09-23T18:31:40Z</time>
      </trkpt>
      <trkpt lat="43.92875" lon="1.99304">
        <ele>149</ele>
        <time>2021-09-23T18:31:43Z</time>
      </trkpt>
      <trkpt lat="43.92878" lon="1.99297">
        <ele>149</ele>
        <time>2021-09-23T18:31:44Z</time>
      </trkpt>
      <trkpt lat="43.92881" lon="1.99291">
        <ele>148.8</ele>
        <time>2021-09-23T18:31:45Z</time>
      </trkpt>
      <trkpt lat="43.92885" lon="1.99286">
        <ele>148.8</ele>
        <time>2021-09-23T18:31:46Z</time>
      </trkpt>
      <trkpt lat="43.92888" lon="1.99281">
        <ele>148.8</ele>
        <time>2021-09-23T18:31:47Z</time>
      </trkpt>
      <trkpt lat="43.9289" lon="1.99275">
        <ele>148.8</ele>
        <time>2021-09-23T18:31:48Z</time>
      </trkpt>
      <trkpt lat="43.92893" lon="1.9927">
        <ele>148.8</ele>
        <time>2021-09-23T18:31:49Z</time>
      </trkpt>
      <trkpt lat="43.92896" lon="1.99264">
        <ele>148.8</ele>
        <time>2021-09-23T18:31:50Z</time>
      </trkpt>
      <trkpt lat="43.92898" lon="1.9926">
        <ele>149</ele>
        <time>2021-09-23T18:31:51Z</time>
      </trkpt>
      <trkpt lat="43.92901" lon="1.99255">
        <ele>149</ele>
        <time>2021-09-23T18:31:52Z</time>
      </trkpt>
      <trkpt lat="43.92916" lon="1.99231">
        <ele>149</ele>
        <time>2021-09-23T18:31:57Z</time>
      </trkpt>
      <trkpt lat="43.92946" lon="1.992">
        <ele>149.2</ele>
        <time>2021-09-23T18:32:05Z</time>
      </trkpt>
      <trkpt lat="43.92953" lon="1.99191">
        <ele>149.2</ele>
        <time>2021-09-23T18:32:07Z</time>
      </trkpt>
      <trkpt lat="43.92963" lon="1.9917">
        <ele>149.2</ele>
        <time>2021-09-23T18:32:11Z</time>
      </trkpt>
      <trkpt lat="43.92966" lon="1.99163">
        <ele>149.2</ele>
        <time>2021-09-23T18:32:12Z</time>
      </trkpt>
      <trkpt lat="43.92975" lon="1.9913">
        <ele>149.2</ele>
        <time>2021-09-23T18:32:17Z</time>
      </trkpt>
      <trkpt lat="43.92985" lon="1.99066">
        <ele>149.6</ele>
        <time>2021-09-23T18:32:26Z</time>
      </trkpt>
      <trkpt lat="43.92986" lon="1.9906">
        <ele>149.6</ele>
        <time>2021-09-23T18:32:27Z</time>
      </trkpt>
      <trkpt lat="43.92987" lon="1.99054">
        <ele>149.6</ele>
        <time>2021-09-23T18:32:28Z</time>
      </trkpt>
      <trkpt lat="43.92987" lon="1.99049">
        <ele>149.8</ele>
        <time>2021-09-23T18:32:29Z</time>
      </trkpt>
      <trkpt lat="43.92988" lon="1.99043">
        <ele>150.2</ele>
        <time>2021-09-23T18:32:30Z</time>
      </trkpt>
      <trkpt lat="43.92989" lon="1.99036">
        <ele>150.2</ele>
        <time>2021-09-23T18:32:31Z</time>
      </trkpt>
      <trkpt lat="43.9299" lon="1.99028">
        <ele>150.4</ele>
        <time>2021-09-23T18:32:32Z</time>
      </trkpt>
      <trkpt lat="43.92991" lon="1.99022">
        <ele>150.4</ele>
        <time>2021-09-23T18:32:33Z</time>
      </trkpt>
      <trkpt lat="43.92991" lon="1.99017">
        <ele>150.8</ele>
        <time>2021-09-23T18:32:34Z</time>
      </trkpt>
      <trkpt lat="43.92992" lon="1.99009">
        <ele>151</ele>
        <time>2021-09-23T18:32:35Z</time>
      </trkpt>
      <trkpt lat="43.92993" lon="1.99003">
        <ele>151</ele>
        <time>2021-09-23T18:32:36Z</time>
      </trkpt>
      <trkpt lat="43.93" lon="1.98954">
        <ele>151.6</ele>
        <time>2021-09-23T18:32:44Z</time>
      </trkpt>
      <trkpt lat="43.93001" lon="1.98943">
        <ele>151.8</ele>
        <time>2021-09-23T18:32:46Z</time>
      </trkpt>
      <trkpt lat="43.93002" lon="1.98936">
        <ele>152</ele>
        <time>2021-09-23T18:32:47Z</time>
      </trkpt>
      <trkpt lat="43.93008" lon="1.98899">
        <ele>152.4</ele>
        <time>2021-09-23T18:32:53Z</time>
      </trkpt>
      <trkpt lat="43.9302" lon="1.98844">
        <ele>152.6</ele>
        <time>2021-09-23T18:33:02Z</time>
      </trkpt>
      <trkpt lat="43.93024" lon="1.98826">
        <ele>153</ele>
        <time>2021-09-23T18:33:05Z</time>
      </trkpt>
      <trkpt lat="43.93025" lon="1.9882">
        <ele>153</ele>
        <time>2021-09-23T18:33:06Z</time>
      </trkpt>
      <trkpt lat="43.93032" lon="1.98798">
        <ele>153.4</ele>
        <time>2021-09-23T18:33:10Z</time>
      </trkpt>
      <trkpt lat="43.93033" lon="1.98792">
        <ele>153.6</ele>
        <time>2021-09-23T18:33:11Z</time>
      </trkpt>
      <trkpt lat="43.9304" lon="1.9877">
        <ele>153.6</ele>
        <time>2021-09-23T18:33:15Z</time>
      </trkpt>
      <trkpt lat="43.93047" lon="1.98747">
        <ele>153.8</ele>
        <time>2021-09-23T18:33:19Z</time>
      </trkpt>
      <trkpt lat="43.93068" lon="1.98683">
        <ele>154.2</ele>
        <time>2021-09-23T18:33:29Z</time>
      </trkpt>
      <trkpt lat="43.93096" lon="1.98618">
        <ele>153.6</ele>
        <time>2021-09-23T18:33:39Z</time>
      </trkpt>
      <trkpt lat="43.93099" lon="1.98611">
        <ele>153.6</ele>
        <time>2021-09-23T18:33:40Z</time>
      </trkpt>
      <trkpt lat="43.931" lon="1.98598">
        <ele>153.4</ele>
        <time>2021-09-23T18:33:42Z</time>
      </trkpt>
      <trkpt lat="43.93099" lon="1.98591">
        <ele>153.4</ele>
        <time>2021-09-23T18:33:43Z</time>
      </trkpt>
      <trkpt lat="43.93094" lon="1.98584">
        <ele>153</ele>
        <time>2021-09-23T18:33:44Z</time>
      </trkpt>
      <trkpt lat="43.93086" lon="1.98574">
        <ele>152.8</ele>
        <time>2021-09-23T18:33:46Z</time>
      </trkpt>
      <trkpt lat="43.93081" lon="1.98568">
        <ele>152.6</ele>
        <time>2021-09-23T18:33:47Z</time>
      </trkpt>
      <trkpt lat="43.93073" lon="1.98554">
        <ele>152.4</ele>
        <time>2021-09-23T18:33:49Z</time>
      </trkpt>
      <trkpt lat="43.93071" lon="1.9855">
        <ele>152</ele>
        <time>2021-09-23T18:33:50Z</time>
      </trkpt>
      <trkpt lat="43.93068" lon="1.98544">
        <ele>151.8</ele>
        <time>2021-09-23T18:33:51Z</time>
      </trkpt>
      <trkpt lat="43.93065" lon="1.98536">
        <ele>151.6</ele>
        <time>2021-09-23T18:33:52Z</time>
      </trkpt>
      <trkpt lat="43.93053" lon="1.98499">
        <ele>150.6</ele>
        <time>2021-09-23T18:33:57Z</time>
      </trkpt>
      <trkpt lat="43.9305" lon="1.98491">
        <ele>150.4</ele>
        <time>2021-09-23T18:33:58Z</time>
      </trkpt>
      <trkpt lat="43.93034" lon="1.98443">
        <ele>149.4</ele>
        <time>2021-09-23T18:34:04Z</time>
      </trkpt>
      <trkpt lat="43.93029" lon="1.98429">
        <ele>149.2</ele>
        <time>2021-09-23T18:34:06Z</time>
      </trkpt>
      <trkpt lat="43.93015" lon="1.9837">
        <ele>148.6</ele>
        <time>2021-09-23T18:34:13Z</time>
      </trkpt>
      <trkpt lat="43.93016" lon="1.98329">
        <ele>148.2</ele>
        <time>2021-09-23T18:34:18Z</time>
      </trkpt>
      <trkpt lat="43.93016" lon="1.98322">
        <ele>148.2</ele>
        <time>2021-09-23T18:34:19Z</time>
      </trkpt>
      <trkpt lat="43.93017" lon="1.98314">
        <ele>148.2</ele>
        <time>2021-09-23T18:34:20Z</time>
      </trkpt>
      <trkpt lat="43.93018" lon="1.98297">
        <ele>148.2</ele>
        <time>2021-09-23T18:34:22Z</time>
      </trkpt>
      <trkpt lat="43.93019" lon="1.98289">
        <ele>148.2</ele>
        <time>2021-09-23T18:34:23Z</time>
      </trkpt>
      <trkpt lat="43.9302" lon="1.98281">
        <ele>148.2</ele>
        <time>2021-09-23T18:34:24Z</time>
      </trkpt>
      <trkpt lat="43.93022" lon="1.98258">
        <ele>148</ele>
        <time>2021-09-23T18:34:27Z</time>
      </trkpt>
      <trkpt lat="43.93025" lon="1.9822">
        <ele>148</ele>
        <time>2021-09-23T18:34:32Z</time>
      </trkpt>
      <trkpt lat="43.93028" lon="1.98142">
        <ele>148.2</ele>
        <time>2021-09-23T18:34:42Z</time>
      </trkpt>
      <trkpt lat="43.93029" lon="1.98118">
        <ele>148.4</ele>
        <time>2021-09-23T18:34:45Z</time>
      </trkpt>
      <trkpt lat="43.93029" lon="1.98087">
        <ele>148.4</ele>
        <time>2021-09-23T18:34:49Z</time>
      </trkpt>
      <trkpt lat="43.9303" lon="1.98079">
        <ele>148.4</ele>
        <time>2021-09-23T18:34:50Z</time>
      </trkpt>
      <trkpt lat="43.9303" lon="1.98064">
        <ele>148.4</ele>
        <time>2021-09-23T18:34:52Z</time>
      </trkpt>
      <trkpt lat="43.93029" lon="1.98038">
        <ele>148.4</ele>
        <time>2021-09-23T18:34:55Z</time>
      </trkpt>
      <trkpt lat="43.93019" lon="1.97974">
        <ele>148.2</ele>
        <time>2021-09-23T18:35:03Z</time>
      </trkpt>
      <trkpt lat="43.92998" lon="1.97921">
        <ele>148</ele>
        <time>2021-09-23T18:35:10Z</time>
      </trkpt>
      <trkpt lat="43.92965" lon="1.97854">
        <ele>147.2</ele>
        <time>2021-09-23T18:35:19Z</time>
      </trkpt>
      <trkpt lat="43.92962" lon="1.97847">
        <ele>147</ele>
        <time>2021-09-23T18:35:20Z</time>
      </trkpt>
      <trkpt lat="43.92955" lon="1.97832">
        <ele>147</ele>
        <time>2021-09-23T18:35:22Z</time>
      </trkpt>
      <trkpt lat="43.92951" lon="1.97825">
        <ele>146.8</ele>
        <time>2021-09-23T18:35:23Z</time>
      </trkpt>
      <trkpt lat="43.92943" lon="1.97802">
        <ele>146.8</ele>
        <time>2021-09-23T18:35:26Z</time>
      </trkpt>
      <trkpt lat="43.9294" lon="1.97794">
        <ele>146.6</ele>
        <time>2021-09-23T18:35:27Z</time>
      </trkpt>
      <trkpt lat="43.92938" lon="1.97777">
        <ele>146.4</ele>
        <time>2021-09-23T18:35:29Z</time>
      </trkpt>
      <trkpt lat="43.92933" lon="1.97736">
        <ele>146.4</ele>
        <time>2021-09-23T18:35:34Z</time>
      </trkpt>
      <trkpt lat="43.92932" lon="1.97728">
        <ele>146.4</ele>
        <time>2021-09-23T18:35:35Z</time>
      </trkpt>
      <trkpt lat="43.9293" lon="1.9772">
        <ele>146.6</ele>
        <time>2021-09-23T18:35:36Z</time>
      </trkpt>
      <trkpt lat="43.92929" lon="1.97712">
        <ele>146.4</ele>
        <time>2021-09-23T18:35:37Z</time>
      </trkpt>
      <trkpt lat="43.92927" lon="1.97705">
        <ele>146.4</ele>
        <time>2021-09-23T18:35:38Z</time>
      </trkpt>
      <trkpt lat="43.92926" lon="1.97697">
        <ele>146.4</ele>
        <time>2021-09-23T18:35:39Z</time>
      </trkpt>
      <trkpt lat="43.92924" lon="1.97691">
        <ele>146.4</ele>
        <time>2021-09-23T18:35:40Z</time>
      </trkpt>
      <trkpt lat="43.92922" lon="1.97682">
        <ele>146.4</ele>
        <time>2021-09-23T18:35:41Z</time>
      </trkpt>
      <trkpt lat="43.92921" lon="1.97674">
        <ele>146.6</ele>
        <time>2021-09-23T18:35:42Z</time>
      </trkpt>
      <trkpt lat="43.92919" lon="1.97666">
        <ele>146.6</ele>
        <time>2021-09-23T18:35:43Z</time>
      </trkpt>
      <trkpt lat="43.92918" lon="1.97659">
        <ele>146.6</ele>
        <time>2021-09-23T18:35:44Z</time>
      </trkpt>
      <trkpt lat="43.92917" lon="1.97651">
        <ele>146.6</ele>
        <time>2021-09-23T18:35:45Z</time>
      </trkpt>
      <trkpt lat="43.92913" lon="1.97611">
        <ele>146.4</ele>
        <time>2021-09-23T18:35:50Z</time>
      </trkpt>
      <trkpt lat="43.92911" lon="1.9759">
        <ele>146.4</ele>
        <time>2021-09-23T18:35:53Z</time>
      </trkpt>
      <trkpt lat="43.92909" lon="1.97581">
        <ele>146.2</ele>
        <time>2021-09-23T18:35:54Z</time>
      </trkpt>
      <trkpt lat="43.92907" lon="1.97551">
        <ele>146.4</ele>
        <time>2021-09-23T18:35:58Z</time>
      </trkpt>
      <trkpt lat="43.92904" lon="1.9748">
        <ele>146.2</ele>
        <time>2021-09-23T18:36:07Z</time>
      </trkpt>
      <trkpt lat="43.92903" lon="1.97402">
        <ele>146.4</ele>
        <time>2021-09-23T18:36:17Z</time>
      </trkpt>
      <trkpt lat="43.92903" lon="1.97387">
        <ele>146.4</ele>
        <time>2021-09-23T18:36:19Z</time>
      </trkpt>
      <trkpt lat="43.92902" lon="1.97372">
        <ele>146.6</ele>
        <time>2021-09-23T18:36:21Z</time>
      </trkpt>
      <trkpt lat="43.92902" lon="1.97364">
        <ele>146.6</ele>
        <time>2021-09-23T18:36:22Z</time>
      </trkpt>
      <trkpt lat="43.92901" lon="1.97357">
        <ele>146.6</ele>
        <time>2021-09-23T18:36:23Z</time>
      </trkpt>
      <trkpt lat="43.929" lon="1.9735">
        <ele>146.6</ele>
        <time>2021-09-23T18:36:24Z</time>
      </trkpt>
      <trkpt lat="43.929" lon="1.97335">
        <ele>146.6</ele>
        <time>2021-09-23T18:36:26Z</time>
      </trkpt>
      <trkpt lat="43.92896" lon="1.97289">
        <ele>146.6</ele>
        <time>2021-09-23T18:36:32Z</time>
      </trkpt>
      <trkpt lat="43.92886" lon="1.97247">
        <ele>146.6</ele>
        <time>2021-09-23T18:36:38Z</time>
      </trkpt>
      <trkpt lat="43.92879" lon="1.97228">
        <ele>146.8</ele>
        <time>2021-09-23T18:36:41Z</time>
      </trkpt>
      <trkpt lat="43.92878" lon="1.97221">
        <ele>146.8</ele>
        <time>2021-09-23T18:36:42Z</time>
      </trkpt>
      <trkpt lat="43.92877" lon="1.97214">
        <ele>146.8</ele>
        <time>2021-09-23T18:36:43Z</time>
      </trkpt>
      <trkpt lat="43.92876" lon="1.97207">
        <ele>146.8</ele>
        <time>2021-09-23T18:36:44Z</time>
      </trkpt>
      <trkpt lat="43.92876" lon="1.972">
        <ele>146.8</ele>
        <time>2021-09-23T18:36:45Z</time>
      </trkpt>
      <trkpt lat="43.92876" lon="1.97193">
        <ele>146.8</ele>
        <time>2021-09-23T18:36:46Z</time>
      </trkpt>
      <trkpt lat="43.92877" lon="1.97179">
        <ele>146.8</ele>
        <time>2021-09-23T18:36:48Z</time>
      </trkpt>
      <trkpt lat="43.92879" lon="1.97172">
        <ele>147</ele>
        <time>2021-09-23T18:36:49Z</time>
      </trkpt>
      <trkpt lat="43.9288" lon="1.97166">
        <ele>147</ele>
        <time>2021-09-23T18:36:50Z</time>
      </trkpt>
      <trkpt lat="43.92881" lon="1.9716">
        <ele>147</ele>
        <time>2021-09-23T18:36:51Z</time>
      </trkpt>
      <trkpt lat="43.92881" lon="1.97153">
        <ele>147</ele>
        <time>2021-09-23T18:36:52Z</time>
      </trkpt>
      <trkpt lat="43.92882" lon="1.97147">
        <ele>147.2</ele>
        <time>2021-09-23T18:36:53Z</time>
      </trkpt>
      <trkpt lat="43.92882" lon="1.9714">
        <ele>147.2</ele>
        <time>2021-09-23T18:36:54Z</time>
      </trkpt>
      <trkpt lat="43.92881" lon="1.9712">
        <ele>147.2</ele>
        <time>2021-09-23T18:36:57Z</time>
      </trkpt>
      <trkpt lat="43.92872" lon="1.97082">
        <ele>147.2</ele>
        <time>2021-09-23T18:37:02Z</time>
      </trkpt>
      <trkpt lat="43.92871" lon="1.97066">
        <ele>147.2</ele>
        <time>2021-09-23T18:37:04Z</time>
      </trkpt>
      <trkpt lat="43.92877" lon="1.97018">
        <ele>147</ele>
        <time>2021-09-23T18:37:10Z</time>
      </trkpt>
      <trkpt lat="43.92883" lon="1.96972">
        <ele>146.6</ele>
        <time>2021-09-23T18:37:16Z</time>
      </trkpt>
      <trkpt lat="43.92885" lon="1.96956">
        <ele>146.4</ele>
        <time>2021-09-23T18:37:18Z</time>
      </trkpt>
      <trkpt lat="43.92886" lon="1.96948">
        <ele>146.2</ele>
        <time>2021-09-23T18:37:19Z</time>
      </trkpt>
      <trkpt lat="43.92899" lon="1.9687">
        <ele>145.8</ele>
        <time>2021-09-23T18:37:29Z</time>
      </trkpt>
      <trkpt lat="43.92911" lon="1.96809">
        <ele>145.8</ele>
        <time>2021-09-23T18:37:37Z</time>
      </trkpt>
      <trkpt lat="43.92914" lon="1.96795">
        <ele>145.6</ele>
        <time>2021-09-23T18:37:39Z</time>
      </trkpt>
      <trkpt lat="43.92916" lon="1.96788">
        <ele>145.6</ele>
        <time>2021-09-23T18:37:40Z</time>
      </trkpt>
      <trkpt lat="43.92919" lon="1.96781">
        <ele>145.6</ele>
        <time>2021-09-23T18:37:41Z</time>
      </trkpt>
      <trkpt lat="43.92923" lon="1.96775">
        <ele>145.6</ele>
        <time>2021-09-23T18:37:42Z</time>
      </trkpt>
      <trkpt lat="43.92927" lon="1.96771">
        <ele>145.6</ele>
        <time>2021-09-23T18:37:43Z</time>
      </trkpt>
      <trkpt lat="43.92933" lon="1.96769">
        <ele>145.6</ele>
        <time>2021-09-23T18:37:44Z</time>
      </trkpt>
      <trkpt lat="43.92938" lon="1.9677">
        <ele>145.6</ele>
        <time>2021-09-23T18:37:45Z</time>
      </trkpt>
      <trkpt lat="43.92948" lon="1.96775">
        <ele>145.6</ele>
        <time>2021-09-23T18:37:47Z</time>
      </trkpt>
      <trkpt lat="43.92953" lon="1.96778">
        <ele>145.8</ele>
        <time>2021-09-23T18:37:48Z</time>
      </trkpt>
      <trkpt lat="43.92958" lon="1.96781">
        <ele>145.8</ele>
        <time>2021-09-23T18:37:49Z</time>
      </trkpt>
      <trkpt lat="43.92963" lon="1.96784">
        <ele>145.8</ele>
        <time>2021-09-23T18:37:50Z</time>
      </trkpt>
      <trkpt lat="43.92968" lon="1.96787">
        <ele>145.8</ele>
        <time>2021-09-23T18:37:51Z</time>
      </trkpt>
      <trkpt lat="43.92973" lon="1.9679">
        <ele>145.8</ele>
        <time>2021-09-23T18:37:52Z</time>
      </trkpt>
      <trkpt lat="43.92978" lon="1.96793">
        <ele>145.8</ele>
        <time>2021-09-23T18:37:53Z</time>
      </trkpt>
      <trkpt lat="43.92983" lon="1.96795">
        <ele>145.8</ele>
        <time>2021-09-23T18:37:54Z</time>
      </trkpt>
      <trkpt lat="43.92988" lon="1.96798">
        <ele>145.8</ele>
        <time>2021-09-23T18:37:55Z</time>
      </trkpt>
      <trkpt lat="43.92993" lon="1.968">
        <ele>145.8</ele>
        <time>2021-09-23T18:37:56Z</time>
      </trkpt>
      <trkpt lat="43.93003" lon="1.96804">
        <ele>146</ele>
        <time>2021-09-23T18:37:58Z</time>
      </trkpt>
      <trkpt lat="43.93013" lon="1.96804">
        <ele>146</ele>
        <time>2021-09-23T18:38:00Z</time>
      </trkpt>
      <trkpt lat="43.93018" lon="1.96802">
        <ele>146</ele>
        <time>2021-09-23T18:38:01Z</time>
      </trkpt>
      <trkpt lat="43.93022" lon="1.96799">
        <ele>146</ele>
        <time>2021-09-23T18:38:02Z</time>
      </trkpt>
      <trkpt lat="43.93026" lon="1.96794">
        <ele>146</ele>
        <time>2021-09-23T18:38:03Z</time>
      </trkpt>
      <trkpt lat="43.93029" lon="1.96789">
        <ele>146</ele>
        <time>2021-09-23T18:38:04Z</time>
      </trkpt>
      <trkpt lat="43.93031" lon="1.96784">
        <ele>146</ele>
        <time>2021-09-23T18:38:05Z</time>
      </trkpt>
      <trkpt lat="43.93033" lon="1.96778">
        <ele>146</ele>
        <time>2021-09-23T18:38:06Z</time>
      </trkpt>
      <trkpt lat="43.93035" lon="1.96772">
        <ele>146</ele>
        <time>2021-09-23T18:38:07Z</time>
      </trkpt>
      <trkpt lat="43.93043" lon="1.96745">
        <ele>146.2</ele>
        <time>2021-09-23T18:38:11Z</time>
      </trkpt>
      <trkpt lat="43.93061" lon="1.96679">
        <ele>146.4</ele>
        <time>2021-09-23T18:38:21Z</time>
      </trkpt>
      <trkpt lat="43.93073" lon="1.96645">
        <ele>146.6</ele>
        <time>2021-09-23T18:38:26Z</time>
      </trkpt>
      <trkpt lat="43.93076" lon="1.96639">
        <ele>146.8</ele>
        <time>2021-09-23T18:38:27Z</time>
      </trkpt>
      <trkpt lat="43.9308" lon="1.96633">
        <ele>146.8</ele>
        <time>2021-09-23T18:38:28Z</time>
      </trkpt>
      <trkpt lat="43.93093" lon="1.96609">
        <ele>146.8</ele>
        <time>2021-09-23T18:38:32Z</time>
      </trkpt>
      <trkpt lat="43.93098" lon="1.96595">
        <ele>146.6</ele>
        <time>2021-09-23T18:38:34Z</time>
      </trkpt>
      <trkpt lat="43.93103" lon="1.96547">
        <ele>146.4</ele>
        <time>2021-09-23T18:38:40Z</time>
      </trkpt>
      <trkpt lat="43.93114" lon="1.96484">
        <ele>146.2</ele>
        <time>2021-09-23T18:38:48Z</time>
      </trkpt>
      <trkpt lat="43.93127" lon="1.96431">
        <ele>146.2</ele>
        <time>2021-09-23T18:38:55Z</time>
      </trkpt>
      <trkpt lat="43.9313" lon="1.96416">
        <ele>146.2</ele>
        <time>2021-09-23T18:38:57Z</time>
      </trkpt>
      <trkpt lat="43.93132" lon="1.96408">
        <ele>146.2</ele>
        <time>2021-09-23T18:38:58Z</time>
      </trkpt>
      <trkpt lat="43.9315" lon="1.96339">
        <ele>146.4</ele>
        <time>2021-09-23T18:39:07Z</time>
      </trkpt>
      <trkpt lat="43.93168" lon="1.96269">
        <ele>146.4</ele>
        <time>2021-09-23T18:39:16Z</time>
      </trkpt>
      <trkpt lat="43.93185" lon="1.96197">
        <ele>146.2</ele>
        <time>2021-09-23T18:39:25Z</time>
      </trkpt>
      <trkpt lat="43.93205" lon="1.96128">
        <ele>146</ele>
        <time>2021-09-23T18:39:34Z</time>
      </trkpt>
      <trkpt lat="43.93207" lon="1.96121">
        <ele>146</ele>
        <time>2021-09-23T18:39:35Z</time>
      </trkpt>
      <trkpt lat="43.93209" lon="1.96114">
        <ele>146</ele>
        <time>2021-09-23T18:39:36Z</time>
      </trkpt>
      <trkpt lat="43.93212" lon="1.96106">
        <ele>146</ele>
        <time>2021-09-23T18:39:37Z</time>
      </trkpt>
      <trkpt lat="43.93214" lon="1.96099">
        <ele>146.2</ele>
        <time>2021-09-23T18:39:38Z</time>
      </trkpt>
      <trkpt lat="43.93217" lon="1.96092">
        <ele>146.2</ele>
        <time>2021-09-23T18:39:39Z</time>
      </trkpt>
      <trkpt lat="43.93229" lon="1.96064">
        <ele>146.4</ele>
        <time>2021-09-23T18:39:43Z</time>
      </trkpt>
      <trkpt lat="43.93255" lon="1.96009">
        <ele>146.6</ele>
        <time>2021-09-23T18:39:51Z</time>
      </trkpt>
      <trkpt lat="43.93266" lon="1.95981">
        <ele>146.4</ele>
        <time>2021-09-23T18:39:55Z</time>
      </trkpt>
      <trkpt lat="43.93271" lon="1.95958">
        <ele>146.4</ele>
        <time>2021-09-23T18:39:58Z</time>
      </trkpt>
      <trkpt lat="43.93285" lon="1.95896">
        <ele>146.4</ele>
        <time>2021-09-23T18:40:06Z</time>
      </trkpt>
      <trkpt lat="43.93291" lon="1.95866">
        <ele>146.4</ele>
        <time>2021-09-23T18:40:10Z</time>
      </trkpt>
      <trkpt lat="43.93293" lon="1.95859">
        <ele>146.6</ele>
        <time>2021-09-23T18:40:11Z</time>
      </trkpt>
      <trkpt lat="43.93295" lon="1.95852">
        <ele>146.6</ele>
        <time>2021-09-23T18:40:12Z</time>
      </trkpt>
      <trkpt lat="43.93296" lon="1.95844">
        <ele>146.6</ele>
        <time>2021-09-23T18:40:13Z</time>
      </trkpt>
      <trkpt lat="43.93303" lon="1.95815">
        <ele>146.6</ele>
        <time>2021-09-23T18:40:17Z</time>
      </trkpt>
      <trkpt lat="43.93305" lon="1.95807">
        <ele>146.6</ele>
        <time>2021-09-23T18:40:18Z</time>
      </trkpt>
      <trkpt lat="43.93307" lon="1.958">
        <ele>146.6</ele>
        <time>2021-09-23T18:40:19Z</time>
      </trkpt>
      <trkpt lat="43.93308" lon="1.95794">
        <ele>146.6</ele>
        <time>2021-09-23T18:40:20Z</time>
      </trkpt>
      <trkpt lat="43.9331" lon="1.95786">
        <ele>146.6</ele>
        <time>2021-09-23T18:40:21Z</time>
      </trkpt>
      <trkpt lat="43.93312" lon="1.95778">
        <ele>146.6</ele>
        <time>2021-09-23T18:40:22Z</time>
      </trkpt>
      <trkpt lat="43.93313" lon="1.95771">
        <ele>146.6</ele>
        <time>2021-09-23T18:40:23Z</time>
      </trkpt>
      <trkpt lat="43.93317" lon="1.95756">
        <ele>146.6</ele>
        <time>2021-09-23T18:40:25Z</time>
      </trkpt>
      <trkpt lat="43.93324" lon="1.9572">
        <ele>146.8</ele>
        <time>2021-09-23T18:40:30Z</time>
      </trkpt>
      <trkpt lat="43.93341" lon="1.95647">
        <ele>147</ele>
        <time>2021-09-23T18:40:40Z</time>
      </trkpt>
      <trkpt lat="43.93345" lon="1.95633">
        <ele>147</ele>
        <time>2021-09-23T18:40:42Z</time>
      </trkpt>
      <trkpt lat="43.93347" lon="1.95626">
        <ele>147</ele>
        <time>2021-09-23T18:40:43Z</time>
      </trkpt>
      <trkpt lat="43.93357" lon="1.956">
        <ele>147</ele>
        <time>2021-09-23T18:40:47Z</time>
      </trkpt>
      <trkpt lat="43.93364" lon="1.9558">
        <ele>147.2</ele>
        <time>2021-09-23T18:40:50Z</time>
      </trkpt>
      <trkpt lat="43.93375" lon="1.95555">
        <ele>147.2</ele>
        <time>2021-09-23T18:40:54Z</time>
      </trkpt>
      <trkpt lat="43.93379" lon="1.9555">
        <ele>147.4</ele>
        <time>2021-09-23T18:40:55Z</time>
      </trkpt>
      <trkpt lat="43.93398" lon="1.95534">
        <ele>147.6</ele>
        <time>2021-09-23T18:40:59Z</time>
      </trkpt>
      <trkpt lat="43.93408" lon="1.95528">
        <ele>147.6</ele>
        <time>2021-09-23T18:41:01Z</time>
      </trkpt>
      <trkpt lat="43.93423" lon="1.95521">
        <ele>147.6</ele>
        <time>2021-09-23T18:41:04Z</time>
      </trkpt>
      <trkpt lat="43.93428" lon="1.95518">
        <ele>147.6</ele>
        <time>2021-09-23T18:41:05Z</time>
      </trkpt>
      <trkpt lat="43.93433" lon="1.95515">
        <ele>147.8</ele>
        <time>2021-09-23T18:41:06Z</time>
      </trkpt>
      <trkpt lat="43.93438" lon="1.95513">
        <ele>147.8</ele>
        <time>2021-09-23T18:41:07Z</time>
      </trkpt>
      <trkpt lat="43.93443" lon="1.9551">
        <ele>147.8</ele>
        <time>2021-09-23T18:41:08Z</time>
      </trkpt>
      <trkpt lat="43.93447" lon="1.95508">
        <ele>148</ele>
        <time>2021-09-23T18:41:09Z</time>
      </trkpt>
      <trkpt lat="43.93452" lon="1.95505">
        <ele>148</ele>
        <time>2021-09-23T18:41:10Z</time>
      </trkpt>
      <trkpt lat="43.93457" lon="1.95502">
        <ele>148</ele>
        <time>2021-09-23T18:41:11Z</time>
      </trkpt>
      <trkpt lat="43.93462" lon="1.95499">
        <ele>148</ele>
        <time>2021-09-23T18:41:12Z</time>
      </trkpt>
      <trkpt lat="43.93466" lon="1.95497">
        <ele>148</ele>
        <time>2021-09-23T18:41:13Z</time>
      </trkpt>
      <trkpt lat="43.9349" lon="1.95486">
        <ele>148.2</ele>
        <time>2021-09-23T18:41:18Z</time>
      </trkpt>
      <trkpt lat="43.935" lon="1.95483">
        <ele>148.4</ele>
        <time>2021-09-23T18:41:20Z</time>
      </trkpt>
      <trkpt lat="43.93504" lon="1.95482">
        <ele>148.4</ele>
        <time>2021-09-23T18:41:21Z</time>
      </trkpt>
      <trkpt lat="43.93508" lon="1.95481">
        <ele>148.6</ele>
        <time>2021-09-23T18:41:22Z</time>
      </trkpt>
      <trkpt lat="43.93513" lon="1.95479">
        <ele>148.6</ele>
        <time>2021-09-23T18:41:23Z</time>
      </trkpt>
      <trkpt lat="43.93517" lon="1.95477">
        <ele>148.6</ele>
        <time>2021-09-23T18:41:24Z</time>
      </trkpt>
      <trkpt lat="43.93522" lon="1.95475">
        <ele>148.6</ele>
        <time>2021-09-23T18:41:25Z</time>
      </trkpt>
      <trkpt lat="43.93539" lon="1.95463">
        <ele>149</ele>
        <time>2021-09-23T18:41:29Z</time>
      </trkpt>
      <trkpt lat="43.93561" lon="1.95447">
        <ele>149.6</ele>
        <time>2021-09-23T18:41:34Z</time>
      </trkpt>
      <trkpt lat="43.93578" lon="1.95435">
        <ele>149.8</ele>
        <time>2021-09-23T18:41:38Z</time>
      </trkpt>
      <trkpt lat="43.93582" lon="1.95432">
        <ele>150</ele>
        <time>2021-09-23T18:41:39Z</time>
      </trkpt>
      <trkpt lat="43.93593" lon="1.95422">
        <ele>150.4</ele>
        <time>2021-09-23T18:41:42Z</time>
      </trkpt>
      <trkpt lat="43.93597" lon="1.9542">
        <ele>150.6</ele>
        <time>2021-09-23T18:41:43Z</time>
      </trkpt>
      <trkpt lat="43.936" lon="1.95417">
        <ele>150.8</ele>
        <time>2021-09-23T18:41:44Z</time>
      </trkpt>
      <trkpt lat="43.93603" lon="1.95414">
        <ele>151</ele>
        <time>2021-09-23T18:41:45Z</time>
      </trkpt>
      <trkpt lat="43.93606" lon="1.95412">
        <ele>151</ele>
        <time>2021-09-23T18:41:46Z</time>
      </trkpt>
      <trkpt lat="43.93609" lon="1.9541">
        <ele>151</ele>
        <time>2021-09-23T18:41:47Z</time>
      </trkpt>
      <trkpt lat="43.93611" lon="1.95408">
        <ele>151.2</ele>
        <time>2021-09-23T18:41:48Z</time>
      </trkpt>
      <trkpt lat="43.93613" lon="1.95404">
        <ele>151.2</ele>
        <time>2021-09-23T18:41:49Z</time>
      </trkpt>
      <trkpt lat="43.93614" lon="1.95401">
        <ele>151.2</ele>
        <time>2021-09-23T18:41:50Z</time>
      </trkpt>
      <trkpt lat="43.93615" lon="1.95397">
        <ele>151.4</ele>
        <time>2021-09-23T18:41:51Z</time>
      </trkpt>
      <trkpt lat="43.93615" lon="1.95393">
        <ele>151.4</ele>
        <time>2021-09-23T18:41:52Z</time>
      </trkpt>
      <trkpt lat="43.93614" lon="1.95389">
        <ele>151.4</ele>
        <time>2021-09-23T18:41:53Z</time>
      </trkpt>
      <trkpt lat="43.93614" lon="1.95384">
        <ele>151.4</ele>
        <time>2021-09-23T18:41:54Z</time>
      </trkpt>
      <trkpt lat="43.93614" lon="1.95379">
        <ele>151.4</ele>
        <time>2021-09-23T18:41:55Z</time>
      </trkpt>
      <trkpt lat="43.93607" lon="1.95351">
        <ele>151.6</ele>
        <time>2021-09-23T18:42:01Z</time>
      </trkpt>
      <trkpt lat="43.93602" lon="1.95331">
        <ele>151.8</ele>
        <time>2021-09-23T18:42:05Z</time>
      </trkpt>
      <trkpt lat="43.93588" lon="1.95282">
        <ele>152</ele>
        <time>2021-09-23T18:42:14Z</time>
      </trkpt>
      <trkpt lat="43.93572" lon="1.95237">
        <ele>152.8</ele>
        <time>2021-09-23T18:42:22Z</time>
      </trkpt>
      <trkpt lat="43.93566" lon="1.95219">
        <ele>153</ele>
        <time>2021-09-23T18:42:25Z</time>
      </trkpt>
      <trkpt lat="43.93545" lon="1.95152">
        <ele>153.4</ele>
        <time>2021-09-23T18:42:35Z</time>
      </trkpt>
      <trkpt lat="43.93529" lon="1.95107">
        <ele>152.8</ele>
        <time>2021-09-23T18:42:41Z</time>
      </trkpt>
      <trkpt lat="43.93528" lon="1.95098">
        <ele>152.8</ele>
        <time>2021-09-23T18:42:42Z</time>
      </trkpt>
      <trkpt lat="43.93527" lon="1.95089">
        <ele>152.6</ele>
        <time>2021-09-23T18:42:43Z</time>
      </trkpt>
      <trkpt lat="43.93528" lon="1.95055">
        <ele>152.4</ele>
        <time>2021-09-23T18:42:47Z</time>
      </trkpt>
      <trkpt lat="43.9353" lon="1.94973">
        <ele>151.6</ele>
        <time>2021-09-23T18:42:56Z</time>
      </trkpt>
      <trkpt lat="43.9353" lon="1.94956">
        <ele>151.6</ele>
        <time>2021-09-23T18:42:58Z</time>
      </trkpt>
      <trkpt lat="43.93529" lon="1.94948">
        <ele>151.4</ele>
        <time>2021-09-23T18:42:59Z</time>
      </trkpt>
      <trkpt lat="43.93529" lon="1.9494">
        <ele>151.4</ele>
        <time>2021-09-23T18:43:00Z</time>
      </trkpt>
      <trkpt lat="43.93528" lon="1.94934">
        <ele>151.2</ele>
        <time>2021-09-23T18:43:01Z</time>
      </trkpt>
      <trkpt lat="43.93526" lon="1.94928">
        <ele>151</ele>
        <time>2021-09-23T18:43:02Z</time>
      </trkpt>
      <trkpt lat="43.93524" lon="1.94924">
        <ele>150.8</ele>
        <time>2021-09-23T18:43:03Z</time>
      </trkpt>
      <trkpt lat="43.9352" lon="1.94922">
        <ele>150.8</ele>
        <time>2021-09-23T18:43:04Z</time>
      </trkpt>
      <trkpt lat="43.93516" lon="1.94921">
        <ele>150.6</ele>
        <time>2021-09-23T18:43:05Z</time>
      </trkpt>
      <trkpt lat="43.93511" lon="1.94921">
        <ele>150.4</ele>
        <time>2021-09-23T18:43:06Z</time>
      </trkpt>
      <trkpt lat="43.93506" lon="1.9492">
        <ele>150.4</ele>
        <time>2021-09-23T18:43:07Z</time>
      </trkpt>
      <trkpt lat="43.93502" lon="1.94919">
        <ele>150.2</ele>
        <time>2021-09-23T18:43:08Z</time>
      </trkpt>
      <trkpt lat="43.93481" lon="1.94913">
        <ele>149.8</ele>
        <time>2021-09-23T18:43:12Z</time>
      </trkpt>
      <trkpt lat="43.93451" lon="1.94905">
        <ele>149.6</ele>
        <time>2021-09-23T18:43:17Z</time>
      </trkpt>
      <trkpt lat="43.93426" lon="1.94898">
        <ele>149.4</ele>
        <time>2021-09-23T18:43:21Z</time>
      </trkpt>
      <trkpt lat="43.93413" lon="1.94894">
        <ele>149.4</ele>
        <time>2021-09-23T18:43:23Z</time>
      </trkpt>
      <trkpt lat="43.93373" lon="1.94884">
        <ele>149.2</ele>
        <time>2021-09-23T18:43:29Z</time>
      </trkpt>
      <trkpt lat="43.93327" lon="1.94863">
        <ele>149</ele>
        <time>2021-09-23T18:43:36Z</time>
      </trkpt>
      <trkpt lat="43.93279" lon="1.94845">
        <ele>149</ele>
        <time>2021-09-23T18:43:43Z</time>
      </trkpt>
      <trkpt lat="43.93222" lon="1.94836">
        <ele>148.8</ele>
        <time>2021-09-23T18:43:51Z</time>
      </trkpt>
      <trkpt lat="43.93178" lon="1.94837">
        <ele>148.8</ele>
        <time>2021-09-23T18:43:57Z</time>
      </trkpt>
      <trkpt lat="43.93121" lon="1.94853">
        <ele>148.4</ele>
        <time>2021-09-23T18:44:05Z</time>
      </trkpt>
      <trkpt lat="43.93115" lon="1.94855">
        <ele>148.4</ele>
        <time>2021-09-23T18:44:06Z</time>
      </trkpt>
      <trkpt lat="43.93111" lon="1.94856">
        <ele>148.4</ele>
        <time>2021-09-23T18:44:07Z</time>
      </trkpt>
      <trkpt lat="43.93105" lon="1.94858">
        <ele>148.4</ele>
        <time>2021-09-23T18:44:08Z</time>
      </trkpt>
      <trkpt lat="43.93069" lon="1.94868">
        <ele>148</ele>
        <time>2021-09-23T18:44:13Z</time>
      </trkpt>
      <trkpt lat="43.93042" lon="1.94879">
        <ele>148</ele>
        <time>2021-09-23T18:44:17Z</time>
      </trkpt>
      <trkpt lat="43.93035" lon="1.94884">
        <ele>147.8</ele>
        <time>2021-09-23T18:44:18Z</time>
      </trkpt>
      <trkpt lat="43.93014" lon="1.94906">
        <ele>147.4</ele>
        <time>2021-09-23T18:44:22Z</time>
      </trkpt>
      <trkpt lat="43.93007" lon="1.94913">
        <ele>147.2</ele>
        <time>2021-09-23T18:44:23Z</time>
      </trkpt>
      <trkpt lat="43.92991" lon="1.9493">
        <ele>147</ele>
        <time>2021-09-23T18:44:26Z</time>
      </trkpt>
      <trkpt lat="43.92954" lon="1.94975">
        <ele>146.8</ele>
        <time>2021-09-23T18:44:33Z</time>
      </trkpt>
      <trkpt lat="43.92926" lon="1.95019">
        <ele>146.6</ele>
        <time>2021-09-23T18:44:39Z</time>
      </trkpt>
      <trkpt lat="43.92916" lon="1.95032">
        <ele>146.6</ele>
        <time>2021-09-23T18:44:41Z</time>
      </trkpt>
      <trkpt lat="43.92904" lon="1.95043">
        <ele>146.6</ele>
        <time>2021-09-23T18:44:43Z</time>
      </trkpt>
      <trkpt lat="43.92898" lon="1.95047">
        <ele>146.6</ele>
        <time>2021-09-23T18:44:44Z</time>
      </trkpt>
      <trkpt lat="43.92866" lon="1.95057">
        <ele>146.4</ele>
        <time>2021-09-23T18:44:49Z</time>
      </trkpt>
      <trkpt lat="43.92808" lon="1.95067">
        <ele>146.2</ele>
        <time>2021-09-23T18:44:57Z</time>
      </trkpt>
      <trkpt lat="43.92759" lon="1.95076">
        <ele>146.2</ele>
        <time>2021-09-23T18:45:04Z</time>
      </trkpt>
      <trkpt lat="43.92753" lon="1.95077">
        <ele>146.2</ele>
        <time>2021-09-23T18:45:05Z</time>
      </trkpt>
      <trkpt lat="43.92746" lon="1.95079">
        <ele>146</ele>
        <time>2021-09-23T18:45:06Z</time>
      </trkpt>
      <trkpt lat="43.92739" lon="1.9508">
        <ele>146</ele>
        <time>2021-09-23T18:45:07Z</time>
      </trkpt>
      <trkpt lat="43.92705" lon="1.95087">
        <ele>146</ele>
        <time>2021-09-23T18:45:12Z</time>
      </trkpt>
      <trkpt lat="43.92699" lon="1.95088">
        <ele>146</ele>
        <time>2021-09-23T18:45:13Z</time>
      </trkpt>
      <trkpt lat="43.92692" lon="1.95089">
        <ele>146</ele>
        <time>2021-09-23T18:45:14Z</time>
      </trkpt>
      <trkpt lat="43.92651" lon="1.95092">
        <ele>146</ele>
        <time>2021-09-23T18:45:20Z</time>
      </trkpt>
      <trkpt lat="43.92624" lon="1.95088">
        <ele>146.2</ele>
        <time>2021-09-23T18:45:24Z</time>
      </trkpt>
      <trkpt lat="43.9261" lon="1.95082">
        <ele>146.2</ele>
        <time>2021-09-23T18:45:26Z</time>
      </trkpt>
      <trkpt lat="43.92599" lon="1.95071">
        <ele>146</ele>
        <time>2021-09-23T18:45:28Z</time>
      </trkpt>
      <trkpt lat="43.92594" lon="1.95065">
        <ele>146</ele>
        <time>2021-09-23T18:45:29Z</time>
      </trkpt>
      <trkpt lat="43.92589" lon="1.95058">
        <ele>146</ele>
        <time>2021-09-23T18:45:30Z</time>
      </trkpt>
      <trkpt lat="43.92576" lon="1.95036">
        <ele>145.8</ele>
        <time>2021-09-23T18:45:33Z</time>
      </trkpt>
      <trkpt lat="43.92572" lon="1.95029">
        <ele>145.6</ele>
        <time>2021-09-23T18:45:34Z</time>
      </trkpt>
      <trkpt lat="43.92568" lon="1.95022">
        <ele>145.6</ele>
        <time>2021-09-23T18:45:35Z</time>
      </trkpt>
      <trkpt lat="43.92564" lon="1.95015">
        <ele>145.4</ele>
        <time>2021-09-23T18:45:36Z</time>
      </trkpt>
      <trkpt lat="43.9256" lon="1.95007">
        <ele>145.4</ele>
        <time>2021-09-23T18:45:37Z</time>
      </trkpt>
      <trkpt lat="43.92556" lon="1.95001">
        <ele>145.4</ele>
        <time>2021-09-23T18:45:38Z</time>
      </trkpt>
      <trkpt lat="43.92552" lon="1.94994">
        <ele>145.4</ele>
        <time>2021-09-23T18:45:39Z</time>
      </trkpt>
      <trkpt lat="43.92547" lon="1.94987">
        <ele>145.4</ele>
        <time>2021-09-23T18:45:40Z</time>
      </trkpt>
      <trkpt lat="43.92543" lon="1.94981">
        <ele>145.4</ele>
        <time>2021-09-23T18:45:41Z</time>
      </trkpt>
      <trkpt lat="43.92538" lon="1.94975">
        <ele>145.4</ele>
        <time>2021-09-23T18:45:42Z</time>
      </trkpt>
      <trkpt lat="43.92534" lon="1.94969">
        <ele>145.4</ele>
        <time>2021-09-23T18:45:43Z</time>
      </trkpt>
      <trkpt lat="43.92513" lon="1.94948">
        <ele>145.2</ele>
        <time>2021-09-23T18:45:47Z</time>
      </trkpt>
      <trkpt lat="43.92508" lon="1.94943">
        <ele>145</ele>
        <time>2021-09-23T18:45:48Z</time>
      </trkpt>
      <trkpt lat="43.92462" lon="1.94909">
        <ele>144.8</ele>
        <time>2021-09-23T18:45:56Z</time>
      </trkpt>
      <trkpt lat="43.92414" lon="1.9488">
        <ele>144.6</ele>
        <time>2021-09-23T18:46:04Z</time>
      </trkpt>
      <trkpt lat="43.92408" lon="1.94876">
        <ele>144.6</ele>
        <time>2021-09-23T18:46:05Z</time>
      </trkpt>
      <trkpt lat="43.92403" lon="1.94872">
        <ele>144.6</ele>
        <time>2021-09-23T18:46:06Z</time>
      </trkpt>
      <trkpt lat="43.9237" lon="1.94841">
        <ele>144.4</ele>
        <time>2021-09-23T18:46:12Z</time>
      </trkpt>
      <trkpt lat="43.92332" lon="1.94796">
        <ele>144</ele>
        <time>2021-09-23T18:46:20Z</time>
      </trkpt>
      <trkpt lat="43.92327" lon="1.9479">
        <ele>143.8</ele>
        <time>2021-09-23T18:46:21Z</time>
      </trkpt>
      <trkpt lat="43.92323" lon="1.94786">
        <ele>143.8</ele>
        <time>2021-09-23T18:46:22Z</time>
      </trkpt>
      <trkpt lat="43.92319" lon="1.94781">
        <ele>143.6</ele>
        <time>2021-09-23T18:46:23Z</time>
      </trkpt>
      <trkpt lat="43.92314" lon="1.94777">
        <ele>143.6</ele>
        <time>2021-09-23T18:46:24Z</time>
      </trkpt>
      <trkpt lat="43.92301" lon="1.94764">
        <ele>143.4</ele>
        <time>2021-09-23T18:46:27Z</time>
      </trkpt>
      <trkpt lat="43.92296" lon="1.9476">
        <ele>143.4</ele>
        <time>2021-09-23T18:46:28Z</time>
      </trkpt>
      <trkpt lat="43.92292" lon="1.94757">
        <ele>143.4</ele>
        <time>2021-09-23T18:46:29Z</time>
      </trkpt>
      <trkpt lat="43.92287" lon="1.94753">
        <ele>143.2</ele>
        <time>2021-09-23T18:46:30Z</time>
      </trkpt>
      <trkpt lat="43.92283" lon="1.9475">
        <ele>143.2</ele>
        <time>2021-09-23T18:46:31Z</time>
      </trkpt>
      <trkpt lat="43.92279" lon="1.94746">
        <ele>143.2</ele>
        <time>2021-09-23T18:46:32Z</time>
      </trkpt>
      <trkpt lat="43.92275" lon="1.94742">
        <ele>143</ele>
        <time>2021-09-23T18:46:33Z</time>
      </trkpt>
      <trkpt lat="43.9227" lon="1.94739">
        <ele>143.2</ele>
        <time>2021-09-23T18:46:34Z</time>
      </trkpt>
      <trkpt lat="43.92266" lon="1.94735">
        <ele>143.2</ele>
        <time>2021-09-23T18:46:35Z</time>
      </trkpt>
      <trkpt lat="43.92262" lon="1.94732">
        <ele>143</ele>
        <time>2021-09-23T18:46:36Z</time>
      </trkpt>
      <trkpt lat="43.92258" lon="1.94728">
        <ele>143</ele>
        <time>2021-09-23T18:46:37Z</time>
      </trkpt>
      <trkpt lat="43.92253" lon="1.94725">
        <ele>142.8</ele>
        <time>2021-09-23T18:46:38Z</time>
      </trkpt>
      <trkpt lat="43.92226" lon="1.94697">
        <ele>142.8</ele>
        <time>2021-09-23T18:46:45Z</time>
      </trkpt>
      <trkpt lat="43.92218" lon="1.94689">
        <ele>142.8</ele>
        <time>2021-09-23T18:46:47Z</time>
      </trkpt>
      <trkpt lat="43.92215" lon="1.94686">
        <ele>142.6</ele>
        <time>2021-09-23T18:46:48Z</time>
      </trkpt>
      <trkpt lat="43.92212" lon="1.94683">
        <ele>142.6</ele>
        <time>2021-09-23T18:46:49Z</time>
      </trkpt>
      <trkpt lat="43.9221" lon="1.9468">
        <ele>142.4</ele>
        <time>2021-09-23T18:46:50Z</time>
      </trkpt>
      <trkpt lat="43.92207" lon="1.94678">
        <ele>142.4</ele>
        <time>2021-09-23T18:46:51Z</time>
      </trkpt>
      <trkpt lat="43.92205" lon="1.94675">
        <ele>142.4</ele>
        <time>2021-09-23T18:46:52Z</time>
      </trkpt>
      <trkpt lat="43.92203" lon="1.94673">
        <ele>142.4</ele>
        <time>2021-09-23T18:46:53Z</time>
      </trkpt>
      <trkpt lat="43.92188" lon="1.9466">
        <ele>142</ele>
        <time>2021-09-23T18:46:58Z</time>
      </trkpt>
      <trkpt lat="43.92185" lon="1.94657">
        <ele>141.8</ele>
        <time>2021-09-23T18:46:59Z</time>
      </trkpt>
      <trkpt lat="43.9216" lon="1.94634">
        <ele>141.6</ele>
        <time>2021-09-23T18:47:06Z</time>
      </trkpt>
      <trkpt lat="43.92144" lon="1.94614">
        <ele>141.2</ele>
        <time>2021-09-23T18:47:11Z</time>
      </trkpt>
      <trkpt lat="43.9214" lon="1.94606">
        <ele>141.2</ele>
        <time>2021-09-23T18:47:13Z</time>
      </trkpt>
      <trkpt lat="43.92138" lon="1.94603">
        <ele>141.2</ele>
        <time>2021-09-23T18:47:14Z</time>
      </trkpt>
      <trkpt lat="43.92137" lon="1.946">
        <ele>141.2</ele>
        <time>2021-09-23T18:47:15Z</time>
      </trkpt>
      <trkpt lat="43.92136" lon="1.94599">
        <ele>141.2</ele>
        <time>2021-09-23T18:47:16Z</time>
      </trkpt>
      <trkpt lat="43.92135" lon="1.94598">
        <ele>141</ele>
        <time>2021-09-23T18:47:17Z</time>
      </trkpt>
      <trkpt lat="43.92135" lon="1.94598">
        <ele>141</ele>
        <time>2021-09-23T18:47:18Z</time>
      </trkpt>
      <trkpt lat="43.92135" lon="1.94598">
        <ele>140.8</ele>
        <time>2021-09-23T18:47:19Z</time>
      </trkpt>
      <trkpt lat="43.92129" lon="1.94596">
        <ele>140.6</ele>
        <time>2021-09-23T18:47:42Z</time>
      </trkpt>
      <trkpt lat="43.92123" lon="1.9459">
        <ele>140.6</ele>
        <time>2021-09-23T18:47:44Z</time>
      </trkpt>
      <trkpt lat="43.92103" lon="1.94568">
        <ele>140.6</ele>
        <time>2021-09-23T18:47:49Z</time>
      </trkpt>
      <trkpt lat="43.92077" lon="1.94538">
        <ele>140.8</ele>
        <time>2021-09-23T18:47:55Z</time>
      </trkpt>
      <trkpt lat="43.92072" lon="1.94533">
        <ele>140.8</ele>
        <time>2021-09-23T18:47:56Z</time>
      </trkpt>
      <trkpt lat="43.92031" lon="1.94485">
        <ele>140.8</ele>
        <time>2021-09-23T18:48:04Z</time>
      </trkpt>
      <trkpt lat="43.92005" lon="1.94436">
        <ele>140.8</ele>
        <time>2021-09-23T18:48:10Z</time>
      </trkpt>
      <trkpt lat="43.91995" lon="1.94423">
        <ele>140.8</ele>
        <time>2021-09-23T18:48:12Z</time>
      </trkpt>
      <trkpt lat="43.91983" lon="1.94413">
        <ele>140.8</ele>
        <time>2021-09-23T18:48:14Z</time>
      </trkpt>
      <trkpt lat="43.91951" lon="1.94393">
        <ele>140.6</ele>
        <time>2021-09-23T18:48:19Z</time>
      </trkpt>
      <trkpt lat="43.91944" lon="1.94389">
        <ele>140.6</ele>
        <time>2021-09-23T18:48:20Z</time>
      </trkpt>
      <trkpt lat="43.91938" lon="1.94385">
        <ele>140.6</ele>
        <time>2021-09-23T18:48:21Z</time>
      </trkpt>
      <trkpt lat="43.91932" lon="1.94381">
        <ele>140.6</ele>
        <time>2021-09-23T18:48:22Z</time>
      </trkpt>
      <trkpt lat="43.91927" lon="1.94378">
        <ele>140.6</ele>
        <time>2021-09-23T18:48:23Z</time>
      </trkpt>
      <trkpt lat="43.9192" lon="1.94374">
        <ele>140.4</ele>
        <time>2021-09-23T18:48:24Z</time>
      </trkpt>
      <trkpt lat="43.91914" lon="1.9437">
        <ele>140.4</ele>
        <time>2021-09-23T18:48:25Z</time>
      </trkpt>
      <trkpt lat="43.91909" lon="1.94367">
        <ele>140.4</ele>
        <time>2021-09-23T18:48:26Z</time>
      </trkpt>
      <trkpt lat="43.91903" lon="1.94363">
        <ele>140.2</ele>
        <time>2021-09-23T18:48:27Z</time>
      </trkpt>
      <trkpt lat="43.91898" lon="1.9436">
        <ele>140.2</ele>
        <time>2021-09-23T18:48:28Z</time>
      </trkpt>
      <trkpt lat="43.91893" lon="1.94357">
        <ele>140.2</ele>
        <time>2021-09-23T18:48:29Z</time>
      </trkpt>
      <trkpt lat="43.91889" lon="1.94354">
        <ele>140.2</ele>
        <time>2021-09-23T18:48:30Z</time>
      </trkpt>
      <trkpt lat="43.91885" lon="1.94351">
        <ele>140</ele>
        <time>2021-09-23T18:48:31Z</time>
      </trkpt>
      <trkpt lat="43.91881" lon="1.94347">
        <ele>140</ele>
        <time>2021-09-23T18:48:32Z</time>
      </trkpt>
      <trkpt lat="43.91878" lon="1.94344">
        <ele>140</ele>
        <time>2021-09-23T18:48:33Z</time>
      </trkpt>
      <trkpt lat="43.91875" lon="1.9434">
        <ele>140</ele>
        <time>2021-09-23T18:48:34Z</time>
      </trkpt>
      <trkpt lat="43.91873" lon="1.94336">
        <ele>140</ele>
        <time>2021-09-23T18:48:35Z</time>
      </trkpt>
      <trkpt lat="43.9187" lon="1.94332">
        <ele>140</ele>
        <time>2021-09-23T18:48:36Z</time>
      </trkpt>
      <trkpt lat="43.91865" lon="1.94323">
        <ele>140.2</ele>
        <time>2021-09-23T18:48:38Z</time>
      </trkpt>
      <trkpt lat="43.91858" lon="1.94315">
        <ele>140.2</ele>
        <time>2021-09-23T18:48:40Z</time>
      </trkpt>
      <trkpt lat="43.91853" lon="1.94314">
        <ele>140.2</ele>
        <time>2021-09-23T18:48:41Z</time>
      </trkpt>
      <trkpt lat="43.91847" lon="1.94313">
        <ele>140.2</ele>
        <time>2021-09-23T18:48:42Z</time>
      </trkpt>
      <trkpt lat="43.91841" lon="1.94313">
        <ele>140.2</ele>
        <time>2021-09-23T18:48:43Z</time>
      </trkpt>
      <trkpt lat="43.91835" lon="1.94313">
        <ele>140</ele>
        <time>2021-09-23T18:48:44Z</time>
      </trkpt>
      <trkpt lat="43.91816" lon="1.94313">
        <ele>139.6</ele>
        <time>2021-09-23T18:48:47Z</time>
      </trkpt>
      <trkpt lat="43.91791" lon="1.94315">
        <ele>138.4</ele>
        <time>2021-09-23T18:48:51Z</time>
      </trkpt>
      <trkpt lat="43.91767" lon="1.9432">
        <ele>138</ele>
        <time>2021-09-23T18:48:55Z</time>
      </trkpt>
      <trkpt lat="43.91762" lon="1.94324">
        <ele>138</ele>
        <time>2021-09-23T18:48:56Z</time>
      </trkpt>
      <trkpt lat="43.91756" lon="1.94328">
        <ele>138</ele>
        <time>2021-09-23T18:48:57Z</time>
      </trkpt>
      <trkpt lat="43.91751" lon="1.94332">
        <ele>138</ele>
        <time>2021-09-23T18:48:58Z</time>
      </trkpt>
      <trkpt lat="43.91746" lon="1.94336">
        <ele>138</ele>
        <time>2021-09-23T18:48:59Z</time>
      </trkpt>
      <trkpt lat="43.91741" lon="1.9434">
        <ele>138</ele>
        <time>2021-09-23T18:49:00Z</time>
      </trkpt>
      <trkpt lat="43.91726" lon="1.94354">
        <ele>138.4</ele>
        <time>2021-09-23T18:49:03Z</time>
      </trkpt>
      <trkpt lat="43.91706" lon="1.94371">
        <ele>139.4</ele>
        <time>2021-09-23T18:49:07Z</time>
      </trkpt>
      <trkpt lat="43.91702" lon="1.94375">
        <ele>139.6</ele>
        <time>2021-09-23T18:49:08Z</time>
      </trkpt>
      <trkpt lat="43.91697" lon="1.9438">
        <ele>139.8</ele>
        <time>2021-09-23T18:49:09Z</time>
      </trkpt>
      <trkpt lat="43.91677" lon="1.94398">
        <ele>140.2</ele>
        <time>2021-09-23T18:49:13Z</time>
      </trkpt>
      <trkpt lat="43.91654" lon="1.94413">
        <ele>140.4</ele>
        <time>2021-09-23T18:49:17Z</time>
      </trkpt>
      <trkpt lat="43.91648" lon="1.94415">
        <ele>140.6</ele>
        <time>2021-09-23T18:49:18Z</time>
      </trkpt>
      <trkpt lat="43.91614" lon="1.94418">
        <ele>140.4</ele>
        <time>2021-09-23T18:49:23Z</time>
      </trkpt>
      <trkpt lat="43.916" lon="1.94411">
        <ele>140.2</ele>
        <time>2021-09-23T18:49:25Z</time>
      </trkpt>
      <trkpt lat="43.91594" lon="1.94404">
        <ele>140.2</ele>
        <time>2021-09-23T18:49:26Z</time>
      </trkpt>
      <trkpt lat="43.91589" lon="1.94396">
        <ele>140.2</ele>
        <time>2021-09-23T18:49:27Z</time>
      </trkpt>
      <trkpt lat="43.91585" lon="1.94387">
        <ele>140.2</ele>
        <time>2021-09-23T18:49:28Z</time>
      </trkpt>
      <trkpt lat="43.91582" lon="1.94377">
        <ele>140.2</ele>
        <time>2021-09-23T18:49:29Z</time>
      </trkpt>
      <trkpt lat="43.91578" lon="1.94367">
        <ele>140</ele>
        <time>2021-09-23T18:49:30Z</time>
      </trkpt>
      <trkpt lat="43.91556" lon="1.94298">
        <ele>139.4</ele>
        <time>2021-09-23T18:49:37Z</time>
      </trkpt>
      <trkpt lat="43.9155" lon="1.94279">
        <ele>139.2</ele>
        <time>2021-09-23T18:49:39Z</time>
      </trkpt>
      <trkpt lat="43.91528" lon="1.9421">
        <ele>138.8</ele>
        <time>2021-09-23T18:49:46Z</time>
      </trkpt>
      <trkpt lat="43.91521" lon="1.9419">
        <ele>138.8</ele>
        <time>2021-09-23T18:49:48Z</time>
      </trkpt>
      <trkpt lat="43.91502" lon="1.94131">
        <ele>138.6</ele>
        <time>2021-09-23T18:49:54Z</time>
      </trkpt>
      <trkpt lat="43.9149" lon="1.94093">
        <ele>138.6</ele>
        <time>2021-09-23T18:49:58Z</time>
      </trkpt>
      <trkpt lat="43.91486" lon="1.94084">
        <ele>138.4</ele>
        <time>2021-09-23T18:49:59Z</time>
      </trkpt>
      <trkpt lat="43.91483" lon="1.94075">
        <ele>138.2</ele>
        <time>2021-09-23T18:50:00Z</time>
      </trkpt>
      <trkpt lat="43.9148" lon="1.94066">
        <ele>138.2</ele>
        <time>2021-09-23T18:50:01Z</time>
      </trkpt>
      <trkpt lat="43.91477" lon="1.94057">
        <ele>138.2</ele>
        <time>2021-09-23T18:50:02Z</time>
      </trkpt>
      <trkpt lat="43.91474" lon="1.94047">
        <ele>138.2</ele>
        <time>2021-09-23T18:50:03Z</time>
      </trkpt>
      <trkpt lat="43.91471" lon="1.94038">
        <ele>138.2</ele>
        <time>2021-09-23T18:50:04Z</time>
      </trkpt>
      <trkpt lat="43.91456" lon="1.93991">
        <ele>137.8</ele>
        <time>2021-09-23T18:50:09Z</time>
      </trkpt>
      <trkpt lat="43.91435" lon="1.93925">
        <ele>137.6</ele>
        <time>2021-09-23T18:50:16Z</time>
      </trkpt>
      <trkpt lat="43.91429" lon="1.93906">
        <ele>137.6</ele>
        <time>2021-09-23T18:50:18Z</time>
      </trkpt>
      <trkpt lat="43.91422" lon="1.93878">
        <ele>137.6</ele>
        <time>2021-09-23T18:50:21Z</time>
      </trkpt>
      <trkpt lat="43.9142" lon="1.9387">
        <ele>137.6</ele>
        <time>2021-09-23T18:50:22Z</time>
      </trkpt>
      <trkpt lat="43.91415" lon="1.93849">
        <ele>137.6</ele>
        <time>2021-09-23T18:50:24Z</time>
      </trkpt>
      <trkpt lat="43.91402" lon="1.93778">
        <ele>137.8</ele>
        <time>2021-09-23T18:50:31Z</time>
      </trkpt>
      <trkpt lat="43.91393" lon="1.9373">
        <ele>138</ele>
        <time>2021-09-23T18:50:36Z</time>
      </trkpt>
      <trkpt lat="43.91391" lon="1.9372">
        <ele>138</ele>
        <time>2021-09-23T18:50:37Z</time>
      </trkpt>
      <trkpt lat="43.91377" lon="1.93647">
        <ele>138.2</ele>
        <time>2021-09-23T18:50:44Z</time>
      </trkpt>
      <trkpt lat="43.91373" lon="1.93625">
        <ele>138.2</ele>
        <time>2021-09-23T18:50:46Z</time>
      </trkpt>
      <trkpt lat="43.91361" lon="1.93581">
        <ele>138.4</ele>
        <time>2021-09-23T18:50:50Z</time>
      </trkpt>
      <trkpt lat="43.91341" lon="1.93533">
        <ele>138.4</ele>
        <time>2021-09-23T18:50:55Z</time>
      </trkpt>
      <trkpt lat="43.91338" lon="1.93524">
        <ele>138.2</ele>
        <time>2021-09-23T18:50:56Z</time>
      </trkpt>
      <trkpt lat="43.91335" lon="1.93515">
        <ele>138.2</ele>
        <time>2021-09-23T18:50:57Z</time>
      </trkpt>
      <trkpt lat="43.91332" lon="1.93506">
        <ele>138</ele>
        <time>2021-09-23T18:50:58Z</time>
      </trkpt>
      <trkpt lat="43.91329" lon="1.93496">
        <ele>138</ele>
        <time>2021-09-23T18:50:59Z</time>
      </trkpt>
      <trkpt lat="43.91326" lon="1.93487">
        <ele>138</ele>
        <time>2021-09-23T18:51:00Z</time>
      </trkpt>
      <trkpt lat="43.91324" lon="1.93478">
        <ele>138</ele>
        <time>2021-09-23T18:51:01Z</time>
      </trkpt>
      <trkpt lat="43.91321" lon="1.93469">
        <ele>138</ele>
        <time>2021-09-23T18:51:02Z</time>
      </trkpt>
      <trkpt lat="43.91319" lon="1.93461">
        <ele>138</ele>
        <time>2021-09-23T18:51:03Z</time>
      </trkpt>
      <trkpt lat="43.91316" lon="1.93452">
        <ele>137.8</ele>
        <time>2021-09-23T18:51:04Z</time>
      </trkpt>
      <trkpt lat="43.91314" lon="1.93443">
        <ele>137.6</ele>
        <time>2021-09-23T18:51:05Z</time>
      </trkpt>
      <trkpt lat="43.91312" lon="1.93435">
        <ele>137.6</ele>
        <time>2021-09-23T18:51:06Z</time>
      </trkpt>
      <trkpt lat="43.9131" lon="1.93426">
        <ele>137.6</ele>
        <time>2021-09-23T18:51:07Z</time>
      </trkpt>
      <trkpt lat="43.91309" lon="1.93417">
        <ele>137.6</ele>
        <time>2021-09-23T18:51:08Z</time>
      </trkpt>
      <trkpt lat="43.91307" lon="1.93409">
        <ele>137.4</ele>
        <time>2021-09-23T18:51:09Z</time>
      </trkpt>
      <trkpt lat="43.91305" lon="1.93401">
        <ele>137.4</ele>
        <time>2021-09-23T18:51:10Z</time>
      </trkpt>
      <trkpt lat="43.91303" lon="1.93392">
        <ele>137.4</ele>
        <time>2021-09-23T18:51:11Z</time>
      </trkpt>
      <trkpt lat="43.91301" lon="1.93384">
        <ele>137.4</ele>
        <time>2021-09-23T18:51:12Z</time>
      </trkpt>
      <trkpt lat="43.91299" lon="1.93376">
        <ele>137.4</ele>
        <time>2021-09-23T18:51:13Z</time>
      </trkpt>
      <trkpt lat="43.91297" lon="1.93368">
        <ele>137.4</ele>
        <time>2021-09-23T18:51:14Z</time>
      </trkpt>
      <trkpt lat="43.91296" lon="1.9336">
        <ele>137.4</ele>
        <time>2021-09-23T18:51:15Z</time>
      </trkpt>
      <trkpt lat="43.91294" lon="1.93352">
        <ele>137.4</ele>
        <time>2021-09-23T18:51:16Z</time>
      </trkpt>
      <trkpt lat="43.91292" lon="1.93344">
        <ele>137.4</ele>
        <time>2021-09-23T18:51:17Z</time>
      </trkpt>
      <trkpt lat="43.9129" lon="1.93336">
        <ele>137.6</ele>
        <time>2021-09-23T18:51:18Z</time>
      </trkpt>
      <trkpt lat="43.91288" lon="1.93328">
        <ele>137.6</ele>
        <time>2021-09-23T18:51:19Z</time>
      </trkpt>
      <trkpt lat="43.91286" lon="1.93319">
        <ele>137.6</ele>
        <time>2021-09-23T18:51:20Z</time>
      </trkpt>
      <trkpt lat="43.91274" lon="1.93238">
        <ele>137.8</ele>
        <time>2021-09-23T18:51:29Z</time>
      </trkpt>
      <trkpt lat="43.91272" lon="1.93211">
        <ele>137.6</ele>
        <time>2021-09-23T18:51:32Z</time>
      </trkpt>
      <trkpt lat="43.91268" lon="1.93195">
        <ele>137.6</ele>
        <time>2021-09-23T18:51:34Z</time>
      </trkpt>
      <trkpt lat="43.91259" lon="1.93178">
        <ele>137.2</ele>
        <time>2021-09-23T18:51:36Z</time>
      </trkpt>
      <trkpt lat="43.91253" lon="1.93172">
        <ele>137.2</ele>
        <time>2021-09-23T18:51:37Z</time>
      </trkpt>
      <trkpt lat="43.91247" lon="1.93165">
        <ele>137</ele>
        <time>2021-09-23T18:51:38Z</time>
      </trkpt>
      <trkpt lat="43.91235" lon="1.93154">
        <ele>136.4</ele>
        <time>2021-09-23T18:51:40Z</time>
      </trkpt>
      <trkpt lat="43.91212" lon="1.93126">
        <ele>135.4</ele>
        <time>2021-09-23T18:51:44Z</time>
      </trkpt>
      <trkpt lat="43.91175" lon="1.9307">
        <ele>134.2</ele>
        <time>2021-09-23T18:51:51Z</time>
      </trkpt>
      <trkpt lat="43.91134" lon="1.93008">
        <ele>133.2</ele>
        <time>2021-09-23T18:51:59Z</time>
      </trkpt>
      <trkpt lat="43.91114" lon="1.92977">
        <ele>132.8</ele>
        <time>2021-09-23T18:52:03Z</time>
      </trkpt>
      <trkpt lat="43.91074" lon="1.92914">
        <ele>132.8</ele>
        <time>2021-09-23T18:52:11Z</time>
      </trkpt>
      <trkpt lat="43.91069" lon="1.92906">
        <ele>132.8</ele>
        <time>2021-09-23T18:52:12Z</time>
      </trkpt>
      <trkpt lat="43.9105" lon="1.92859">
        <ele>132.6</ele>
        <time>2021-09-23T18:52:17Z</time>
      </trkpt>
      <trkpt lat="43.91027" lon="1.9279">
        <ele>132.4</ele>
        <time>2021-09-23T18:52:24Z</time>
      </trkpt>
      <trkpt lat="43.91013" lon="1.92729">
        <ele>132.2</ele>
        <time>2021-09-23T18:52:30Z</time>
      </trkpt>
      <trkpt lat="43.91011" lon="1.92719">
        <ele>132.2</ele>
        <time>2021-09-23T18:52:31Z</time>
      </trkpt>
      <trkpt lat="43.91007" lon="1.92699">
        <ele>132.4</ele>
        <time>2021-09-23T18:52:33Z</time>
      </trkpt>
      <trkpt lat="43.91004" lon="1.92689">
        <ele>132.4</ele>
        <time>2021-09-23T18:52:34Z</time>
      </trkpt>
      <trkpt lat="43.91002" lon="1.92679">
        <ele>132.4</ele>
        <time>2021-09-23T18:52:35Z</time>
      </trkpt>
      <trkpt lat="43.90999" lon="1.9267">
        <ele>132.4</ele>
        <time>2021-09-23T18:52:36Z</time>
      </trkpt>
      <trkpt lat="43.90997" lon="1.92662">
        <ele>132.6</ele>
        <time>2021-09-23T18:52:37Z</time>
      </trkpt>
      <trkpt lat="43.9099" lon="1.92642">
        <ele>132.6</ele>
        <time>2021-09-23T18:52:39Z</time>
      </trkpt>
      <trkpt lat="43.90986" lon="1.92633">
        <ele>132.6</ele>
        <time>2021-09-23T18:52:40Z</time>
      </trkpt>
      <trkpt lat="43.90982" lon="1.92625">
        <ele>132.8</ele>
        <time>2021-09-23T18:52:41Z</time>
      </trkpt>
      <trkpt lat="43.90978" lon="1.92617">
        <ele>132.8</ele>
        <time>2021-09-23T18:52:42Z</time>
      </trkpt>
      <trkpt lat="43.90974" lon="1.92609">
        <ele>133</ele>
        <time>2021-09-23T18:52:43Z</time>
      </trkpt>
      <trkpt lat="43.90969" lon="1.92601">
        <ele>133</ele>
        <time>2021-09-23T18:52:44Z</time>
      </trkpt>
      <trkpt lat="43.90965" lon="1.92593">
        <ele>133</ele>
        <time>2021-09-23T18:52:45Z</time>
      </trkpt>
      <trkpt lat="43.9096" lon="1.92586">
        <ele>133</ele>
        <time>2021-09-23T18:52:46Z</time>
      </trkpt>
      <trkpt lat="43.90956" lon="1.92578">
        <ele>133</ele>
        <time>2021-09-23T18:52:47Z</time>
      </trkpt>
      <trkpt lat="43.90951" lon="1.9257">
        <ele>133</ele>
        <time>2021-09-23T18:52:48Z</time>
      </trkpt>
      <trkpt lat="43.90947" lon="1.92562">
        <ele>133</ele>
        <time>2021-09-23T18:52:49Z</time>
      </trkpt>
      <trkpt lat="43.90942" lon="1.92555">
        <ele>133</ele>
        <time>2021-09-23T18:52:50Z</time>
      </trkpt>
      <trkpt lat="43.90938" lon="1.92548">
        <ele>133</ele>
        <time>2021-09-23T18:52:51Z</time>
      </trkpt>
      <trkpt lat="43.90934" lon="1.92541">
        <ele>133</ele>
        <time>2021-09-23T18:52:52Z</time>
      </trkpt>
      <trkpt lat="43.90925" lon="1.92527">
        <ele>133</ele>
        <time>2021-09-23T18:52:54Z</time>
      </trkpt>
      <trkpt lat="43.90921" lon="1.92521">
        <ele>133</ele>
        <time>2021-09-23T18:52:55Z</time>
      </trkpt>
      <trkpt lat="43.90917" lon="1.92515">
        <ele>132.8</ele>
        <time>2021-09-23T18:52:56Z</time>
      </trkpt>
      <trkpt lat="43.90914" lon="1.92509">
        <ele>132.8</ele>
        <time>2021-09-23T18:52:57Z</time>
      </trkpt>
      <trkpt lat="43.90911" lon="1.92504">
        <ele>132.8</ele>
        <time>2021-09-23T18:52:58Z</time>
      </trkpt>
      <trkpt lat="43.90907" lon="1.92497">
        <ele>132.6</ele>
        <time>2021-09-23T18:52:59Z</time>
      </trkpt>
      <trkpt lat="43.90904" lon="1.92493">
        <ele>132.6</ele>
        <time>2021-09-23T18:53:00Z</time>
      </trkpt>
      <trkpt lat="43.90901" lon="1.92488">
        <ele>132.6</ele>
        <time>2021-09-23T18:53:01Z</time>
      </trkpt>
      <trkpt lat="43.90898" lon="1.92482">
        <ele>132.6</ele>
        <time>2021-09-23T18:53:02Z</time>
      </trkpt>
      <trkpt lat="43.90895" lon="1.92476">
        <ele>132.6</ele>
        <time>2021-09-23T18:53:03Z</time>
      </trkpt>
      <trkpt lat="43.90893" lon="1.92471">
        <ele>132.6</ele>
        <time>2021-09-23T18:53:04Z</time>
      </trkpt>
      <trkpt lat="43.90892" lon="1.92466">
        <ele>132.6</ele>
        <time>2021-09-23T18:53:05Z</time>
      </trkpt>
      <trkpt lat="43.90892" lon="1.92461">
        <ele>132.6</ele>
        <time>2021-09-23T18:53:06Z</time>
      </trkpt>
      <trkpt lat="43.90892" lon="1.92456">
        <ele>132.6</ele>
        <time>2021-09-23T18:53:07Z</time>
      </trkpt>
      <trkpt lat="43.90892" lon="1.92451">
        <ele>132.6</ele>
        <time>2021-09-23T18:53:08Z</time>
      </trkpt>
      <trkpt lat="43.90893" lon="1.92447">
        <ele>132.6</ele>
        <time>2021-09-23T18:53:09Z</time>
      </trkpt>
      <trkpt lat="43.90897" lon="1.92417">
        <ele>132.6</ele>
        <time>2021-09-23T18:53:15Z</time>
      </trkpt>
      <trkpt lat="43.90906" lon="1.9236">
        <ele>132.2</ele>
        <time>2021-09-23T18:53:26Z</time>
      </trkpt>
      <trkpt lat="43.90907" lon="1.92356">
        <ele>132.2</ele>
        <time>2021-09-23T18:53:27Z</time>
      </trkpt>
      <trkpt lat="43.90908" lon="1.92352">
        <ele>132.2</ele>
        <time>2021-09-23T18:53:28Z</time>
      </trkpt>
      <trkpt lat="43.90909" lon="1.92349">
        <ele>132.2</ele>
        <time>2021-09-23T18:53:29Z</time>
      </trkpt>
      <trkpt lat="43.90909" lon="1.92347">
        <ele>132.2</ele>
        <time>2021-09-23T18:53:30Z</time>
      </trkpt>
      <trkpt lat="43.90909" lon="1.92345">
        <ele>132.2</ele>
        <time>2021-09-23T18:53:31Z</time>
      </trkpt>
      <trkpt lat="43.90909" lon="1.92344">
        <ele>132.2</ele>
        <time>2021-09-23T18:53:32Z</time>
      </trkpt>
      <trkpt lat="43.90909" lon="1.92344">
        <ele>132</ele>
        <time>2021-09-23T18:53:34Z</time>
      </trkpt>
      <trkpt lat="43.90909" lon="1.92337">
        <ele>131.8</ele>
        <time>2021-09-23T18:54:28Z</time>
      </trkpt>
      <trkpt lat="43.90909" lon="1.92332">
        <ele>131.8</ele>
        <time>2021-09-23T18:54:30Z</time>
      </trkpt>
      <trkpt lat="43.9091" lon="1.92318">
        <ele>131.8</ele>
        <time>2021-09-23T18:54:34Z</time>
      </trkpt>
      <trkpt lat="43.90912" lon="1.92301">
        <ele>131.8</ele>
        <time>2021-09-23T18:54:38Z</time>
      </trkpt>
      <trkpt lat="43.90914" lon="1.92286">
        <ele>131.8</ele>
        <time>2021-09-23T18:54:41Z</time>
      </trkpt>
      <trkpt lat="43.90916" lon="1.9227">
        <ele>131.8</ele>
        <time>2021-09-23T18:54:44Z</time>
      </trkpt>
      <trkpt lat="43.90917" lon="1.92264">
        <ele>131.8</ele>
        <time>2021-09-23T18:54:45Z</time>
      </trkpt>
      <trkpt lat="43.90919" lon="1.9224">
        <ele>131.8</ele>
        <time>2021-09-23T18:54:49Z</time>
      </trkpt>
      <trkpt lat="43.90917" lon="1.92181">
        <ele>131.6</ele>
        <time>2021-09-23T18:54:58Z</time>
      </trkpt>
      <trkpt lat="43.90914" lon="1.9216">
        <ele>131.6</ele>
        <time>2021-09-23T18:55:01Z</time>
      </trkpt>
      <trkpt lat="43.90906" lon="1.92135">
        <ele>131.8</ele>
        <time>2021-09-23T18:55:05Z</time>
      </trkpt>
      <trkpt lat="43.9088" lon="1.92074">
        <ele>131.6</ele>
        <time>2021-09-23T18:55:15Z</time>
      </trkpt>
      <trkpt lat="43.90851" lon="1.92007">
        <ele>131</ele>
        <time>2021-09-23T18:55:26Z</time>
      </trkpt>
      <trkpt lat="43.90848" lon="1.92001">
        <ele>131</ele>
        <time>2021-09-23T18:55:27Z</time>
      </trkpt>
      <trkpt lat="43.90841" lon="1.9199">
        <ele>130.6</ele>
        <time>2021-09-23T18:55:29Z</time>
      </trkpt>
      <trkpt lat="43.90828" lon="1.9197">
        <ele>130.6</ele>
        <time>2021-09-23T18:55:33Z</time>
      </trkpt>
      <trkpt lat="43.90825" lon="1.91965">
        <ele>130.6</ele>
        <time>2021-09-23T18:55:34Z</time>
      </trkpt>
      <trkpt lat="43.90821" lon="1.91961">
        <ele>130.6</ele>
        <time>2021-09-23T18:55:35Z</time>
      </trkpt>
      <trkpt lat="43.90818" lon="1.91957">
        <ele>130.6</ele>
        <time>2021-09-23T18:55:36Z</time>
      </trkpt>
      <trkpt lat="43.90815" lon="1.91953">
        <ele>130.6</ele>
        <time>2021-09-23T18:55:37Z</time>
      </trkpt>
      <trkpt lat="43.90812" lon="1.91949">
        <ele>130.8</ele>
        <time>2021-09-23T18:55:38Z</time>
      </trkpt>
      <trkpt lat="43.90809" lon="1.91944">
        <ele>130.8</ele>
        <time>2021-09-23T18:55:39Z</time>
      </trkpt>
      <trkpt lat="43.90803" lon="1.91936">
        <ele>130.8</ele>
        <time>2021-09-23T18:55:41Z</time>
      </trkpt>
      <trkpt lat="43.90801" lon="1.91932">
        <ele>131</ele>
        <time>2021-09-23T18:55:42Z</time>
      </trkpt>
      <trkpt lat="43.90798" lon="1.91927">
        <ele>131</ele>
        <time>2021-09-23T18:55:43Z</time>
      </trkpt>
      <trkpt lat="43.90793" lon="1.91917">
        <ele>131</ele>
        <time>2021-09-23T18:55:45Z</time>
      </trkpt>
      <trkpt lat="43.90791" lon="1.91912">
        <ele>131</ele>
        <time>2021-09-23T18:55:46Z</time>
      </trkpt>
      <trkpt lat="43.90787" lon="1.91902">
        <ele>131</ele>
        <time>2021-09-23T18:55:48Z</time>
      </trkpt>
      <trkpt lat="43.90787" lon="1.91891">
        <ele>131.2</ele>
        <time>2021-09-23T18:55:50Z</time>
      </trkpt>
      <trkpt lat="43.90788" lon="1.91885">
        <ele>131.2</ele>
        <time>2021-09-23T18:55:51Z</time>
      </trkpt>
      <trkpt lat="43.90789" lon="1.9188">
        <ele>131.4</ele>
        <time>2021-09-23T18:55:52Z</time>
      </trkpt>
      <trkpt lat="43.90791" lon="1.91875">
        <ele>131.4</ele>
        <time>2021-09-23T18:55:53Z</time>
      </trkpt>
      <trkpt lat="43.90794" lon="1.9187">
        <ele>131.4</ele>
        <time>2021-09-23T18:55:54Z</time>
      </trkpt>
      <trkpt lat="43.908" lon="1.91855">
        <ele>131.8</ele>
        <time>2021-09-23T18:55:57Z</time>
      </trkpt>
      <trkpt lat="43.90802" lon="1.9185">
        <ele>132</ele>
        <time>2021-09-23T18:55:58Z</time>
      </trkpt>
      <trkpt lat="43.90804" lon="1.91846">
        <ele>132.2</ele>
        <time>2021-09-23T18:55:59Z</time>
      </trkpt>
      <trkpt lat="43.90806" lon="1.91842">
        <ele>132.4</ele>
        <time>2021-09-23T18:56:00Z</time>
      </trkpt>
      <trkpt lat="43.90807" lon="1.91838">
        <ele>132.4</ele>
        <time>2021-09-23T18:56:01Z</time>
      </trkpt>
      <trkpt lat="43.90809" lon="1.91834">
        <ele>132.6</ele>
        <time>2021-09-23T18:56:02Z</time>
      </trkpt>
      <trkpt lat="43.90809" lon="1.9183">
        <ele>132.6</ele>
        <time>2021-09-23T18:56:03Z</time>
      </trkpt>
      <trkpt lat="43.90809" lon="1.91827">
        <ele>132.8</ele>
        <time>2021-09-23T18:56:04Z</time>
      </trkpt>
      <trkpt lat="43.90809" lon="1.91824">
        <ele>133.2</ele>
        <time>2021-09-23T18:56:05Z</time>
      </trkpt>
      <trkpt lat="43.90808" lon="1.91821">
        <ele>133.4</ele>
        <time>2021-09-23T18:56:06Z</time>
      </trkpt>
      <trkpt lat="43.90807" lon="1.91818">
        <ele>133.8</ele>
        <time>2021-09-23T18:56:07Z</time>
      </trkpt>
      <trkpt lat="43.90806" lon="1.91815">
        <ele>134</ele>
        <time>2021-09-23T18:56:08Z</time>
      </trkpt>
      <trkpt lat="43.90804" lon="1.91812">
        <ele>134.2</ele>
        <time>2021-09-23T18:56:09Z</time>
      </trkpt>
      <trkpt lat="43.90798" lon="1.91803">
        <ele>134.4</ele>
        <time>2021-09-23T18:56:11Z</time>
      </trkpt>
      <trkpt lat="43.90795" lon="1.91798">
        <ele>134.6</ele>
        <time>2021-09-23T18:56:12Z</time>
      </trkpt>
      <trkpt lat="43.90792" lon="1.91793">
        <ele>134.6</ele>
        <time>2021-09-23T18:56:13Z</time>
      </trkpt>
      <trkpt lat="43.90789" lon="1.91788">
        <ele>134.6</ele>
        <time>2021-09-23T18:56:14Z</time>
      </trkpt>
      <trkpt lat="43.90787" lon="1.91783">
        <ele>134.8</ele>
        <time>2021-09-23T18:56:15Z</time>
      </trkpt>
      <trkpt lat="43.90784" lon="1.91778">
        <ele>134.8</ele>
        <time>2021-09-23T18:56:16Z</time>
      </trkpt>
      <trkpt lat="43.90781" lon="1.91772">
        <ele>134.8</ele>
        <time>2021-09-23T18:56:17Z</time>
      </trkpt>
      <trkpt lat="43.90779" lon="1.91768">
        <ele>134.8</ele>
        <time>2021-09-23T18:56:18Z</time>
      </trkpt>
      <trkpt lat="43.90777" lon="1.91763">
        <ele>134.8</ele>
        <time>2021-09-23T18:56:19Z</time>
      </trkpt>
      <trkpt lat="43.90774" lon="1.91758">
        <ele>135</ele>
        <time>2021-09-23T18:56:20Z</time>
      </trkpt>
      <trkpt lat="43.90772" lon="1.91753">
        <ele>135</ele>
        <time>2021-09-23T18:56:21Z</time>
      </trkpt>
      <trkpt lat="43.90769" lon="1.91748">
        <ele>135</ele>
        <time>2021-09-23T18:56:22Z</time>
      </trkpt>
      <trkpt lat="43.90767" lon="1.91744">
        <ele>135</ele>
        <time>2021-09-23T18:56:23Z</time>
      </trkpt>
      <trkpt lat="43.90765" lon="1.9174">
        <ele>135</ele>
        <time>2021-09-23T18:56:24Z</time>
      </trkpt>
      <trkpt lat="43.90763" lon="1.91735">
        <ele>135</ele>
        <time>2021-09-23T18:56:25Z</time>
      </trkpt>
      <trkpt lat="43.9076" lon="1.9173">
        <ele>135</ele>
        <time>2021-09-23T18:56:26Z</time>
      </trkpt>
      <trkpt lat="43.90758" lon="1.91725">
        <ele>135</ele>
        <time>2021-09-23T18:56:27Z</time>
      </trkpt>
      <trkpt lat="43.90756" lon="1.9172">
        <ele>134.8</ele>
        <time>2021-09-23T18:56:28Z</time>
      </trkpt>
      <trkpt lat="43.90733" lon="1.91672">
        <ele>134.8</ele>
        <time>2021-09-23T18:56:37Z</time>
      </trkpt>
      <trkpt lat="43.90714" lon="1.91629">
        <ele>134.4</ele>
        <time>2021-09-23T18:56:45Z</time>
      </trkpt>
      <trkpt lat="43.90706" lon="1.91612">
        <ele>134.4</ele>
        <time>2021-09-23T18:56:48Z</time>
      </trkpt>
      <trkpt lat="43.90683" lon="1.91562">
        <ele>134.8</ele>
        <time>2021-09-23T18:56:57Z</time>
      </trkpt>
      <trkpt lat="43.90676" lon="1.91545">
        <ele>134.8</ele>
        <time>2021-09-23T18:57:00Z</time>
      </trkpt>
      <trkpt lat="43.90671" lon="1.91533">
        <ele>134.8</ele>
        <time>2021-09-23T18:57:02Z</time>
      </trkpt>
      <trkpt lat="43.90668" lon="1.91528">
        <ele>135</ele>
        <time>2021-09-23T18:57:03Z</time>
      </trkpt>
      <trkpt lat="43.90663" lon="1.91517">
        <ele>135</ele>
        <time>2021-09-23T18:57:05Z</time>
      </trkpt>
      <trkpt lat="43.90658" lon="1.91506">
        <ele>135</ele>
        <time>2021-09-23T18:57:07Z</time>
      </trkpt>
      <trkpt lat="43.9064" lon="1.91465">
        <ele>135</ele>
        <time>2021-09-23T18:57:14Z</time>
      </trkpt>
      <trkpt lat="43.90635" lon="1.91454">
        <ele>135</ele>
        <time>2021-09-23T18:57:16Z</time>
      </trkpt>
      <trkpt lat="43.90627" lon="1.91437">
        <ele>135</ele>
        <time>2021-09-23T18:57:19Z</time>
      </trkpt>
      <trkpt lat="43.90624" lon="1.91431">
        <ele>135</ele>
        <time>2021-09-23T18:57:20Z</time>
      </trkpt>
      <trkpt lat="43.90622" lon="1.91426">
        <ele>135</ele>
        <time>2021-09-23T18:57:21Z</time>
      </trkpt>
      <trkpt lat="43.9062" lon="1.9142">
        <ele>135</ele>
        <time>2021-09-23T18:57:22Z</time>
      </trkpt>
      <trkpt lat="43.90618" lon="1.91413">
        <ele>135</ele>
        <time>2021-09-23T18:57:23Z</time>
      </trkpt>
      <trkpt lat="43.90616" lon="1.91407">
        <ele>135</ele>
        <time>2021-09-23T18:57:24Z</time>
      </trkpt>
      <trkpt lat="43.90603" lon="1.91368">
        <ele>135</ele>
        <time>2021-09-23T18:57:30Z</time>
      </trkpt>
      <trkpt lat="43.90599" lon="1.91356">
        <ele>134.8</ele>
        <time>2021-09-23T18:57:32Z</time>
      </trkpt>
      <trkpt lat="43.90588" lon="1.91324">
        <ele>134.8</ele>
        <time>2021-09-23T18:57:37Z</time>
      </trkpt>
      <trkpt lat="43.90586" lon="1.91318">
        <ele>134.8</ele>
        <time>2021-09-23T18:57:38Z</time>
      </trkpt>
      <trkpt lat="43.90576" lon="1.91287">
        <ele>134.8</ele>
        <time>2021-09-23T18:57:43Z</time>
      </trkpt>
      <trkpt lat="43.90573" lon="1.91275">
        <ele>134.8</ele>
        <time>2021-09-23T18:57:45Z</time>
      </trkpt>
      <trkpt lat="43.90572" lon="1.9127">
        <ele>134.8</ele>
        <time>2021-09-23T18:57:46Z</time>
      </trkpt>
      <trkpt lat="43.9057" lon="1.91264">
        <ele>134.8</ele>
        <time>2021-09-23T18:57:47Z</time>
      </trkpt>
      <trkpt lat="43.90569" lon="1.91258">
        <ele>134.8</ele>
        <time>2021-09-23T18:57:48Z</time>
      </trkpt>
      <trkpt lat="43.90568" lon="1.91252">
        <ele>134.8</ele>
        <time>2021-09-23T18:57:49Z</time>
      </trkpt>
      <trkpt lat="43.90566" lon="1.91246">
        <ele>134.8</ele>
        <time>2021-09-23T18:57:50Z</time>
      </trkpt>
      <trkpt lat="43.90565" lon="1.9124">
        <ele>134.8</ele>
        <time>2021-09-23T18:57:51Z</time>
      </trkpt>
      <trkpt lat="43.90554" lon="1.91188">
        <ele>134.6</ele>
        <time>2021-09-23T18:57:59Z</time>
      </trkpt>
      <trkpt lat="43.90546" lon="1.91146">
        <ele>134.6</ele>
        <time>2021-09-23T18:58:05Z</time>
      </trkpt>
      <trkpt lat="43.90541" lon="1.91134">
        <ele>134.6</ele>
        <time>2021-09-23T18:58:07Z</time>
      </trkpt>
      <trkpt lat="43.90536" lon="1.91122">
        <ele>134.6</ele>
        <time>2021-09-23T18:58:09Z</time>
      </trkpt>
      <trkpt lat="43.90533" lon="1.91117">
        <ele>134.6</ele>
        <time>2021-09-23T18:58:10Z</time>
      </trkpt>
      <trkpt lat="43.9053" lon="1.91111">
        <ele>134.6</ele>
        <time>2021-09-23T18:58:11Z</time>
      </trkpt>
      <trkpt lat="43.90528" lon="1.91107">
        <ele>134.4</ele>
        <time>2021-09-23T18:58:12Z</time>
      </trkpt>
      <trkpt lat="43.90525" lon="1.91101">
        <ele>134.4</ele>
        <time>2021-09-23T18:58:13Z</time>
      </trkpt>
      <trkpt lat="43.90522" lon="1.91096">
        <ele>134.4</ele>
        <time>2021-09-23T18:58:14Z</time>
      </trkpt>
      <trkpt lat="43.90519" lon="1.9109">
        <ele>134.4</ele>
        <time>2021-09-23T18:58:15Z</time>
      </trkpt>
      <trkpt lat="43.90511" lon="1.91074">
        <ele>134.4</ele>
        <time>2021-09-23T18:58:18Z</time>
      </trkpt>
      <trkpt lat="43.90498" lon="1.91047">
        <ele>134.4</ele>
        <time>2021-09-23T18:58:23Z</time>
      </trkpt>
      <trkpt lat="43.90495" lon="1.91042">
        <ele>134.4</ele>
        <time>2021-09-23T18:58:24Z</time>
      </trkpt>
      <trkpt lat="43.90492" lon="1.91037">
        <ele>134.4</ele>
        <time>2021-09-23T18:58:25Z</time>
      </trkpt>
      <trkpt lat="43.9049" lon="1.91031">
        <ele>134.4</ele>
        <time>2021-09-23T18:58:26Z</time>
      </trkpt>
      <trkpt lat="43.90487" lon="1.91026">
        <ele>134.4</ele>
        <time>2021-09-23T18:58:27Z</time>
      </trkpt>
      <trkpt lat="43.9048" lon="1.9101">
        <ele>134.4</ele>
        <time>2021-09-23T18:58:30Z</time>
      </trkpt>
      <trkpt lat="43.90477" lon="1.91005">
        <ele>134.6</ele>
        <time>2021-09-23T18:58:31Z</time>
      </trkpt>
      <trkpt lat="43.90474" lon="1.91">
        <ele>134.6</ele>
        <time>2021-09-23T18:58:32Z</time>
      </trkpt>
      <trkpt lat="43.90472" lon="1.90995">
        <ele>134.6</ele>
        <time>2021-09-23T18:58:33Z</time>
      </trkpt>
      <trkpt lat="43.90469" lon="1.9099">
        <ele>134.6</ele>
        <time>2021-09-23T18:58:34Z</time>
      </trkpt>
      <trkpt lat="43.90445" lon="1.9094">
        <ele>134.6</ele>
        <time>2021-09-23T18:58:43Z</time>
      </trkpt>
      <trkpt lat="43.9044" lon="1.90922">
        <ele>134.6</ele>
        <time>2021-09-23T18:58:46Z</time>
      </trkpt>
      <trkpt lat="43.90436" lon="1.90902">
        <ele>134.6</ele>
        <time>2021-09-23T18:58:49Z</time>
      </trkpt>
      <trkpt lat="43.90436" lon="1.90896">
        <ele>134.6</ele>
        <time>2021-09-23T18:58:50Z</time>
      </trkpt>
      <trkpt lat="43.90433" lon="1.90856">
        <ele>134.8</ele>
        <time>2021-09-23T18:58:56Z</time>
      </trkpt>
      <trkpt lat="43.90432" lon="1.90844">
        <ele>134.8</ele>
        <time>2021-09-23T18:58:58Z</time>
      </trkpt>
      <trkpt lat="43.90432" lon="1.90838">
        <ele>134.8</ele>
        <time>2021-09-23T18:58:59Z</time>
      </trkpt>
      <trkpt lat="43.90431" lon="1.90833">
        <ele>134.8</ele>
        <time>2021-09-23T18:59:00Z</time>
      </trkpt>
      <trkpt lat="43.90429" lon="1.9082">
        <ele>134.8</ele>
        <time>2021-09-23T18:59:02Z</time>
      </trkpt>
      <trkpt lat="43.90429" lon="1.90814">
        <ele>134.8</ele>
        <time>2021-09-23T18:59:03Z</time>
      </trkpt>
      <trkpt lat="43.90429" lon="1.90808">
        <ele>134.8</ele>
        <time>2021-09-23T18:59:04Z</time>
      </trkpt>
      <trkpt lat="43.90428" lon="1.90803">
        <ele>135</ele>
        <time>2021-09-23T18:59:05Z</time>
      </trkpt>
      <trkpt lat="43.90428" lon="1.90797">
        <ele>135</ele>
        <time>2021-09-23T18:59:06Z</time>
      </trkpt>
      <trkpt lat="43.90428" lon="1.90793">
        <ele>135.2</ele>
        <time>2021-09-23T18:59:07Z</time>
      </trkpt>
      <trkpt lat="43.90427" lon="1.9079">
        <ele>135.2</ele>
        <time>2021-09-23T18:59:08Z</time>
      </trkpt>
      <trkpt lat="43.90427" lon="1.90787">
        <ele>135.4</ele>
        <time>2021-09-23T18:59:09Z</time>
      </trkpt>
      <trkpt lat="43.90427" lon="1.90784">
        <ele>135.4</ele>
        <time>2021-09-23T18:59:10Z</time>
      </trkpt>
      <trkpt lat="43.90426" lon="1.90782">
        <ele>135.4</ele>
        <time>2021-09-23T18:59:11Z</time>
      </trkpt>
      <trkpt lat="43.90425" lon="1.90779">
        <ele>135.6</ele>
        <time>2021-09-23T18:59:12Z</time>
      </trkpt>
      <trkpt lat="43.90424" lon="1.90776">
        <ele>135.6</ele>
        <time>2021-09-23T18:59:13Z</time>
      </trkpt>
      <trkpt lat="43.90422" lon="1.90772">
        <ele>135.8</ele>
        <time>2021-09-23T18:59:15Z</time>
      </trkpt>
      <trkpt lat="43.90413" lon="1.90752">
        <ele>135.8</ele>
        <time>2021-09-23T18:59:22Z</time>
      </trkpt>
      <trkpt lat="43.90411" lon="1.90738">
        <ele>136</ele>
        <time>2021-09-23T18:59:25Z</time>
      </trkpt>
      <trkpt lat="43.90409" lon="1.90727">
        <ele>136.2</ele>
        <time>2021-09-23T18:59:27Z</time>
      </trkpt>
      <trkpt lat="43.90395" lon="1.90695">
        <ele>135.8</ele>
        <time>2021-09-23T18:59:33Z</time>
      </trkpt>
      <trkpt lat="43.90392" lon="1.90689">
        <ele>135.8</ele>
        <time>2021-09-23T18:59:34Z</time>
      </trkpt>
      <trkpt lat="43.90373" lon="1.90648">
        <ele>135.4</ele>
        <time>2021-09-23T18:59:41Z</time>
      </trkpt>
      <trkpt lat="43.90358" lon="1.90617">
        <ele>135.4</ele>
        <time>2021-09-23T18:59:46Z</time>
      </trkpt>
      <trkpt lat="43.90349" lon="1.90601">
        <ele>135.2</ele>
        <time>2021-09-23T18:59:49Z</time>
      </trkpt>
      <trkpt lat="43.9032" lon="1.90537">
        <ele>135</ele>
        <time>2021-09-23T18:59:59Z</time>
      </trkpt>
      <trkpt lat="43.90309" lon="1.90512">
        <ele>135</ele>
        <time>2021-09-23T19:00:03Z</time>
      </trkpt>
      <trkpt lat="43.90304" lon="1.905">
        <ele>135</ele>
        <time>2021-09-23T19:00:05Z</time>
      </trkpt>
      <trkpt lat="43.90301" lon="1.90494">
        <ele>135</ele>
        <time>2021-09-23T19:00:06Z</time>
      </trkpt>
      <trkpt lat="43.90298" lon="1.90488">
        <ele>135</ele>
        <time>2021-09-23T19:00:07Z</time>
      </trkpt>
      <trkpt lat="43.90296" lon="1.90482">
        <ele>134.8</ele>
        <time>2021-09-23T19:00:08Z</time>
      </trkpt>
      <trkpt lat="43.90293" lon="1.90476">
        <ele>134.8</ele>
        <time>2021-09-23T19:00:09Z</time>
      </trkpt>
      <trkpt lat="43.9029" lon="1.9047">
        <ele>134.8</ele>
        <time>2021-09-23T19:00:10Z</time>
      </trkpt>
      <trkpt lat="43.90288" lon="1.90464">
        <ele>134.8</ele>
        <time>2021-09-23T19:00:11Z</time>
      </trkpt>
      <trkpt lat="43.90285" lon="1.90458">
        <ele>134.8</ele>
        <time>2021-09-23T19:00:12Z</time>
      </trkpt>
      <trkpt lat="43.90282" lon="1.90453">
        <ele>134.8</ele>
        <time>2021-09-23T19:00:13Z</time>
      </trkpt>
      <trkpt lat="43.90277" lon="1.90442">
        <ele>134.6</ele>
        <time>2021-09-23T19:00:15Z</time>
      </trkpt>
      <trkpt lat="43.90274" lon="1.90437">
        <ele>134.6</ele>
        <time>2021-09-23T19:00:16Z</time>
      </trkpt>
      <trkpt lat="43.90271" lon="1.90431">
        <ele>134.6</ele>
        <time>2021-09-23T19:00:17Z</time>
      </trkpt>
      <trkpt lat="43.90269" lon="1.90425">
        <ele>134.6</ele>
        <time>2021-09-23T19:00:18Z</time>
      </trkpt>
      <trkpt lat="43.90256" lon="1.90397">
        <ele>134.6</ele>
        <time>2021-09-23T19:00:23Z</time>
      </trkpt>
      <trkpt lat="43.90253" lon="1.9039">
        <ele>134.6</ele>
        <time>2021-09-23T19:00:24Z</time>
      </trkpt>
      <trkpt lat="43.90248" lon="1.90379">
        <ele>134.6</ele>
        <time>2021-09-23T19:00:26Z</time>
      </trkpt>
      <trkpt lat="43.90224" lon="1.9033">
        <ele>135.4</ele>
        <time>2021-09-23T19:00:35Z</time>
      </trkpt>
      <trkpt lat="43.90213" lon="1.90307">
        <ele>135.8</ele>
        <time>2021-09-23T19:00:39Z</time>
      </trkpt>
      <trkpt lat="43.9019" lon="1.90261">
        <ele>136.4</ele>
        <time>2021-09-23T19:00:47Z</time>
      </trkpt>
      <trkpt lat="43.90163" lon="1.90207">
        <ele>136.8</ele>
        <time>2021-09-23T19:00:56Z</time>
      </trkpt>
      <trkpt lat="43.9015" lon="1.90185">
        <ele>136.8</ele>
        <time>2021-09-23T19:01:00Z</time>
      </trkpt>
      <trkpt lat="43.90147" lon="1.9018">
        <ele>136.8</ele>
        <time>2021-09-23T19:01:01Z</time>
      </trkpt>
      <trkpt lat="43.90144" lon="1.90175">
        <ele>136.8</ele>
        <time>2021-09-23T19:01:02Z</time>
      </trkpt>
      <trkpt lat="43.90142" lon="1.90169">
        <ele>136.8</ele>
        <time>2021-09-23T19:01:03Z</time>
      </trkpt>
      <trkpt lat="43.9014" lon="1.90163">
        <ele>136.8</ele>
        <time>2021-09-23T19:01:04Z</time>
      </trkpt>
      <trkpt lat="43.90138" lon="1.90156">
        <ele>137</ele>
        <time>2021-09-23T19:01:05Z</time>
      </trkpt>
      <trkpt lat="43.90137" lon="1.90149">
        <ele>137</ele>
        <time>2021-09-23T19:01:06Z</time>
      </trkpt>
      <trkpt lat="43.90136" lon="1.90143">
        <ele>137</ele>
        <time>2021-09-23T19:01:07Z</time>
      </trkpt>
      <trkpt lat="43.90135" lon="1.90136">
        <ele>137</ele>
        <time>2021-09-23T19:01:08Z</time>
      </trkpt>
      <trkpt lat="43.90133" lon="1.90129">
        <ele>137</ele>
        <time>2021-09-23T19:01:09Z</time>
      </trkpt>
      <trkpt lat="43.90135" lon="1.90116">
        <ele>137</ele>
        <time>2021-09-23T19:01:11Z</time>
      </trkpt>
      <trkpt lat="43.90138" lon="1.9011">
        <ele>137</ele>
        <time>2021-09-23T19:01:12Z</time>
      </trkpt>
      <trkpt lat="43.90141" lon="1.90106">
        <ele>137.2</ele>
        <time>2021-09-23T19:01:13Z</time>
      </trkpt>
      <trkpt lat="43.90145" lon="1.90101">
        <ele>137.2</ele>
        <time>2021-09-23T19:01:14Z</time>
      </trkpt>
      <trkpt lat="43.9015" lon="1.90097">
        <ele>137.2</ele>
        <time>2021-09-23T19:01:15Z</time>
      </trkpt>
      <trkpt lat="43.90155" lon="1.90094">
        <ele>137.2</ele>
        <time>2021-09-23T19:01:16Z</time>
      </trkpt>
      <trkpt lat="43.90177" lon="1.90076">
        <ele>137.2</ele>
        <time>2021-09-23T19:01:21Z</time>
      </trkpt>
      <trkpt lat="43.9022" lon="1.90041">
        <ele>137</ele>
        <time>2021-09-23T19:01:30Z</time>
      </trkpt>
      <trkpt lat="43.90244" lon="1.90018">
        <ele>136.8</ele>
        <time>2021-09-23T19:01:35Z</time>
      </trkpt>
      <trkpt lat="43.90253" lon="1.90009">
        <ele>136.8</ele>
        <time>2021-09-23T19:01:37Z</time>
      </trkpt>
      <trkpt lat="43.90278" lon="1.89974">
        <ele>136.8</ele>
        <time>2021-09-23T19:01:43Z</time>
      </trkpt>
      <trkpt lat="43.90285" lon="1.8996">
        <ele>136.6</ele>
        <time>2021-09-23T19:01:45Z</time>
      </trkpt>
      <trkpt lat="43.90315" lon="1.89903">
        <ele>136.2</ele>
        <time>2021-09-23T19:01:53Z</time>
      </trkpt>
      <trkpt lat="43.90329" lon="1.89853">
        <ele>136</ele>
        <time>2021-09-23T19:01:59Z</time>
      </trkpt>
      <trkpt lat="43.90335" lon="1.8979">
        <ele>135.8</ele>
        <time>2021-09-23T19:02:06Z</time>
      </trkpt>
      <trkpt lat="43.90335" lon="1.89783">
        <ele>135.8</ele>
        <time>2021-09-23T19:02:07Z</time>
      </trkpt>
      <trkpt lat="43.90338" lon="1.89764">
        <ele>135.8</ele>
        <time>2021-09-23T19:02:09Z</time>
      </trkpt>
      <trkpt lat="43.90341" lon="1.89747">
        <ele>135.6</ele>
        <time>2021-09-23T19:02:11Z</time>
      </trkpt>
      <trkpt lat="43.90342" lon="1.8974">
        <ele>135.6</ele>
        <time>2021-09-23T19:02:12Z</time>
      </trkpt>
      <trkpt lat="43.90344" lon="1.89733">
        <ele>135.4</ele>
        <time>2021-09-23T19:02:13Z</time>
      </trkpt>
      <trkpt lat="43.90346" lon="1.89726">
        <ele>135.4</ele>
        <time>2021-09-23T19:02:14Z</time>
      </trkpt>
      <trkpt lat="43.90348" lon="1.8972">
        <ele>135.2</ele>
        <time>2021-09-23T19:02:15Z</time>
      </trkpt>
      <trkpt lat="43.90347" lon="1.89715">
        <ele>135</ele>
        <time>2021-09-23T19:02:16Z</time>
      </trkpt>
      <trkpt lat="43.90346" lon="1.89707">
        <ele>135</ele>
        <time>2021-09-23T19:02:17Z</time>
      </trkpt>
      <trkpt lat="43.90345" lon="1.89701">
        <ele>134.8</ele>
        <time>2021-09-23T19:02:18Z</time>
      </trkpt>
      <trkpt lat="43.90344" lon="1.89694">
        <ele>134.8</ele>
        <time>2021-09-23T19:02:19Z</time>
      </trkpt>
      <trkpt lat="43.90343" lon="1.89688">
        <ele>134.6</ele>
        <time>2021-09-23T19:02:20Z</time>
      </trkpt>
      <trkpt lat="43.90342" lon="1.89682">
        <ele>134.6</ele>
        <time>2021-09-23T19:02:21Z</time>
      </trkpt>
      <trkpt lat="43.90341" lon="1.89675">
        <ele>134.6</ele>
        <time>2021-09-23T19:02:22Z</time>
      </trkpt>
      <trkpt lat="43.9034" lon="1.89668">
        <ele>134.6</ele>
        <time>2021-09-23T19:02:23Z</time>
      </trkpt>
      <trkpt lat="43.90337" lon="1.89647">
        <ele>134.6</ele>
        <time>2021-09-23T19:02:26Z</time>
      </trkpt>
      <trkpt lat="43.90333" lon="1.89634">
        <ele>134.8</ele>
        <time>2021-09-23T19:02:28Z</time>
      </trkpt>
      <trkpt lat="43.90331" lon="1.8963">
        <ele>134.8</ele>
        <time>2021-09-23T19:02:29Z</time>
      </trkpt>
      <trkpt lat="43.90328" lon="1.89625">
        <ele>134.8</ele>
        <time>2021-09-23T19:02:30Z</time>
      </trkpt>
      <trkpt lat="43.90325" lon="1.89621">
        <ele>134.8</ele>
        <time>2021-09-23T19:02:31Z</time>
      </trkpt>
      <trkpt lat="43.90323" lon="1.89618">
        <ele>134.8</ele>
        <time>2021-09-23T19:02:32Z</time>
      </trkpt>
      <trkpt lat="43.9032" lon="1.89615">
        <ele>134.6</ele>
        <time>2021-09-23T19:02:33Z</time>
      </trkpt>
      <trkpt lat="43.90318" lon="1.89613">
        <ele>134.6</ele>
        <time>2021-09-23T19:02:34Z</time>
      </trkpt>
      <trkpt lat="43.90314" lon="1.89604">
        <ele>134.4</ele>
        <time>2021-09-23T19:02:36Z</time>
      </trkpt>
      <trkpt lat="43.90312" lon="1.896">
        <ele>134.2</ele>
        <time>2021-09-23T19:02:37Z</time>
      </trkpt>
      <trkpt lat="43.90311" lon="1.89597">
        <ele>134.2</ele>
        <time>2021-09-23T19:02:38Z</time>
      </trkpt>
      <trkpt lat="43.9031" lon="1.89594">
        <ele>134.2</ele>
        <time>2021-09-23T19:02:39Z</time>
      </trkpt>
      <trkpt lat="43.90309" lon="1.89591">
        <ele>134.2</ele>
        <time>2021-09-23T19:02:40Z</time>
      </trkpt>
      <trkpt lat="43.90308" lon="1.89588">
        <ele>134.2</ele>
        <time>2021-09-23T19:02:41Z</time>
      </trkpt>
      <trkpt lat="43.90307" lon="1.89587">
        <ele>134</ele>
        <time>2021-09-23T19:02:42Z</time>
      </trkpt>
      <trkpt lat="43.90306" lon="1.89586">
        <ele>134</ele>
        <time>2021-09-23T19:02:43Z</time>
      </trkpt>
      <trkpt lat="43.90305" lon="1.89584">
        <ele>134</ele>
        <time>2021-09-23T19:02:44Z</time>
      </trkpt>
      <trkpt lat="43.90305" lon="1.89583">
        <ele>134.2</ele>
        <time>2021-09-23T19:02:45Z</time>
      </trkpt>
      <trkpt lat="43.90304" lon="1.89581">
        <ele>134.2</ele>
        <time>2021-09-23T19:02:46Z</time>
      </trkpt>
      <trkpt lat="43.90304" lon="1.89579">
        <ele>134.2</ele>
        <time>2021-09-23T19:02:47Z</time>
      </trkpt>
      <trkpt lat="43.90304" lon="1.89578">
        <ele>134.2</ele>
        <time>2021-09-23T19:02:48Z</time>
      </trkpt>
      <trkpt lat="43.90304" lon="1.89577">
        <ele>134.4</ele>
        <time>2021-09-23T19:02:49Z</time>
      </trkpt>
      <trkpt lat="43.90304" lon="1.89577">
        <ele>134.4</ele>
        <time>2021-09-23T19:02:50Z</time>
      </trkpt>
      <trkpt lat="43.90304" lon="1.89577">
        <ele>134.4</ele>
        <time>2021-09-23T19:02:51Z</time>
      </trkpt>
      <trkpt lat="43.90302" lon="1.89567">
        <ele>135</ele>
        <time>2021-09-23T19:03:16Z</time>
      </trkpt>
      <trkpt lat="43.90308" lon="1.89564">
        <ele>135</ele>
        <time>2021-09-23T19:03:19Z</time>
      </trkpt>
      <trkpt lat="43.90311" lon="1.89562">
        <ele>135</ele>
        <time>2021-09-23T19:03:20Z</time>
      </trkpt>
      <trkpt lat="43.90314" lon="1.8956">
        <ele>135</ele>
        <time>2021-09-23T19:03:21Z</time>
      </trkpt>
      <trkpt lat="43.90318" lon="1.89557">
        <ele>135</ele>
        <time>2021-09-23T19:03:23Z</time>
      </trkpt>
      <trkpt lat="43.9032" lon="1.89557">
        <ele>135</ele>
        <time>2021-09-23T19:03:24Z</time>
      </trkpt>
      <trkpt lat="43.9032" lon="1.89556">
        <ele>135</ele>
        <time>2021-09-23T19:03:25Z</time>
      </trkpt>
      <trkpt lat="43.9032" lon="1.89556">
        <ele>135</ele>
        <time>2021-09-23T19:03:26Z</time>
      </trkpt>
      <trkpt lat="43.90321" lon="1.89556">
        <ele>135</ele>
        <time>2021-09-23T19:03:27Z</time>
      </trkpt>
      <trkpt lat="43.90321" lon="1.89555">
        <ele>135</ele>
        <time>2021-09-23T19:03:28Z</time>
      </trkpt>
      <trkpt lat="43.90321" lon="1.89553">
        <ele>135</ele>
        <time>2021-09-23T19:03:29Z</time>
      </trkpt>
      <trkpt lat="43.90322" lon="1.89553">
        <ele>134.8</ele>
        <time>2021-09-23T19:03:32Z</time>
      </trkpt>
      <trkpt lat="43.90319" lon="1.89535">
        <ele>134.6</ele>
        <time>2021-09-23T19:03:45Z</time>
      </trkpt>
      <trkpt lat="43.90318" lon="1.8953">
        <ele>134.6</ele>
        <time>2021-09-23T19:03:46Z</time>
      </trkpt>
      <trkpt lat="43.90316" lon="1.89522">
        <ele>134.6</ele>
        <time>2021-09-23T19:03:47Z</time>
      </trkpt>
      <trkpt lat="43.90311" lon="1.89502">
        <ele>134.2</ele>
        <time>2021-09-23T19:03:49Z</time>
      </trkpt>
      <trkpt lat="43.90309" lon="1.89478">
        <ele>133.2</ele>
        <time>2021-09-23T19:03:51Z</time>
      </trkpt>
      <trkpt lat="43.90307" lon="1.89461">
        <ele>132.2</ele>
        <time>2021-09-23T19:03:53Z</time>
      </trkpt>
      <trkpt lat="43.90305" lon="1.89454">
        <ele>131.8</ele>
        <time>2021-09-23T19:03:54Z</time>
      </trkpt>
      <trkpt lat="43.90302" lon="1.89448">
        <ele>131.6</ele>
        <time>2021-09-23T19:03:55Z</time>
      </trkpt>
      <trkpt lat="43.90299" lon="1.89443">
        <ele>131.4</ele>
        <time>2021-09-23T19:03:56Z</time>
      </trkpt>
      <trkpt lat="43.90296" lon="1.89437">
        <ele>131.4</ele>
        <time>2021-09-23T19:03:57Z</time>
      </trkpt>
      <trkpt lat="43.90292" lon="1.89427">
        <ele>131.2</ele>
        <time>2021-09-23T19:03:58Z</time>
      </trkpt>
      <trkpt lat="43.90288" lon="1.89418">
        <ele>131.2</ele>
        <time>2021-09-23T19:03:59Z</time>
      </trkpt>
      <trkpt lat="43.90277" lon="1.89388">
        <ele>130.4</ele>
        <time>2021-09-23T19:04:02Z</time>
      </trkpt>
      <trkpt lat="43.90274" lon="1.8938">
        <ele>130.2</ele>
        <time>2021-09-23T19:04:03Z</time>
      </trkpt>
      <trkpt lat="43.90272" lon="1.89374">
        <ele>130</ele>
        <time>2021-09-23T19:04:04Z</time>
      </trkpt>
      <trkpt lat="43.90269" lon="1.89371">
        <ele>129</ele>
        <time>2021-09-23T19:04:05Z</time>
      </trkpt>
      <trkpt lat="43.90267" lon="1.8937">
        <ele>128.6</ele>
        <time>2021-09-23T19:04:06Z</time>
      </trkpt>
      <trkpt lat="43.90264" lon="1.8937">
        <ele>127.4</ele>
        <time>2021-09-23T19:04:07Z</time>
      </trkpt>
      <trkpt lat="43.90261" lon="1.89369">
        <ele>127.2</ele>
        <time>2021-09-23T19:04:08Z</time>
      </trkpt>
      <trkpt lat="43.90259" lon="1.89367">
        <ele>126.4</ele>
        <time>2021-09-23T19:04:09Z</time>
      </trkpt>
      <trkpt lat="43.90257" lon="1.89364">
        <ele>126</ele>
        <time>2021-09-23T19:04:10Z</time>
      </trkpt>
      <trkpt lat="43.90256" lon="1.89361">
        <ele>125.8</ele>
        <time>2021-09-23T19:04:11Z</time>
      </trkpt>
      <trkpt lat="43.90255" lon="1.89358">
        <ele>125.6</ele>
        <time>2021-09-23T19:04:12Z</time>
      </trkpt>
      <trkpt lat="43.90254" lon="1.89355">
        <ele>125.6</ele>
        <time>2021-09-23T19:04:13Z</time>
      </trkpt>
      <trkpt lat="43.90253" lon="1.89353">
        <ele>125.4</ele>
        <time>2021-09-23T19:04:14Z</time>
      </trkpt>
      <trkpt lat="43.90252" lon="1.8935">
        <ele>125.4</ele>
        <time>2021-09-23T19:04:15Z</time>
      </trkpt>
      <trkpt lat="43.9025" lon="1.89348">
        <ele>125.6</ele>
        <time>2021-09-23T19:04:16Z</time>
      </trkpt>
      <trkpt lat="43.90249" lon="1.89345">
        <ele>125.8</ele>
        <time>2021-09-23T19:04:17Z</time>
      </trkpt>
      <trkpt lat="43.90248" lon="1.89343">
        <ele>125.8</ele>
        <time>2021-09-23T19:04:18Z</time>
      </trkpt>
      <trkpt lat="43.90247" lon="1.89341">
        <ele>126.2</ele>
        <time>2021-09-23T19:04:19Z</time>
      </trkpt>
      <trkpt lat="43.90246" lon="1.89339">
        <ele>126.4</ele>
        <time>2021-09-23T19:04:20Z</time>
      </trkpt>
      <trkpt lat="43.90245" lon="1.89337">
        <ele>126.8</ele>
        <time>2021-09-23T19:04:21Z</time>
      </trkpt>
      <trkpt lat="43.90244" lon="1.89335">
        <ele>127</ele>
        <time>2021-09-23T19:04:22Z</time>
      </trkpt>
      <trkpt lat="43.90243" lon="1.89333">
        <ele>127.2</ele>
        <time>2021-09-23T19:04:23Z</time>
      </trkpt>
      <trkpt lat="43.90242" lon="1.89332">
        <ele>127.6</ele>
        <time>2021-09-23T19:04:24Z</time>
      </trkpt>
      <trkpt lat="43.9024" lon="1.89332">
        <ele>128</ele>
        <time>2021-09-23T19:04:25Z</time>
      </trkpt>
      <trkpt lat="43.9024" lon="1.89332">
        <ele>128.6</ele>
        <time>2021-09-23T19:04:27Z</time>
      </trkpt>
      <trkpt lat="43.90235" lon="1.89333">
        <ele>130.2</ele>
        <time>2021-09-23T19:04:39Z</time>
      </trkpt>
      <trkpt lat="43.90233" lon="1.89333">
        <ele>130.2</ele>
        <time>2021-09-23T19:04:40Z</time>
      </trkpt>
      <trkpt lat="43.90232" lon="1.89332">
        <ele>130.2</ele>
        <time>2021-09-23T19:04:41Z</time>
      </trkpt>
      <trkpt lat="43.9023" lon="1.8933">
        <ele>130.2</ele>
        <time>2021-09-23T19:04:42Z</time>
      </trkpt>
      <trkpt lat="43.9023" lon="1.89328">
        <ele>130.2</ele>
        <time>2021-09-23T19:04:43Z</time>
      </trkpt>
      <trkpt lat="43.90229" lon="1.89326">
        <ele>130.2</ele>
        <time>2021-09-23T19:04:44Z</time>
      </trkpt>
      <trkpt lat="43.90229" lon="1.89324">
        <ele>130.2</ele>
        <time>2021-09-23T19:04:45Z</time>
      </trkpt>
      <trkpt lat="43.90228" lon="1.89323">
        <ele>130.2</ele>
        <time>2021-09-23T19:04:46Z</time>
      </trkpt>
      <trkpt lat="43.90227" lon="1.89322">
        <ele>130.4</ele>
        <time>2021-09-23T19:04:47Z</time>
      </trkpt>
      <trkpt lat="43.90227" lon="1.89321">
        <ele>130.4</ele>
        <time>2021-09-23T19:04:48Z</time>
      </trkpt>
      <trkpt lat="43.90227" lon="1.89321">
        <ele>130.4</ele>
        <time>2021-09-23T19:04:50Z</time>
      </trkpt>
      <trkpt lat="43.90225" lon="1.89313">
        <ele>130.6</ele>
        <time>2021-09-23T19:05:01Z</time>
      </trkpt>
      <trkpt lat="43.90226" lon="1.89311">
        <ele>130.6</ele>
        <time>2021-09-23T19:05:02Z</time>
      </trkpt>
      <trkpt lat="43.90228" lon="1.89294">
        <ele>130.6</ele>
        <time>2021-09-23T19:05:07Z</time>
      </trkpt>
      <trkpt lat="43.90229" lon="1.89287">
        <ele>130.6</ele>
        <time>2021-09-23T19:05:09Z</time>
      </trkpt>
      <trkpt lat="43.90232" lon="1.89261">
        <ele>130.6</ele>
        <time>2021-09-23T19:05:15Z</time>
      </trkpt>
      <trkpt lat="43.90237" lon="1.89222">
        <ele>130.8</ele>
        <time>2021-09-23T19:05:23Z</time>
      </trkpt>
      <trkpt lat="43.90241" lon="1.89192">
        <ele>131</ele>
        <time>2021-09-23T19:05:29Z</time>
      </trkpt>
      <trkpt lat="43.90242" lon="1.89187">
        <ele>131.2</ele>
        <time>2021-09-23T19:05:30Z</time>
      </trkpt>
      <trkpt lat="43.90245" lon="1.89166">
        <ele>131.8</ele>
        <time>2021-09-23T19:05:34Z</time>
      </trkpt>
      <trkpt lat="43.90246" lon="1.89156">
        <ele>132</ele>
        <time>2021-09-23T19:05:36Z</time>
      </trkpt>
      <trkpt lat="43.90246" lon="1.89152">
        <ele>132.4</ele>
        <time>2021-09-23T19:05:37Z</time>
      </trkpt>
      <trkpt lat="43.90245" lon="1.89147">
        <ele>132.4</ele>
        <time>2021-09-23T19:05:38Z</time>
      </trkpt>
      <trkpt lat="43.90244" lon="1.89126">
        <ele>133.2</ele>
        <time>2021-09-23T19:05:42Z</time>
      </trkpt>
      <trkpt lat="43.90244" lon="1.89117">
        <ele>133.4</ele>
        <time>2021-09-23T19:05:44Z</time>
      </trkpt>
      <trkpt lat="43.90243" lon="1.89107">
        <ele>133.8</ele>
        <time>2021-09-23T19:05:46Z</time>
      </trkpt>
      <trkpt lat="43.90243" lon="1.89103">
        <ele>133.8</ele>
        <time>2021-09-23T19:05:47Z</time>
      </trkpt>
      <trkpt lat="43.90244" lon="1.89099">
        <ele>134</ele>
        <time>2021-09-23T19:05:48Z</time>
      </trkpt>
      <trkpt lat="43.90245" lon="1.89096">
        <ele>134.2</ele>
        <time>2021-09-23T19:05:49Z</time>
      </trkpt>
      <trkpt lat="43.90246" lon="1.89094">
        <ele>134.4</ele>
        <time>2021-09-23T19:05:50Z</time>
      </trkpt>
      <trkpt lat="43.90247" lon="1.89092">
        <ele>134.6</ele>
        <time>2021-09-23T19:05:51Z</time>
      </trkpt>
      <trkpt lat="43.90247" lon="1.89089">
        <ele>134.8</ele>
        <time>2021-09-23T19:05:52Z</time>
      </trkpt>
      <trkpt lat="43.90248" lon="1.89085">
        <ele>134.8</ele>
        <time>2021-09-23T19:05:53Z</time>
      </trkpt>
      <trkpt lat="43.90249" lon="1.89082">
        <ele>135</ele>
        <time>2021-09-23T19:05:54Z</time>
      </trkpt>
      <trkpt lat="43.90249" lon="1.89078">
        <ele>135</ele>
        <time>2021-09-23T19:05:55Z</time>
      </trkpt>
      <trkpt lat="43.90249" lon="1.89074">
        <ele>135</ele>
        <time>2021-09-23T19:05:56Z</time>
      </trkpt>
      <trkpt lat="43.90247" lon="1.8907">
        <ele>135.2</ele>
        <time>2021-09-23T19:05:57Z</time>
      </trkpt>
      <trkpt lat="43.90245" lon="1.89067">
        <ele>135.4</ele>
        <time>2021-09-23T19:05:58Z</time>
      </trkpt>
      <trkpt lat="43.90242" lon="1.89065">
        <ele>135.4</ele>
        <time>2021-09-23T19:05:59Z</time>
      </trkpt>
      <trkpt lat="43.90238" lon="1.89064">
        <ele>135.6</ele>
        <time>2021-09-23T19:06:00Z</time>
      </trkpt>
      <trkpt lat="43.90235" lon="1.89063">
        <ele>135.8</ele>
        <time>2021-09-23T19:06:01Z</time>
      </trkpt>
      <trkpt lat="43.90231" lon="1.89062">
        <ele>135.8</ele>
        <time>2021-09-23T19:06:02Z</time>
      </trkpt>
      <trkpt lat="43.90228" lon="1.89061">
        <ele>135.8</ele>
        <time>2021-09-23T19:06:03Z</time>
      </trkpt>
      <trkpt lat="43.90225" lon="1.89059">
        <ele>136</ele>
        <time>2021-09-23T19:06:04Z</time>
      </trkpt>
      <trkpt lat="43.90222" lon="1.89056">
        <ele>136</ele>
        <time>2021-09-23T19:06:05Z</time>
      </trkpt>
      <trkpt lat="43.90219" lon="1.89054">
        <ele>136</ele>
        <time>2021-09-23T19:06:06Z</time>
      </trkpt>
      <trkpt lat="43.90216" lon="1.89051">
        <ele>136.2</ele>
        <time>2021-09-23T19:06:07Z</time>
      </trkpt>
      <trkpt lat="43.90213" lon="1.89048">
        <ele>136.2</ele>
        <time>2021-09-23T19:06:08Z</time>
      </trkpt>
      <trkpt lat="43.90211" lon="1.89044">
        <ele>136.2</ele>
        <time>2021-09-23T19:06:09Z</time>
      </trkpt>
      <trkpt lat="43.90208" lon="1.89041">
        <ele>136.2</ele>
        <time>2021-09-23T19:06:10Z</time>
      </trkpt>
      <trkpt lat="43.90205" lon="1.89037">
        <ele>136.2</ele>
        <time>2021-09-23T19:06:11Z</time>
      </trkpt>
      <trkpt lat="43.90203" lon="1.89034">
        <ele>136.4</ele>
        <time>2021-09-23T19:06:12Z</time>
      </trkpt>
      <trkpt lat="43.90199" lon="1.89031">
        <ele>136.4</ele>
        <time>2021-09-23T19:06:13Z</time>
      </trkpt>
      <trkpt lat="43.90196" lon="1.89028">
        <ele>136.6</ele>
        <time>2021-09-23T19:06:14Z</time>
      </trkpt>
      <trkpt lat="43.90193" lon="1.89024">
        <ele>136.6</ele>
        <time>2021-09-23T19:06:15Z</time>
      </trkpt>
      <trkpt lat="43.9019" lon="1.89021">
        <ele>136.6</ele>
        <time>2021-09-23T19:06:16Z</time>
      </trkpt>
      <trkpt lat="43.90183" lon="1.89013">
        <ele>136.6</ele>
        <time>2021-09-23T19:06:18Z</time>
      </trkpt>
      <trkpt lat="43.90157" lon="1.88983">
        <ele>136.8</ele>
        <time>2021-09-23T19:06:24Z</time>
      </trkpt>
      <trkpt lat="43.90133" lon="1.88955">
        <ele>136.2</ele>
        <time>2021-09-23T19:06:29Z</time>
      </trkpt>
      <trkpt lat="43.90128" lon="1.88949">
        <ele>136.2</ele>
        <time>2021-09-23T19:06:30Z</time>
      </trkpt>
      <trkpt lat="43.90084" lon="1.88895">
        <ele>136.2</ele>
        <time>2021-09-23T19:06:39Z</time>
      </trkpt>
      <trkpt lat="43.90069" lon="1.88879">
        <ele>136.2</ele>
        <time>2021-09-23T19:06:42Z</time>
      </trkpt>
      <trkpt lat="43.90065" lon="1.88873">
        <ele>136.2</ele>
        <time>2021-09-23T19:06:43Z</time>
      </trkpt>
      <trkpt lat="43.9006" lon="1.88868">
        <ele>136.2</ele>
        <time>2021-09-23T19:06:44Z</time>
      </trkpt>
      <trkpt lat="43.90056" lon="1.88863">
        <ele>136.4</ele>
        <time>2021-09-23T19:06:45Z</time>
      </trkpt>
      <trkpt lat="43.90045" lon="1.88851">
        <ele>136.4</ele>
        <time>2021-09-23T19:06:47Z</time>
      </trkpt>
      <trkpt lat="43.90003" lon="1.88799">
        <ele>136.2</ele>
        <time>2021-09-23T19:06:56Z</time>
      </trkpt>
      <trkpt lat="43.89998" lon="1.88793">
        <ele>136.4</ele>
        <time>2021-09-23T19:06:57Z</time>
      </trkpt>
      <trkpt lat="43.89961" lon="1.8875">
        <ele>136</ele>
        <time>2021-09-23T19:07:04Z</time>
      </trkpt>
      <trkpt lat="43.89944" lon="1.88731">
        <ele>136</ele>
        <time>2021-09-23T19:07:07Z</time>
      </trkpt>
      <trkpt lat="43.89927" lon="1.8871">
        <ele>135.8</ele>
        <time>2021-09-23T19:07:10Z</time>
      </trkpt>
      <trkpt lat="43.89882" lon="1.88658">
        <ele>136</ele>
        <time>2021-09-23T19:07:18Z</time>
      </trkpt>
      <trkpt lat="43.89841" lon="1.88609">
        <ele>136</ele>
        <time>2021-09-23T19:07:25Z</time>
      </trkpt>
      <trkpt lat="43.89815" lon="1.88579">
        <ele>136</ele>
        <time>2021-09-23T19:07:29Z</time>
      </trkpt>
      <trkpt lat="43.89809" lon="1.88571">
        <ele>136</ele>
        <time>2021-09-23T19:07:30Z</time>
      </trkpt>
      <trkpt lat="43.89796" lon="1.88557">
        <ele>136</ele>
        <time>2021-09-23T19:07:32Z</time>
      </trkpt>
      <trkpt lat="43.89784" lon="1.88544">
        <ele>136</ele>
        <time>2021-09-23T19:07:34Z</time>
      </trkpt>
      <trkpt lat="43.89779" lon="1.88537">
        <ele>136</ele>
        <time>2021-09-23T19:07:35Z</time>
      </trkpt>
      <trkpt lat="43.89773" lon="1.88531">
        <ele>136</ele>
        <time>2021-09-23T19:07:36Z</time>
      </trkpt>
      <trkpt lat="43.8977" lon="1.88525">
        <ele>136</ele>
        <time>2021-09-23T19:07:37Z</time>
      </trkpt>
      <trkpt lat="43.89765" lon="1.88516">
        <ele>135.8</ele>
        <time>2021-09-23T19:07:38Z</time>
      </trkpt>
      <trkpt lat="43.89762" lon="1.88508">
        <ele>135.8</ele>
        <time>2021-09-23T19:07:39Z</time>
      </trkpt>
      <trkpt lat="43.89759" lon="1.885">
        <ele>135.6</ele>
        <time>2021-09-23T19:07:40Z</time>
      </trkpt>
      <trkpt lat="43.89757" lon="1.88491">
        <ele>135.4</ele>
        <time>2021-09-23T19:07:41Z</time>
      </trkpt>
      <trkpt lat="43.8975" lon="1.88475">
        <ele>135.4</ele>
        <time>2021-09-23T19:07:43Z</time>
      </trkpt>
      <trkpt lat="43.89745" lon="1.88469">
        <ele>135.2</ele>
        <time>2021-09-23T19:07:44Z</time>
      </trkpt>
      <trkpt lat="43.89739" lon="1.88465">
        <ele>135.2</ele>
        <time>2021-09-23T19:07:45Z</time>
      </trkpt>
      <trkpt lat="43.89734" lon="1.88463">
        <ele>135.2</ele>
        <time>2021-09-23T19:07:46Z</time>
      </trkpt>
      <trkpt lat="43.89725" lon="1.88459">
        <ele>135.2</ele>
        <time>2021-09-23T19:07:47Z</time>
      </trkpt>
      <trkpt lat="43.89718" lon="1.88456">
        <ele>135</ele>
        <time>2021-09-23T19:07:48Z</time>
      </trkpt>
      <trkpt lat="43.8971" lon="1.88453">
        <ele>135</ele>
        <time>2021-09-23T19:07:49Z</time>
      </trkpt>
      <trkpt lat="43.8969" lon="1.88435">
        <ele>135</ele>
        <time>2021-09-23T19:07:51Z</time>
      </trkpt>
      <trkpt lat="43.89657" lon="1.88395">
        <ele>135.8</ele>
        <time>2021-09-23T19:07:57Z</time>
      </trkpt>
      <trkpt lat="43.8965" lon="1.88387">
        <ele>135.8</ele>
        <time>2021-09-23T19:07:58Z</time>
      </trkpt>
      <trkpt lat="43.89596" lon="1.88323">
        <ele>136</ele>
        <time>2021-09-23T19:08:05Z</time>
      </trkpt>
      <trkpt lat="43.89589" lon="1.88315">
        <ele>136.2</ele>
        <time>2021-09-23T19:08:06Z</time>
      </trkpt>
      <trkpt lat="43.89583" lon="1.88307">
        <ele>136.2</ele>
        <time>2021-09-23T19:08:07Z</time>
      </trkpt>
      <trkpt lat="43.89563" lon="1.88284">
        <ele>136.4</ele>
        <time>2021-09-23T19:08:10Z</time>
      </trkpt>
      <trkpt lat="43.89556" lon="1.88277">
        <ele>136.6</ele>
        <time>2021-09-23T19:08:11Z</time>
      </trkpt>
      <trkpt lat="43.89556" lon="1.88277">
        <ele>136.6</ele>
        <time>2021-09-23T19:08:12Z</time>
      </trkpt>
      <trkpt lat="43.8955" lon="1.88269">
        <ele>136.6</ele>
        <time>2021-09-23T19:08:13Z</time>
      </trkpt>
      <trkpt lat="43.8953" lon="1.88246">
        <ele>136.6</ele>
        <time>2021-09-23T19:08:15Z</time>
      </trkpt>
      <trkpt lat="43.89503" lon="1.88216">
        <ele>136.6</ele>
        <time>2021-09-23T19:08:19Z</time>
      </trkpt>
      <trkpt lat="43.89489" lon="1.88203">
        <ele>136.6</ele>
        <time>2021-09-23T19:08:21Z</time>
      </trkpt>
      <trkpt lat="43.89482" lon="1.88196">
        <ele>136.4</ele>
        <time>2021-09-23T19:08:22Z</time>
      </trkpt>
      <trkpt lat="43.89464" lon="1.88171">
        <ele>136.2</ele>
        <time>2021-09-23T19:08:25Z</time>
      </trkpt>
      <trkpt lat="43.8944" lon="1.88141">
        <ele>136</ele>
        <time>2021-09-23T19:08:29Z</time>
      </trkpt>
      <trkpt lat="43.89434" lon="1.88134">
        <ele>136</ele>
        <time>2021-09-23T19:08:30Z</time>
      </trkpt>
      <trkpt lat="43.89428" lon="1.88127">
        <ele>135.8</ele>
        <time>2021-09-23T19:08:31Z</time>
      </trkpt>
      <trkpt lat="43.89422" lon="1.88121">
        <ele>135.6</ele>
        <time>2021-09-23T19:08:32Z</time>
      </trkpt>
      <trkpt lat="43.89417" lon="1.88115">
        <ele>135.6</ele>
        <time>2021-09-23T19:08:33Z</time>
      </trkpt>
      <trkpt lat="43.89412" lon="1.88107">
        <ele>135.4</ele>
        <time>2021-09-23T19:08:34Z</time>
      </trkpt>
      <trkpt lat="43.89408" lon="1.88099">
        <ele>135.4</ele>
        <time>2021-09-23T19:08:35Z</time>
      </trkpt>
      <trkpt lat="43.89404" lon="1.8809">
        <ele>135.4</ele>
        <time>2021-09-23T19:08:36Z</time>
      </trkpt>
      <trkpt lat="43.89384" lon="1.88058">
        <ele>135.4</ele>
        <time>2021-09-23T19:08:40Z</time>
      </trkpt>
      <trkpt lat="43.89384" lon="1.88058">
        <ele>135.4</ele>
        <time>2021-09-23T19:08:41Z</time>
      </trkpt>
      <trkpt lat="43.89382" lon="1.88037">
        <ele>135.4</ele>
        <time>2021-09-23T19:08:42Z</time>
      </trkpt>
      <trkpt lat="43.89382" lon="1.88026">
        <ele>135.4</ele>
        <time>2021-09-23T19:08:43Z</time>
      </trkpt>
      <trkpt lat="43.89382" lon="1.88015">
        <ele>135.4</ele>
        <time>2021-09-23T19:08:44Z</time>
      </trkpt>
      <trkpt lat="43.8938" lon="1.88004">
        <ele>135.4</ele>
        <time>2021-09-23T19:08:45Z</time>
      </trkpt>
      <trkpt lat="43.89378" lon="1.87992">
        <ele>135.4</ele>
        <time>2021-09-23T19:08:46Z</time>
      </trkpt>
      <trkpt lat="43.89359" lon="1.87921">
        <ele>135.4</ele>
        <time>2021-09-23T19:08:52Z</time>
      </trkpt>
      <trkpt lat="43.89346" lon="1.8787">
        <ele>135.2</ele>
        <time>2021-09-23T19:08:56Z</time>
      </trkpt>
      <trkpt lat="43.89337" lon="1.8783">
        <ele>134.8</ele>
        <time>2021-09-23T19:08:59Z</time>
      </trkpt>
      <trkpt lat="43.89334" lon="1.87816">
        <ele>135</ele>
        <time>2021-09-23T19:09:00Z</time>
      </trkpt>
      <trkpt lat="43.89326" lon="1.87778">
        <ele>135.2</ele>
        <time>2021-09-23T19:09:04Z</time>
      </trkpt>
      <trkpt lat="43.89322" lon="1.87754">
        <ele>135.4</ele>
        <time>2021-09-23T19:09:05Z</time>
      </trkpt>
      <trkpt lat="43.8932" lon="1.87743">
        <ele>135.4</ele>
        <time>2021-09-23T19:09:06Z</time>
      </trkpt>
      <trkpt lat="43.89318" lon="1.87732">
        <ele>135.4</ele>
        <time>2021-09-23T19:09:07Z</time>
      </trkpt>
      <trkpt lat="43.89315" lon="1.87722">
        <ele>135.4</ele>
        <time>2021-09-23T19:09:08Z</time>
      </trkpt>
      <trkpt lat="43.89311" lon="1.87715">
        <ele>135.4</ele>
        <time>2021-09-23T19:09:09Z</time>
      </trkpt>
      <trkpt lat="43.89306" lon="1.87711">
        <ele>135.4</ele>
        <time>2021-09-23T19:09:10Z</time>
      </trkpt>
      <trkpt lat="43.89301" lon="1.87711">
        <ele>135</ele>
        <time>2021-09-23T19:09:11Z</time>
      </trkpt>
      <trkpt lat="43.89298" lon="1.87714">
        <ele>135</ele>
        <time>2021-09-23T19:09:12Z</time>
      </trkpt>
      <trkpt lat="43.89296" lon="1.87719">
        <ele>134.6</ele>
        <time>2021-09-23T19:09:13Z</time>
      </trkpt>
      <trkpt lat="43.89294" lon="1.87725">
        <ele>134.6</ele>
        <time>2021-09-23T19:09:14Z</time>
      </trkpt>
      <trkpt lat="43.89292" lon="1.87729">
        <ele>134.4</ele>
        <time>2021-09-23T19:09:15Z</time>
      </trkpt>
      <trkpt lat="43.8929" lon="1.87733">
        <ele>134.2</ele>
        <time>2021-09-23T19:09:16Z</time>
      </trkpt>
      <trkpt lat="43.89288" lon="1.87737">
        <ele>134</ele>
        <time>2021-09-23T19:09:17Z</time>
      </trkpt>
      <trkpt lat="43.89288" lon="1.87737">
        <ele>133.8</ele>
        <time>2021-09-23T19:09:18Z</time>
      </trkpt>
      <trkpt lat="43.89284" lon="1.87743">
        <ele>133.8</ele>
        <time>2021-09-23T19:09:19Z</time>
      </trkpt>
      <trkpt lat="43.89281" lon="1.87744">
        <ele>133.6</ele>
        <time>2021-09-23T19:09:20Z</time>
      </trkpt>
      <trkpt lat="43.89279" lon="1.87743">
        <ele>133.6</ele>
        <time>2021-09-23T19:09:21Z</time>
      </trkpt>
      <trkpt lat="43.89278" lon="1.87742">
        <ele>133.4</ele>
        <time>2021-09-23T19:09:22Z</time>
      </trkpt>
      <trkpt lat="43.89277" lon="1.87742">
        <ele>133.4</ele>
        <time>2021-09-23T19:09:23Z</time>
      </trkpt>
      <trkpt lat="43.89277" lon="1.87741">
        <ele>133.4</ele>
        <time>2021-09-23T19:09:24Z</time>
      </trkpt>
      <trkpt lat="43.89277" lon="1.87741">
        <ele>133.4</ele>
        <time>2021-09-23T19:09:25Z</time>
      </trkpt>
      <trkpt lat="43.89277" lon="1.87741">
        <ele>133.4</ele>
        <time>2021-09-23T19:09:26Z</time>
      </trkpt>
    </trkseg>
  </trk>
</gpx>